<?xml version="1.0" encoding="UTF-8"?>
<gpx version="1.1" creator="https://www.youtrack.es" xsi:schemaLocation="http://www.topografix.com/GPX/1/1 http://www.topografix.com/GPX/1/1/gpx.xsd http://www.garmin.com/xmlschemas/GpxExtensions/v3 http://www.garmin.com/xmlschemas/GpxExtensionsv3.xsd http://www.garmin.com/xmlschemas/TrackPointExtension/v1 http://www.garmin.com/xmlschemas/TrackPointExtensionv1.xsd" xmlns:gpxtpx="http://www.garmin.com/xmlschemas/TrackPointExtension/v1" xmlns:gpxx="http://www.garmin.com/xmlschemas/GpxExtensions/v3" xmlns:xsi="http://www.w3.org/2001/XMLSchema-instance">
  <metadata>
    <link href="https://www.youtrack.es">
      <text>YouTrack.es</text>
    </link>
    <time>2026-05-08T04:26:51Z</time>
  </metadata>
  <trk>
    <src>https://www.youtrack.es</src>
    <link href="https://www.youtrack.es/ruta/19784-atardeciendo-en-madrid">
      <text>YouTrack.es</text>
    </link>
    <trkseg>
      <trkpt lat="40.4093780" lon="-3.7172780">
        <ele>609.3</ele>
        <time>2021-02-23T16:54:45Z</time>
      </trkpt>
      <trkpt lat="40.4094300" lon="-3.7173210">
        <ele>608.8</ele>
        <time>2021-02-23T16:54:46Z</time>
      </trkpt>
      <trkpt lat="40.4094500" lon="-3.7173380">
        <ele>608.6</ele>
        <time>2021-02-23T16:54:47Z</time>
      </trkpt>
      <trkpt lat="40.4094710" lon="-3.7173550">
        <ele>608.4</ele>
        <time>2021-02-23T16:54:48Z</time>
      </trkpt>
      <trkpt lat="40.4095180" lon="-3.7173940">
        <ele>608.0</ele>
        <time>2021-02-23T16:54:49Z</time>
      </trkpt>
      <trkpt lat="40.4095330" lon="-3.7174070">
        <ele>607.9</ele>
        <time>2021-02-23T16:54:50Z</time>
      </trkpt>
      <trkpt lat="40.4095850" lon="-3.7174500">
        <ele>607.4</ele>
        <time>2021-02-23T16:54:51Z</time>
      </trkpt>
      <trkpt lat="40.4096060" lon="-3.7174680">
        <ele>607.2</ele>
        <time>2021-02-23T16:54:52Z</time>
      </trkpt>
      <trkpt lat="40.4096270" lon="-3.7174850">
        <ele>606.9</ele>
        <time>2021-02-23T16:54:53Z</time>
      </trkpt>
      <trkpt lat="40.4096800" lon="-3.7175270">
        <ele>606.4</ele>
        <time>2021-02-23T16:54:54Z</time>
      </trkpt>
      <trkpt lat="40.4097020" lon="-3.7175440">
        <ele>606.2</ele>
        <time>2021-02-23T16:54:55Z</time>
      </trkpt>
      <trkpt lat="40.4097230" lon="-3.7175610">
        <ele>606.0</ele>
        <time>2021-02-23T16:54:56Z</time>
      </trkpt>
      <trkpt lat="40.4097710" lon="-3.7175980">
        <ele>605.5</ele>
        <time>2021-02-23T16:54:57Z</time>
      </trkpt>
      <trkpt lat="40.4097870" lon="-3.7176100">
        <ele>605.3</ele>
        <time>2021-02-23T16:54:58Z</time>
      </trkpt>
      <trkpt lat="40.4098420" lon="-3.7176510">
        <ele>604.8</ele>
        <time>2021-02-23T16:54:59Z</time>
      </trkpt>
      <trkpt lat="40.4098640" lon="-3.7176660">
        <ele>604.6</ele>
        <time>2021-02-23T16:55:00Z</time>
      </trkpt>
      <trkpt lat="40.4098860" lon="-3.7176820">
        <ele>604.4</ele>
        <time>2021-02-23T16:55:01Z</time>
      </trkpt>
      <trkpt lat="40.4099360" lon="-3.7177160">
        <ele>603.9</ele>
        <time>2021-02-23T16:55:02Z</time>
      </trkpt>
      <trkpt lat="40.4099530" lon="-3.7177270">
        <ele>603.7</ele>
        <time>2021-02-23T16:55:03Z</time>
      </trkpt>
      <trkpt lat="40.4100090" lon="-3.7177620">
        <ele>603.2</ele>
        <time>2021-02-23T16:55:04Z</time>
      </trkpt>
      <trkpt lat="40.4100310" lon="-3.7177750">
        <ele>603.0</ele>
        <time>2021-02-23T16:55:05Z</time>
      </trkpt>
      <trkpt lat="40.4100540" lon="-3.7177890">
        <ele>602.7</ele>
        <time>2021-02-23T16:55:06Z</time>
      </trkpt>
      <trkpt lat="40.4101050" lon="-3.7178180">
        <ele>602.3</ele>
        <time>2021-02-23T16:55:07Z</time>
      </trkpt>
      <trkpt lat="40.4101230" lon="-3.7178280">
        <ele>602.1</ele>
        <time>2021-02-23T16:55:08Z</time>
      </trkpt>
      <trkpt lat="40.4101780" lon="-3.7178560">
        <ele>601.6</ele>
        <time>2021-02-23T16:55:09Z</time>
      </trkpt>
      <trkpt lat="40.4102010" lon="-3.7178670">
        <ele>601.5</ele>
        <time>2021-02-23T16:55:10Z</time>
      </trkpt>
      <trkpt lat="40.4102230" lon="-3.7178770">
        <ele>601.3</ele>
        <time>2021-02-23T16:55:11Z</time>
      </trkpt>
      <trkpt lat="40.4102780" lon="-3.7179010">
        <ele>600.9</ele>
        <time>2021-02-23T16:55:12Z</time>
      </trkpt>
      <trkpt lat="40.4103000" lon="-3.7179090">
        <ele>600.8</ele>
        <time>2021-02-23T16:55:13Z</time>
      </trkpt>
      <trkpt lat="40.4103220" lon="-3.7179180">
        <ele>600.6</ele>
        <time>2021-02-23T16:55:14Z</time>
      </trkpt>
      <trkpt lat="40.4103710" lon="-3.7179350">
        <ele>600.3</ele>
        <time>2021-02-23T16:55:15Z</time>
      </trkpt>
      <trkpt lat="40.4104140" lon="-3.7179480">
        <ele>600.1</ele>
        <time>2021-02-23T16:55:16Z</time>
      </trkpt>
      <trkpt lat="40.4104400" lon="-3.7179560">
        <ele>600.0</ele>
        <time>2021-02-23T16:55:17Z</time>
      </trkpt>
      <trkpt lat="40.4104620" lon="-3.7179620">
        <ele>599.8</ele>
        <time>2021-02-23T16:55:18Z</time>
      </trkpt>
      <trkpt lat="40.4104830" lon="-3.7179680">
        <ele>599.8</ele>
        <time>2021-02-23T16:55:19Z</time>
      </trkpt>
      <trkpt lat="40.4105310" lon="-3.7179790">
        <ele>599.6</ele>
        <time>2021-02-23T16:55:20Z</time>
      </trkpt>
      <trkpt lat="40.4105720" lon="-3.7179880">
        <ele>599.4</ele>
        <time>2021-02-23T16:55:21Z</time>
      </trkpt>
      <trkpt lat="40.4105980" lon="-3.7179940">
        <ele>599.3</ele>
        <time>2021-02-23T16:55:22Z</time>
      </trkpt>
      <trkpt lat="40.4106180" lon="-3.7179980">
        <ele>599.3</ele>
        <time>2021-02-23T16:55:23Z</time>
      </trkpt>
      <trkpt lat="40.4106390" lon="-3.7180020">
        <ele>599.2</ele>
        <time>2021-02-23T16:55:24Z</time>
      </trkpt>
      <trkpt lat="40.4106840" lon="-3.7180090">
        <ele>599.2</ele>
        <time>2021-02-23T16:55:25Z</time>
      </trkpt>
      <trkpt lat="40.4106990" lon="-3.7180120">
        <ele>599.1</ele>
        <time>2021-02-23T16:55:26Z</time>
      </trkpt>
      <trkpt lat="40.4107490" lon="-3.7180180">
        <ele>599.0</ele>
        <time>2021-02-23T16:55:27Z</time>
      </trkpt>
      <trkpt lat="40.4107680" lon="-3.7180210">
        <ele>599.0</ele>
        <time>2021-02-23T16:55:28Z</time>
      </trkpt>
      <trkpt lat="40.4107880" lon="-3.7180230">
        <ele>599.0</ele>
        <time>2021-02-23T16:55:29Z</time>
      </trkpt>
      <trkpt lat="40.4108370" lon="-3.7180280">
        <ele>599.5</ele>
        <time>2021-02-23T16:55:30Z</time>
      </trkpt>
      <trkpt lat="40.4108560" lon="-3.7180300">
        <ele>599.6</ele>
        <time>2021-02-23T16:55:31Z</time>
      </trkpt>
      <trkpt lat="40.4108750" lon="-3.7180310">
        <ele>599.6</ele>
        <time>2021-02-23T16:55:32Z</time>
      </trkpt>
      <trkpt lat="40.4109170" lon="-3.7180330">
        <ele>599.6</ele>
        <time>2021-02-23T16:55:33Z</time>
      </trkpt>
      <trkpt lat="40.4109300" lon="-3.7180340">
        <ele>599.6</ele>
        <time>2021-02-23T16:55:34Z</time>
      </trkpt>
      <trkpt lat="40.4109760" lon="-3.7180340">
        <ele>599.5</ele>
        <time>2021-02-23T16:55:35Z</time>
      </trkpt>
      <trkpt lat="40.4109930" lon="-3.7180340">
        <ele>599.4</ele>
        <time>2021-02-23T16:55:36Z</time>
      </trkpt>
      <trkpt lat="40.4110110" lon="-3.7180340">
        <ele>599.4</ele>
        <time>2021-02-23T16:55:37Z</time>
      </trkpt>
      <trkpt lat="40.4110500" lon="-3.7180340">
        <ele>599.3</ele>
        <time>2021-02-23T16:55:38Z</time>
      </trkpt>
      <trkpt lat="40.4110620" lon="-3.7180330">
        <ele>599.3</ele>
        <time>2021-02-23T16:55:39Z</time>
      </trkpt>
      <trkpt lat="40.4111030" lon="-3.7180300">
        <ele>599.1</ele>
        <time>2021-02-23T16:55:40Z</time>
      </trkpt>
      <trkpt lat="40.4111190" lon="-3.7180280">
        <ele>599.1</ele>
        <time>2021-02-23T16:55:41Z</time>
      </trkpt>
      <trkpt lat="40.4111350" lon="-3.7180270">
        <ele>599.0</ele>
        <time>2021-02-23T16:55:42Z</time>
      </trkpt>
      <trkpt lat="40.4111710" lon="-3.7180230">
        <ele>598.9</ele>
        <time>2021-02-23T16:55:43Z</time>
      </trkpt>
      <trkpt lat="40.4111820" lon="-3.7180210">
        <ele>598.9</ele>
        <time>2021-02-23T16:55:44Z</time>
      </trkpt>
      <trkpt lat="40.4112190" lon="-3.7180140">
        <ele>598.7</ele>
        <time>2021-02-23T16:55:45Z</time>
      </trkpt>
      <trkpt lat="40.4112340" lon="-3.7180120">
        <ele>598.7</ele>
        <time>2021-02-23T16:55:46Z</time>
      </trkpt>
      <trkpt lat="40.4112490" lon="-3.7180090">
        <ele>598.7</ele>
        <time>2021-02-23T16:55:47Z</time>
      </trkpt>
      <trkpt lat="40.4112860" lon="-3.7180000">
        <ele>598.5</ele>
        <time>2021-02-23T16:55:48Z</time>
      </trkpt>
      <trkpt lat="40.4113010" lon="-3.7179960">
        <ele>598.5</ele>
        <time>2021-02-23T16:55:49Z</time>
      </trkpt>
      <trkpt lat="40.4113160" lon="-3.7179920">
        <ele>598.5</ele>
        <time>2021-02-23T16:55:50Z</time>
      </trkpt>
      <trkpt lat="40.4113500" lon="-3.7179820">
        <ele>598.6</ele>
        <time>2021-02-23T16:55:51Z</time>
      </trkpt>
      <trkpt lat="40.4113610" lon="-3.7179780">
        <ele>598.6</ele>
        <time>2021-02-23T16:55:52Z</time>
      </trkpt>
      <trkpt lat="40.4113980" lon="-3.7179660">
        <ele>598.6</ele>
        <time>2021-02-23T16:55:53Z</time>
      </trkpt>
      <trkpt lat="40.4114130" lon="-3.7179600">
        <ele>598.6</ele>
        <time>2021-02-23T16:55:54Z</time>
      </trkpt>
      <trkpt lat="40.4114280" lon="-3.7179550">
        <ele>598.6</ele>
        <time>2021-02-23T16:55:55Z</time>
      </trkpt>
      <trkpt lat="40.4114630" lon="-3.7179430">
        <ele>598.6</ele>
        <time>2021-02-23T16:55:56Z</time>
      </trkpt>
      <trkpt lat="40.4114990" lon="-3.7179290">
        <ele>598.7</ele>
        <time>2021-02-23T16:55:57Z</time>
      </trkpt>
      <trkpt lat="40.4115230" lon="-3.7179200">
        <ele>598.7</ele>
        <time>2021-02-23T16:55:58Z</time>
      </trkpt>
      <trkpt lat="40.4115480" lon="-3.7179110">
        <ele>598.7</ele>
        <time>2021-02-23T16:55:59Z</time>
      </trkpt>
      <trkpt lat="40.4115730" lon="-3.7179020">
        <ele>598.7</ele>
        <time>2021-02-23T16:56:00Z</time>
      </trkpt>
      <trkpt lat="40.4116130" lon="-3.7178890">
        <ele>598.8</ele>
        <time>2021-02-23T16:56:01Z</time>
      </trkpt>
      <trkpt lat="40.4116260" lon="-3.7178850">
        <ele>598.8</ele>
        <time>2021-02-23T16:56:02Z</time>
      </trkpt>
      <trkpt lat="40.4116530" lon="-3.7178770">
        <ele>598.8</ele>
        <time>2021-02-23T16:56:03Z</time>
      </trkpt>
      <trkpt lat="40.4116790" lon="-3.7178700">
        <ele>598.9</ele>
        <time>2021-02-23T16:56:05Z</time>
      </trkpt>
      <trkpt lat="40.4117240" lon="-3.7178610">
        <ele>598.9</ele>
        <time>2021-02-23T16:56:06Z</time>
      </trkpt>
      <trkpt lat="40.4117410" lon="-3.7178570">
        <ele>598.9</ele>
        <time>2021-02-23T16:56:07Z</time>
      </trkpt>
      <trkpt lat="40.4117590" lon="-3.7178540">
        <ele>599.0</ele>
        <time>2021-02-23T16:56:08Z</time>
      </trkpt>
      <trkpt lat="40.4117980" lon="-3.7178510">
        <ele>599.0</ele>
        <time>2021-02-23T16:56:09Z</time>
      </trkpt>
      <trkpt lat="40.4118110" lon="-3.7178500">
        <ele>599.1</ele>
        <time>2021-02-23T16:56:10Z</time>
      </trkpt>
      <trkpt lat="40.4118520" lon="-3.7178510">
        <ele>599.1</ele>
        <time>2021-02-23T16:56:11Z</time>
      </trkpt>
      <trkpt lat="40.4118690" lon="-3.7178530">
        <ele>599.2</ele>
        <time>2021-02-23T16:56:12Z</time>
      </trkpt>
      <trkpt lat="40.4118850" lon="-3.7178540">
        <ele>599.2</ele>
        <time>2021-02-23T16:56:13Z</time>
      </trkpt>
      <trkpt lat="40.4119190" lon="-3.7178620">
        <ele>599.3</ele>
        <time>2021-02-23T16:56:14Z</time>
      </trkpt>
      <trkpt lat="40.4119300" lon="-3.7178660">
        <ele>599.3</ele>
        <time>2021-02-23T16:56:15Z</time>
      </trkpt>
      <trkpt lat="40.4119640" lon="-3.7178800">
        <ele>599.4</ele>
        <time>2021-02-23T16:56:16Z</time>
      </trkpt>
      <trkpt lat="40.4119770" lon="-3.7178880">
        <ele>599.4</ele>
        <time>2021-02-23T16:56:17Z</time>
      </trkpt>
      <trkpt lat="40.4119900" lon="-3.7178950">
        <ele>599.4</ele>
        <time>2021-02-23T16:56:18Z</time>
      </trkpt>
      <trkpt lat="40.4120080" lon="-3.7179080">
        <ele>599.5</ele>
        <time>2021-02-23T16:56:19Z</time>
      </trkpt>
      <trkpt lat="40.4120240" lon="-3.7179230">
        <ele>599.5</ele>
        <time>2021-02-23T16:56:20Z</time>
      </trkpt>
      <trkpt lat="40.4120390" lon="-3.7179400">
        <ele>599.6</ele>
        <time>2021-02-23T16:56:21Z</time>
      </trkpt>
      <trkpt lat="40.4120520" lon="-3.7179580">
        <ele>599.9</ele>
        <time>2021-02-23T16:56:22Z</time>
      </trkpt>
      <trkpt lat="40.4120650" lon="-3.7179780">
        <ele>601.2</ele>
        <time>2021-02-23T16:56:23Z</time>
      </trkpt>
      <trkpt lat="40.4120820" lon="-3.7180160">
        <ele>601.2</ele>
        <time>2021-02-23T16:56:24Z</time>
      </trkpt>
      <trkpt lat="40.4120890" lon="-3.7180320">
        <ele>601.2</ele>
        <time>2021-02-23T16:56:25Z</time>
      </trkpt>
      <trkpt lat="40.4120950" lon="-3.7180480">
        <ele>601.2</ele>
        <time>2021-02-23T16:56:26Z</time>
      </trkpt>
      <trkpt lat="40.4121070" lon="-3.7180880">
        <ele>601.3</ele>
        <time>2021-02-23T16:56:27Z</time>
      </trkpt>
      <trkpt lat="40.4121100" lon="-3.7181020">
        <ele>601.3</ele>
        <time>2021-02-23T16:56:28Z</time>
      </trkpt>
      <trkpt lat="40.4121190" lon="-3.7181520">
        <ele>600.2</ele>
        <time>2021-02-23T16:56:29Z</time>
      </trkpt>
      <trkpt lat="40.4121230" lon="-3.7181730">
        <ele>599.7</ele>
        <time>2021-02-23T16:56:30Z</time>
      </trkpt>
      <trkpt lat="40.4121260" lon="-3.7181940">
        <ele>599.2</ele>
        <time>2021-02-23T16:56:31Z</time>
      </trkpt>
      <trkpt lat="40.4121320" lon="-3.7182440">
        <ele>598.1</ele>
        <time>2021-02-23T16:56:32Z</time>
      </trkpt>
      <trkpt lat="40.4121340" lon="-3.7182620">
        <ele>597.7</ele>
        <time>2021-02-23T16:56:33Z</time>
      </trkpt>
      <trkpt lat="40.4121370" lon="-3.7183220">
        <ele>596.4</ele>
        <time>2021-02-23T16:56:34Z</time>
      </trkpt>
      <trkpt lat="40.4121390" lon="-3.7183460">
        <ele>595.9</ele>
        <time>2021-02-23T16:56:35Z</time>
      </trkpt>
      <trkpt lat="40.4121400" lon="-3.7183710">
        <ele>595.3</ele>
        <time>2021-02-23T16:56:36Z</time>
      </trkpt>
      <trkpt lat="40.4121420" lon="-3.7184270">
        <ele>594.9</ele>
        <time>2021-02-23T16:56:37Z</time>
      </trkpt>
      <trkpt lat="40.4121420" lon="-3.7184470">
        <ele>594.9</ele>
        <time>2021-02-23T16:56:38Z</time>
      </trkpt>
      <trkpt lat="40.4121420" lon="-3.7185120">
        <ele>594.9</ele>
        <time>2021-02-23T16:56:39Z</time>
      </trkpt>
      <trkpt lat="40.4121410" lon="-3.7185390">
        <ele>595.0</ele>
        <time>2021-02-23T16:56:40Z</time>
      </trkpt>
      <trkpt lat="40.4121410" lon="-3.7185650">
        <ele>594.9</ele>
        <time>2021-02-23T16:56:41Z</time>
      </trkpt>
      <trkpt lat="40.4121390" lon="-3.7186320">
        <ele>594.6</ele>
        <time>2021-02-23T16:56:42Z</time>
      </trkpt>
      <trkpt lat="40.4121380" lon="-3.7186580">
        <ele>594.5</ele>
        <time>2021-02-23T16:56:43Z</time>
      </trkpt>
      <trkpt lat="40.4121370" lon="-3.7186850">
        <ele>594.4</ele>
        <time>2021-02-23T16:56:44Z</time>
      </trkpt>
      <trkpt lat="40.4121340" lon="-3.7187450">
        <ele>594.1</ele>
        <time>2021-02-23T16:56:45Z</time>
      </trkpt>
      <trkpt lat="40.4121320" lon="-3.7187650">
        <ele>594.0</ele>
        <time>2021-02-23T16:56:46Z</time>
      </trkpt>
      <trkpt lat="40.4121280" lon="-3.7188320">
        <ele>593.8</ele>
        <time>2021-02-23T16:56:47Z</time>
      </trkpt>
      <trkpt lat="40.4121260" lon="-3.7188580">
        <ele>593.7</ele>
        <time>2021-02-23T16:56:48Z</time>
      </trkpt>
      <trkpt lat="40.4121240" lon="-3.7188850">
        <ele>593.5</ele>
        <time>2021-02-23T16:56:49Z</time>
      </trkpt>
      <trkpt lat="40.4121180" lon="-3.7189650">
        <ele>593.2</ele>
        <time>2021-02-23T16:56:50Z</time>
      </trkpt>
      <trkpt lat="40.4121150" lon="-3.7190050">
        <ele>593.1</ele>
        <time>2021-02-23T16:56:51Z</time>
      </trkpt>
      <trkpt lat="40.4121090" lon="-3.7190700">
        <ele>592.8</ele>
        <time>2021-02-23T16:56:52Z</time>
      </trkpt>
      <trkpt lat="40.4121060" lon="-3.7190970">
        <ele>592.7</ele>
        <time>2021-02-23T16:56:53Z</time>
      </trkpt>
      <trkpt lat="40.4121040" lon="-3.7191230">
        <ele>592.6</ele>
        <time>2021-02-23T16:56:54Z</time>
      </trkpt>
      <trkpt lat="40.4121000" lon="-3.7191620">
        <ele>592.5</ele>
        <time>2021-02-23T16:56:56Z</time>
      </trkpt>
      <trkpt lat="40.4120940" lon="-3.7192270">
        <ele>592.3</ele>
        <time>2021-02-23T16:56:57Z</time>
      </trkpt>
      <trkpt lat="40.4120910" lon="-3.7192530">
        <ele>592.2</ele>
        <time>2021-02-23T16:56:58Z</time>
      </trkpt>
      <trkpt lat="40.4120890" lon="-3.7192790">
        <ele>592.1</ele>
        <time>2021-02-23T16:56:59Z</time>
      </trkpt>
      <trkpt lat="40.4120830" lon="-3.7193440">
        <ele>591.8</ele>
        <time>2021-02-23T16:57:00Z</time>
      </trkpt>
      <trkpt lat="40.4120800" lon="-3.7193710">
        <ele>591.7</ele>
        <time>2021-02-23T16:57:01Z</time>
      </trkpt>
      <trkpt lat="40.4120780" lon="-3.7193970">
        <ele>591.7</ele>
        <time>2021-02-23T16:57:02Z</time>
      </trkpt>
      <trkpt lat="40.4120720" lon="-3.7194580">
        <ele>591.4</ele>
        <time>2021-02-23T16:57:03Z</time>
      </trkpt>
      <trkpt lat="40.4120680" lon="-3.7195130">
        <ele>591.2</ele>
        <time>2021-02-23T16:57:04Z</time>
      </trkpt>
      <trkpt lat="40.4120650" lon="-3.7195470">
        <ele>591.1</ele>
        <time>2021-02-23T16:57:05Z</time>
      </trkpt>
      <trkpt lat="40.4120620" lon="-3.7195750">
        <ele>591.0</ele>
        <time>2021-02-23T16:57:06Z</time>
      </trkpt>
      <trkpt lat="40.4120600" lon="-3.7196030">
        <ele>590.8</ele>
        <time>2021-02-23T16:57:07Z</time>
      </trkpt>
      <trkpt lat="40.4120540" lon="-3.7196680">
        <ele>590.6</ele>
        <time>2021-02-23T16:57:08Z</time>
      </trkpt>
      <trkpt lat="40.4120490" lon="-3.7197260">
        <ele>590.3</ele>
        <time>2021-02-23T16:57:09Z</time>
      </trkpt>
      <trkpt lat="40.4120460" lon="-3.7197620">
        <ele>590.2</ele>
        <time>2021-02-23T16:57:10Z</time>
      </trkpt>
      <trkpt lat="40.4120440" lon="-3.7197910">
        <ele>590.1</ele>
        <time>2021-02-23T16:57:11Z</time>
      </trkpt>
      <trkpt lat="40.4120410" lon="-3.7198210">
        <ele>590.0</ele>
        <time>2021-02-23T16:57:12Z</time>
      </trkpt>
      <trkpt lat="40.4120360" lon="-3.7198890">
        <ele>589.7</ele>
        <time>2021-02-23T16:57:13Z</time>
      </trkpt>
      <trkpt lat="40.4120310" lon="-3.7199490">
        <ele>589.5</ele>
        <time>2021-02-23T16:57:14Z</time>
      </trkpt>
      <trkpt lat="40.4120280" lon="-3.7199870">
        <ele>589.4</ele>
        <time>2021-02-23T16:57:15Z</time>
      </trkpt>
      <trkpt lat="40.4120250" lon="-3.7200170">
        <ele>589.3</ele>
        <time>2021-02-23T16:57:16Z</time>
      </trkpt>
      <trkpt lat="40.4120230" lon="-3.7200480">
        <ele>589.2</ele>
        <time>2021-02-23T16:57:17Z</time>
      </trkpt>
      <trkpt lat="40.4120180" lon="-3.7201250">
        <ele>589.0</ele>
        <time>2021-02-23T16:57:18Z</time>
      </trkpt>
      <trkpt lat="40.4120150" lon="-3.7201550">
        <ele>589.0</ele>
        <time>2021-02-23T16:57:19Z</time>
      </trkpt>
      <trkpt lat="40.4120130" lon="-3.7201860">
        <ele>588.9</ele>
        <time>2021-02-23T16:57:20Z</time>
      </trkpt>
      <trkpt lat="40.4120090" lon="-3.7202550">
        <ele>588.7</ele>
        <time>2021-02-23T16:57:21Z</time>
      </trkpt>
      <trkpt lat="40.4120050" lon="-3.7203150">
        <ele>588.5</ele>
        <time>2021-02-23T16:57:22Z</time>
      </trkpt>
      <trkpt lat="40.4120030" lon="-3.7203530">
        <ele>588.4</ele>
        <time>2021-02-23T16:57:23Z</time>
      </trkpt>
      <trkpt lat="40.4120010" lon="-3.7203840">
        <ele>588.4</ele>
        <time>2021-02-23T16:57:24Z</time>
      </trkpt>
      <trkpt lat="40.4120000" lon="-3.7204140">
        <ele>588.3</ele>
        <time>2021-02-23T16:57:25Z</time>
      </trkpt>
      <trkpt lat="40.4119980" lon="-3.7204820">
        <ele>588.1</ele>
        <time>2021-02-23T16:57:26Z</time>
      </trkpt>
      <trkpt lat="40.4119980" lon="-3.7205410">
        <ele>588.0</ele>
        <time>2021-02-23T16:57:27Z</time>
      </trkpt>
      <trkpt lat="40.4119980" lon="-3.7205780">
        <ele>588.0</ele>
        <time>2021-02-23T16:57:28Z</time>
      </trkpt>
      <trkpt lat="40.4119980" lon="-3.7206070">
        <ele>588.0</ele>
        <time>2021-02-23T16:57:29Z</time>
      </trkpt>
      <trkpt lat="40.4119990" lon="-3.7206360">
        <ele>588.0</ele>
        <time>2021-02-23T16:57:30Z</time>
      </trkpt>
      <trkpt lat="40.4120020" lon="-3.7207000">
        <ele>588.0</ele>
        <time>2021-02-23T16:57:31Z</time>
      </trkpt>
      <trkpt lat="40.4120030" lon="-3.7207210">
        <ele>588.0</ele>
        <time>2021-02-23T16:57:32Z</time>
      </trkpt>
      <trkpt lat="40.4120110" lon="-3.7207880">
        <ele>588.0</ele>
        <time>2021-02-23T16:57:33Z</time>
      </trkpt>
      <trkpt lat="40.4120140" lon="-3.7208150">
        <ele>588.0</ele>
        <time>2021-02-23T16:57:34Z</time>
      </trkpt>
      <trkpt lat="40.4120180" lon="-3.7208410">
        <ele>588.0</ele>
        <time>2021-02-23T16:57:35Z</time>
      </trkpt>
      <trkpt lat="40.4120320" lon="-3.7209030">
        <ele>588.0</ele>
        <time>2021-02-23T16:57:36Z</time>
      </trkpt>
      <trkpt lat="40.4120380" lon="-3.7209270">
        <ele>588.0</ele>
        <time>2021-02-23T16:57:37Z</time>
      </trkpt>
      <trkpt lat="40.4120440" lon="-3.7209510">
        <ele>588.0</ele>
        <time>2021-02-23T16:57:38Z</time>
      </trkpt>
      <trkpt lat="40.4120620" lon="-3.7210010">
        <ele>588.0</ele>
        <time>2021-02-23T16:57:39Z</time>
      </trkpt>
      <trkpt lat="40.4120680" lon="-3.7210170">
        <ele>588.0</ele>
        <time>2021-02-23T16:57:40Z</time>
      </trkpt>
      <trkpt lat="40.4120930" lon="-3.7210650">
        <ele>588.1</ele>
        <time>2021-02-23T16:57:41Z</time>
      </trkpt>
      <trkpt lat="40.4121030" lon="-3.7210840">
        <ele>588.1</ele>
        <time>2021-02-23T16:57:42Z</time>
      </trkpt>
      <trkpt lat="40.4121390" lon="-3.7211300">
        <ele>588.1</ele>
        <time>2021-02-23T16:57:43Z</time>
      </trkpt>
      <trkpt lat="40.4121630" lon="-3.7211590">
        <ele>588.4</ele>
        <time>2021-02-23T16:57:44Z</time>
      </trkpt>
      <trkpt lat="40.4121730" lon="-3.7211690">
        <ele>588.5</ele>
        <time>2021-02-23T16:57:45Z</time>
      </trkpt>
      <trkpt lat="40.4122120" lon="-3.7211970">
        <ele>588.5</ele>
        <time>2021-02-23T16:57:46Z</time>
      </trkpt>
      <trkpt lat="40.4122280" lon="-3.7212060">
        <ele>588.6</ele>
        <time>2021-02-23T16:57:47Z</time>
      </trkpt>
      <trkpt lat="40.4122440" lon="-3.7212160">
        <ele>588.6</ele>
        <time>2021-02-23T16:57:48Z</time>
      </trkpt>
      <trkpt lat="40.4122840" lon="-3.7212320">
        <ele>588.7</ele>
        <time>2021-02-23T16:57:49Z</time>
      </trkpt>
      <trkpt lat="40.4122970" lon="-3.7212370">
        <ele>588.8</ele>
        <time>2021-02-23T16:57:50Z</time>
      </trkpt>
      <trkpt lat="40.4123430" lon="-3.7212480">
        <ele>588.9</ele>
        <time>2021-02-23T16:57:51Z</time>
      </trkpt>
      <trkpt lat="40.4123630" lon="-3.7212510">
        <ele>588.9</ele>
        <time>2021-02-23T16:57:52Z</time>
      </trkpt>
      <trkpt lat="40.4123820" lon="-3.7212540">
        <ele>589.0</ele>
        <time>2021-02-23T16:57:53Z</time>
      </trkpt>
      <trkpt lat="40.4124320" lon="-3.7212560">
        <ele>589.1</ele>
        <time>2021-02-23T16:57:54Z</time>
      </trkpt>
      <trkpt lat="40.4124530" lon="-3.7212570">
        <ele>589.1</ele>
        <time>2021-02-23T16:57:55Z</time>
      </trkpt>
      <trkpt lat="40.4124730" lon="-3.7212570">
        <ele>589.2</ele>
        <time>2021-02-23T16:57:56Z</time>
      </trkpt>
      <trkpt lat="40.4125200" lon="-3.7212540">
        <ele>589.3</ele>
        <time>2021-02-23T16:57:57Z</time>
      </trkpt>
      <trkpt lat="40.4125630" lon="-3.7212510">
        <ele>589.4</ele>
        <time>2021-02-23T16:57:58Z</time>
      </trkpt>
      <trkpt lat="40.4125890" lon="-3.7212480">
        <ele>589.4</ele>
        <time>2021-02-23T16:57:59Z</time>
      </trkpt>
      <trkpt lat="40.4126100" lon="-3.7212450">
        <ele>589.5</ele>
        <time>2021-02-23T16:58:00Z</time>
      </trkpt>
      <trkpt lat="40.4126320" lon="-3.7212430">
        <ele>589.5</ele>
        <time>2021-02-23T16:58:01Z</time>
      </trkpt>
      <trkpt lat="40.4126810" lon="-3.7212360">
        <ele>589.7</ele>
        <time>2021-02-23T16:58:02Z</time>
      </trkpt>
      <trkpt lat="40.4127250" lon="-3.7212300">
        <ele>589.8</ele>
        <time>2021-02-23T16:58:03Z</time>
      </trkpt>
      <trkpt lat="40.4127520" lon="-3.7212260">
        <ele>589.8</ele>
        <time>2021-02-23T16:58:04Z</time>
      </trkpt>
      <trkpt lat="40.4127730" lon="-3.7212240">
        <ele>589.9</ele>
        <time>2021-02-23T16:58:05Z</time>
      </trkpt>
      <trkpt lat="40.4127950" lon="-3.7212210">
        <ele>590.0</ele>
        <time>2021-02-23T16:58:06Z</time>
      </trkpt>
      <trkpt lat="40.4128450" lon="-3.7212150">
        <ele>590.1</ele>
        <time>2021-02-23T16:58:07Z</time>
      </trkpt>
      <trkpt lat="40.4128890" lon="-3.7212110">
        <ele>590.2</ele>
        <time>2021-02-23T16:58:08Z</time>
      </trkpt>
      <trkpt lat="40.4129160" lon="-3.7212080">
        <ele>590.3</ele>
        <time>2021-02-23T16:58:09Z</time>
      </trkpt>
      <trkpt lat="40.4129370" lon="-3.7212060">
        <ele>590.3</ele>
        <time>2021-02-23T16:58:10Z</time>
      </trkpt>
      <trkpt lat="40.4129590" lon="-3.7212040">
        <ele>590.4</ele>
        <time>2021-02-23T16:58:11Z</time>
      </trkpt>
      <trkpt lat="40.4130120" lon="-3.7212000">
        <ele>590.6</ele>
        <time>2021-02-23T16:58:12Z</time>
      </trkpt>
      <trkpt lat="40.4130340" lon="-3.7211990">
        <ele>590.6</ele>
        <time>2021-02-23T16:58:13Z</time>
      </trkpt>
      <trkpt lat="40.4130550" lon="-3.7211980">
        <ele>590.7</ele>
        <time>2021-02-23T16:58:14Z</time>
      </trkpt>
      <trkpt lat="40.4131030" lon="-3.7211960">
        <ele>590.8</ele>
        <time>2021-02-23T16:58:15Z</time>
      </trkpt>
      <trkpt lat="40.4131440" lon="-3.7211950">
        <ele>590.9</ele>
        <time>2021-02-23T16:58:16Z</time>
      </trkpt>
      <trkpt lat="40.4131710" lon="-3.7211940">
        <ele>591.0</ele>
        <time>2021-02-23T16:58:17Z</time>
      </trkpt>
      <trkpt lat="40.4131910" lon="-3.7211940">
        <ele>591.0</ele>
        <time>2021-02-23T16:58:18Z</time>
      </trkpt>
      <trkpt lat="40.4132120" lon="-3.7211940">
        <ele>591.1</ele>
        <time>2021-02-23T16:58:19Z</time>
      </trkpt>
      <trkpt lat="40.4132570" lon="-3.7211940">
        <ele>591.2</ele>
        <time>2021-02-23T16:58:20Z</time>
      </trkpt>
      <trkpt lat="40.4132720" lon="-3.7211950">
        <ele>591.3</ele>
        <time>2021-02-23T16:58:21Z</time>
      </trkpt>
      <trkpt lat="40.4133210" lon="-3.7211960">
        <ele>591.4</ele>
        <time>2021-02-23T16:58:22Z</time>
      </trkpt>
      <trkpt lat="40.4133410" lon="-3.7211970">
        <ele>591.4</ele>
        <time>2021-02-23T16:58:23Z</time>
      </trkpt>
      <trkpt lat="40.4133600" lon="-3.7211980">
        <ele>591.5</ele>
        <time>2021-02-23T16:58:24Z</time>
      </trkpt>
      <trkpt lat="40.4134020" lon="-3.7212020">
        <ele>591.6</ele>
        <time>2021-02-23T16:58:25Z</time>
      </trkpt>
      <trkpt lat="40.4134160" lon="-3.7212040">
        <ele>591.6</ele>
        <time>2021-02-23T16:58:26Z</time>
      </trkpt>
      <trkpt lat="40.4134620" lon="-3.7212110">
        <ele>591.7</ele>
        <time>2021-02-23T16:58:27Z</time>
      </trkpt>
      <trkpt lat="40.4134790" lon="-3.7212150">
        <ele>591.8</ele>
        <time>2021-02-23T16:58:28Z</time>
      </trkpt>
      <trkpt lat="40.4134970" lon="-3.7212180">
        <ele>591.8</ele>
        <time>2021-02-23T16:58:29Z</time>
      </trkpt>
      <trkpt lat="40.4135400" lon="-3.7212310">
        <ele>591.8</ele>
        <time>2021-02-23T16:58:30Z</time>
      </trkpt>
      <trkpt lat="40.4135560" lon="-3.7212380">
        <ele>591.8</ele>
        <time>2021-02-23T16:58:31Z</time>
      </trkpt>
      <trkpt lat="40.4135730" lon="-3.7212440">
        <ele>591.8</ele>
        <time>2021-02-23T16:58:32Z</time>
      </trkpt>
      <trkpt lat="40.4136090" lon="-3.7212630">
        <ele>591.8</ele>
        <time>2021-02-23T16:58:33Z</time>
      </trkpt>
      <trkpt lat="40.4136200" lon="-3.7212700">
        <ele>591.9</ele>
        <time>2021-02-23T16:58:34Z</time>
      </trkpt>
      <trkpt lat="40.4136580" lon="-3.7212990">
        <ele>591.8</ele>
        <time>2021-02-23T16:58:35Z</time>
      </trkpt>
      <trkpt lat="40.4136720" lon="-3.7213120">
        <ele>591.8</ele>
        <time>2021-02-23T16:58:36Z</time>
      </trkpt>
      <trkpt lat="40.4136870" lon="-3.7213250">
        <ele>591.7</ele>
        <time>2021-02-23T16:58:37Z</time>
      </trkpt>
      <trkpt lat="40.4137190" lon="-3.7213590">
        <ele>591.7</ele>
        <time>2021-02-23T16:58:38Z</time>
      </trkpt>
      <trkpt lat="40.4137290" lon="-3.7213720">
        <ele>591.5</ele>
        <time>2021-02-23T16:58:39Z</time>
      </trkpt>
      <trkpt lat="40.4137620" lon="-3.7214170">
        <ele>591.3</ele>
        <time>2021-02-23T16:58:40Z</time>
      </trkpt>
      <trkpt lat="40.4137760" lon="-3.7214360">
        <ele>591.4</ele>
        <time>2021-02-23T16:58:41Z</time>
      </trkpt>
      <trkpt lat="40.4137890" lon="-3.7214550">
        <ele>591.3</ele>
        <time>2021-02-23T16:58:42Z</time>
      </trkpt>
      <trkpt lat="40.4138190" lon="-3.7215010">
        <ele>591.0</ele>
        <time>2021-02-23T16:58:43Z</time>
      </trkpt>
      <trkpt lat="40.4138450" lon="-3.7215440">
        <ele>590.8</ele>
        <time>2021-02-23T16:58:44Z</time>
      </trkpt>
      <trkpt lat="40.4138610" lon="-3.7215710">
        <ele>590.8</ele>
        <time>2021-02-23T16:58:45Z</time>
      </trkpt>
      <trkpt lat="40.4138740" lon="-3.7215920">
        <ele>590.7</ele>
        <time>2021-02-23T16:58:46Z</time>
      </trkpt>
      <trkpt lat="40.4138870" lon="-3.7216140">
        <ele>590.8</ele>
        <time>2021-02-23T16:58:47Z</time>
      </trkpt>
      <trkpt lat="40.4139200" lon="-3.7216670">
        <ele>590.4</ele>
        <time>2021-02-23T16:58:48Z</time>
      </trkpt>
      <trkpt lat="40.4139340" lon="-3.7216890">
        <ele>590.4</ele>
        <time>2021-02-23T16:58:49Z</time>
      </trkpt>
      <trkpt lat="40.4139470" lon="-3.7217100">
        <ele>590.3</ele>
        <time>2021-02-23T16:58:50Z</time>
      </trkpt>
      <trkpt lat="40.4139790" lon="-3.7217570">
        <ele>590.1</ele>
        <time>2021-02-23T16:58:51Z</time>
      </trkpt>
      <trkpt lat="40.4140090" lon="-3.7217940">
        <ele>590.0</ele>
        <time>2021-02-23T16:58:52Z</time>
      </trkpt>
      <trkpt lat="40.4140290" lon="-3.7218160">
        <ele>590.0</ele>
        <time>2021-02-23T16:58:53Z</time>
      </trkpt>
      <trkpt lat="40.4140480" lon="-3.7218280">
        <ele>590.1</ele>
        <time>2021-02-23T16:58:54Z</time>
      </trkpt>
      <trkpt lat="40.4140680" lon="-3.7218410">
        <ele>590.0</ele>
        <time>2021-02-23T16:58:55Z</time>
      </trkpt>
      <trkpt lat="40.4141170" lon="-3.7218560">
        <ele>590.1</ele>
        <time>2021-02-23T16:58:56Z</time>
      </trkpt>
      <trkpt lat="40.4141600" lon="-3.7218680">
        <ele>589.9</ele>
        <time>2021-02-23T16:58:57Z</time>
      </trkpt>
      <trkpt lat="40.4141870" lon="-3.7218750">
        <ele>589.7</ele>
        <time>2021-02-23T16:58:58Z</time>
      </trkpt>
      <trkpt lat="40.4142080" lon="-3.7218810">
        <ele>589.6</ele>
        <time>2021-02-23T16:58:59Z</time>
      </trkpt>
      <trkpt lat="40.4142300" lon="-3.7218860">
        <ele>589.5</ele>
        <time>2021-02-23T16:59:00Z</time>
      </trkpt>
      <trkpt lat="40.4142910" lon="-3.7218980">
        <ele>589.1</ele>
        <time>2021-02-23T16:59:02Z</time>
      </trkpt>
      <trkpt lat="40.4143180" lon="-3.7219030">
        <ele>588.9</ele>
        <time>2021-02-23T16:59:03Z</time>
      </trkpt>
      <trkpt lat="40.4143390" lon="-3.7219060">
        <ele>588.8</ele>
        <time>2021-02-23T16:59:04Z</time>
      </trkpt>
      <trkpt lat="40.4143610" lon="-3.7219100">
        <ele>588.7</ele>
        <time>2021-02-23T16:59:05Z</time>
      </trkpt>
      <trkpt lat="40.4144160" lon="-3.7219180">
        <ele>588.3</ele>
        <time>2021-02-23T16:59:06Z</time>
      </trkpt>
      <trkpt lat="40.4144380" lon="-3.7219210">
        <ele>588.2</ele>
        <time>2021-02-23T16:59:07Z</time>
      </trkpt>
      <trkpt lat="40.4144600" lon="-3.7219240">
        <ele>588.0</ele>
        <time>2021-02-23T16:59:08Z</time>
      </trkpt>
      <trkpt lat="40.4145100" lon="-3.7219310">
        <ele>587.7</ele>
        <time>2021-02-23T16:59:09Z</time>
      </trkpt>
      <trkpt lat="40.4145540" lon="-3.7219360">
        <ele>587.5</ele>
        <time>2021-02-23T16:59:10Z</time>
      </trkpt>
      <trkpt lat="40.4145810" lon="-3.7219400">
        <ele>587.3</ele>
        <time>2021-02-23T16:59:11Z</time>
      </trkpt>
      <trkpt lat="40.4146030" lon="-3.7219430">
        <ele>587.3</ele>
        <time>2021-02-23T16:59:12Z</time>
      </trkpt>
      <trkpt lat="40.4146250" lon="-3.7219460">
        <ele>587.2</ele>
        <time>2021-02-23T16:59:13Z</time>
      </trkpt>
      <trkpt lat="40.4146750" lon="-3.7219520">
        <ele>587.2</ele>
        <time>2021-02-23T16:59:14Z</time>
      </trkpt>
      <trkpt lat="40.4147190" lon="-3.7219580">
        <ele>587.2</ele>
        <time>2021-02-23T16:59:15Z</time>
      </trkpt>
      <trkpt lat="40.4147460" lon="-3.7219620">
        <ele>587.1</ele>
        <time>2021-02-23T16:59:16Z</time>
      </trkpt>
      <trkpt lat="40.4147680" lon="-3.7219640">
        <ele>587.1</ele>
        <time>2021-02-23T16:59:17Z</time>
      </trkpt>
      <trkpt lat="40.4147900" lon="-3.7219670">
        <ele>587.1</ele>
        <time>2021-02-23T16:59:18Z</time>
      </trkpt>
      <trkpt lat="40.4148390" lon="-3.7219740">
        <ele>587.1</ele>
        <time>2021-02-23T16:59:19Z</time>
      </trkpt>
      <trkpt lat="40.4148820" lon="-3.7219790">
        <ele>587.1</ele>
        <time>2021-02-23T16:59:20Z</time>
      </trkpt>
      <trkpt lat="40.4149080" lon="-3.7219830">
        <ele>587.1</ele>
        <time>2021-02-23T16:59:21Z</time>
      </trkpt>
      <trkpt lat="40.4149300" lon="-3.7219850">
        <ele>587.1</ele>
        <time>2021-02-23T16:59:22Z</time>
      </trkpt>
      <trkpt lat="40.4149510" lon="-3.7219880">
        <ele>587.1</ele>
        <time>2021-02-23T16:59:23Z</time>
      </trkpt>
      <trkpt lat="40.4150040" lon="-3.7219940">
        <ele>587.1</ele>
        <time>2021-02-23T16:59:24Z</time>
      </trkpt>
      <trkpt lat="40.4150250" lon="-3.7219970">
        <ele>587.1</ele>
        <time>2021-02-23T16:59:25Z</time>
      </trkpt>
      <trkpt lat="40.4150460" lon="-3.7219990">
        <ele>587.1</ele>
        <time>2021-02-23T16:59:26Z</time>
      </trkpt>
      <trkpt lat="40.4150940" lon="-3.7220050">
        <ele>587.1</ele>
        <time>2021-02-23T16:59:27Z</time>
      </trkpt>
      <trkpt lat="40.4151350" lon="-3.7220090">
        <ele>587.1</ele>
        <time>2021-02-23T16:59:28Z</time>
      </trkpt>
      <trkpt lat="40.4151610" lon="-3.7220120">
        <ele>587.1</ele>
        <time>2021-02-23T16:59:29Z</time>
      </trkpt>
      <trkpt lat="40.4151810" lon="-3.7220150">
        <ele>587.1</ele>
        <time>2021-02-23T16:59:30Z</time>
      </trkpt>
      <trkpt lat="40.4152020" lon="-3.7220170">
        <ele>587.1</ele>
        <time>2021-02-23T16:59:31Z</time>
      </trkpt>
      <trkpt lat="40.4152490" lon="-3.7220210">
        <ele>587.2</ele>
        <time>2021-02-23T16:59:32Z</time>
      </trkpt>
      <trkpt lat="40.4152900" lon="-3.7220240">
        <ele>587.2</ele>
        <time>2021-02-23T16:59:33Z</time>
      </trkpt>
      <trkpt lat="40.4153160" lon="-3.7220260">
        <ele>587.2</ele>
        <time>2021-02-23T16:59:34Z</time>
      </trkpt>
      <trkpt lat="40.4153360" lon="-3.7220280">
        <ele>587.2</ele>
        <time>2021-02-23T16:59:35Z</time>
      </trkpt>
      <trkpt lat="40.4153570" lon="-3.7220290">
        <ele>587.3</ele>
        <time>2021-02-23T16:59:36Z</time>
      </trkpt>
      <trkpt lat="40.4154090" lon="-3.7220320">
        <ele>587.3</ele>
        <time>2021-02-23T16:59:37Z</time>
      </trkpt>
      <trkpt lat="40.4154300" lon="-3.7220320">
        <ele>587.3</ele>
        <time>2021-02-23T16:59:38Z</time>
      </trkpt>
      <trkpt lat="40.4154510" lon="-3.7220330">
        <ele>587.4</ele>
        <time>2021-02-23T16:59:39Z</time>
      </trkpt>
      <trkpt lat="40.4154980" lon="-3.7220340">
        <ele>587.4</ele>
        <time>2021-02-23T16:59:40Z</time>
      </trkpt>
      <trkpt lat="40.4155460" lon="-3.7220350">
        <ele>587.5</ele>
        <time>2021-02-23T16:59:41Z</time>
      </trkpt>
      <trkpt lat="40.4155770" lon="-3.7220360">
        <ele>587.5</ele>
        <time>2021-02-23T16:59:42Z</time>
      </trkpt>
      <trkpt lat="40.4156080" lon="-3.7220370">
        <ele>587.5</ele>
        <time>2021-02-23T16:59:43Z</time>
      </trkpt>
      <trkpt lat="40.4156400" lon="-3.7220380">
        <ele>587.5</ele>
        <time>2021-02-23T16:59:44Z</time>
      </trkpt>
      <trkpt lat="40.4156880" lon="-3.7220400">
        <ele>587.6</ele>
        <time>2021-02-23T16:59:45Z</time>
      </trkpt>
      <trkpt lat="40.4157300" lon="-3.7220430">
        <ele>587.6</ele>
        <time>2021-02-23T16:59:46Z</time>
      </trkpt>
      <trkpt lat="40.4157560" lon="-3.7220460">
        <ele>587.6</ele>
        <time>2021-02-23T16:59:47Z</time>
      </trkpt>
      <trkpt lat="40.4157760" lon="-3.7220480">
        <ele>587.6</ele>
        <time>2021-02-23T16:59:48Z</time>
      </trkpt>
      <trkpt lat="40.4157970" lon="-3.7220500">
        <ele>587.6</ele>
        <time>2021-02-23T16:59:49Z</time>
      </trkpt>
      <trkpt lat="40.4158450" lon="-3.7220570">
        <ele>587.7</ele>
        <time>2021-02-23T16:59:50Z</time>
      </trkpt>
      <trkpt lat="40.4158860" lon="-3.7220630">
        <ele>587.7</ele>
        <time>2021-02-23T16:59:51Z</time>
      </trkpt>
      <trkpt lat="40.4159120" lon="-3.7220680">
        <ele>587.7</ele>
        <time>2021-02-23T16:59:52Z</time>
      </trkpt>
      <trkpt lat="40.4159330" lon="-3.7220710">
        <ele>587.7</ele>
        <time>2021-02-23T16:59:53Z</time>
      </trkpt>
      <trkpt lat="40.4159540" lon="-3.7220750">
        <ele>587.7</ele>
        <time>2021-02-23T16:59:54Z</time>
      </trkpt>
      <trkpt lat="40.4160060" lon="-3.7220850">
        <ele>587.8</ele>
        <time>2021-02-23T16:59:55Z</time>
      </trkpt>
      <trkpt lat="40.4160270" lon="-3.7220890">
        <ele>587.8</ele>
        <time>2021-02-23T16:59:56Z</time>
      </trkpt>
      <trkpt lat="40.4160480" lon="-3.7220930">
        <ele>587.8</ele>
        <time>2021-02-23T16:59:57Z</time>
      </trkpt>
      <trkpt lat="40.4160950" lon="-3.7221000">
        <ele>587.8</ele>
        <time>2021-02-23T16:59:58Z</time>
      </trkpt>
      <trkpt lat="40.4161380" lon="-3.7221060">
        <ele>587.9</ele>
        <time>2021-02-23T16:59:59Z</time>
      </trkpt>
      <trkpt lat="40.4161640" lon="-3.7221100">
        <ele>588.0</ele>
        <time>2021-02-23T17:00:00Z</time>
      </trkpt>
      <trkpt lat="40.4161860" lon="-3.7221120">
        <ele>588.0</ele>
        <time>2021-02-23T17:00:01Z</time>
      </trkpt>
      <trkpt lat="40.4162070" lon="-3.7221140">
        <ele>588.0</ele>
        <time>2021-02-23T17:00:02Z</time>
      </trkpt>
      <trkpt lat="40.4162550" lon="-3.7221160">
        <ele>588.0</ele>
        <time>2021-02-23T17:00:03Z</time>
      </trkpt>
      <trkpt lat="40.4162980" lon="-3.7221160">
        <ele>588.0</ele>
        <time>2021-02-23T17:00:04Z</time>
      </trkpt>
      <trkpt lat="40.4163240" lon="-3.7221150">
        <ele>588.0</ele>
        <time>2021-02-23T17:00:05Z</time>
      </trkpt>
      <trkpt lat="40.4163460" lon="-3.7221130">
        <ele>588.0</ele>
        <time>2021-02-23T17:00:06Z</time>
      </trkpt>
      <trkpt lat="40.4163670" lon="-3.7221120">
        <ele>588.0</ele>
        <time>2021-02-23T17:00:07Z</time>
      </trkpt>
      <trkpt lat="40.4164140" lon="-3.7221070">
        <ele>588.0</ele>
        <time>2021-02-23T17:00:08Z</time>
      </trkpt>
      <trkpt lat="40.4164560" lon="-3.7221010">
        <ele>588.0</ele>
        <time>2021-02-23T17:00:09Z</time>
      </trkpt>
      <trkpt lat="40.4164820" lon="-3.7220960">
        <ele>588.0</ele>
        <time>2021-02-23T17:00:10Z</time>
      </trkpt>
      <trkpt lat="40.4165020" lon="-3.7220930">
        <ele>588.0</ele>
        <time>2021-02-23T17:00:11Z</time>
      </trkpt>
      <trkpt lat="40.4165230" lon="-3.7220890">
        <ele>588.0</ele>
        <time>2021-02-23T17:00:12Z</time>
      </trkpt>
      <trkpt lat="40.4165740" lon="-3.7220770">
        <ele>587.9</ele>
        <time>2021-02-23T17:00:13Z</time>
      </trkpt>
      <trkpt lat="40.4165950" lon="-3.7220720">
        <ele>587.9</ele>
        <time>2021-02-23T17:00:14Z</time>
      </trkpt>
      <trkpt lat="40.4166150" lon="-3.7220670">
        <ele>587.9</ele>
        <time>2021-02-23T17:00:15Z</time>
      </trkpt>
      <trkpt lat="40.4166600" lon="-3.7220540">
        <ele>587.9</ele>
        <time>2021-02-23T17:00:16Z</time>
      </trkpt>
      <trkpt lat="40.4167010" lon="-3.7220410">
        <ele>587.9</ele>
        <time>2021-02-23T17:00:17Z</time>
      </trkpt>
      <trkpt lat="40.4167260" lon="-3.7220330">
        <ele>587.9</ele>
        <time>2021-02-23T17:00:18Z</time>
      </trkpt>
      <trkpt lat="40.4167460" lon="-3.7220250">
        <ele>587.8</ele>
        <time>2021-02-23T17:00:19Z</time>
      </trkpt>
      <trkpt lat="40.4167660" lon="-3.7220180">
        <ele>587.8</ele>
        <time>2021-02-23T17:00:20Z</time>
      </trkpt>
      <trkpt lat="40.4168110" lon="-3.7220000">
        <ele>587.8</ele>
        <time>2021-02-23T17:00:21Z</time>
      </trkpt>
      <trkpt lat="40.4168520" lon="-3.7219830">
        <ele>587.8</ele>
        <time>2021-02-23T17:00:22Z</time>
      </trkpt>
      <trkpt lat="40.4168770" lon="-3.7219720">
        <ele>587.8</ele>
        <time>2021-02-23T17:00:23Z</time>
      </trkpt>
      <trkpt lat="40.4168970" lon="-3.7219640">
        <ele>587.8</ele>
        <time>2021-02-23T17:00:24Z</time>
      </trkpt>
      <trkpt lat="40.4169170" lon="-3.7219550">
        <ele>587.8</ele>
        <time>2021-02-23T17:00:25Z</time>
      </trkpt>
      <trkpt lat="40.4169620" lon="-3.7219360">
        <ele>587.8</ele>
        <time>2021-02-23T17:00:26Z</time>
      </trkpt>
      <trkpt lat="40.4169770" lon="-3.7219290">
        <ele>587.8</ele>
        <time>2021-02-23T17:00:27Z</time>
      </trkpt>
      <trkpt lat="40.4170270" lon="-3.7219080">
        <ele>588.0</ele>
        <time>2021-02-23T17:00:28Z</time>
      </trkpt>
      <trkpt lat="40.4170480" lon="-3.7219010">
        <ele>588.0</ele>
        <time>2021-02-23T17:00:29Z</time>
      </trkpt>
      <trkpt lat="40.4170680" lon="-3.7218930">
        <ele>588.0</ele>
        <time>2021-02-23T17:00:30Z</time>
      </trkpt>
      <trkpt lat="40.4171180" lon="-3.7218770">
        <ele>588.1</ele>
        <time>2021-02-23T17:00:31Z</time>
      </trkpt>
      <trkpt lat="40.4171380" lon="-3.7218710">
        <ele>588.1</ele>
        <time>2021-02-23T17:00:32Z</time>
      </trkpt>
      <trkpt lat="40.4171580" lon="-3.7218650">
        <ele>588.1</ele>
        <time>2021-02-23T17:00:33Z</time>
      </trkpt>
      <trkpt lat="40.4172040" lon="-3.7218550">
        <ele>588.2</ele>
        <time>2021-02-23T17:00:34Z</time>
      </trkpt>
      <trkpt lat="40.4172190" lon="-3.7218520">
        <ele>588.2</ele>
        <time>2021-02-23T17:00:35Z</time>
      </trkpt>
      <trkpt lat="40.4172690" lon="-3.7218430">
        <ele>588.2</ele>
        <time>2021-02-23T17:00:36Z</time>
      </trkpt>
      <trkpt lat="40.4172900" lon="-3.7218410">
        <ele>588.3</ele>
        <time>2021-02-23T17:00:37Z</time>
      </trkpt>
      <trkpt lat="40.4173100" lon="-3.7218380">
        <ele>588.3</ele>
        <time>2021-02-23T17:00:38Z</time>
      </trkpt>
      <trkpt lat="40.4173570" lon="-3.7218330">
        <ele>588.3</ele>
        <time>2021-02-23T17:00:39Z</time>
      </trkpt>
      <trkpt lat="40.4173980" lon="-3.7218300">
        <ele>588.4</ele>
        <time>2021-02-23T17:00:40Z</time>
      </trkpt>
      <trkpt lat="40.4174230" lon="-3.7218280">
        <ele>588.4</ele>
        <time>2021-02-23T17:00:41Z</time>
      </trkpt>
      <trkpt lat="40.4174430" lon="-3.7218260">
        <ele>588.4</ele>
        <time>2021-02-23T17:00:42Z</time>
      </trkpt>
      <trkpt lat="40.4174640" lon="-3.7218250">
        <ele>588.4</ele>
        <time>2021-02-23T17:00:43Z</time>
      </trkpt>
      <trkpt lat="40.4175110" lon="-3.7218230">
        <ele>588.4</ele>
        <time>2021-02-23T17:00:44Z</time>
      </trkpt>
      <trkpt lat="40.4175260" lon="-3.7218220">
        <ele>588.4</ele>
        <time>2021-02-23T17:00:45Z</time>
      </trkpt>
      <trkpt lat="40.4175770" lon="-3.7218190">
        <ele>588.5</ele>
        <time>2021-02-23T17:00:46Z</time>
      </trkpt>
      <trkpt lat="40.4175980" lon="-3.7218190">
        <ele>588.5</ele>
        <time>2021-02-23T17:00:47Z</time>
      </trkpt>
      <trkpt lat="40.4176180" lon="-3.7218180">
        <ele>588.5</ele>
        <time>2021-02-23T17:00:48Z</time>
      </trkpt>
      <trkpt lat="40.4176690" lon="-3.7218160">
        <ele>588.5</ele>
        <time>2021-02-23T17:00:49Z</time>
      </trkpt>
      <trkpt lat="40.4176900" lon="-3.7218160">
        <ele>588.5</ele>
        <time>2021-02-23T17:00:50Z</time>
      </trkpt>
      <trkpt lat="40.4177100" lon="-3.7218150">
        <ele>588.5</ele>
        <time>2021-02-23T17:00:51Z</time>
      </trkpt>
      <trkpt lat="40.4177560" lon="-3.7218140">
        <ele>588.6</ele>
        <time>2021-02-23T17:00:52Z</time>
      </trkpt>
      <trkpt lat="40.4177710" lon="-3.7218140">
        <ele>588.6</ele>
        <time>2021-02-23T17:00:53Z</time>
      </trkpt>
      <trkpt lat="40.4178210" lon="-3.7218140">
        <ele>588.6</ele>
        <time>2021-02-23T17:00:54Z</time>
      </trkpt>
      <trkpt lat="40.4178420" lon="-3.7218130">
        <ele>588.6</ele>
        <time>2021-02-23T17:00:55Z</time>
      </trkpt>
      <trkpt lat="40.4178620" lon="-3.7218130">
        <ele>588.6</ele>
        <time>2021-02-23T17:00:56Z</time>
      </trkpt>
      <trkpt lat="40.4179080" lon="-3.7218130">
        <ele>588.6</ele>
        <time>2021-02-23T17:00:57Z</time>
      </trkpt>
      <trkpt lat="40.4179500" lon="-3.7218130">
        <ele>588.6</ele>
        <time>2021-02-23T17:00:58Z</time>
      </trkpt>
      <trkpt lat="40.4179760" lon="-3.7218120">
        <ele>588.3</ele>
        <time>2021-02-23T17:00:59Z</time>
      </trkpt>
      <trkpt lat="40.4179960" lon="-3.7218120">
        <ele>588.3</ele>
        <time>2021-02-23T17:01:00Z</time>
      </trkpt>
      <trkpt lat="40.4180170" lon="-3.7218110">
        <ele>588.3</ele>
        <time>2021-02-23T17:01:01Z</time>
      </trkpt>
      <trkpt lat="40.4180650" lon="-3.7218090">
        <ele>588.3</ele>
        <time>2021-02-23T17:01:02Z</time>
      </trkpt>
      <trkpt lat="40.4181080" lon="-3.7218060">
        <ele>588.3</ele>
        <time>2021-02-23T17:01:03Z</time>
      </trkpt>
      <trkpt lat="40.4181350" lon="-3.7218030">
        <ele>588.3</ele>
        <time>2021-02-23T17:01:04Z</time>
      </trkpt>
      <trkpt lat="40.4181560" lon="-3.7218010">
        <ele>588.3</ele>
        <time>2021-02-23T17:01:05Z</time>
      </trkpt>
      <trkpt lat="40.4181780" lon="-3.7217990">
        <ele>588.4</ele>
        <time>2021-02-23T17:01:06Z</time>
      </trkpt>
      <trkpt lat="40.4182270" lon="-3.7217930">
        <ele>588.4</ele>
        <time>2021-02-23T17:01:08Z</time>
      </trkpt>
      <trkpt lat="40.4182430" lon="-3.7217910">
        <ele>588.4</ele>
        <time>2021-02-23T17:01:09Z</time>
      </trkpt>
      <trkpt lat="40.4182920" lon="-3.7217840">
        <ele>588.4</ele>
        <time>2021-02-23T17:01:10Z</time>
      </trkpt>
      <trkpt lat="40.4183350" lon="-3.7217770">
        <ele>588.4</ele>
        <time>2021-02-23T17:01:11Z</time>
      </trkpt>
      <trkpt lat="40.4183610" lon="-3.7217730">
        <ele>588.4</ele>
        <time>2021-02-23T17:01:12Z</time>
      </trkpt>
      <trkpt lat="40.4183830" lon="-3.7217700">
        <ele>588.4</ele>
        <time>2021-02-23T17:01:13Z</time>
      </trkpt>
      <trkpt lat="40.4184040" lon="-3.7217670">
        <ele>588.4</ele>
        <time>2021-02-23T17:01:14Z</time>
      </trkpt>
      <trkpt lat="40.4184520" lon="-3.7217610">
        <ele>588.4</ele>
        <time>2021-02-23T17:01:15Z</time>
      </trkpt>
      <trkpt lat="40.4184670" lon="-3.7217590">
        <ele>588.4</ele>
        <time>2021-02-23T17:01:16Z</time>
      </trkpt>
      <trkpt lat="40.4185180" lon="-3.7217560">
        <ele>588.5</ele>
        <time>2021-02-23T17:01:17Z</time>
      </trkpt>
      <trkpt lat="40.4185380" lon="-3.7217560">
        <ele>588.5</ele>
        <time>2021-02-23T17:01:18Z</time>
      </trkpt>
      <trkpt lat="40.4185580" lon="-3.7217550">
        <ele>588.5</ele>
        <time>2021-02-23T17:01:19Z</time>
      </trkpt>
      <trkpt lat="40.4186020" lon="-3.7217560">
        <ele>588.5</ele>
        <time>2021-02-23T17:01:20Z</time>
      </trkpt>
      <trkpt lat="40.4186160" lon="-3.7217570">
        <ele>588.5</ele>
        <time>2021-02-23T17:01:21Z</time>
      </trkpt>
      <trkpt lat="40.4186620" lon="-3.7217650">
        <ele>588.6</ele>
        <time>2021-02-23T17:01:22Z</time>
      </trkpt>
      <trkpt lat="40.4186790" lon="-3.7217700">
        <ele>588.6</ele>
        <time>2021-02-23T17:01:23Z</time>
      </trkpt>
      <trkpt lat="40.4186970" lon="-3.7217740">
        <ele>588.6</ele>
        <time>2021-02-23T17:01:24Z</time>
      </trkpt>
      <trkpt lat="40.4187310" lon="-3.7218020">
        <ele>588.6</ele>
        <time>2021-02-23T17:01:25Z</time>
      </trkpt>
      <trkpt lat="40.4187390" lon="-3.7218220">
        <ele>588.5</ele>
        <time>2021-02-23T17:01:26Z</time>
      </trkpt>
      <trkpt lat="40.4187470" lon="-3.7218410">
        <ele>588.5</ele>
        <time>2021-02-23T17:01:27Z</time>
      </trkpt>
      <trkpt lat="40.4187620" lon="-3.7218880">
        <ele>588.5</ele>
        <time>2021-02-23T17:01:28Z</time>
      </trkpt>
      <trkpt lat="40.4187760" lon="-3.7219530">
        <ele>588.4</ele>
        <time>2021-02-23T17:01:29Z</time>
      </trkpt>
      <trkpt lat="40.4187850" lon="-3.7220010">
        <ele>588.4</ele>
        <time>2021-02-23T17:01:30Z</time>
      </trkpt>
      <trkpt lat="40.4187880" lon="-3.7220260">
        <ele>588.3</ele>
        <time>2021-02-23T17:01:31Z</time>
      </trkpt>
      <trkpt lat="40.4187920" lon="-3.7220510">
        <ele>588.3</ele>
        <time>2021-02-23T17:01:32Z</time>
      </trkpt>
      <trkpt lat="40.4187980" lon="-3.7221090">
        <ele>588.3</ele>
        <time>2021-02-23T17:01:33Z</time>
      </trkpt>
      <trkpt lat="40.4188030" lon="-3.7221630">
        <ele>588.2</ele>
        <time>2021-02-23T17:01:34Z</time>
      </trkpt>
      <trkpt lat="40.4188050" lon="-3.7221970">
        <ele>588.2</ele>
        <time>2021-02-23T17:01:35Z</time>
      </trkpt>
      <trkpt lat="40.4188060" lon="-3.7222250">
        <ele>588.2</ele>
        <time>2021-02-23T17:01:36Z</time>
      </trkpt>
      <trkpt lat="40.4188080" lon="-3.7222520">
        <ele>588.2</ele>
        <time>2021-02-23T17:01:37Z</time>
      </trkpt>
      <trkpt lat="40.4188100" lon="-3.7223130">
        <ele>588.1</ele>
        <time>2021-02-23T17:01:38Z</time>
      </trkpt>
      <trkpt lat="40.4188110" lon="-3.7223680">
        <ele>588.0</ele>
        <time>2021-02-23T17:01:39Z</time>
      </trkpt>
      <trkpt lat="40.4188110" lon="-3.7224020">
        <ele>588.0</ele>
        <time>2021-02-23T17:01:40Z</time>
      </trkpt>
      <trkpt lat="40.4188120" lon="-3.7224300">
        <ele>587.9</ele>
        <time>2021-02-23T17:01:41Z</time>
      </trkpt>
      <trkpt lat="40.4188120" lon="-3.7224570">
        <ele>587.9</ele>
        <time>2021-02-23T17:01:42Z</time>
      </trkpt>
      <trkpt lat="40.4188100" lon="-3.7225240">
        <ele>587.8</ele>
        <time>2021-02-23T17:01:43Z</time>
      </trkpt>
      <trkpt lat="40.4188100" lon="-3.7225500">
        <ele>587.8</ele>
        <time>2021-02-23T17:01:44Z</time>
      </trkpt>
      <trkpt lat="40.4188090" lon="-3.7225770">
        <ele>587.7</ele>
        <time>2021-02-23T17:01:45Z</time>
      </trkpt>
      <trkpt lat="40.4188060" lon="-3.7226370">
        <ele>587.6</ele>
        <time>2021-02-23T17:01:46Z</time>
      </trkpt>
      <trkpt lat="40.4188040" lon="-3.7226560">
        <ele>587.6</ele>
        <time>2021-02-23T17:01:47Z</time>
      </trkpt>
      <trkpt lat="40.4187980" lon="-3.7227200">
        <ele>587.5</ele>
        <time>2021-02-23T17:01:48Z</time>
      </trkpt>
      <trkpt lat="40.4187960" lon="-3.7227460">
        <ele>587.4</ele>
        <time>2021-02-23T17:01:49Z</time>
      </trkpt>
      <trkpt lat="40.4187930" lon="-3.7227710">
        <ele>587.4</ele>
        <time>2021-02-23T17:01:50Z</time>
      </trkpt>
      <trkpt lat="40.4187860" lon="-3.7228280">
        <ele>587.2</ele>
        <time>2021-02-23T17:01:51Z</time>
      </trkpt>
      <trkpt lat="40.4187830" lon="-3.7228470">
        <ele>587.2</ele>
        <time>2021-02-23T17:01:52Z</time>
      </trkpt>
      <trkpt lat="40.4187730" lon="-3.7229100">
        <ele>587.1</ele>
        <time>2021-02-23T17:01:53Z</time>
      </trkpt>
      <trkpt lat="40.4187680" lon="-3.7229340">
        <ele>587.0</ele>
        <time>2021-02-23T17:01:54Z</time>
      </trkpt>
      <trkpt lat="40.4187640" lon="-3.7229590">
        <ele>587.0</ele>
        <time>2021-02-23T17:01:55Z</time>
      </trkpt>
      <trkpt lat="40.4187530" lon="-3.7230140">
        <ele>586.9</ele>
        <time>2021-02-23T17:01:56Z</time>
      </trkpt>
      <trkpt lat="40.4187490" lon="-3.7230320">
        <ele>586.9</ele>
        <time>2021-02-23T17:01:57Z</time>
      </trkpt>
      <trkpt lat="40.4187360" lon="-3.7230920">
        <ele>586.8</ele>
        <time>2021-02-23T17:01:58Z</time>
      </trkpt>
      <trkpt lat="40.4187300" lon="-3.7231160">
        <ele>586.6</ele>
        <time>2021-02-23T17:01:59Z</time>
      </trkpt>
      <trkpt lat="40.4187250" lon="-3.7231400">
        <ele>586.6</ele>
        <time>2021-02-23T17:02:00Z</time>
      </trkpt>
      <trkpt lat="40.4187100" lon="-3.7232000">
        <ele>586.6</ele>
        <time>2021-02-23T17:02:01Z</time>
      </trkpt>
      <trkpt lat="40.4187050" lon="-3.7232230">
        <ele>586.6</ele>
        <time>2021-02-23T17:02:02Z</time>
      </trkpt>
      <trkpt lat="40.4186990" lon="-3.7232470">
        <ele>586.6</ele>
        <time>2021-02-23T17:02:03Z</time>
      </trkpt>
      <trkpt lat="40.4186870" lon="-3.7233010">
        <ele>586.6</ele>
        <time>2021-02-23T17:02:04Z</time>
      </trkpt>
      <trkpt lat="40.4186830" lon="-3.7233180">
        <ele>586.5</ele>
        <time>2021-02-23T17:02:05Z</time>
      </trkpt>
      <trkpt lat="40.4186700" lon="-3.7233780">
        <ele>586.5</ele>
        <time>2021-02-23T17:02:06Z</time>
      </trkpt>
      <trkpt lat="40.4186650" lon="-3.7234010">
        <ele>586.5</ele>
        <time>2021-02-23T17:02:07Z</time>
      </trkpt>
      <trkpt lat="40.4186600" lon="-3.7234250">
        <ele>586.5</ele>
        <time>2021-02-23T17:02:08Z</time>
      </trkpt>
      <trkpt lat="40.4186490" lon="-3.7234780">
        <ele>586.5</ele>
        <time>2021-02-23T17:02:09Z</time>
      </trkpt>
      <trkpt lat="40.4186450" lon="-3.7234960">
        <ele>586.5</ele>
        <time>2021-02-23T17:02:10Z</time>
      </trkpt>
      <trkpt lat="40.4186350" lon="-3.7235570">
        <ele>586.5</ele>
        <time>2021-02-23T17:02:11Z</time>
      </trkpt>
      <trkpt lat="40.4186300" lon="-3.7235820">
        <ele>586.5</ele>
        <time>2021-02-23T17:02:12Z</time>
      </trkpt>
      <trkpt lat="40.4186260" lon="-3.7236060">
        <ele>586.5</ele>
        <time>2021-02-23T17:02:13Z</time>
      </trkpt>
      <trkpt lat="40.4186170" lon="-3.7236620">
        <ele>586.4</ele>
        <time>2021-02-23T17:02:14Z</time>
      </trkpt>
      <trkpt lat="40.4186140" lon="-3.7236800">
        <ele>586.4</ele>
        <time>2021-02-23T17:02:15Z</time>
      </trkpt>
      <trkpt lat="40.4186040" lon="-3.7237420">
        <ele>586.4</ele>
        <time>2021-02-23T17:02:16Z</time>
      </trkpt>
      <trkpt lat="40.4185990" lon="-3.7237670">
        <ele>586.4</ele>
        <time>2021-02-23T17:02:17Z</time>
      </trkpt>
      <trkpt lat="40.4185950" lon="-3.7237920">
        <ele>586.4</ele>
        <time>2021-02-23T17:02:18Z</time>
      </trkpt>
      <trkpt lat="40.4185850" lon="-3.7238550">
        <ele>586.4</ele>
        <time>2021-02-23T17:02:19Z</time>
      </trkpt>
      <trkpt lat="40.4185810" lon="-3.7238810">
        <ele>586.4</ele>
        <time>2021-02-23T17:02:20Z</time>
      </trkpt>
      <trkpt lat="40.4185770" lon="-3.7239060">
        <ele>586.4</ele>
        <time>2021-02-23T17:02:21Z</time>
      </trkpt>
      <trkpt lat="40.4185680" lon="-3.7239630">
        <ele>586.4</ele>
        <time>2021-02-23T17:02:22Z</time>
      </trkpt>
      <trkpt lat="40.4185650" lon="-3.7239820">
        <ele>586.4</ele>
        <time>2021-02-23T17:02:23Z</time>
      </trkpt>
      <trkpt lat="40.4185550" lon="-3.7240450">
        <ele>586.4</ele>
        <time>2021-02-23T17:02:24Z</time>
      </trkpt>
      <trkpt lat="40.4185520" lon="-3.7240710">
        <ele>586.4</ele>
        <time>2021-02-23T17:02:25Z</time>
      </trkpt>
      <trkpt lat="40.4185480" lon="-3.7240960">
        <ele>586.4</ele>
        <time>2021-02-23T17:02:26Z</time>
      </trkpt>
      <trkpt lat="40.4185410" lon="-3.7241530">
        <ele>586.4</ele>
        <time>2021-02-23T17:02:27Z</time>
      </trkpt>
      <trkpt lat="40.4185380" lon="-3.7241720">
        <ele>586.4</ele>
        <time>2021-02-23T17:02:28Z</time>
      </trkpt>
      <trkpt lat="40.4185310" lon="-3.7242360">
        <ele>586.5</ele>
        <time>2021-02-23T17:02:29Z</time>
      </trkpt>
      <trkpt lat="40.4185290" lon="-3.7242610">
        <ele>586.5</ele>
        <time>2021-02-23T17:02:30Z</time>
      </trkpt>
      <trkpt lat="40.4185260" lon="-3.7242870">
        <ele>586.5</ele>
        <time>2021-02-23T17:02:31Z</time>
      </trkpt>
      <trkpt lat="40.4185220" lon="-3.7243450">
        <ele>586.5</ele>
        <time>2021-02-23T17:02:32Z</time>
      </trkpt>
      <trkpt lat="40.4185210" lon="-3.7243640">
        <ele>586.5</ele>
        <time>2021-02-23T17:02:33Z</time>
      </trkpt>
      <trkpt lat="40.4185180" lon="-3.7244290">
        <ele>586.5</ele>
        <time>2021-02-23T17:02:34Z</time>
      </trkpt>
      <trkpt lat="40.4185180" lon="-3.7244550">
        <ele>586.5</ele>
        <time>2021-02-23T17:02:35Z</time>
      </trkpt>
      <trkpt lat="40.4185170" lon="-3.7244810">
        <ele>586.5</ele>
        <time>2021-02-23T17:02:36Z</time>
      </trkpt>
      <trkpt lat="40.4185150" lon="-3.7245480">
        <ele>586.5</ele>
        <time>2021-02-23T17:02:37Z</time>
      </trkpt>
      <trkpt lat="40.4185150" lon="-3.7245740">
        <ele>586.6</ele>
        <time>2021-02-23T17:02:38Z</time>
      </trkpt>
      <trkpt lat="40.4185140" lon="-3.7246010">
        <ele>586.6</ele>
        <time>2021-02-23T17:02:39Z</time>
      </trkpt>
      <trkpt lat="40.4185140" lon="-3.7246610">
        <ele>586.6</ele>
        <time>2021-02-23T17:02:40Z</time>
      </trkpt>
      <trkpt lat="40.4185130" lon="-3.7247150">
        <ele>586.6</ele>
        <time>2021-02-23T17:02:41Z</time>
      </trkpt>
      <trkpt lat="40.4185120" lon="-3.7247490">
        <ele>586.6</ele>
        <time>2021-02-23T17:02:42Z</time>
      </trkpt>
      <trkpt lat="40.4185120" lon="-3.7247760">
        <ele>586.6</ele>
        <time>2021-02-23T17:02:43Z</time>
      </trkpt>
      <trkpt lat="40.4185110" lon="-3.7248030">
        <ele>586.6</ele>
        <time>2021-02-23T17:02:44Z</time>
      </trkpt>
      <trkpt lat="40.4185110" lon="-3.7248640">
        <ele>586.6</ele>
        <time>2021-02-23T17:02:45Z</time>
      </trkpt>
      <trkpt lat="40.4185100" lon="-3.7248840">
        <ele>586.6</ele>
        <time>2021-02-23T17:02:46Z</time>
      </trkpt>
      <trkpt lat="40.4185080" lon="-3.7249500">
        <ele>586.6</ele>
        <time>2021-02-23T17:02:47Z</time>
      </trkpt>
      <trkpt lat="40.4185080" lon="-3.7249770">
        <ele>586.7</ele>
        <time>2021-02-23T17:02:48Z</time>
      </trkpt>
      <trkpt lat="40.4185070" lon="-3.7250030">
        <ele>586.7</ele>
        <time>2021-02-23T17:02:49Z</time>
      </trkpt>
      <trkpt lat="40.4185060" lon="-3.7250620">
        <ele>586.7</ele>
        <time>2021-02-23T17:02:50Z</time>
      </trkpt>
      <trkpt lat="40.4185050" lon="-3.7250810">
        <ele>586.7</ele>
        <time>2021-02-23T17:02:51Z</time>
      </trkpt>
      <trkpt lat="40.4185030" lon="-3.7251450">
        <ele>586.8</ele>
        <time>2021-02-23T17:02:52Z</time>
      </trkpt>
      <trkpt lat="40.4185030" lon="-3.7251700">
        <ele>586.8</ele>
        <time>2021-02-23T17:02:53Z</time>
      </trkpt>
      <trkpt lat="40.4185020" lon="-3.7251960">
        <ele>586.8</ele>
        <time>2021-02-23T17:02:54Z</time>
      </trkpt>
      <trkpt lat="40.4184990" lon="-3.7252590">
        <ele>586.9</ele>
        <time>2021-02-23T17:02:55Z</time>
      </trkpt>
      <trkpt lat="40.4184990" lon="-3.7252840">
        <ele>586.9</ele>
        <time>2021-02-23T17:02:56Z</time>
      </trkpt>
      <trkpt lat="40.4184980" lon="-3.7253090">
        <ele>587.0</ele>
        <time>2021-02-23T17:02:57Z</time>
      </trkpt>
      <trkpt lat="40.4184970" lon="-3.7253650">
        <ele>587.0</ele>
        <time>2021-02-23T17:02:58Z</time>
      </trkpt>
      <trkpt lat="40.4184960" lon="-3.7253840">
        <ele>587.1</ele>
        <time>2021-02-23T17:02:59Z</time>
      </trkpt>
      <trkpt lat="40.4184950" lon="-3.7254460">
        <ele>587.2</ele>
        <time>2021-02-23T17:03:00Z</time>
      </trkpt>
      <trkpt lat="40.4184940" lon="-3.7254710">
        <ele>587.2</ele>
        <time>2021-02-23T17:03:01Z</time>
      </trkpt>
      <trkpt lat="40.4184940" lon="-3.7254960">
        <ele>587.2</ele>
        <time>2021-02-23T17:03:02Z</time>
      </trkpt>
      <trkpt lat="40.4184930" lon="-3.7255530">
        <ele>587.3</ele>
        <time>2021-02-23T17:03:03Z</time>
      </trkpt>
      <trkpt lat="40.4184930" lon="-3.7255710">
        <ele>587.3</ele>
        <time>2021-02-23T17:03:04Z</time>
      </trkpt>
      <trkpt lat="40.4184930" lon="-3.7256350">
        <ele>587.4</ele>
        <time>2021-02-23T17:03:05Z</time>
      </trkpt>
      <trkpt lat="40.4184920" lon="-3.7256600">
        <ele>587.4</ele>
        <time>2021-02-23T17:03:06Z</time>
      </trkpt>
      <trkpt lat="40.4184920" lon="-3.7256860">
        <ele>587.5</ele>
        <time>2021-02-23T17:03:07Z</time>
      </trkpt>
      <trkpt lat="40.4184920" lon="-3.7257440">
        <ele>587.5</ele>
        <time>2021-02-23T17:03:08Z</time>
      </trkpt>
      <trkpt lat="40.4184910" lon="-3.7257960">
        <ele>587.6</ele>
        <time>2021-02-23T17:03:09Z</time>
      </trkpt>
      <trkpt lat="40.4184900" lon="-3.7258280">
        <ele>587.6</ele>
        <time>2021-02-23T17:03:10Z</time>
      </trkpt>
      <trkpt lat="40.4184900" lon="-3.7258540">
        <ele>587.6</ele>
        <time>2021-02-23T17:03:11Z</time>
      </trkpt>
      <trkpt lat="40.4184890" lon="-3.7258800">
        <ele>587.6</ele>
        <time>2021-02-23T17:03:12Z</time>
      </trkpt>
      <trkpt lat="40.4184820" lon="-3.7260180">
        <ele>587.8</ele>
        <time>2021-02-23T17:03:14Z</time>
      </trkpt>
      <trkpt lat="40.4184790" lon="-3.7260770">
        <ele>587.9</ele>
        <time>2021-02-23T17:03:16Z</time>
      </trkpt>
      <trkpt lat="40.4184750" lon="-3.7261360">
        <ele>588.0</ele>
        <time>2021-02-23T17:03:18Z</time>
      </trkpt>
      <trkpt lat="40.4184710" lon="-3.7261950">
        <ele>588.1</ele>
        <time>2021-02-23T17:03:20Z</time>
      </trkpt>
      <trkpt lat="40.4184670" lon="-3.7262540">
        <ele>588.2</ele>
        <time>2021-02-23T17:03:21Z</time>
      </trkpt>
      <trkpt lat="40.4184650" lon="-3.7262730">
        <ele>588.2</ele>
        <time>2021-02-23T17:03:22Z</time>
      </trkpt>
      <trkpt lat="40.4184590" lon="-3.7263380">
        <ele>588.3</ele>
        <time>2021-02-23T17:03:23Z</time>
      </trkpt>
      <trkpt lat="40.4184560" lon="-3.7263650">
        <ele>588.3</ele>
        <time>2021-02-23T17:03:24Z</time>
      </trkpt>
      <trkpt lat="40.4184540" lon="-3.7263910">
        <ele>588.3</ele>
        <time>2021-02-23T17:03:25Z</time>
      </trkpt>
      <trkpt lat="40.4184490" lon="-3.7264500">
        <ele>588.4</ele>
        <time>2021-02-23T17:03:26Z</time>
      </trkpt>
      <trkpt lat="40.4184470" lon="-3.7264690">
        <ele>588.4</ele>
        <time>2021-02-23T17:03:27Z</time>
      </trkpt>
      <trkpt lat="40.4184420" lon="-3.7265340">
        <ele>588.5</ele>
        <time>2021-02-23T17:03:28Z</time>
      </trkpt>
      <trkpt lat="40.4184410" lon="-3.7265610">
        <ele>588.6</ele>
        <time>2021-02-23T17:03:29Z</time>
      </trkpt>
      <trkpt lat="40.4184390" lon="-3.7265870">
        <ele>588.6</ele>
        <time>2021-02-23T17:03:30Z</time>
      </trkpt>
      <trkpt lat="40.4184360" lon="-3.7266520">
        <ele>588.7</ele>
        <time>2021-02-23T17:03:31Z</time>
      </trkpt>
      <trkpt lat="40.4184350" lon="-3.7266790">
        <ele>588.7</ele>
        <time>2021-02-23T17:03:32Z</time>
      </trkpt>
      <trkpt lat="40.4184340" lon="-3.7267050">
        <ele>588.8</ele>
        <time>2021-02-23T17:03:33Z</time>
      </trkpt>
      <trkpt lat="40.4184330" lon="-3.7267640">
        <ele>588.9</ele>
        <time>2021-02-23T17:03:34Z</time>
      </trkpt>
      <trkpt lat="40.4184320" lon="-3.7267840">
        <ele>588.9</ele>
        <time>2021-02-23T17:03:35Z</time>
      </trkpt>
      <trkpt lat="40.4184310" lon="-3.7268490">
        <ele>589.0</ele>
        <time>2021-02-23T17:03:36Z</time>
      </trkpt>
      <trkpt lat="40.4184300" lon="-3.7268750">
        <ele>589.1</ele>
        <time>2021-02-23T17:03:37Z</time>
      </trkpt>
      <trkpt lat="40.4184300" lon="-3.7269010">
        <ele>589.1</ele>
        <time>2021-02-23T17:03:38Z</time>
      </trkpt>
      <trkpt lat="40.4184290" lon="-3.7269600">
        <ele>589.2</ele>
        <time>2021-02-23T17:03:39Z</time>
      </trkpt>
      <trkpt lat="40.4184280" lon="-3.7269790">
        <ele>589.2</ele>
        <time>2021-02-23T17:03:40Z</time>
      </trkpt>
      <trkpt lat="40.4184260" lon="-3.7270440">
        <ele>589.4</ele>
        <time>2021-02-23T17:03:41Z</time>
      </trkpt>
      <trkpt lat="40.4184250" lon="-3.7270690">
        <ele>589.4</ele>
        <time>2021-02-23T17:03:42Z</time>
      </trkpt>
      <trkpt lat="40.4184240" lon="-3.7270950">
        <ele>589.5</ele>
        <time>2021-02-23T17:03:43Z</time>
      </trkpt>
      <trkpt lat="40.4184210" lon="-3.7271520">
        <ele>589.5</ele>
        <time>2021-02-23T17:03:44Z</time>
      </trkpt>
      <trkpt lat="40.4184190" lon="-3.7271710">
        <ele>589.6</ele>
        <time>2021-02-23T17:03:45Z</time>
      </trkpt>
      <trkpt lat="40.4184130" lon="-3.7272340">
        <ele>589.7</ele>
        <time>2021-02-23T17:03:46Z</time>
      </trkpt>
      <trkpt lat="40.4184100" lon="-3.7272600">
        <ele>589.7</ele>
        <time>2021-02-23T17:03:47Z</time>
      </trkpt>
      <trkpt lat="40.4184070" lon="-3.7272850">
        <ele>589.7</ele>
        <time>2021-02-23T17:03:48Z</time>
      </trkpt>
      <trkpt lat="40.4183980" lon="-3.7273470">
        <ele>589.8</ele>
        <time>2021-02-23T17:03:49Z</time>
      </trkpt>
      <trkpt lat="40.4183940" lon="-3.7273710">
        <ele>589.9</ele>
        <time>2021-02-23T17:03:50Z</time>
      </trkpt>
      <trkpt lat="40.4183900" lon="-3.7273960">
        <ele>589.9</ele>
        <time>2021-02-23T17:03:51Z</time>
      </trkpt>
      <trkpt lat="40.4183790" lon="-3.7274520">
        <ele>590.0</ele>
        <time>2021-02-23T17:03:52Z</time>
      </trkpt>
      <trkpt lat="40.4183750" lon="-3.7274700">
        <ele>590.0</ele>
        <time>2021-02-23T17:03:53Z</time>
      </trkpt>
      <trkpt lat="40.4183610" lon="-3.7275310">
        <ele>590.1</ele>
        <time>2021-02-23T17:03:54Z</time>
      </trkpt>
      <trkpt lat="40.4183550" lon="-3.7275550">
        <ele>590.2</ele>
        <time>2021-02-23T17:03:55Z</time>
      </trkpt>
      <trkpt lat="40.4183490" lon="-3.7275790">
        <ele>590.2</ele>
        <time>2021-02-23T17:03:56Z</time>
      </trkpt>
      <trkpt lat="40.4183350" lon="-3.7276330">
        <ele>590.3</ele>
        <time>2021-02-23T17:03:57Z</time>
      </trkpt>
      <trkpt lat="40.4183300" lon="-3.7276510">
        <ele>590.4</ele>
        <time>2021-02-23T17:03:58Z</time>
      </trkpt>
      <trkpt lat="40.4183130" lon="-3.7277100">
        <ele>590.5</ele>
        <time>2021-02-23T17:03:59Z</time>
      </trkpt>
      <trkpt lat="40.4183060" lon="-3.7277330">
        <ele>590.5</ele>
        <time>2021-02-23T17:04:00Z</time>
      </trkpt>
      <trkpt lat="40.4182990" lon="-3.7277570">
        <ele>590.6</ele>
        <time>2021-02-23T17:04:01Z</time>
      </trkpt>
      <trkpt lat="40.4182840" lon="-3.7278110">
        <ele>590.7</ele>
        <time>2021-02-23T17:04:02Z</time>
      </trkpt>
      <trkpt lat="40.4182790" lon="-3.7278280">
        <ele>590.7</ele>
        <time>2021-02-23T17:04:03Z</time>
      </trkpt>
      <trkpt lat="40.4182640" lon="-3.7278860">
        <ele>590.8</ele>
        <time>2021-02-23T17:04:04Z</time>
      </trkpt>
      <trkpt lat="40.4182570" lon="-3.7279100">
        <ele>590.8</ele>
        <time>2021-02-23T17:04:05Z</time>
      </trkpt>
      <trkpt lat="40.4182510" lon="-3.7279330">
        <ele>590.9</ele>
        <time>2021-02-23T17:04:06Z</time>
      </trkpt>
      <trkpt lat="40.4182360" lon="-3.7279910">
        <ele>591.0</ele>
        <time>2021-02-23T17:04:07Z</time>
      </trkpt>
      <trkpt lat="40.4182310" lon="-3.7280150">
        <ele>591.0</ele>
        <time>2021-02-23T17:04:08Z</time>
      </trkpt>
      <trkpt lat="40.4182250" lon="-3.7280380">
        <ele>591.0</ele>
        <time>2021-02-23T17:04:09Z</time>
      </trkpt>
      <trkpt lat="40.4182130" lon="-3.7280910">
        <ele>591.1</ele>
        <time>2021-02-23T17:04:10Z</time>
      </trkpt>
      <trkpt lat="40.4182090" lon="-3.7281080">
        <ele>591.2</ele>
        <time>2021-02-23T17:04:11Z</time>
      </trkpt>
      <trkpt lat="40.4181970" lon="-3.7281660">
        <ele>591.3</ele>
        <time>2021-02-23T17:04:12Z</time>
      </trkpt>
      <trkpt lat="40.4181910" lon="-3.7281900">
        <ele>591.3</ele>
        <time>2021-02-23T17:04:13Z</time>
      </trkpt>
      <trkpt lat="40.4181860" lon="-3.7282130">
        <ele>591.4</ele>
        <time>2021-02-23T17:04:14Z</time>
      </trkpt>
      <trkpt lat="40.4181750" lon="-3.7282670">
        <ele>591.5</ele>
        <time>2021-02-23T17:04:15Z</time>
      </trkpt>
      <trkpt lat="40.4181710" lon="-3.7282840">
        <ele>591.5</ele>
        <time>2021-02-23T17:04:16Z</time>
      </trkpt>
      <trkpt lat="40.4181580" lon="-3.7283430">
        <ele>591.8</ele>
        <time>2021-02-23T17:04:17Z</time>
      </trkpt>
      <trkpt lat="40.4181530" lon="-3.7283660">
        <ele>591.9</ele>
        <time>2021-02-23T17:04:18Z</time>
      </trkpt>
      <trkpt lat="40.4181480" lon="-3.7283900">
        <ele>592.0</ele>
        <time>2021-02-23T17:04:19Z</time>
      </trkpt>
      <trkpt lat="40.4181360" lon="-3.7284440">
        <ele>592.2</ele>
        <time>2021-02-23T17:04:20Z</time>
      </trkpt>
      <trkpt lat="40.4181320" lon="-3.7284620">
        <ele>592.2</ele>
        <time>2021-02-23T17:04:21Z</time>
      </trkpt>
      <trkpt lat="40.4181190" lon="-3.7285230">
        <ele>592.5</ele>
        <time>2021-02-23T17:04:22Z</time>
      </trkpt>
      <trkpt lat="40.4181140" lon="-3.7285480">
        <ele>592.5</ele>
        <time>2021-02-23T17:04:23Z</time>
      </trkpt>
      <trkpt lat="40.4181090" lon="-3.7285720">
        <ele>592.6</ele>
        <time>2021-02-23T17:04:24Z</time>
      </trkpt>
      <trkpt lat="40.4180950" lon="-3.7286340">
        <ele>592.8</ele>
        <time>2021-02-23T17:04:25Z</time>
      </trkpt>
      <trkpt lat="40.4180900" lon="-3.7286590">
        <ele>592.9</ele>
        <time>2021-02-23T17:04:26Z</time>
      </trkpt>
      <trkpt lat="40.4180840" lon="-3.7286840">
        <ele>593.0</ele>
        <time>2021-02-23T17:04:27Z</time>
      </trkpt>
      <trkpt lat="40.4180720" lon="-3.7287400">
        <ele>593.0</ele>
        <time>2021-02-23T17:04:28Z</time>
      </trkpt>
      <trkpt lat="40.4180670" lon="-3.7287590">
        <ele>593.0</ele>
        <time>2021-02-23T17:04:29Z</time>
      </trkpt>
      <trkpt lat="40.4180520" lon="-3.7288230">
        <ele>593.0</ele>
        <time>2021-02-23T17:04:30Z</time>
      </trkpt>
      <trkpt lat="40.4180460" lon="-3.7288490">
        <ele>593.1</ele>
        <time>2021-02-23T17:04:31Z</time>
      </trkpt>
      <trkpt lat="40.4180400" lon="-3.7288740">
        <ele>593.2</ele>
        <time>2021-02-23T17:04:32Z</time>
      </trkpt>
      <trkpt lat="40.4180260" lon="-3.7289330">
        <ele>593.4</ele>
        <time>2021-02-23T17:04:33Z</time>
      </trkpt>
      <trkpt lat="40.4180210" lon="-3.7289520">
        <ele>593.5</ele>
        <time>2021-02-23T17:04:34Z</time>
      </trkpt>
      <trkpt lat="40.4180060" lon="-3.7290170">
        <ele>593.8</ele>
        <time>2021-02-23T17:04:35Z</time>
      </trkpt>
      <trkpt lat="40.4180010" lon="-3.7290430">
        <ele>593.9</ele>
        <time>2021-02-23T17:04:36Z</time>
      </trkpt>
      <trkpt lat="40.4179950" lon="-3.7290690">
        <ele>594.0</ele>
        <time>2021-02-23T17:04:37Z</time>
      </trkpt>
      <trkpt lat="40.4179820" lon="-3.7291280">
        <ele>594.2</ele>
        <time>2021-02-23T17:04:38Z</time>
      </trkpt>
      <trkpt lat="40.4179780" lon="-3.7291470">
        <ele>594.3</ele>
        <time>2021-02-23T17:04:39Z</time>
      </trkpt>
      <trkpt lat="40.4179650" lon="-3.7292120">
        <ele>594.6</ele>
        <time>2021-02-23T17:04:40Z</time>
      </trkpt>
      <trkpt lat="40.4179600" lon="-3.7292370">
        <ele>594.7</ele>
        <time>2021-02-23T17:04:41Z</time>
      </trkpt>
      <trkpt lat="40.4179550" lon="-3.7292630">
        <ele>594.9</ele>
        <time>2021-02-23T17:04:42Z</time>
      </trkpt>
      <trkpt lat="40.4179430" lon="-3.7293260">
        <ele>595.2</ele>
        <time>2021-02-23T17:04:43Z</time>
      </trkpt>
      <trkpt lat="40.4179390" lon="-3.7293510">
        <ele>595.3</ele>
        <time>2021-02-23T17:04:44Z</time>
      </trkpt>
      <trkpt lat="40.4179340" lon="-3.7293760">
        <ele>595.4</ele>
        <time>2021-02-23T17:04:45Z</time>
      </trkpt>
      <trkpt lat="40.4179240" lon="-3.7294330">
        <ele>595.7</ele>
        <time>2021-02-23T17:04:46Z</time>
      </trkpt>
      <trkpt lat="40.4179200" lon="-3.7294510">
        <ele>595.8</ele>
        <time>2021-02-23T17:04:47Z</time>
      </trkpt>
      <trkpt lat="40.4179080" lon="-3.7295110">
        <ele>596.1</ele>
        <time>2021-02-23T17:04:48Z</time>
      </trkpt>
      <trkpt lat="40.4179040" lon="-3.7295360">
        <ele>596.2</ele>
        <time>2021-02-23T17:04:49Z</time>
      </trkpt>
      <trkpt lat="40.4178990" lon="-3.7295600">
        <ele>596.3</ele>
        <time>2021-02-23T17:04:50Z</time>
      </trkpt>
      <trkpt lat="40.4178900" lon="-3.7296140">
        <ele>596.6</ele>
        <time>2021-02-23T17:04:51Z</time>
      </trkpt>
      <trkpt lat="40.4178870" lon="-3.7296320">
        <ele>596.7</ele>
        <time>2021-02-23T17:04:52Z</time>
      </trkpt>
      <trkpt lat="40.4178770" lon="-3.7296910">
        <ele>596.9</ele>
        <time>2021-02-23T17:04:53Z</time>
      </trkpt>
      <trkpt lat="40.4178740" lon="-3.7297140">
        <ele>597.0</ele>
        <time>2021-02-23T17:04:54Z</time>
      </trkpt>
      <trkpt lat="40.4178700" lon="-3.7297380">
        <ele>597.1</ele>
        <time>2021-02-23T17:04:55Z</time>
      </trkpt>
      <trkpt lat="40.4178630" lon="-3.7297910">
        <ele>597.3</ele>
        <time>2021-02-23T17:04:56Z</time>
      </trkpt>
      <trkpt lat="40.4178600" lon="-3.7298080">
        <ele>597.4</ele>
        <time>2021-02-23T17:04:57Z</time>
      </trkpt>
      <trkpt lat="40.4178520" lon="-3.7298670">
        <ele>597.6</ele>
        <time>2021-02-23T17:04:58Z</time>
      </trkpt>
      <trkpt lat="40.4178490" lon="-3.7298910">
        <ele>597.7</ele>
        <time>2021-02-23T17:04:59Z</time>
      </trkpt>
      <trkpt lat="40.4178460" lon="-3.7299140">
        <ele>597.8</ele>
        <time>2021-02-23T17:05:00Z</time>
      </trkpt>
      <trkpt lat="40.4178390" lon="-3.7299740">
        <ele>598.1</ele>
        <time>2021-02-23T17:05:01Z</time>
      </trkpt>
      <trkpt lat="40.4178370" lon="-3.7299970">
        <ele>598.2</ele>
        <time>2021-02-23T17:05:02Z</time>
      </trkpt>
      <trkpt lat="40.4178340" lon="-3.7300210">
        <ele>598.3</ele>
        <time>2021-02-23T17:05:03Z</time>
      </trkpt>
      <trkpt lat="40.4178300" lon="-3.7300750">
        <ele>598.5</ele>
        <time>2021-02-23T17:05:04Z</time>
      </trkpt>
      <trkpt lat="40.4178280" lon="-3.7300930">
        <ele>598.6</ele>
        <time>2021-02-23T17:05:05Z</time>
      </trkpt>
      <trkpt lat="40.4178220" lon="-3.7301520">
        <ele>598.8</ele>
        <time>2021-02-23T17:05:06Z</time>
      </trkpt>
      <trkpt lat="40.4178210" lon="-3.7301760">
        <ele>599.0</ele>
        <time>2021-02-23T17:05:07Z</time>
      </trkpt>
      <trkpt lat="40.4178190" lon="-3.7302000">
        <ele>599.1</ele>
        <time>2021-02-23T17:05:08Z</time>
      </trkpt>
      <trkpt lat="40.4178160" lon="-3.7302540">
        <ele>599.3</ele>
        <time>2021-02-23T17:05:09Z</time>
      </trkpt>
      <trkpt lat="40.4178150" lon="-3.7302720">
        <ele>599.4</ele>
        <time>2021-02-23T17:05:10Z</time>
      </trkpt>
      <trkpt lat="40.4178120" lon="-3.7303320">
        <ele>599.7</ele>
        <time>2021-02-23T17:05:11Z</time>
      </trkpt>
      <trkpt lat="40.4178120" lon="-3.7303560">
        <ele>599.8</ele>
        <time>2021-02-23T17:05:12Z</time>
      </trkpt>
      <trkpt lat="40.4178110" lon="-3.7303800">
        <ele>600.0</ele>
        <time>2021-02-23T17:05:13Z</time>
      </trkpt>
      <trkpt lat="40.4178090" lon="-3.7304340">
        <ele>600.2</ele>
        <time>2021-02-23T17:05:14Z</time>
      </trkpt>
      <trkpt lat="40.4178080" lon="-3.7304510">
        <ele>600.3</ele>
        <time>2021-02-23T17:05:15Z</time>
      </trkpt>
      <trkpt lat="40.4178040" lon="-3.7305100">
        <ele>600.6</ele>
        <time>2021-02-23T17:05:16Z</time>
      </trkpt>
      <trkpt lat="40.4178030" lon="-3.7305340">
        <ele>600.7</ele>
        <time>2021-02-23T17:05:17Z</time>
      </trkpt>
      <trkpt lat="40.4178010" lon="-3.7305570">
        <ele>600.9</ele>
        <time>2021-02-23T17:05:18Z</time>
      </trkpt>
      <trkpt lat="40.4177930" lon="-3.7306150">
        <ele>601.2</ele>
        <time>2021-02-23T17:05:19Z</time>
      </trkpt>
      <trkpt lat="40.4177900" lon="-3.7306370">
        <ele>601.3</ele>
        <time>2021-02-23T17:05:20Z</time>
      </trkpt>
      <trkpt lat="40.4177860" lon="-3.7306600">
        <ele>601.4</ele>
        <time>2021-02-23T17:05:21Z</time>
      </trkpt>
      <trkpt lat="40.4177750" lon="-3.7307100">
        <ele>601.7</ele>
        <time>2021-02-23T17:05:22Z</time>
      </trkpt>
      <trkpt lat="40.4177710" lon="-3.7307260">
        <ele>601.8</ele>
        <time>2021-02-23T17:05:23Z</time>
      </trkpt>
      <trkpt lat="40.4177560" lon="-3.7307790">
        <ele>602.1</ele>
        <time>2021-02-23T17:05:24Z</time>
      </trkpt>
      <trkpt lat="40.4177490" lon="-3.7308000">
        <ele>602.2</ele>
        <time>2021-02-23T17:05:25Z</time>
      </trkpt>
      <trkpt lat="40.4177420" lon="-3.7308210">
        <ele>602.4</ele>
        <time>2021-02-23T17:05:26Z</time>
      </trkpt>
      <trkpt lat="40.4177210" lon="-3.7308620">
        <ele>602.6</ele>
        <time>2021-02-23T17:05:27Z</time>
      </trkpt>
      <trkpt lat="40.4177110" lon="-3.7308720">
        <ele>602.7</ele>
        <time>2021-02-23T17:05:28Z</time>
      </trkpt>
      <trkpt lat="40.4176770" lon="-3.7309000">
        <ele>603.0</ele>
        <time>2021-02-23T17:05:29Z</time>
      </trkpt>
      <trkpt lat="40.4176640" lon="-3.7309110">
        <ele>603.1</ele>
        <time>2021-02-23T17:05:30Z</time>
      </trkpt>
      <trkpt lat="40.4176500" lon="-3.7309210">
        <ele>603.2</ele>
        <time>2021-02-23T17:05:31Z</time>
      </trkpt>
      <trkpt lat="40.4176180" lon="-3.7309410">
        <ele>603.5</ele>
        <time>2021-02-23T17:05:32Z</time>
      </trkpt>
      <trkpt lat="40.4176060" lon="-3.7309470">
        <ele>603.6</ele>
        <time>2021-02-23T17:05:33Z</time>
      </trkpt>
      <trkpt lat="40.4175670" lon="-3.7309650">
        <ele>603.8</ele>
        <time>2021-02-23T17:05:34Z</time>
      </trkpt>
      <trkpt lat="40.4175510" lon="-3.7309720">
        <ele>603.8</ele>
        <time>2021-02-23T17:05:35Z</time>
      </trkpt>
      <trkpt lat="40.4175350" lon="-3.7309780">
        <ele>603.0</ele>
        <time>2021-02-23T17:05:36Z</time>
      </trkpt>
      <trkpt lat="40.4174930" lon="-3.7309910">
        <ele>603.2</ele>
        <time>2021-02-23T17:05:37Z</time>
      </trkpt>
      <trkpt lat="40.4174770" lon="-3.7309970">
        <ele>603.4</ele>
        <time>2021-02-23T17:05:38Z</time>
      </trkpt>
      <trkpt lat="40.4174600" lon="-3.7310020">
        <ele>603.3</ele>
        <time>2021-02-23T17:05:39Z</time>
      </trkpt>
      <trkpt lat="40.4174220" lon="-3.7310150">
        <ele>603.5</ele>
        <time>2021-02-23T17:05:40Z</time>
      </trkpt>
      <trkpt lat="40.4174090" lon="-3.7310190">
        <ele>602.1</ele>
        <time>2021-02-23T17:05:41Z</time>
      </trkpt>
      <trkpt lat="40.4173680" lon="-3.7310350">
        <ele>602.3</ele>
        <time>2021-02-23T17:05:42Z</time>
      </trkpt>
      <trkpt lat="40.4173510" lon="-3.7310430">
        <ele>602.3</ele>
        <time>2021-02-23T17:05:43Z</time>
      </trkpt>
      <trkpt lat="40.4173350" lon="-3.7310500">
        <ele>602.2</ele>
        <time>2021-02-23T17:05:44Z</time>
      </trkpt>
      <trkpt lat="40.4172980" lon="-3.7310690">
        <ele>602.1</ele>
        <time>2021-02-23T17:05:45Z</time>
      </trkpt>
      <trkpt lat="40.4172860" lon="-3.7310750">
        <ele>602.1</ele>
        <time>2021-02-23T17:05:46Z</time>
      </trkpt>
      <trkpt lat="40.4172470" lon="-3.7311000">
        <ele>602.0</ele>
        <time>2021-02-23T17:05:47Z</time>
      </trkpt>
      <trkpt lat="40.4172320" lon="-3.7311110">
        <ele>602.0</ele>
        <time>2021-02-23T17:05:48Z</time>
      </trkpt>
      <trkpt lat="40.4172160" lon="-3.7311210">
        <ele>601.9</ele>
        <time>2021-02-23T17:05:49Z</time>
      </trkpt>
      <trkpt lat="40.4171920" lon="-3.7311650">
        <ele>601.9</ele>
        <time>2021-02-23T17:05:50Z</time>
      </trkpt>
      <trkpt lat="40.4171870" lon="-3.7311800">
        <ele>601.8</ele>
        <time>2021-02-23T17:05:51Z</time>
      </trkpt>
      <trkpt lat="40.4171740" lon="-3.7312310">
        <ele>601.8</ele>
        <time>2021-02-23T17:05:52Z</time>
      </trkpt>
      <trkpt lat="40.4171710" lon="-3.7312510">
        <ele>601.7</ele>
        <time>2021-02-23T17:05:53Z</time>
      </trkpt>
      <trkpt lat="40.4171670" lon="-3.7312720">
        <ele>601.7</ele>
        <time>2021-02-23T17:05:54Z</time>
      </trkpt>
      <trkpt lat="40.4171640" lon="-3.7313260">
        <ele>601.7</ele>
        <time>2021-02-23T17:05:55Z</time>
      </trkpt>
      <trkpt lat="40.4171640" lon="-3.7313480">
        <ele>601.7</ele>
        <time>2021-02-23T17:05:56Z</time>
      </trkpt>
      <trkpt lat="40.4171640" lon="-3.7313700">
        <ele>601.7</ele>
        <time>2021-02-23T17:05:57Z</time>
      </trkpt>
      <trkpt lat="40.4171700" lon="-3.7314200">
        <ele>601.6</ele>
        <time>2021-02-23T17:05:58Z</time>
      </trkpt>
      <trkpt lat="40.4171720" lon="-3.7314370">
        <ele>601.6</ele>
        <time>2021-02-23T17:05:59Z</time>
      </trkpt>
      <trkpt lat="40.4171840" lon="-3.7314940">
        <ele>601.6</ele>
        <time>2021-02-23T17:06:00Z</time>
      </trkpt>
      <trkpt lat="40.4171900" lon="-3.7315160">
        <ele>601.6</ele>
        <time>2021-02-23T17:06:01Z</time>
      </trkpt>
      <trkpt lat="40.4171960" lon="-3.7315390">
        <ele>601.7</ele>
        <time>2021-02-23T17:06:02Z</time>
      </trkpt>
      <trkpt lat="40.4172130" lon="-3.7315890">
        <ele>601.7</ele>
        <time>2021-02-23T17:06:03Z</time>
      </trkpt>
      <trkpt lat="40.4172190" lon="-3.7316060">
        <ele>601.7</ele>
        <time>2021-02-23T17:06:04Z</time>
      </trkpt>
      <trkpt lat="40.4172420" lon="-3.7316610">
        <ele>601.8</ele>
        <time>2021-02-23T17:06:05Z</time>
      </trkpt>
      <trkpt lat="40.4172510" lon="-3.7316820">
        <ele>601.8</ele>
        <time>2021-02-23T17:06:06Z</time>
      </trkpt>
      <trkpt lat="40.4172610" lon="-3.7317040">
        <ele>601.8</ele>
        <time>2021-02-23T17:06:07Z</time>
      </trkpt>
      <trkpt lat="40.4172850" lon="-3.7317530">
        <ele>601.9</ele>
        <time>2021-02-23T17:06:08Z</time>
      </trkpt>
      <trkpt lat="40.4172920" lon="-3.7317690">
        <ele>601.9</ele>
        <time>2021-02-23T17:06:09Z</time>
      </trkpt>
      <trkpt lat="40.4173180" lon="-3.7318240">
        <ele>601.9</ele>
        <time>2021-02-23T17:06:10Z</time>
      </trkpt>
      <trkpt lat="40.4173270" lon="-3.7318470">
        <ele>602.0</ele>
        <time>2021-02-23T17:06:11Z</time>
      </trkpt>
      <trkpt lat="40.4173370" lon="-3.7318690">
        <ele>602.0</ele>
        <time>2021-02-23T17:06:12Z</time>
      </trkpt>
      <trkpt lat="40.4173590" lon="-3.7319260">
        <ele>602.0</ele>
        <time>2021-02-23T17:06:13Z</time>
      </trkpt>
      <trkpt lat="40.4173670" lon="-3.7319500">
        <ele>602.0</ele>
        <time>2021-02-23T17:06:14Z</time>
      </trkpt>
      <trkpt lat="40.4173750" lon="-3.7319730">
        <ele>602.0</ele>
        <time>2021-02-23T17:06:15Z</time>
      </trkpt>
      <trkpt lat="40.4173910" lon="-3.7320270">
        <ele>602.0</ele>
        <time>2021-02-23T17:06:16Z</time>
      </trkpt>
      <trkpt lat="40.4173960" lon="-3.7320450">
        <ele>602.0</ele>
        <time>2021-02-23T17:06:17Z</time>
      </trkpt>
      <trkpt lat="40.4174090" lon="-3.7321070">
        <ele>602.0</ele>
        <time>2021-02-23T17:06:18Z</time>
      </trkpt>
      <trkpt lat="40.4174130" lon="-3.7321320">
        <ele>602.0</ele>
        <time>2021-02-23T17:06:19Z</time>
      </trkpt>
      <trkpt lat="40.4174180" lon="-3.7321570">
        <ele>602.0</ele>
        <time>2021-02-23T17:06:20Z</time>
      </trkpt>
      <trkpt lat="40.4174270" lon="-3.7322150">
        <ele>602.0</ele>
        <time>2021-02-23T17:06:21Z</time>
      </trkpt>
      <trkpt lat="40.4174290" lon="-3.7322340">
        <ele>602.0</ele>
        <time>2021-02-23T17:06:22Z</time>
      </trkpt>
      <trkpt lat="40.4174350" lon="-3.7322990">
        <ele>601.9</ele>
        <time>2021-02-23T17:06:23Z</time>
      </trkpt>
      <trkpt lat="40.4174380" lon="-3.7323250">
        <ele>601.9</ele>
        <time>2021-02-23T17:06:24Z</time>
      </trkpt>
      <trkpt lat="40.4174400" lon="-3.7323510">
        <ele>601.9</ele>
        <time>2021-02-23T17:06:25Z</time>
      </trkpt>
      <trkpt lat="40.4174450" lon="-3.7324100">
        <ele>601.9</ele>
        <time>2021-02-23T17:06:26Z</time>
      </trkpt>
      <trkpt lat="40.4174460" lon="-3.7324300">
        <ele>601.9</ele>
        <time>2021-02-23T17:06:27Z</time>
      </trkpt>
      <trkpt lat="40.4174510" lon="-3.7324950">
        <ele>601.9</ele>
        <time>2021-02-23T17:06:28Z</time>
      </trkpt>
      <trkpt lat="40.4174520" lon="-3.7325220">
        <ele>601.9</ele>
        <time>2021-02-23T17:06:29Z</time>
      </trkpt>
      <trkpt lat="40.4174540" lon="-3.7325480">
        <ele>601.9</ele>
        <time>2021-02-23T17:06:30Z</time>
      </trkpt>
      <trkpt lat="40.4174590" lon="-3.7326150">
        <ele>601.9</ele>
        <time>2021-02-23T17:06:31Z</time>
      </trkpt>
      <trkpt lat="40.4174600" lon="-3.7326410">
        <ele>601.9</ele>
        <time>2021-02-23T17:06:32Z</time>
      </trkpt>
      <trkpt lat="40.4174620" lon="-3.7326680">
        <ele>601.9</ele>
        <time>2021-02-23T17:06:33Z</time>
      </trkpt>
      <trkpt lat="40.4174670" lon="-3.7327270">
        <ele>601.9</ele>
        <time>2021-02-23T17:06:34Z</time>
      </trkpt>
      <trkpt lat="40.4174680" lon="-3.7327470">
        <ele>601.9</ele>
        <time>2021-02-23T17:06:35Z</time>
      </trkpt>
      <trkpt lat="40.4174730" lon="-3.7328120">
        <ele>601.9</ele>
        <time>2021-02-23T17:06:36Z</time>
      </trkpt>
      <trkpt lat="40.4174760" lon="-3.7328390">
        <ele>601.9</ele>
        <time>2021-02-23T17:06:37Z</time>
      </trkpt>
      <trkpt lat="40.4174780" lon="-3.7328650">
        <ele>601.9</ele>
        <time>2021-02-23T17:06:38Z</time>
      </trkpt>
      <trkpt lat="40.4174840" lon="-3.7329230">
        <ele>601.9</ele>
        <time>2021-02-23T17:06:39Z</time>
      </trkpt>
      <trkpt lat="40.4174850" lon="-3.7329430">
        <ele>602.0</ele>
        <time>2021-02-23T17:06:40Z</time>
      </trkpt>
      <trkpt lat="40.4174910" lon="-3.7330080">
        <ele>602.0</ele>
        <time>2021-02-23T17:06:41Z</time>
      </trkpt>
      <trkpt lat="40.4174940" lon="-3.7330330">
        <ele>602.0</ele>
        <time>2021-02-23T17:06:42Z</time>
      </trkpt>
      <trkpt lat="40.4174960" lon="-3.7330590">
        <ele>602.0</ele>
        <time>2021-02-23T17:06:43Z</time>
      </trkpt>
      <trkpt lat="40.4175020" lon="-3.7331210">
        <ele>602.0</ele>
        <time>2021-02-23T17:06:44Z</time>
      </trkpt>
      <trkpt lat="40.4175050" lon="-3.7331470">
        <ele>602.0</ele>
        <time>2021-02-23T17:06:45Z</time>
      </trkpt>
      <trkpt lat="40.4175070" lon="-3.7331720">
        <ele>602.0</ele>
        <time>2021-02-23T17:06:46Z</time>
      </trkpt>
      <trkpt lat="40.4175130" lon="-3.7332280">
        <ele>602.1</ele>
        <time>2021-02-23T17:06:47Z</time>
      </trkpt>
      <trkpt lat="40.4175140" lon="-3.7332470">
        <ele>602.1</ele>
        <time>2021-02-23T17:06:48Z</time>
      </trkpt>
      <trkpt lat="40.4175200" lon="-3.7333080">
        <ele>602.2</ele>
        <time>2021-02-23T17:06:49Z</time>
      </trkpt>
      <trkpt lat="40.4175220" lon="-3.7333330">
        <ele>602.2</ele>
        <time>2021-02-23T17:06:50Z</time>
      </trkpt>
      <trkpt lat="40.4175240" lon="-3.7333570">
        <ele>602.2</ele>
        <time>2021-02-23T17:06:51Z</time>
      </trkpt>
      <trkpt lat="40.4175280" lon="-3.7334120">
        <ele>602.3</ele>
        <time>2021-02-23T17:06:52Z</time>
      </trkpt>
      <trkpt lat="40.4175290" lon="-3.7334300">
        <ele>602.3</ele>
        <time>2021-02-23T17:06:53Z</time>
      </trkpt>
      <trkpt lat="40.4175320" lon="-3.7334910">
        <ele>602.4</ele>
        <time>2021-02-23T17:06:54Z</time>
      </trkpt>
      <trkpt lat="40.4175330" lon="-3.7335160">
        <ele>602.4</ele>
        <time>2021-02-23T17:06:55Z</time>
      </trkpt>
      <trkpt lat="40.4175340" lon="-3.7335400">
        <ele>602.4</ele>
        <time>2021-02-23T17:06:56Z</time>
      </trkpt>
      <trkpt lat="40.4175350" lon="-3.7335940">
        <ele>602.5</ele>
        <time>2021-02-23T17:06:57Z</time>
      </trkpt>
      <trkpt lat="40.4175350" lon="-3.7336120">
        <ele>602.5</ele>
        <time>2021-02-23T17:06:58Z</time>
      </trkpt>
      <trkpt lat="40.4175360" lon="-3.7336720">
        <ele>602.5</ele>
        <time>2021-02-23T17:06:59Z</time>
      </trkpt>
      <trkpt lat="40.4175360" lon="-3.7336970">
        <ele>603.6</ele>
        <time>2021-02-23T17:07:00Z</time>
      </trkpt>
      <trkpt lat="40.4175360" lon="-3.7337210">
        <ele>604.9</ele>
        <time>2021-02-23T17:07:01Z</time>
      </trkpt>
      <trkpt lat="40.4175360" lon="-3.7337810">
        <ele>606.1</ele>
        <time>2021-02-23T17:07:02Z</time>
      </trkpt>
      <trkpt lat="40.4175370" lon="-3.7338060">
        <ele>606.1</ele>
        <time>2021-02-23T17:07:03Z</time>
      </trkpt>
      <trkpt lat="40.4175370" lon="-3.7338300">
        <ele>607.3</ele>
        <time>2021-02-23T17:07:04Z</time>
      </trkpt>
      <trkpt lat="40.4175390" lon="-3.7338840">
        <ele>608.5</ele>
        <time>2021-02-23T17:07:05Z</time>
      </trkpt>
      <trkpt lat="40.4175390" lon="-3.7339030">
        <ele>609.6</ele>
        <time>2021-02-23T17:07:06Z</time>
      </trkpt>
      <trkpt lat="40.4175420" lon="-3.7339640">
        <ele>610.5</ele>
        <time>2021-02-23T17:07:07Z</time>
      </trkpt>
      <trkpt lat="40.4175440" lon="-3.7339880">
        <ele>611.1</ele>
        <time>2021-02-23T17:07:08Z</time>
      </trkpt>
      <trkpt lat="40.4175450" lon="-3.7340130">
        <ele>611.0</ele>
        <time>2021-02-23T17:07:09Z</time>
      </trkpt>
      <trkpt lat="40.4175510" lon="-3.7340680">
        <ele>611.4</ele>
        <time>2021-02-23T17:07:10Z</time>
      </trkpt>
      <trkpt lat="40.4175530" lon="-3.7340860">
        <ele>611.3</ele>
        <time>2021-02-23T17:07:11Z</time>
      </trkpt>
      <trkpt lat="40.4175610" lon="-3.7341480">
        <ele>611.2</ele>
        <time>2021-02-23T17:07:12Z</time>
      </trkpt>
      <trkpt lat="40.4175650" lon="-3.7341720">
        <ele>610.9</ele>
        <time>2021-02-23T17:07:13Z</time>
      </trkpt>
      <trkpt lat="40.4175690" lon="-3.7341970">
        <ele>610.4</ele>
        <time>2021-02-23T17:07:14Z</time>
      </trkpt>
      <trkpt lat="40.4175790" lon="-3.7342520">
        <ele>609.8</ele>
        <time>2021-02-23T17:07:15Z</time>
      </trkpt>
      <trkpt lat="40.4175820" lon="-3.7342700">
        <ele>609.6</ele>
        <time>2021-02-23T17:07:16Z</time>
      </trkpt>
      <trkpt lat="40.4175950" lon="-3.7343310">
        <ele>608.7</ele>
        <time>2021-02-23T17:07:17Z</time>
      </trkpt>
      <trkpt lat="40.4176010" lon="-3.7343560">
        <ele>608.7</ele>
        <time>2021-02-23T17:07:18Z</time>
      </trkpt>
      <trkpt lat="40.4176060" lon="-3.7343800">
        <ele>608.4</ele>
        <time>2021-02-23T17:07:19Z</time>
      </trkpt>
      <trkpt lat="40.4176200" lon="-3.7344400">
        <ele>608.1</ele>
        <time>2021-02-23T17:07:20Z</time>
      </trkpt>
      <trkpt lat="40.4176260" lon="-3.7344640">
        <ele>608.1</ele>
        <time>2021-02-23T17:07:21Z</time>
      </trkpt>
      <trkpt lat="40.4176320" lon="-3.7344880">
        <ele>608.0</ele>
        <time>2021-02-23T17:07:22Z</time>
      </trkpt>
      <trkpt lat="40.4176470" lon="-3.7345410">
        <ele>608.1</ele>
        <time>2021-02-23T17:07:23Z</time>
      </trkpt>
      <trkpt lat="40.4176510" lon="-3.7345590">
        <ele>608.0</ele>
        <time>2021-02-23T17:07:24Z</time>
      </trkpt>
      <trkpt lat="40.4176680" lon="-3.7346170">
        <ele>608.0</ele>
        <time>2021-02-23T17:07:25Z</time>
      </trkpt>
      <trkpt lat="40.4176760" lon="-3.7346390">
        <ele>608.0</ele>
        <time>2021-02-23T17:07:26Z</time>
      </trkpt>
      <trkpt lat="40.4176830" lon="-3.7346620">
        <ele>607.8</ele>
        <time>2021-02-23T17:07:27Z</time>
      </trkpt>
      <trkpt lat="40.4177000" lon="-3.7347100">
        <ele>607.7</ele>
        <time>2021-02-23T17:07:28Z</time>
      </trkpt>
      <trkpt lat="40.4177060" lon="-3.7347260">
        <ele>607.6</ele>
        <time>2021-02-23T17:07:29Z</time>
      </trkpt>
      <trkpt lat="40.4177270" lon="-3.7347760">
        <ele>607.4</ele>
        <time>2021-02-23T17:07:30Z</time>
      </trkpt>
      <trkpt lat="40.4177370" lon="-3.7347950">
        <ele>607.3</ele>
        <time>2021-02-23T17:07:31Z</time>
      </trkpt>
      <trkpt lat="40.4177460" lon="-3.7348140">
        <ele>607.2</ele>
        <time>2021-02-23T17:07:32Z</time>
      </trkpt>
      <trkpt lat="40.4177700" lon="-3.7348530">
        <ele>607.1</ele>
        <time>2021-02-23T17:07:33Z</time>
      </trkpt>
      <trkpt lat="40.4177780" lon="-3.7348660">
        <ele>607.0</ele>
        <time>2021-02-23T17:07:34Z</time>
      </trkpt>
      <trkpt lat="40.4178090" lon="-3.7349020">
        <ele>606.9</ele>
        <time>2021-02-23T17:07:35Z</time>
      </trkpt>
      <trkpt lat="40.4178220" lon="-3.7349160">
        <ele>606.8</ele>
        <time>2021-02-23T17:07:36Z</time>
      </trkpt>
      <trkpt lat="40.4178350" lon="-3.7349290">
        <ele>606.8</ele>
        <time>2021-02-23T17:07:37Z</time>
      </trkpt>
      <trkpt lat="40.4178700" lon="-3.7349580">
        <ele>606.7</ele>
        <time>2021-02-23T17:07:38Z</time>
      </trkpt>
      <trkpt lat="40.4178840" lon="-3.7349680">
        <ele>606.6</ele>
        <time>2021-02-23T17:07:39Z</time>
      </trkpt>
      <trkpt lat="40.4178990" lon="-3.7349790">
        <ele>606.5</ele>
        <time>2021-02-23T17:07:40Z</time>
      </trkpt>
      <trkpt lat="40.4179320" lon="-3.7349990">
        <ele>606.5</ele>
        <time>2021-02-23T17:07:41Z</time>
      </trkpt>
      <trkpt lat="40.4179420" lon="-3.7350060">
        <ele>606.5</ele>
        <time>2021-02-23T17:07:42Z</time>
      </trkpt>
      <trkpt lat="40.4179760" lon="-3.7350260">
        <ele>606.4</ele>
        <time>2021-02-23T17:07:43Z</time>
      </trkpt>
      <trkpt lat="40.4179900" lon="-3.7350340">
        <ele>606.3</ele>
        <time>2021-02-23T17:07:44Z</time>
      </trkpt>
      <trkpt lat="40.4180030" lon="-3.7350420">
        <ele>606.3</ele>
        <time>2021-02-23T17:07:45Z</time>
      </trkpt>
      <trkpt lat="40.4180290" lon="-3.7350580">
        <ele>606.2</ele>
        <time>2021-02-23T17:07:46Z</time>
      </trkpt>
      <trkpt lat="40.4180610" lon="-3.7350900">
        <ele>606.1</ele>
        <time>2021-02-23T17:07:47Z</time>
      </trkpt>
      <trkpt lat="40.4180840" lon="-3.7351170">
        <ele>606.0</ele>
        <time>2021-02-23T17:07:48Z</time>
      </trkpt>
      <trkpt lat="40.4181160" lon="-3.7351600">
        <ele>605.8</ele>
        <time>2021-02-23T17:07:49Z</time>
      </trkpt>
      <trkpt lat="40.4181470" lon="-3.7352020">
        <ele>605.7</ele>
        <time>2021-02-23T17:07:50Z</time>
      </trkpt>
      <trkpt lat="40.4181950" lon="-3.7352660">
        <ele>605.6</ele>
        <time>2021-02-23T17:12:37Z</time>
      </trkpt>
      <trkpt lat="40.4182110" lon="-3.7352880">
        <ele>605.5</ele>
        <time>2021-02-23T17:12:38Z</time>
      </trkpt>
      <trkpt lat="40.4182090" lon="-3.7352930">
        <ele>605.5</ele>
        <time>2021-02-23T17:12:39Z</time>
      </trkpt>
      <trkpt lat="40.4182090" lon="-3.7352960">
        <ele>605.5</ele>
        <time>2021-02-23T17:12:40Z</time>
      </trkpt>
      <trkpt lat="40.4184800" lon="-3.7356370">
        <ele>605.7</ele>
        <time>2021-02-23T17:12:51Z</time>
      </trkpt>
      <trkpt lat="40.4185170" lon="-3.7356600">
        <ele>605.7</ele>
        <time>2021-02-23T17:12:52Z</time>
      </trkpt>
      <trkpt lat="40.4185290" lon="-3.7356680">
        <ele>605.7</ele>
        <time>2021-02-23T17:12:53Z</time>
      </trkpt>
      <trkpt lat="40.4185700" lon="-3.7356900">
        <ele>605.6</ele>
        <time>2021-02-23T17:12:54Z</time>
      </trkpt>
      <trkpt lat="40.4185870" lon="-3.7356990">
        <ele>605.6</ele>
        <time>2021-02-23T17:12:55Z</time>
      </trkpt>
      <trkpt lat="40.4186030" lon="-3.7357070">
        <ele>605.6</ele>
        <time>2021-02-23T17:12:56Z</time>
      </trkpt>
      <trkpt lat="40.4186390" lon="-3.7357230">
        <ele>605.6</ele>
        <time>2021-02-23T17:12:57Z</time>
      </trkpt>
      <trkpt lat="40.4186510" lon="-3.7357290">
        <ele>605.6</ele>
        <time>2021-02-23T17:12:58Z</time>
      </trkpt>
      <trkpt lat="40.4186890" lon="-3.7357470">
        <ele>605.6</ele>
        <time>2021-02-23T17:12:59Z</time>
      </trkpt>
      <trkpt lat="40.4187040" lon="-3.7357540">
        <ele>605.5</ele>
        <time>2021-02-23T17:13:00Z</time>
      </trkpt>
      <trkpt lat="40.4187190" lon="-3.7357610">
        <ele>605.5</ele>
        <time>2021-02-23T17:13:01Z</time>
      </trkpt>
      <trkpt lat="40.4187410" lon="-3.7357730">
        <ele>605.4</ele>
        <time>2021-02-23T17:13:02Z</time>
      </trkpt>
      <trkpt lat="40.4187660" lon="-3.7357860">
        <ele>605.5</ele>
        <time>2021-02-23T17:13:04Z</time>
      </trkpt>
      <trkpt lat="40.4187970" lon="-3.7358050">
        <ele>605.4</ele>
        <time>2021-02-23T17:13:05Z</time>
      </trkpt>
      <trkpt lat="40.4188070" lon="-3.7358120">
        <ele>605.3</ele>
        <time>2021-02-23T17:13:06Z</time>
      </trkpt>
      <trkpt lat="40.4188380" lon="-3.7358380">
        <ele>605.4</ele>
        <time>2021-02-23T17:13:07Z</time>
      </trkpt>
      <trkpt lat="40.4188500" lon="-3.7358490">
        <ele>605.3</ele>
        <time>2021-02-23T17:13:08Z</time>
      </trkpt>
      <trkpt lat="40.4188620" lon="-3.7358600">
        <ele>605.3</ele>
        <time>2021-02-23T17:13:09Z</time>
      </trkpt>
      <trkpt lat="40.4188860" lon="-3.7358880">
        <ele>605.4</ele>
        <time>2021-02-23T17:13:10Z</time>
      </trkpt>
      <trkpt lat="40.4188940" lon="-3.7358980">
        <ele>605.4</ele>
        <time>2021-02-23T17:13:11Z</time>
      </trkpt>
      <trkpt lat="40.4189160" lon="-3.7359350">
        <ele>605.4</ele>
        <time>2021-02-23T17:13:12Z</time>
      </trkpt>
      <trkpt lat="40.4189250" lon="-3.7359510">
        <ele>605.5</ele>
        <time>2021-02-23T17:13:13Z</time>
      </trkpt>
      <trkpt lat="40.4189330" lon="-3.7359660">
        <ele>605.5</ele>
        <time>2021-02-23T17:13:14Z</time>
      </trkpt>
      <trkpt lat="40.4189490" lon="-3.7360030">
        <ele>605.6</ele>
        <time>2021-02-23T17:13:15Z</time>
      </trkpt>
      <trkpt lat="40.4189530" lon="-3.7360160">
        <ele>605.6</ele>
        <time>2021-02-23T17:13:16Z</time>
      </trkpt>
      <trkpt lat="40.4189640" lon="-3.7360630">
        <ele>605.7</ele>
        <time>2021-02-23T17:13:17Z</time>
      </trkpt>
      <trkpt lat="40.4189680" lon="-3.7360820">
        <ele>605.7</ele>
        <time>2021-02-23T17:13:18Z</time>
      </trkpt>
      <trkpt lat="40.4189720" lon="-3.7361010">
        <ele>605.7</ele>
        <time>2021-02-23T17:13:19Z</time>
      </trkpt>
      <trkpt lat="40.4189760" lon="-3.7361510">
        <ele>605.8</ele>
        <time>2021-02-23T17:13:20Z</time>
      </trkpt>
      <trkpt lat="40.4189780" lon="-3.7361720">
        <ele>605.8</ele>
        <time>2021-02-23T17:13:21Z</time>
      </trkpt>
      <trkpt lat="40.4189790" lon="-3.7361930">
        <ele>605.9</ele>
        <time>2021-02-23T17:13:22Z</time>
      </trkpt>
      <trkpt lat="40.4189790" lon="-3.7362420">
        <ele>605.9</ele>
        <time>2021-02-23T17:13:23Z</time>
      </trkpt>
      <trkpt lat="40.4189780" lon="-3.7362580">
        <ele>606.0</ele>
        <time>2021-02-23T17:13:24Z</time>
      </trkpt>
      <trkpt lat="40.4189740" lon="-3.7363150">
        <ele>606.1</ele>
        <time>2021-02-23T17:13:25Z</time>
      </trkpt>
      <trkpt lat="40.4189730" lon="-3.7363370">
        <ele>606.1</ele>
        <time>2021-02-23T17:13:26Z</time>
      </trkpt>
      <trkpt lat="40.4189710" lon="-3.7363600">
        <ele>606.1</ele>
        <time>2021-02-23T17:13:27Z</time>
      </trkpt>
      <trkpt lat="40.4189660" lon="-3.7364120">
        <ele>606.2</ele>
        <time>2021-02-23T17:13:28Z</time>
      </trkpt>
      <trkpt lat="40.4189640" lon="-3.7364290">
        <ele>606.2</ele>
        <time>2021-02-23T17:13:29Z</time>
      </trkpt>
      <trkpt lat="40.4189570" lon="-3.7364870">
        <ele>606.2</ele>
        <time>2021-02-23T17:13:30Z</time>
      </trkpt>
      <trkpt lat="40.4189540" lon="-3.7365090">
        <ele>606.3</ele>
        <time>2021-02-23T17:13:31Z</time>
      </trkpt>
      <trkpt lat="40.4189510" lon="-3.7365320">
        <ele>606.3</ele>
        <time>2021-02-23T17:13:32Z</time>
      </trkpt>
      <trkpt lat="40.4189450" lon="-3.7365840">
        <ele>606.3</ele>
        <time>2021-02-23T17:13:33Z</time>
      </trkpt>
      <trkpt lat="40.4189430" lon="-3.7366000">
        <ele>606.3</ele>
        <time>2021-02-23T17:13:34Z</time>
      </trkpt>
      <trkpt lat="40.4189350" lon="-3.7366560">
        <ele>606.4</ele>
        <time>2021-02-23T17:13:35Z</time>
      </trkpt>
      <trkpt lat="40.4189320" lon="-3.7366790">
        <ele>606.4</ele>
        <time>2021-02-23T17:13:36Z</time>
      </trkpt>
      <trkpt lat="40.4189290" lon="-3.7367010">
        <ele>606.4</ele>
        <time>2021-02-23T17:13:37Z</time>
      </trkpt>
      <trkpt lat="40.4189220" lon="-3.7367560">
        <ele>606.4</ele>
        <time>2021-02-23T17:13:38Z</time>
      </trkpt>
      <trkpt lat="40.4189200" lon="-3.7367780">
        <ele>606.4</ele>
        <time>2021-02-23T17:13:39Z</time>
      </trkpt>
      <trkpt lat="40.4189170" lon="-3.7368000">
        <ele>606.4</ele>
        <time>2021-02-23T17:13:40Z</time>
      </trkpt>
      <trkpt lat="40.4189120" lon="-3.7368500">
        <ele>606.5</ele>
        <time>2021-02-23T17:13:41Z</time>
      </trkpt>
      <trkpt lat="40.4189100" lon="-3.7368670">
        <ele>606.5</ele>
        <time>2021-02-23T17:13:42Z</time>
      </trkpt>
      <trkpt lat="40.4189050" lon="-3.7369230">
        <ele>606.5</ele>
        <time>2021-02-23T17:13:43Z</time>
      </trkpt>
      <trkpt lat="40.4189040" lon="-3.7369450">
        <ele>606.5</ele>
        <time>2021-02-23T17:13:44Z</time>
      </trkpt>
      <trkpt lat="40.4189020" lon="-3.7369680">
        <ele>606.5</ele>
        <time>2021-02-23T17:13:45Z</time>
      </trkpt>
      <trkpt lat="40.4188990" lon="-3.7370200">
        <ele>606.5</ele>
        <time>2021-02-23T17:13:46Z</time>
      </trkpt>
      <trkpt lat="40.4188980" lon="-3.7370370">
        <ele>606.5</ele>
        <time>2021-02-23T17:13:47Z</time>
      </trkpt>
      <trkpt lat="40.4188960" lon="-3.7370960">
        <ele>606.6</ele>
        <time>2021-02-23T17:13:48Z</time>
      </trkpt>
      <trkpt lat="40.4188960" lon="-3.7371190">
        <ele>606.6</ele>
        <time>2021-02-23T17:13:49Z</time>
      </trkpt>
      <trkpt lat="40.4188950" lon="-3.7371430">
        <ele>606.6</ele>
        <time>2021-02-23T17:13:50Z</time>
      </trkpt>
      <trkpt lat="40.4188940" lon="-3.7371970">
        <ele>606.6</ele>
        <time>2021-02-23T17:13:51Z</time>
      </trkpt>
      <trkpt lat="40.4188930" lon="-3.7372140">
        <ele>606.6</ele>
        <time>2021-02-23T17:13:52Z</time>
      </trkpt>
      <trkpt lat="40.4188930" lon="-3.7372740">
        <ele>606.6</ele>
        <time>2021-02-23T17:13:53Z</time>
      </trkpt>
      <trkpt lat="40.4188920" lon="-3.7372990">
        <ele>606.6</ele>
        <time>2021-02-23T17:13:54Z</time>
      </trkpt>
      <trkpt lat="40.4188920" lon="-3.7373230">
        <ele>606.6</ele>
        <time>2021-02-23T17:13:55Z</time>
      </trkpt>
      <trkpt lat="40.4188910" lon="-3.7373830">
        <ele>606.7</ele>
        <time>2021-02-23T17:13:56Z</time>
      </trkpt>
      <trkpt lat="40.4188910" lon="-3.7374080">
        <ele>606.7</ele>
        <time>2021-02-23T17:13:57Z</time>
      </trkpt>
      <trkpt lat="40.4188900" lon="-3.7374320">
        <ele>606.7</ele>
        <time>2021-02-23T17:13:58Z</time>
      </trkpt>
      <trkpt lat="40.4188900" lon="-3.7374860">
        <ele>606.7</ele>
        <time>2021-02-23T17:13:59Z</time>
      </trkpt>
      <trkpt lat="40.4188890" lon="-3.7375040">
        <ele>606.7</ele>
        <time>2021-02-23T17:14:00Z</time>
      </trkpt>
      <trkpt lat="40.4188870" lon="-3.7375640">
        <ele>606.8</ele>
        <time>2021-02-23T17:14:01Z</time>
      </trkpt>
      <trkpt lat="40.4188870" lon="-3.7375870">
        <ele>606.8</ele>
        <time>2021-02-23T17:14:02Z</time>
      </trkpt>
      <trkpt lat="40.4188860" lon="-3.7376110">
        <ele>606.8</ele>
        <time>2021-02-23T17:14:03Z</time>
      </trkpt>
      <trkpt lat="40.4188840" lon="-3.7376640">
        <ele>606.8</ele>
        <time>2021-02-23T17:14:04Z</time>
      </trkpt>
      <trkpt lat="40.4188830" lon="-3.7376810">
        <ele>606.8</ele>
        <time>2021-02-23T17:14:05Z</time>
      </trkpt>
      <trkpt lat="40.4188800" lon="-3.7377390">
        <ele>606.8</ele>
        <time>2021-02-23T17:14:06Z</time>
      </trkpt>
      <trkpt lat="40.4188800" lon="-3.7377610">
        <ele>606.9</ele>
        <time>2021-02-23T17:14:07Z</time>
      </trkpt>
      <trkpt lat="40.4188790" lon="-3.7377840">
        <ele>606.9</ele>
        <time>2021-02-23T17:14:08Z</time>
      </trkpt>
      <trkpt lat="40.4188770" lon="-3.7378360">
        <ele>606.9</ele>
        <time>2021-02-23T17:14:09Z</time>
      </trkpt>
      <trkpt lat="40.4188760" lon="-3.7378530">
        <ele>606.9</ele>
        <time>2021-02-23T17:14:10Z</time>
      </trkpt>
      <trkpt lat="40.4188740" lon="-3.7379090">
        <ele>607.0</ele>
        <time>2021-02-23T17:14:11Z</time>
      </trkpt>
      <trkpt lat="40.4188740" lon="-3.7379320">
        <ele>607.0</ele>
        <time>2021-02-23T17:14:12Z</time>
      </trkpt>
      <trkpt lat="40.4188730" lon="-3.7379540">
        <ele>607.0</ele>
        <time>2021-02-23T17:14:13Z</time>
      </trkpt>
      <trkpt lat="40.4188700" lon="-3.7380090">
        <ele>607.0</ele>
        <time>2021-02-23T17:14:14Z</time>
      </trkpt>
      <trkpt lat="40.4188700" lon="-3.7380310">
        <ele>607.0</ele>
        <time>2021-02-23T17:14:15Z</time>
      </trkpt>
      <trkpt lat="40.4188690" lon="-3.7380530">
        <ele>607.1</ele>
        <time>2021-02-23T17:14:16Z</time>
      </trkpt>
      <trkpt lat="40.4188670" lon="-3.7381010">
        <ele>607.1</ele>
        <time>2021-02-23T17:14:17Z</time>
      </trkpt>
      <trkpt lat="40.4188660" lon="-3.7381170">
        <ele>607.1</ele>
        <time>2021-02-23T17:14:18Z</time>
      </trkpt>
      <trkpt lat="40.4188630" lon="-3.7381700">
        <ele>607.1</ele>
        <time>2021-02-23T17:14:19Z</time>
      </trkpt>
      <trkpt lat="40.4188620" lon="-3.7381910">
        <ele>607.2</ele>
        <time>2021-02-23T17:14:20Z</time>
      </trkpt>
      <trkpt lat="40.4188600" lon="-3.7382120">
        <ele>607.2</ele>
        <time>2021-02-23T17:14:21Z</time>
      </trkpt>
      <trkpt lat="40.4188570" lon="-3.7382590">
        <ele>607.2</ele>
        <time>2021-02-23T17:14:22Z</time>
      </trkpt>
      <trkpt lat="40.4188550" lon="-3.7382740">
        <ele>607.2</ele>
        <time>2021-02-23T17:14:23Z</time>
      </trkpt>
      <trkpt lat="40.4188490" lon="-3.7383260">
        <ele>607.3</ele>
        <time>2021-02-23T17:14:24Z</time>
      </trkpt>
      <trkpt lat="40.4188460" lon="-3.7383460">
        <ele>607.3</ele>
        <time>2021-02-23T17:14:25Z</time>
      </trkpt>
      <trkpt lat="40.4188440" lon="-3.7383670">
        <ele>607.3</ele>
        <time>2021-02-23T17:14:26Z</time>
      </trkpt>
      <trkpt lat="40.4188380" lon="-3.7384140">
        <ele>607.3</ele>
        <time>2021-02-23T17:14:27Z</time>
      </trkpt>
      <trkpt lat="40.4188350" lon="-3.7384290">
        <ele>607.3</ele>
        <time>2021-02-23T17:14:28Z</time>
      </trkpt>
      <trkpt lat="40.4188270" lon="-3.7384820">
        <ele>607.3</ele>
        <time>2021-02-23T17:14:29Z</time>
      </trkpt>
      <trkpt lat="40.4188230" lon="-3.7385040">
        <ele>607.4</ele>
        <time>2021-02-23T17:14:30Z</time>
      </trkpt>
      <trkpt lat="40.4188200" lon="-3.7385250">
        <ele>607.4</ele>
        <time>2021-02-23T17:14:31Z</time>
      </trkpt>
      <trkpt lat="40.4188120" lon="-3.7385790">
        <ele>607.4</ele>
        <time>2021-02-23T17:14:32Z</time>
      </trkpt>
      <trkpt lat="40.4188080" lon="-3.7386000">
        <ele>607.4</ele>
        <time>2021-02-23T17:14:33Z</time>
      </trkpt>
      <trkpt lat="40.4188050" lon="-3.7386220">
        <ele>607.4</ele>
        <time>2021-02-23T17:14:34Z</time>
      </trkpt>
      <trkpt lat="40.4187980" lon="-3.7386720">
        <ele>607.4</ele>
        <time>2021-02-23T17:14:35Z</time>
      </trkpt>
      <trkpt lat="40.4187950" lon="-3.7386880">
        <ele>607.4</ele>
        <time>2021-02-23T17:14:36Z</time>
      </trkpt>
      <trkpt lat="40.4187870" lon="-3.7387430">
        <ele>607.5</ele>
        <time>2021-02-23T17:14:37Z</time>
      </trkpt>
      <trkpt lat="40.4187850" lon="-3.7387660">
        <ele>607.5</ele>
        <time>2021-02-23T17:14:38Z</time>
      </trkpt>
      <trkpt lat="40.4187820" lon="-3.7387880">
        <ele>607.5</ele>
        <time>2021-02-23T17:14:39Z</time>
      </trkpt>
      <trkpt lat="40.4187760" lon="-3.7388380">
        <ele>607.5</ele>
        <time>2021-02-23T17:14:40Z</time>
      </trkpt>
      <trkpt lat="40.4187740" lon="-3.7388540">
        <ele>607.5</ele>
        <time>2021-02-23T17:14:41Z</time>
      </trkpt>
      <trkpt lat="40.4187690" lon="-3.7389080">
        <ele>607.5</ele>
        <time>2021-02-23T17:14:42Z</time>
      </trkpt>
      <trkpt lat="40.4187680" lon="-3.7389300">
        <ele>607.5</ele>
        <time>2021-02-23T17:14:43Z</time>
      </trkpt>
      <trkpt lat="40.4187660" lon="-3.7389520">
        <ele>607.6</ele>
        <time>2021-02-23T17:14:44Z</time>
      </trkpt>
      <trkpt lat="40.4187630" lon="-3.7390000">
        <ele>607.6</ele>
        <time>2021-02-23T17:14:45Z</time>
      </trkpt>
      <trkpt lat="40.4187620" lon="-3.7390160">
        <ele>607.6</ele>
        <time>2021-02-23T17:14:46Z</time>
      </trkpt>
      <trkpt lat="40.4187590" lon="-3.7390690">
        <ele>607.6</ele>
        <time>2021-02-23T17:14:47Z</time>
      </trkpt>
      <trkpt lat="40.4187590" lon="-3.7390910">
        <ele>607.6</ele>
        <time>2021-02-23T17:14:48Z</time>
      </trkpt>
      <trkpt lat="40.4187580" lon="-3.7391120">
        <ele>607.6</ele>
        <time>2021-02-23T17:14:49Z</time>
      </trkpt>
      <trkpt lat="40.4187560" lon="-3.7391650">
        <ele>607.6</ele>
        <time>2021-02-23T17:14:50Z</time>
      </trkpt>
      <trkpt lat="40.4187560" lon="-3.7391860">
        <ele>607.6</ele>
        <time>2021-02-23T17:14:51Z</time>
      </trkpt>
      <trkpt lat="40.4187550" lon="-3.7392070">
        <ele>607.6</ele>
        <time>2021-02-23T17:14:52Z</time>
      </trkpt>
      <trkpt lat="40.4187530" lon="-3.7392550">
        <ele>607.6</ele>
        <time>2021-02-23T17:14:53Z</time>
      </trkpt>
      <trkpt lat="40.4187520" lon="-3.7392710">
        <ele>607.6</ele>
        <time>2021-02-23T17:14:54Z</time>
      </trkpt>
      <trkpt lat="40.4187490" lon="-3.7393250">
        <ele>607.7</ele>
        <time>2021-02-23T17:14:55Z</time>
      </trkpt>
      <trkpt lat="40.4187470" lon="-3.7393460">
        <ele>607.7</ele>
        <time>2021-02-23T17:14:56Z</time>
      </trkpt>
      <trkpt lat="40.4187460" lon="-3.7393680">
        <ele>607.7</ele>
        <time>2021-02-23T17:14:57Z</time>
      </trkpt>
      <trkpt lat="40.4187430" lon="-3.7394180">
        <ele>607.7</ele>
        <time>2021-02-23T17:14:58Z</time>
      </trkpt>
      <trkpt lat="40.4187410" lon="-3.7394340">
        <ele>607.7</ele>
        <time>2021-02-23T17:14:59Z</time>
      </trkpt>
      <trkpt lat="40.4187360" lon="-3.7394910">
        <ele>607.7</ele>
        <time>2021-02-23T17:15:00Z</time>
      </trkpt>
      <trkpt lat="40.4187330" lon="-3.7395130">
        <ele>607.7</ele>
        <time>2021-02-23T17:15:01Z</time>
      </trkpt>
      <trkpt lat="40.4187310" lon="-3.7395360">
        <ele>607.7</ele>
        <time>2021-02-23T17:15:02Z</time>
      </trkpt>
      <trkpt lat="40.4187250" lon="-3.7395870">
        <ele>607.7</ele>
        <time>2021-02-23T17:15:03Z</time>
      </trkpt>
      <trkpt lat="40.4187230" lon="-3.7396040">
        <ele>607.7</ele>
        <time>2021-02-23T17:15:04Z</time>
      </trkpt>
      <trkpt lat="40.4187160" lon="-3.7396620">
        <ele>607.7</ele>
        <time>2021-02-23T17:15:05Z</time>
      </trkpt>
      <trkpt lat="40.4187130" lon="-3.7396860">
        <ele>607.8</ele>
        <time>2021-02-23T17:15:06Z</time>
      </trkpt>
      <trkpt lat="40.4187100" lon="-3.7397090">
        <ele>607.8</ele>
        <time>2021-02-23T17:15:07Z</time>
      </trkpt>
      <trkpt lat="40.4187030" lon="-3.7397690">
        <ele>607.8</ele>
        <time>2021-02-23T17:15:08Z</time>
      </trkpt>
      <trkpt lat="40.4187000" lon="-3.7397920">
        <ele>607.8</ele>
        <time>2021-02-23T17:15:09Z</time>
      </trkpt>
      <trkpt lat="40.4186970" lon="-3.7398160">
        <ele>607.8</ele>
        <time>2021-02-23T17:15:10Z</time>
      </trkpt>
      <trkpt lat="40.4186910" lon="-3.7398690">
        <ele>607.9</ele>
        <time>2021-02-23T17:15:11Z</time>
      </trkpt>
      <trkpt lat="40.4186880" lon="-3.7398870">
        <ele>607.9</ele>
        <time>2021-02-23T17:15:12Z</time>
      </trkpt>
      <trkpt lat="40.4186810" lon="-3.7399450">
        <ele>607.9</ele>
        <time>2021-02-23T17:15:13Z</time>
      </trkpt>
      <trkpt lat="40.4186780" lon="-3.7399690">
        <ele>607.9</ele>
        <time>2021-02-23T17:15:14Z</time>
      </trkpt>
      <trkpt lat="40.4186750" lon="-3.7399920">
        <ele>607.9</ele>
        <time>2021-02-23T17:15:15Z</time>
      </trkpt>
      <trkpt lat="40.4186690" lon="-3.7400440">
        <ele>608.0</ele>
        <time>2021-02-23T17:15:16Z</time>
      </trkpt>
      <trkpt lat="40.4186670" lon="-3.7400610">
        <ele>608.0</ele>
        <time>2021-02-23T17:15:17Z</time>
      </trkpt>
      <trkpt lat="40.4186600" lon="-3.7401170">
        <ele>608.0</ele>
        <time>2021-02-23T17:15:18Z</time>
      </trkpt>
      <trkpt lat="40.4186570" lon="-3.7401400">
        <ele>608.1</ele>
        <time>2021-02-23T17:15:19Z</time>
      </trkpt>
      <trkpt lat="40.4186540" lon="-3.7401620">
        <ele>608.1</ele>
        <time>2021-02-23T17:15:20Z</time>
      </trkpt>
      <trkpt lat="40.4186490" lon="-3.7402120">
        <ele>608.1</ele>
        <time>2021-02-23T17:15:21Z</time>
      </trkpt>
      <trkpt lat="40.4186470" lon="-3.7402280">
        <ele>608.2</ele>
        <time>2021-02-23T17:15:22Z</time>
      </trkpt>
      <trkpt lat="40.4186410" lon="-3.7402830">
        <ele>608.2</ele>
        <time>2021-02-23T17:15:23Z</time>
      </trkpt>
      <trkpt lat="40.4186380" lon="-3.7403040">
        <ele>608.2</ele>
        <time>2021-02-23T17:15:24Z</time>
      </trkpt>
      <trkpt lat="40.4186360" lon="-3.7403260">
        <ele>608.2</ele>
        <time>2021-02-23T17:15:25Z</time>
      </trkpt>
      <trkpt lat="40.4186310" lon="-3.7403790">
        <ele>608.3</ele>
        <time>2021-02-23T17:15:26Z</time>
      </trkpt>
      <trkpt lat="40.4186290" lon="-3.7404010">
        <ele>608.3</ele>
        <time>2021-02-23T17:15:27Z</time>
      </trkpt>
      <trkpt lat="40.4186270" lon="-3.7404220">
        <ele>608.3</ele>
        <time>2021-02-23T17:15:28Z</time>
      </trkpt>
      <trkpt lat="40.4186240" lon="-3.7404710">
        <ele>608.4</ele>
        <time>2021-02-23T17:15:29Z</time>
      </trkpt>
      <trkpt lat="40.4186220" lon="-3.7404870">
        <ele>608.4</ele>
        <time>2021-02-23T17:15:30Z</time>
      </trkpt>
      <trkpt lat="40.4186190" lon="-3.7405410">
        <ele>608.4</ele>
        <time>2021-02-23T17:15:31Z</time>
      </trkpt>
      <trkpt lat="40.4186170" lon="-3.7405640">
        <ele>608.5</ele>
        <time>2021-02-23T17:15:32Z</time>
      </trkpt>
      <trkpt lat="40.4186160" lon="-3.7405860">
        <ele>608.5</ele>
        <time>2021-02-23T17:15:33Z</time>
      </trkpt>
      <trkpt lat="40.4186120" lon="-3.7406360">
        <ele>608.5</ele>
        <time>2021-02-23T17:15:34Z</time>
      </trkpt>
      <trkpt lat="40.4186110" lon="-3.7406530">
        <ele>608.5</ele>
        <time>2021-02-23T17:15:35Z</time>
      </trkpt>
      <trkpt lat="40.4186070" lon="-3.7407110">
        <ele>608.6</ele>
        <time>2021-02-23T17:15:36Z</time>
      </trkpt>
      <trkpt lat="40.4186060" lon="-3.7407340">
        <ele>608.6</ele>
        <time>2021-02-23T17:15:37Z</time>
      </trkpt>
      <trkpt lat="40.4186040" lon="-3.7407570">
        <ele>608.7</ele>
        <time>2021-02-23T17:15:38Z</time>
      </trkpt>
      <trkpt lat="40.4186000" lon="-3.7408100">
        <ele>608.7</ele>
        <time>2021-02-23T17:15:39Z</time>
      </trkpt>
      <trkpt lat="40.4185980" lon="-3.7408270">
        <ele>608.7</ele>
        <time>2021-02-23T17:15:40Z</time>
      </trkpt>
      <trkpt lat="40.4185920" lon="-3.7408850">
        <ele>608.8</ele>
        <time>2021-02-23T17:15:41Z</time>
      </trkpt>
      <trkpt lat="40.4185890" lon="-3.7409080">
        <ele>608.8</ele>
        <time>2021-02-23T17:15:42Z</time>
      </trkpt>
      <trkpt lat="40.4185870" lon="-3.7409310">
        <ele>608.9</ele>
        <time>2021-02-23T17:15:43Z</time>
      </trkpt>
      <trkpt lat="40.4185810" lon="-3.7409870">
        <ele>609.0</ele>
        <time>2021-02-23T17:15:44Z</time>
      </trkpt>
      <trkpt lat="40.4185780" lon="-3.7410100">
        <ele>609.0</ele>
        <time>2021-02-23T17:15:45Z</time>
      </trkpt>
      <trkpt lat="40.4185760" lon="-3.7410320">
        <ele>609.0</ele>
        <time>2021-02-23T17:15:46Z</time>
      </trkpt>
      <trkpt lat="40.4185700" lon="-3.7410820">
        <ele>609.1</ele>
        <time>2021-02-23T17:15:47Z</time>
      </trkpt>
      <trkpt lat="40.4185680" lon="-3.7410980">
        <ele>609.1</ele>
        <time>2021-02-23T17:15:48Z</time>
      </trkpt>
      <trkpt lat="40.4185620" lon="-3.7411530">
        <ele>609.2</ele>
        <time>2021-02-23T17:15:49Z</time>
      </trkpt>
      <trkpt lat="40.4185590" lon="-3.7411740">
        <ele>609.2</ele>
        <time>2021-02-23T17:15:50Z</time>
      </trkpt>
      <trkpt lat="40.4185570" lon="-3.7411960">
        <ele>609.3</ele>
        <time>2021-02-23T17:15:51Z</time>
      </trkpt>
      <trkpt lat="40.4185510" lon="-3.7412450">
        <ele>609.4</ele>
        <time>2021-02-23T17:15:52Z</time>
      </trkpt>
      <trkpt lat="40.4185490" lon="-3.7412610">
        <ele>609.4</ele>
        <time>2021-02-23T17:15:53Z</time>
      </trkpt>
      <trkpt lat="40.4185420" lon="-3.7413160">
        <ele>609.5</ele>
        <time>2021-02-23T17:15:54Z</time>
      </trkpt>
      <trkpt lat="40.4185400" lon="-3.7413370">
        <ele>609.5</ele>
        <time>2021-02-23T17:15:55Z</time>
      </trkpt>
      <trkpt lat="40.4185370" lon="-3.7413590">
        <ele>609.5</ele>
        <time>2021-02-23T17:15:56Z</time>
      </trkpt>
      <trkpt lat="40.4185290" lon="-3.7414140">
        <ele>609.6</ele>
        <time>2021-02-23T17:15:57Z</time>
      </trkpt>
      <trkpt lat="40.4185260" lon="-3.7414350">
        <ele>609.7</ele>
        <time>2021-02-23T17:15:58Z</time>
      </trkpt>
      <trkpt lat="40.4185230" lon="-3.7414570">
        <ele>609.7</ele>
        <time>2021-02-23T17:15:59Z</time>
      </trkpt>
      <trkpt lat="40.4185160" lon="-3.7415070">
        <ele>609.8</ele>
        <time>2021-02-23T17:16:00Z</time>
      </trkpt>
      <trkpt lat="40.4185130" lon="-3.7415230">
        <ele>609.8</ele>
        <time>2021-02-23T17:16:01Z</time>
      </trkpt>
      <trkpt lat="40.4185030" lon="-3.7415790">
        <ele>609.9</ele>
        <time>2021-02-23T17:16:02Z</time>
      </trkpt>
      <trkpt lat="40.4185000" lon="-3.7416020">
        <ele>609.9</ele>
        <time>2021-02-23T17:16:03Z</time>
      </trkpt>
      <trkpt lat="40.4184960" lon="-3.7416240">
        <ele>609.9</ele>
        <time>2021-02-23T17:16:04Z</time>
      </trkpt>
      <trkpt lat="40.4184870" lon="-3.7416760">
        <ele>610.0</ele>
        <time>2021-02-23T17:16:05Z</time>
      </trkpt>
      <trkpt lat="40.4184840" lon="-3.7416930">
        <ele>610.0</ele>
        <time>2021-02-23T17:16:06Z</time>
      </trkpt>
      <trkpt lat="40.4184750" lon="-3.7417520">
        <ele>610.1</ele>
        <time>2021-02-23T17:16:07Z</time>
      </trkpt>
      <trkpt lat="40.4184710" lon="-3.7417750">
        <ele>610.1</ele>
        <time>2021-02-23T17:16:08Z</time>
      </trkpt>
      <trkpt lat="40.4184670" lon="-3.7417990">
        <ele>610.1</ele>
        <time>2021-02-23T17:16:09Z</time>
      </trkpt>
      <trkpt lat="40.4184600" lon="-3.7418530">
        <ele>610.2</ele>
        <time>2021-02-23T17:16:10Z</time>
      </trkpt>
      <trkpt lat="40.4184570" lon="-3.7418710">
        <ele>610.2</ele>
        <time>2021-02-23T17:16:11Z</time>
      </trkpt>
      <trkpt lat="40.4184490" lon="-3.7419300">
        <ele>610.3</ele>
        <time>2021-02-23T17:16:12Z</time>
      </trkpt>
      <trkpt lat="40.4184460" lon="-3.7419540">
        <ele>610.3</ele>
        <time>2021-02-23T17:16:13Z</time>
      </trkpt>
      <trkpt lat="40.4184430" lon="-3.7419780">
        <ele>610.3</ele>
        <time>2021-02-23T17:16:14Z</time>
      </trkpt>
      <trkpt lat="40.4184360" lon="-3.7420360">
        <ele>610.4</ele>
        <time>2021-02-23T17:16:15Z</time>
      </trkpt>
      <trkpt lat="40.4184330" lon="-3.7420590">
        <ele>610.4</ele>
        <time>2021-02-23T17:16:16Z</time>
      </trkpt>
      <trkpt lat="40.4184300" lon="-3.7420820">
        <ele>610.4</ele>
        <time>2021-02-23T17:16:17Z</time>
      </trkpt>
      <trkpt lat="40.4184240" lon="-3.7421340">
        <ele>610.5</ele>
        <time>2021-02-23T17:16:18Z</time>
      </trkpt>
      <trkpt lat="40.4184220" lon="-3.7421500">
        <ele>610.5</ele>
        <time>2021-02-23T17:16:19Z</time>
      </trkpt>
      <trkpt lat="40.4184150" lon="-3.7422060">
        <ele>610.5</ele>
        <time>2021-02-23T17:16:20Z</time>
      </trkpt>
      <trkpt lat="40.4184120" lon="-3.7422270">
        <ele>610.5</ele>
        <time>2021-02-23T17:16:21Z</time>
      </trkpt>
      <trkpt lat="40.4184090" lon="-3.7422490">
        <ele>610.6</ele>
        <time>2021-02-23T17:16:22Z</time>
      </trkpt>
      <trkpt lat="40.4184030" lon="-3.7422980">
        <ele>610.6</ele>
        <time>2021-02-23T17:16:23Z</time>
      </trkpt>
      <trkpt lat="40.4184000" lon="-3.7423140">
        <ele>610.6</ele>
        <time>2021-02-23T17:16:24Z</time>
      </trkpt>
      <trkpt lat="40.4183930" lon="-3.7423670">
        <ele>610.7</ele>
        <time>2021-02-23T17:16:25Z</time>
      </trkpt>
      <trkpt lat="40.4183900" lon="-3.7423890">
        <ele>610.7</ele>
        <time>2021-02-23T17:16:26Z</time>
      </trkpt>
      <trkpt lat="40.4183870" lon="-3.7424100">
        <ele>610.7</ele>
        <time>2021-02-23T17:16:27Z</time>
      </trkpt>
      <trkpt lat="40.4183790" lon="-3.7424590">
        <ele>610.7</ele>
        <time>2021-02-23T17:16:28Z</time>
      </trkpt>
      <trkpt lat="40.4183760" lon="-3.7424750">
        <ele>610.7</ele>
        <time>2021-02-23T17:16:29Z</time>
      </trkpt>
      <trkpt lat="40.4183670" lon="-3.7425290">
        <ele>610.8</ele>
        <time>2021-02-23T17:16:30Z</time>
      </trkpt>
      <trkpt lat="40.4183640" lon="-3.7425510">
        <ele>610.8</ele>
        <time>2021-02-23T17:16:31Z</time>
      </trkpt>
      <trkpt lat="40.4183600" lon="-3.7425730">
        <ele>610.8</ele>
        <time>2021-02-23T17:16:32Z</time>
      </trkpt>
      <trkpt lat="40.4183500" lon="-3.7426280">
        <ele>610.8</ele>
        <time>2021-02-23T17:16:33Z</time>
      </trkpt>
      <trkpt lat="40.4183450" lon="-3.7426500">
        <ele>610.8</ele>
        <time>2021-02-23T17:16:34Z</time>
      </trkpt>
      <trkpt lat="40.4183410" lon="-3.7426720">
        <ele>610.9</ele>
        <time>2021-02-23T17:16:35Z</time>
      </trkpt>
      <trkpt lat="40.4183320" lon="-3.7427220">
        <ele>610.9</ele>
        <time>2021-02-23T17:16:36Z</time>
      </trkpt>
      <trkpt lat="40.4183280" lon="-3.7427380">
        <ele>610.9</ele>
        <time>2021-02-23T17:16:37Z</time>
      </trkpt>
      <trkpt lat="40.4183160" lon="-3.7427930">
        <ele>610.9</ele>
        <time>2021-02-23T17:16:38Z</time>
      </trkpt>
      <trkpt lat="40.4183110" lon="-3.7428160">
        <ele>611.0</ele>
        <time>2021-02-23T17:16:39Z</time>
      </trkpt>
      <trkpt lat="40.4183060" lon="-3.7428380">
        <ele>611.0</ele>
        <time>2021-02-23T17:16:40Z</time>
      </trkpt>
      <trkpt lat="40.4182950" lon="-3.7428880">
        <ele>611.0</ele>
        <time>2021-02-23T17:16:41Z</time>
      </trkpt>
      <trkpt lat="40.4182910" lon="-3.7429050">
        <ele>611.0</ele>
        <time>2021-02-23T17:16:42Z</time>
      </trkpt>
      <trkpt lat="40.4182760" lon="-3.7429620">
        <ele>611.1</ele>
        <time>2021-02-23T17:16:43Z</time>
      </trkpt>
      <trkpt lat="40.4182710" lon="-3.7429840">
        <ele>611.1</ele>
        <time>2021-02-23T17:16:44Z</time>
      </trkpt>
      <trkpt lat="40.4182650" lon="-3.7430070">
        <ele>611.2</ele>
        <time>2021-02-23T17:16:45Z</time>
      </trkpt>
      <trkpt lat="40.4182530" lon="-3.7430580">
        <ele>611.2</ele>
        <time>2021-02-23T17:16:46Z</time>
      </trkpt>
      <trkpt lat="40.4182480" lon="-3.7430750">
        <ele>611.3</ele>
        <time>2021-02-23T17:16:47Z</time>
      </trkpt>
      <trkpt lat="40.4182330" lon="-3.7431320">
        <ele>611.3</ele>
        <time>2021-02-23T17:16:48Z</time>
      </trkpt>
      <trkpt lat="40.4182260" lon="-3.7431540">
        <ele>611.4</ele>
        <time>2021-02-23T17:16:49Z</time>
      </trkpt>
      <trkpt lat="40.4182200" lon="-3.7431770">
        <ele>611.4</ele>
        <time>2021-02-23T17:16:50Z</time>
      </trkpt>
      <trkpt lat="40.4182050" lon="-3.7432330">
        <ele>611.5</ele>
        <time>2021-02-23T17:16:51Z</time>
      </trkpt>
      <trkpt lat="40.4181990" lon="-3.7432560">
        <ele>611.5</ele>
        <time>2021-02-23T17:16:52Z</time>
      </trkpt>
      <trkpt lat="40.4181930" lon="-3.7432780">
        <ele>611.5</ele>
        <time>2021-02-23T17:16:53Z</time>
      </trkpt>
      <trkpt lat="40.4181800" lon="-3.7433280">
        <ele>611.6</ele>
        <time>2021-02-23T17:16:54Z</time>
      </trkpt>
      <trkpt lat="40.4181750" lon="-3.7433450">
        <ele>611.6</ele>
        <time>2021-02-23T17:16:55Z</time>
      </trkpt>
      <trkpt lat="40.4181600" lon="-3.7434000">
        <ele>611.7</ele>
        <time>2021-02-23T17:16:56Z</time>
      </trkpt>
      <trkpt lat="40.4181540" lon="-3.7434220">
        <ele>611.7</ele>
        <time>2021-02-23T17:16:57Z</time>
      </trkpt>
      <trkpt lat="40.4181480" lon="-3.7434440">
        <ele>611.7</ele>
        <time>2021-02-23T17:16:58Z</time>
      </trkpt>
      <trkpt lat="40.4181360" lon="-3.7434940">
        <ele>611.8</ele>
        <time>2021-02-23T17:16:59Z</time>
      </trkpt>
      <trkpt lat="40.4181310" lon="-3.7435110">
        <ele>611.8</ele>
        <time>2021-02-23T17:17:00Z</time>
      </trkpt>
      <trkpt lat="40.4181170" lon="-3.7435660">
        <ele>611.9</ele>
        <time>2021-02-23T17:17:01Z</time>
      </trkpt>
      <trkpt lat="40.4181120" lon="-3.7435880">
        <ele>611.9</ele>
        <time>2021-02-23T17:17:02Z</time>
      </trkpt>
      <trkpt lat="40.4181060" lon="-3.7436100">
        <ele>611.9</ele>
        <time>2021-02-23T17:17:03Z</time>
      </trkpt>
      <trkpt lat="40.4180930" lon="-3.7436600">
        <ele>612.0</ele>
        <time>2021-02-23T17:17:04Z</time>
      </trkpt>
      <trkpt lat="40.4180890" lon="-3.7436760">
        <ele>612.0</ele>
        <time>2021-02-23T17:17:05Z</time>
      </trkpt>
      <trkpt lat="40.4180760" lon="-3.7437290">
        <ele>612.1</ele>
        <time>2021-02-23T17:17:06Z</time>
      </trkpt>
      <trkpt lat="40.4180700" lon="-3.7437510">
        <ele>612.2</ele>
        <time>2021-02-23T17:17:07Z</time>
      </trkpt>
      <trkpt lat="40.4180650" lon="-3.7437720">
        <ele>612.2</ele>
        <time>2021-02-23T17:17:08Z</time>
      </trkpt>
      <trkpt lat="40.4180520" lon="-3.7438240">
        <ele>612.3</ele>
        <time>2021-02-23T17:17:09Z</time>
      </trkpt>
      <trkpt lat="40.4180460" lon="-3.7438440">
        <ele>612.3</ele>
        <time>2021-02-23T17:17:10Z</time>
      </trkpt>
      <trkpt lat="40.4180410" lon="-3.7438650">
        <ele>612.3</ele>
        <time>2021-02-23T17:17:11Z</time>
      </trkpt>
      <trkpt lat="40.4180290" lon="-3.7439100">
        <ele>612.4</ele>
        <time>2021-02-23T17:17:12Z</time>
      </trkpt>
      <trkpt lat="40.4180250" lon="-3.7439250">
        <ele>612.4</ele>
        <time>2021-02-23T17:17:13Z</time>
      </trkpt>
      <trkpt lat="40.4180120" lon="-3.7439740">
        <ele>612.5</ele>
        <time>2021-02-23T17:17:14Z</time>
      </trkpt>
      <trkpt lat="40.4179810" lon="-3.7440350">
        <ele>612.6</ele>
        <time>2021-02-23T17:17:15Z</time>
      </trkpt>
      <trkpt lat="40.4179570" lon="-3.7440780">
        <ele>612.7</ele>
        <time>2021-02-23T17:17:16Z</time>
      </trkpt>
      <trkpt lat="40.4179320" lon="-3.7441200">
        <ele>612.7</ele>
        <time>2021-02-23T17:17:17Z</time>
      </trkpt>
      <trkpt lat="40.4178700" lon="-3.7442000">
        <ele>612.8</ele>
        <time>2021-02-23T17:17:18Z</time>
      </trkpt>
      <trkpt lat="40.4178090" lon="-3.7442790">
        <ele>612.9</ele>
        <time>2021-02-23T17:17:19Z</time>
      </trkpt>
      <trkpt lat="40.4177470" lon="-3.7443590">
        <ele>613.0</ele>
        <time>2021-02-23T17:17:20Z</time>
      </trkpt>
      <trkpt lat="40.4176550" lon="-3.7444780">
        <ele>613.2</ele>
        <time>2021-02-23T17:18:23Z</time>
      </trkpt>
      <trkpt lat="40.4176240" lon="-3.7445180">
        <ele>613.2</ele>
        <time>2021-02-23T17:18:24Z</time>
      </trkpt>
      <trkpt lat="40.4175630" lon="-3.7445970">
        <ele>613.4</ele>
        <time>2021-02-23T17:18:25Z</time>
      </trkpt>
      <trkpt lat="40.4175390" lon="-3.7446260">
        <ele>613.4</ele>
        <time>2021-02-23T17:18:26Z</time>
      </trkpt>
      <trkpt lat="40.4175300" lon="-3.7446380">
        <ele>613.4</ele>
        <time>2021-02-23T17:18:27Z</time>
      </trkpt>
      <trkpt lat="40.4175200" lon="-3.7446500">
        <ele>613.4</ele>
        <time>2021-02-23T17:18:28Z</time>
      </trkpt>
      <trkpt lat="40.4174990" lon="-3.7446780">
        <ele>613.5</ele>
        <time>2021-02-23T17:18:29Z</time>
      </trkpt>
      <trkpt lat="40.4174910" lon="-3.7446870">
        <ele>613.5</ele>
        <time>2021-02-23T17:18:30Z</time>
      </trkpt>
      <trkpt lat="40.4174650" lon="-3.7447200">
        <ele>613.5</ele>
        <time>2021-02-23T17:18:31Z</time>
      </trkpt>
      <trkpt lat="40.4174550" lon="-3.7447340">
        <ele>613.6</ele>
        <time>2021-02-23T17:18:32Z</time>
      </trkpt>
      <trkpt lat="40.4174440" lon="-3.7447470">
        <ele>613.6</ele>
        <time>2021-02-23T17:18:33Z</time>
      </trkpt>
      <trkpt lat="40.4174200" lon="-3.7447790">
        <ele>613.6</ele>
        <time>2021-02-23T17:18:34Z</time>
      </trkpt>
      <trkpt lat="40.4174120" lon="-3.7447890">
        <ele>613.6</ele>
        <time>2021-02-23T17:18:35Z</time>
      </trkpt>
      <trkpt lat="40.4173840" lon="-3.7448260">
        <ele>613.6</ele>
        <time>2021-02-23T17:18:36Z</time>
      </trkpt>
      <trkpt lat="40.4173720" lon="-3.7448400">
        <ele>613.7</ele>
        <time>2021-02-23T17:18:37Z</time>
      </trkpt>
      <trkpt lat="40.4173610" lon="-3.7448550">
        <ele>613.7</ele>
        <time>2021-02-23T17:18:38Z</time>
      </trkpt>
      <trkpt lat="40.4173310" lon="-3.7448930">
        <ele>613.7</ele>
        <time>2021-02-23T17:18:39Z</time>
      </trkpt>
      <trkpt lat="40.4173190" lon="-3.7449090">
        <ele>613.7</ele>
        <time>2021-02-23T17:18:40Z</time>
      </trkpt>
      <trkpt lat="40.4173070" lon="-3.7449240">
        <ele>613.7</ele>
        <time>2021-02-23T17:18:41Z</time>
      </trkpt>
      <trkpt lat="40.4172790" lon="-3.7449590">
        <ele>613.8</ele>
        <time>2021-02-23T17:18:42Z</time>
      </trkpt>
      <trkpt lat="40.4172690" lon="-3.7449710">
        <ele>613.8</ele>
        <time>2021-02-23T17:18:43Z</time>
      </trkpt>
      <trkpt lat="40.4172370" lon="-3.7450110">
        <ele>613.8</ele>
        <time>2021-02-23T17:18:44Z</time>
      </trkpt>
      <trkpt lat="40.4172230" lon="-3.7450270">
        <ele>613.8</ele>
        <time>2021-02-23T17:18:45Z</time>
      </trkpt>
      <trkpt lat="40.4172100" lon="-3.7450430">
        <ele>613.8</ele>
        <time>2021-02-23T17:18:46Z</time>
      </trkpt>
      <trkpt lat="40.4171800" lon="-3.7450790">
        <ele>613.9</ele>
        <time>2021-02-23T17:18:47Z</time>
      </trkpt>
      <trkpt lat="40.4171690" lon="-3.7450910">
        <ele>613.9</ele>
        <time>2021-02-23T17:18:48Z</time>
      </trkpt>
      <trkpt lat="40.4171340" lon="-3.7451320">
        <ele>613.9</ele>
        <time>2021-02-23T17:18:49Z</time>
      </trkpt>
      <trkpt lat="40.4171190" lon="-3.7451480">
        <ele>614.0</ele>
        <time>2021-02-23T17:18:50Z</time>
      </trkpt>
      <trkpt lat="40.4171050" lon="-3.7451640">
        <ele>614.0</ele>
        <time>2021-02-23T17:18:51Z</time>
      </trkpt>
      <trkpt lat="40.4170720" lon="-3.7452000">
        <ele>614.0</ele>
        <time>2021-02-23T17:18:52Z</time>
      </trkpt>
      <trkpt lat="40.4170610" lon="-3.7452120">
        <ele>614.0</ele>
        <time>2021-02-23T17:18:53Z</time>
      </trkpt>
      <trkpt lat="40.4170240" lon="-3.7452510">
        <ele>614.1</ele>
        <time>2021-02-23T17:18:54Z</time>
      </trkpt>
      <trkpt lat="40.4170080" lon="-3.7452660">
        <ele>614.1</ele>
        <time>2021-02-23T17:18:55Z</time>
      </trkpt>
      <trkpt lat="40.4169930" lon="-3.7452820">
        <ele>614.1</ele>
        <time>2021-02-23T17:18:56Z</time>
      </trkpt>
      <trkpt lat="40.4169540" lon="-3.7453200">
        <ele>614.2</ele>
        <time>2021-02-23T17:18:57Z</time>
      </trkpt>
      <trkpt lat="40.4169390" lon="-3.7453360">
        <ele>614.2</ele>
        <time>2021-02-23T17:18:58Z</time>
      </trkpt>
      <trkpt lat="40.4169230" lon="-3.7453510">
        <ele>614.2</ele>
        <time>2021-02-23T17:18:59Z</time>
      </trkpt>
      <trkpt lat="40.4168880" lon="-3.7453840">
        <ele>614.3</ele>
        <time>2021-02-23T17:19:00Z</time>
      </trkpt>
      <trkpt lat="40.4168760" lon="-3.7453950">
        <ele>614.3</ele>
        <time>2021-02-23T17:19:01Z</time>
      </trkpt>
      <trkpt lat="40.4168360" lon="-3.7454320">
        <ele>614.4</ele>
        <time>2021-02-23T17:19:02Z</time>
      </trkpt>
      <trkpt lat="40.4168210" lon="-3.7454470">
        <ele>614.4</ele>
        <time>2021-02-23T17:19:03Z</time>
      </trkpt>
      <trkpt lat="40.4168050" lon="-3.7454610">
        <ele>614.4</ele>
        <time>2021-02-23T17:19:04Z</time>
      </trkpt>
      <trkpt lat="40.4167690" lon="-3.7454940">
        <ele>614.5</ele>
        <time>2021-02-23T17:19:05Z</time>
      </trkpt>
      <trkpt lat="40.4167570" lon="-3.7455040">
        <ele>614.5</ele>
        <time>2021-02-23T17:19:06Z</time>
      </trkpt>
      <trkpt lat="40.4167170" lon="-3.7455400">
        <ele>614.5</ele>
        <time>2021-02-23T17:19:07Z</time>
      </trkpt>
      <trkpt lat="40.4167010" lon="-3.7455550">
        <ele>614.6</ele>
        <time>2021-02-23T17:19:08Z</time>
      </trkpt>
      <trkpt lat="40.4166850" lon="-3.7455690">
        <ele>614.6</ele>
        <time>2021-02-23T17:19:09Z</time>
      </trkpt>
      <trkpt lat="40.4166500" lon="-3.7456010">
        <ele>614.6</ele>
        <time>2021-02-23T17:19:10Z</time>
      </trkpt>
      <trkpt lat="40.4166380" lon="-3.7456120">
        <ele>614.6</ele>
        <time>2021-02-23T17:19:11Z</time>
      </trkpt>
      <trkpt lat="40.4165990" lon="-3.7456480">
        <ele>614.7</ele>
        <time>2021-02-23T17:19:12Z</time>
      </trkpt>
      <trkpt lat="40.4165830" lon="-3.7456630">
        <ele>614.7</ele>
        <time>2021-02-23T17:19:13Z</time>
      </trkpt>
      <trkpt lat="40.4165680" lon="-3.7456780">
        <ele>614.8</ele>
        <time>2021-02-23T17:19:14Z</time>
      </trkpt>
      <trkpt lat="40.4165310" lon="-3.7457160">
        <ele>614.8</ele>
        <time>2021-02-23T17:19:15Z</time>
      </trkpt>
      <trkpt lat="40.4165170" lon="-3.7457320">
        <ele>614.9</ele>
        <time>2021-02-23T17:19:16Z</time>
      </trkpt>
      <trkpt lat="40.4165020" lon="-3.7457470">
        <ele>614.9</ele>
        <time>2021-02-23T17:19:17Z</time>
      </trkpt>
      <trkpt lat="40.4164710" lon="-3.7457840">
        <ele>615.0</ele>
        <time>2021-02-23T17:19:18Z</time>
      </trkpt>
      <trkpt lat="40.4164610" lon="-3.7457960">
        <ele>615.0</ele>
        <time>2021-02-23T17:19:19Z</time>
      </trkpt>
      <trkpt lat="40.4164280" lon="-3.7458380">
        <ele>615.1</ele>
        <time>2021-02-23T17:19:20Z</time>
      </trkpt>
      <trkpt lat="40.4164150" lon="-3.7458560">
        <ele>615.1</ele>
        <time>2021-02-23T17:19:21Z</time>
      </trkpt>
      <trkpt lat="40.4164030" lon="-3.7458730">
        <ele>615.1</ele>
        <time>2021-02-23T17:19:22Z</time>
      </trkpt>
      <trkpt lat="40.4163770" lon="-3.7459140">
        <ele>615.1</ele>
        <time>2021-02-23T17:19:23Z</time>
      </trkpt>
      <trkpt lat="40.4163680" lon="-3.7459270">
        <ele>615.2</ele>
        <time>2021-02-23T17:19:24Z</time>
      </trkpt>
      <trkpt lat="40.4163420" lon="-3.7459740">
        <ele>615.2</ele>
        <time>2021-02-23T17:19:25Z</time>
      </trkpt>
      <trkpt lat="40.4163320" lon="-3.7459940">
        <ele>615.2</ele>
        <time>2021-02-23T17:19:26Z</time>
      </trkpt>
      <trkpt lat="40.4163220" lon="-3.7460130">
        <ele>615.2</ele>
        <time>2021-02-23T17:19:27Z</time>
      </trkpt>
      <trkpt lat="40.4163020" lon="-3.7460590">
        <ele>615.3</ele>
        <time>2021-02-23T17:19:28Z</time>
      </trkpt>
      <trkpt lat="40.4162950" lon="-3.7460740">
        <ele>615.3</ele>
        <time>2021-02-23T17:19:29Z</time>
      </trkpt>
      <trkpt lat="40.4162760" lon="-3.7461260">
        <ele>615.3</ele>
        <time>2021-02-23T17:19:30Z</time>
      </trkpt>
      <trkpt lat="40.4162680" lon="-3.7461480">
        <ele>615.3</ele>
        <time>2021-02-23T17:19:31Z</time>
      </trkpt>
      <trkpt lat="40.4162610" lon="-3.7461690">
        <ele>615.3</ele>
        <time>2021-02-23T17:19:32Z</time>
      </trkpt>
      <trkpt lat="40.4162450" lon="-3.7462230">
        <ele>615.4</ele>
        <time>2021-02-23T17:19:33Z</time>
      </trkpt>
      <trkpt lat="40.4162400" lon="-3.7462460">
        <ele>615.4</ele>
        <time>2021-02-23T17:19:34Z</time>
      </trkpt>
      <trkpt lat="40.4162340" lon="-3.7462680">
        <ele>615.5</ele>
        <time>2021-02-23T17:19:35Z</time>
      </trkpt>
      <trkpt lat="40.4162230" lon="-3.7463200">
        <ele>615.5</ele>
        <time>2021-02-23T17:19:36Z</time>
      </trkpt>
      <trkpt lat="40.4162190" lon="-3.7463370">
        <ele>615.6</ele>
        <time>2021-02-23T17:19:37Z</time>
      </trkpt>
      <trkpt lat="40.4162090" lon="-3.7463950">
        <ele>615.8</ele>
        <time>2021-02-23T17:19:38Z</time>
      </trkpt>
      <trkpt lat="40.4162060" lon="-3.7464190">
        <ele>615.8</ele>
        <time>2021-02-23T17:19:39Z</time>
      </trkpt>
      <trkpt lat="40.4162020" lon="-3.7464420">
        <ele>615.8</ele>
        <time>2021-02-23T17:19:40Z</time>
      </trkpt>
      <trkpt lat="40.4161960" lon="-3.7464960">
        <ele>615.9</ele>
        <time>2021-02-23T17:19:41Z</time>
      </trkpt>
      <trkpt lat="40.4161940" lon="-3.7465130">
        <ele>615.9</ele>
        <time>2021-02-23T17:19:42Z</time>
      </trkpt>
      <trkpt lat="40.4161880" lon="-3.7465720">
        <ele>616.0</ele>
        <time>2021-02-23T17:19:43Z</time>
      </trkpt>
      <trkpt lat="40.4161870" lon="-3.7465960">
        <ele>616.0</ele>
        <time>2021-02-23T17:19:44Z</time>
      </trkpt>
      <trkpt lat="40.4161850" lon="-3.7466190">
        <ele>616.0</ele>
        <time>2021-02-23T17:19:45Z</time>
      </trkpt>
      <trkpt lat="40.4161820" lon="-3.7466730">
        <ele>616.1</ele>
        <time>2021-02-23T17:19:46Z</time>
      </trkpt>
      <trkpt lat="40.4161810" lon="-3.7466900">
        <ele>616.1</ele>
        <time>2021-02-23T17:19:47Z</time>
      </trkpt>
      <trkpt lat="40.4161790" lon="-3.7467480">
        <ele>616.2</ele>
        <time>2021-02-23T17:19:48Z</time>
      </trkpt>
      <trkpt lat="40.4161790" lon="-3.7467710">
        <ele>616.2</ele>
        <time>2021-02-23T17:19:49Z</time>
      </trkpt>
      <trkpt lat="40.4161780" lon="-3.7467940">
        <ele>616.3</ele>
        <time>2021-02-23T17:19:50Z</time>
      </trkpt>
      <trkpt lat="40.4161780" lon="-3.7468520">
        <ele>616.3</ele>
        <time>2021-02-23T17:19:51Z</time>
      </trkpt>
      <trkpt lat="40.4161780" lon="-3.7468750">
        <ele>616.4</ele>
        <time>2021-02-23T17:19:52Z</time>
      </trkpt>
      <trkpt lat="40.4161780" lon="-3.7468980">
        <ele>616.4</ele>
        <time>2021-02-23T17:19:53Z</time>
      </trkpt>
      <trkpt lat="40.4161790" lon="-3.7469490">
        <ele>616.5</ele>
        <time>2021-02-23T17:19:54Z</time>
      </trkpt>
      <trkpt lat="40.4161790" lon="-3.7469660">
        <ele>616.5</ele>
        <time>2021-02-23T17:19:55Z</time>
      </trkpt>
      <trkpt lat="40.4161810" lon="-3.7470230">
        <ele>616.5</ele>
        <time>2021-02-23T17:19:56Z</time>
      </trkpt>
      <trkpt lat="40.4161820" lon="-3.7470450">
        <ele>616.6</ele>
        <time>2021-02-23T17:19:57Z</time>
      </trkpt>
      <trkpt lat="40.4161830" lon="-3.7470680">
        <ele>616.6</ele>
        <time>2021-02-23T17:19:58Z</time>
      </trkpt>
      <trkpt lat="40.4161860" lon="-3.7471190">
        <ele>616.7</ele>
        <time>2021-02-23T17:19:59Z</time>
      </trkpt>
      <trkpt lat="40.4161870" lon="-3.7471360">
        <ele>616.7</ele>
        <time>2021-02-23T17:20:00Z</time>
      </trkpt>
      <trkpt lat="40.4161910" lon="-3.7471910">
        <ele>616.8</ele>
        <time>2021-02-23T17:20:01Z</time>
      </trkpt>
      <trkpt lat="40.4161930" lon="-3.7472140">
        <ele>616.8</ele>
        <time>2021-02-23T17:20:02Z</time>
      </trkpt>
      <trkpt lat="40.4161950" lon="-3.7472360">
        <ele>616.8</ele>
        <time>2021-02-23T17:20:03Z</time>
      </trkpt>
      <trkpt lat="40.4162010" lon="-3.7472840">
        <ele>616.9</ele>
        <time>2021-02-23T17:20:04Z</time>
      </trkpt>
      <trkpt lat="40.4162030" lon="-3.7473000">
        <ele>616.9</ele>
        <time>2021-02-23T17:20:05Z</time>
      </trkpt>
      <trkpt lat="40.4162120" lon="-3.7473520">
        <ele>616.9</ele>
        <time>2021-02-23T17:20:06Z</time>
      </trkpt>
      <trkpt lat="40.4162160" lon="-3.7473730">
        <ele>617.0</ele>
        <time>2021-02-23T17:20:07Z</time>
      </trkpt>
      <trkpt lat="40.4162200" lon="-3.7473930">
        <ele>617.0</ele>
        <time>2021-02-23T17:20:08Z</time>
      </trkpt>
      <trkpt lat="40.4162320" lon="-3.7474420">
        <ele>617.0</ele>
        <time>2021-02-23T17:20:09Z</time>
      </trkpt>
      <trkpt lat="40.4162380" lon="-3.7474610">
        <ele>617.1</ele>
        <time>2021-02-23T17:20:10Z</time>
      </trkpt>
      <trkpt lat="40.4162430" lon="-3.7474800">
        <ele>617.1</ele>
        <time>2021-02-23T17:20:11Z</time>
      </trkpt>
      <trkpt lat="40.4162570" lon="-3.7475200">
        <ele>617.4</ele>
        <time>2021-02-23T17:20:12Z</time>
      </trkpt>
      <trkpt lat="40.4162620" lon="-3.7475330">
        <ele>617.4</ele>
        <time>2021-02-23T17:20:13Z</time>
      </trkpt>
      <trkpt lat="40.4162830" lon="-3.7475770">
        <ele>617.4</ele>
        <time>2021-02-23T17:20:14Z</time>
      </trkpt>
      <trkpt lat="40.4162940" lon="-3.7475960">
        <ele>617.4</ele>
        <time>2021-02-23T17:20:15Z</time>
      </trkpt>
      <trkpt lat="40.4163040" lon="-3.7476150">
        <ele>618.2</ele>
        <time>2021-02-23T17:20:16Z</time>
      </trkpt>
      <trkpt lat="40.4163270" lon="-3.7476450">
        <ele>618.4</ele>
        <time>2021-02-23T17:20:17Z</time>
      </trkpt>
      <trkpt lat="40.4163350" lon="-3.7476550">
        <ele>618.4</ele>
        <time>2021-02-23T17:20:18Z</time>
      </trkpt>
      <trkpt lat="40.4163640" lon="-3.7476840">
        <ele>618.7</ele>
        <time>2021-02-23T17:20:19Z</time>
      </trkpt>
      <trkpt lat="40.4163760" lon="-3.7476950">
        <ele>618.8</ele>
        <time>2021-02-23T17:20:20Z</time>
      </trkpt>
      <trkpt lat="40.4163880" lon="-3.7477060">
        <ele>618.9</ele>
        <time>2021-02-23T17:20:21Z</time>
      </trkpt>
      <trkpt lat="40.4164170" lon="-3.7477280">
        <ele>619.1</ele>
        <time>2021-02-23T17:20:22Z</time>
      </trkpt>
      <trkpt lat="40.4164270" lon="-3.7477350">
        <ele>619.1</ele>
        <time>2021-02-23T17:20:23Z</time>
      </trkpt>
      <trkpt lat="40.4164630" lon="-3.7477550">
        <ele>619.4</ele>
        <time>2021-02-23T17:20:24Z</time>
      </trkpt>
      <trkpt lat="40.4164770" lon="-3.7477620">
        <ele>619.5</ele>
        <time>2021-02-23T17:20:25Z</time>
      </trkpt>
      <trkpt lat="40.4164920" lon="-3.7477700">
        <ele>619.6</ele>
        <time>2021-02-23T17:20:26Z</time>
      </trkpt>
      <trkpt lat="40.4165290" lon="-3.7477870">
        <ele>619.9</ele>
        <time>2021-02-23T17:20:27Z</time>
      </trkpt>
      <trkpt lat="40.4165450" lon="-3.7477940">
        <ele>620.0</ele>
        <time>2021-02-23T17:20:28Z</time>
      </trkpt>
      <trkpt lat="40.4165600" lon="-3.7478000">
        <ele>620.1</ele>
        <time>2021-02-23T17:20:29Z</time>
      </trkpt>
      <trkpt lat="40.4165950" lon="-3.7478130">
        <ele>620.4</ele>
        <time>2021-02-23T17:20:30Z</time>
      </trkpt>
      <trkpt lat="40.4166070" lon="-3.7478170">
        <ele>620.5</ele>
        <time>2021-02-23T17:20:31Z</time>
      </trkpt>
      <trkpt lat="40.4166450" lon="-3.7478310">
        <ele>620.8</ele>
        <time>2021-02-23T17:20:32Z</time>
      </trkpt>
      <trkpt lat="40.4166610" lon="-3.7478370">
        <ele>620.9</ele>
        <time>2021-02-23T17:20:33Z</time>
      </trkpt>
      <trkpt lat="40.4166760" lon="-3.7478420">
        <ele>621.0</ele>
        <time>2021-02-23T17:20:34Z</time>
      </trkpt>
      <trkpt lat="40.4167120" lon="-3.7478530">
        <ele>621.3</ele>
        <time>2021-02-23T17:20:35Z</time>
      </trkpt>
      <trkpt lat="40.4167230" lon="-3.7478570">
        <ele>621.4</ele>
        <time>2021-02-23T17:20:36Z</time>
      </trkpt>
      <trkpt lat="40.4167600" lon="-3.7478700">
        <ele>621.5</ele>
        <time>2021-02-23T17:20:37Z</time>
      </trkpt>
      <trkpt lat="40.4167760" lon="-3.7478740">
        <ele>621.5</ele>
        <time>2021-02-23T17:20:38Z</time>
      </trkpt>
      <trkpt lat="40.4167910" lon="-3.7478790">
        <ele>621.6</ele>
        <time>2021-02-23T17:20:39Z</time>
      </trkpt>
      <trkpt lat="40.4168240" lon="-3.7478900">
        <ele>621.7</ele>
        <time>2021-02-23T17:20:40Z</time>
      </trkpt>
      <trkpt lat="40.4168350" lon="-3.7478940">
        <ele>621.8</ele>
        <time>2021-02-23T17:20:41Z</time>
      </trkpt>
      <trkpt lat="40.4168710" lon="-3.7479050">
        <ele>622.1</ele>
        <time>2021-02-23T17:20:42Z</time>
      </trkpt>
      <trkpt lat="40.4168860" lon="-3.7479100">
        <ele>622.2</ele>
        <time>2021-02-23T17:20:43Z</time>
      </trkpt>
      <trkpt lat="40.4169000" lon="-3.7479140">
        <ele>622.3</ele>
        <time>2021-02-23T17:20:44Z</time>
      </trkpt>
      <trkpt lat="40.4169360" lon="-3.7479240">
        <ele>622.6</ele>
        <time>2021-02-23T17:20:45Z</time>
      </trkpt>
      <trkpt lat="40.4169510" lon="-3.7479290">
        <ele>622.8</ele>
        <time>2021-02-23T17:20:46Z</time>
      </trkpt>
      <trkpt lat="40.4169650" lon="-3.7479330">
        <ele>622.9</ele>
        <time>2021-02-23T17:20:47Z</time>
      </trkpt>
      <trkpt lat="40.4169970" lon="-3.7479420">
        <ele>623.2</ele>
        <time>2021-02-23T17:20:48Z</time>
      </trkpt>
      <trkpt lat="40.4170070" lon="-3.7479450">
        <ele>623.3</ele>
        <time>2021-02-23T17:20:49Z</time>
      </trkpt>
      <trkpt lat="40.4170420" lon="-3.7479550">
        <ele>623.6</ele>
        <time>2021-02-23T17:20:50Z</time>
      </trkpt>
      <trkpt lat="40.4170560" lon="-3.7479590">
        <ele>623.8</ele>
        <time>2021-02-23T17:20:51Z</time>
      </trkpt>
      <trkpt lat="40.4170700" lon="-3.7479630">
        <ele>623.9</ele>
        <time>2021-02-23T17:20:52Z</time>
      </trkpt>
      <trkpt lat="40.4171030" lon="-3.7479720">
        <ele>624.2</ele>
        <time>2021-02-23T17:20:53Z</time>
      </trkpt>
      <trkpt lat="40.4171130" lon="-3.7479750">
        <ele>624.3</ele>
        <time>2021-02-23T17:20:54Z</time>
      </trkpt>
      <trkpt lat="40.4171480" lon="-3.7479850">
        <ele>624.7</ele>
        <time>2021-02-23T17:20:55Z</time>
      </trkpt>
      <trkpt lat="40.4171630" lon="-3.7479890">
        <ele>624.9</ele>
        <time>2021-02-23T17:20:56Z</time>
      </trkpt>
      <trkpt lat="40.4171770" lon="-3.7479930">
        <ele>625.0</ele>
        <time>2021-02-23T17:20:57Z</time>
      </trkpt>
      <trkpt lat="40.4172100" lon="-3.7480030">
        <ele>625.4</ele>
        <time>2021-02-23T17:20:58Z</time>
      </trkpt>
      <trkpt lat="40.4172210" lon="-3.7480070">
        <ele>625.5</ele>
        <time>2021-02-23T17:20:59Z</time>
      </trkpt>
      <trkpt lat="40.4172580" lon="-3.7480190">
        <ele>625.9</ele>
        <time>2021-02-23T17:21:00Z</time>
      </trkpt>
      <trkpt lat="40.4172730" lon="-3.7480230">
        <ele>626.1</ele>
        <time>2021-02-23T17:21:01Z</time>
      </trkpt>
      <trkpt lat="40.4172880" lon="-3.7480280">
        <ele>626.3</ele>
        <time>2021-02-23T17:21:02Z</time>
      </trkpt>
      <trkpt lat="40.4173250" lon="-3.7480410">
        <ele>626.7</ele>
        <time>2021-02-23T17:21:03Z</time>
      </trkpt>
      <trkpt lat="40.4173400" lon="-3.7480460">
        <ele>626.9</ele>
        <time>2021-02-23T17:21:04Z</time>
      </trkpt>
      <trkpt lat="40.4173550" lon="-3.7480510">
        <ele>627.0</ele>
        <time>2021-02-23T17:21:05Z</time>
      </trkpt>
      <trkpt lat="40.4173890" lon="-3.7480620">
        <ele>627.4</ele>
        <time>2021-02-23T17:21:06Z</time>
      </trkpt>
      <trkpt lat="40.4174000" lon="-3.7480660">
        <ele>627.5</ele>
        <time>2021-02-23T17:21:07Z</time>
      </trkpt>
      <trkpt lat="40.4174360" lon="-3.7480790">
        <ele>627.9</ele>
        <time>2021-02-23T17:21:08Z</time>
      </trkpt>
      <trkpt lat="40.4174510" lon="-3.7480850">
        <ele>628.1</ele>
        <time>2021-02-23T17:21:09Z</time>
      </trkpt>
      <trkpt lat="40.4174650" lon="-3.7480900">
        <ele>628.3</ele>
        <time>2021-02-23T17:21:10Z</time>
      </trkpt>
      <trkpt lat="40.4174960" lon="-3.7481010">
        <ele>628.6</ele>
        <time>2021-02-23T17:21:11Z</time>
      </trkpt>
      <trkpt lat="40.4175060" lon="-3.7481050">
        <ele>628.7</ele>
        <time>2021-02-23T17:21:12Z</time>
      </trkpt>
      <trkpt lat="40.4175390" lon="-3.7481170">
        <ele>629.1</ele>
        <time>2021-02-23T17:21:13Z</time>
      </trkpt>
      <trkpt lat="40.4175520" lon="-3.7481220">
        <ele>629.2</ele>
        <time>2021-02-23T17:21:14Z</time>
      </trkpt>
      <trkpt lat="40.4175650" lon="-3.7481270">
        <ele>629.4</ele>
        <time>2021-02-23T17:21:15Z</time>
      </trkpt>
      <trkpt lat="40.4175940" lon="-3.7481360">
        <ele>629.7</ele>
        <time>2021-02-23T17:21:16Z</time>
      </trkpt>
      <trkpt lat="40.4176030" lon="-3.7481400">
        <ele>629.8</ele>
        <time>2021-02-23T17:21:17Z</time>
      </trkpt>
      <trkpt lat="40.4176340" lon="-3.7481500">
        <ele>630.2</ele>
        <time>2021-02-23T17:21:18Z</time>
      </trkpt>
      <trkpt lat="40.4176470" lon="-3.7481550">
        <ele>630.4</ele>
        <time>2021-02-23T17:21:19Z</time>
      </trkpt>
      <trkpt lat="40.4176590" lon="-3.7481590">
        <ele>630.5</ele>
        <time>2021-02-23T17:21:20Z</time>
      </trkpt>
      <trkpt lat="40.4176900" lon="-3.7481680">
        <ele>630.9</ele>
        <time>2021-02-23T17:21:21Z</time>
      </trkpt>
      <trkpt lat="40.4177030" lon="-3.7481720">
        <ele>631.0</ele>
        <time>2021-02-23T17:21:22Z</time>
      </trkpt>
      <trkpt lat="40.4177150" lon="-3.7481760">
        <ele>631.2</ele>
        <time>2021-02-23T17:21:23Z</time>
      </trkpt>
      <trkpt lat="40.4177440" lon="-3.7481830">
        <ele>631.5</ele>
        <time>2021-02-23T17:21:24Z</time>
      </trkpt>
      <trkpt lat="40.4177530" lon="-3.7481860">
        <ele>631.6</ele>
        <time>2021-02-23T17:21:25Z</time>
      </trkpt>
      <trkpt lat="40.4177860" lon="-3.7481960">
        <ele>632.0</ele>
        <time>2021-02-23T17:21:26Z</time>
      </trkpt>
      <trkpt lat="40.4177980" lon="-3.7481990">
        <ele>632.1</ele>
        <time>2021-02-23T17:21:27Z</time>
      </trkpt>
      <trkpt lat="40.4178110" lon="-3.7482030">
        <ele>632.3</ele>
        <time>2021-02-23T17:21:28Z</time>
      </trkpt>
      <trkpt lat="40.4178410" lon="-3.7482110">
        <ele>632.6</ele>
        <time>2021-02-23T17:21:29Z</time>
      </trkpt>
      <trkpt lat="40.4178500" lon="-3.7482140">
        <ele>632.7</ele>
        <time>2021-02-23T17:21:30Z</time>
      </trkpt>
      <trkpt lat="40.4178830" lon="-3.7482240">
        <ele>633.1</ele>
        <time>2021-02-23T17:21:31Z</time>
      </trkpt>
      <trkpt lat="40.4178970" lon="-3.7482280">
        <ele>633.2</ele>
        <time>2021-02-23T17:21:32Z</time>
      </trkpt>
      <trkpt lat="40.4179100" lon="-3.7482320">
        <ele>633.4</ele>
        <time>2021-02-23T17:21:33Z</time>
      </trkpt>
      <trkpt lat="40.4179390" lon="-3.7482420">
        <ele>633.7</ele>
        <time>2021-02-23T17:21:34Z</time>
      </trkpt>
      <trkpt lat="40.4179490" lon="-3.7482450">
        <ele>633.8</ele>
        <time>2021-02-23T17:21:35Z</time>
      </trkpt>
      <trkpt lat="40.4179820" lon="-3.7482570">
        <ele>634.2</ele>
        <time>2021-02-23T17:21:36Z</time>
      </trkpt>
      <trkpt lat="40.4179960" lon="-3.7482620">
        <ele>634.4</ele>
        <time>2021-02-23T17:21:37Z</time>
      </trkpt>
      <trkpt lat="40.4180090" lon="-3.7482670">
        <ele>634.5</ele>
        <time>2021-02-23T17:21:38Z</time>
      </trkpt>
      <trkpt lat="40.4180420" lon="-3.7482800">
        <ele>634.9</ele>
        <time>2021-02-23T17:21:39Z</time>
      </trkpt>
      <trkpt lat="40.4180560" lon="-3.7482860">
        <ele>635.1</ele>
        <time>2021-02-23T17:21:40Z</time>
      </trkpt>
      <trkpt lat="40.4180690" lon="-3.7482910">
        <ele>635.2</ele>
        <time>2021-02-23T17:21:41Z</time>
      </trkpt>
      <trkpt lat="40.4181000" lon="-3.7483030">
        <ele>635.6</ele>
        <time>2021-02-23T17:21:42Z</time>
      </trkpt>
      <trkpt lat="40.4181100" lon="-3.7483070">
        <ele>635.7</ele>
        <time>2021-02-23T17:21:43Z</time>
      </trkpt>
      <trkpt lat="40.4181430" lon="-3.7483210">
        <ele>636.1</ele>
        <time>2021-02-23T17:21:44Z</time>
      </trkpt>
      <trkpt lat="40.4181570" lon="-3.7483260">
        <ele>636.2</ele>
        <time>2021-02-23T17:21:45Z</time>
      </trkpt>
      <trkpt lat="40.4181700" lon="-3.7483320">
        <ele>636.4</ele>
        <time>2021-02-23T17:21:46Z</time>
      </trkpt>
      <trkpt lat="40.4182000" lon="-3.7483440">
        <ele>636.7</ele>
        <time>2021-02-23T17:21:47Z</time>
      </trkpt>
      <trkpt lat="40.4182100" lon="-3.7483490">
        <ele>636.9</ele>
        <time>2021-02-23T17:21:48Z</time>
      </trkpt>
      <trkpt lat="40.4182430" lon="-3.7483640">
        <ele>637.2</ele>
        <time>2021-02-23T17:21:49Z</time>
      </trkpt>
      <trkpt lat="40.4182560" lon="-3.7483690">
        <ele>637.4</ele>
        <time>2021-02-23T17:21:50Z</time>
      </trkpt>
      <trkpt lat="40.4182690" lon="-3.7483750">
        <ele>637.5</ele>
        <time>2021-02-23T17:21:51Z</time>
      </trkpt>
      <trkpt lat="40.4182980" lon="-3.7483880">
        <ele>637.9</ele>
        <time>2021-02-23T17:21:52Z</time>
      </trkpt>
      <trkpt lat="40.4183070" lon="-3.7483930">
        <ele>638.0</ele>
        <time>2021-02-23T17:21:53Z</time>
      </trkpt>
      <trkpt lat="40.4183380" lon="-3.7484080">
        <ele>638.3</ele>
        <time>2021-02-23T17:21:54Z</time>
      </trkpt>
      <trkpt lat="40.4183510" lon="-3.7484150">
        <ele>638.5</ele>
        <time>2021-02-23T17:21:55Z</time>
      </trkpt>
      <trkpt lat="40.4183630" lon="-3.7484210">
        <ele>638.6</ele>
        <time>2021-02-23T17:21:56Z</time>
      </trkpt>
      <trkpt lat="40.4183930" lon="-3.7484370">
        <ele>639.0</ele>
        <time>2021-02-23T17:21:57Z</time>
      </trkpt>
      <trkpt lat="40.4184060" lon="-3.7484440">
        <ele>639.2</ele>
        <time>2021-02-23T17:21:58Z</time>
      </trkpt>
      <trkpt lat="40.4184180" lon="-3.7484500">
        <ele>639.3</ele>
        <time>2021-02-23T17:21:59Z</time>
      </trkpt>
      <trkpt lat="40.4184440" lon="-3.7484640">
        <ele>639.6</ele>
        <time>2021-02-23T17:22:00Z</time>
      </trkpt>
      <trkpt lat="40.4184530" lon="-3.7484690">
        <ele>639.7</ele>
        <time>2021-02-23T17:22:01Z</time>
      </trkpt>
      <trkpt lat="40.4184820" lon="-3.7484870">
        <ele>640.1</ele>
        <time>2021-02-23T17:22:02Z</time>
      </trkpt>
      <trkpt lat="40.4184940" lon="-3.7484940">
        <ele>640.2</ele>
        <time>2021-02-23T17:22:03Z</time>
      </trkpt>
      <trkpt lat="40.4185050" lon="-3.7485010">
        <ele>640.3</ele>
        <time>2021-02-23T17:22:04Z</time>
      </trkpt>
      <trkpt lat="40.4185310" lon="-3.7485180">
        <ele>640.6</ele>
        <time>2021-02-23T17:22:05Z</time>
      </trkpt>
      <trkpt lat="40.4185390" lon="-3.7485240">
        <ele>640.7</ele>
        <time>2021-02-23T17:22:06Z</time>
      </trkpt>
      <trkpt lat="40.4185660" lon="-3.7485450">
        <ele>641.1</ele>
        <time>2021-02-23T17:22:07Z</time>
      </trkpt>
      <trkpt lat="40.4185770" lon="-3.7485540">
        <ele>641.2</ele>
        <time>2021-02-23T17:22:08Z</time>
      </trkpt>
      <trkpt lat="40.4185880" lon="-3.7485630">
        <ele>641.4</ele>
        <time>2021-02-23T17:22:09Z</time>
      </trkpt>
      <trkpt lat="40.4186110" lon="-3.7485840">
        <ele>641.7</ele>
        <time>2021-02-23T17:22:10Z</time>
      </trkpt>
      <trkpt lat="40.4186190" lon="-3.7485910">
        <ele>641.8</ele>
        <time>2021-02-23T17:22:11Z</time>
      </trkpt>
      <trkpt lat="40.4186440" lon="-3.7486170">
        <ele>642.2</ele>
        <time>2021-02-23T17:22:12Z</time>
      </trkpt>
      <trkpt lat="40.4186540" lon="-3.7486270">
        <ele>642.4</ele>
        <time>2021-02-23T17:22:13Z</time>
      </trkpt>
      <trkpt lat="40.4186640" lon="-3.7486380">
        <ele>642.5</ele>
        <time>2021-02-23T17:22:14Z</time>
      </trkpt>
      <trkpt lat="40.4186880" lon="-3.7486650">
        <ele>642.8</ele>
        <time>2021-02-23T17:22:15Z</time>
      </trkpt>
      <trkpt lat="40.4186970" lon="-3.7486770">
        <ele>643.0</ele>
        <time>2021-02-23T17:22:16Z</time>
      </trkpt>
      <trkpt lat="40.4187070" lon="-3.7486880">
        <ele>643.1</ele>
        <time>2021-02-23T17:22:17Z</time>
      </trkpt>
      <trkpt lat="40.4187280" lon="-3.7487140">
        <ele>643.4</ele>
        <time>2021-02-23T17:22:18Z</time>
      </trkpt>
      <trkpt lat="40.4187350" lon="-3.7487230">
        <ele>643.5</ele>
        <time>2021-02-23T17:22:19Z</time>
      </trkpt>
      <trkpt lat="40.4187580" lon="-3.7487520">
        <ele>643.8</ele>
        <time>2021-02-23T17:22:20Z</time>
      </trkpt>
      <trkpt lat="40.4187680" lon="-3.7487630">
        <ele>644.0</ele>
        <time>2021-02-23T17:22:21Z</time>
      </trkpt>
      <trkpt lat="40.4187770" lon="-3.7487750">
        <ele>644.1</ele>
        <time>2021-02-23T17:22:22Z</time>
      </trkpt>
      <trkpt lat="40.4187990" lon="-3.7488010">
        <ele>644.5</ele>
        <time>2021-02-23T17:22:23Z</time>
      </trkpt>
      <trkpt lat="40.4188060" lon="-3.7488100">
        <ele>644.7</ele>
        <time>2021-02-23T17:22:24Z</time>
      </trkpt>
      <trkpt lat="40.4188300" lon="-3.7488380">
        <ele>645.1</ele>
        <time>2021-02-23T17:22:25Z</time>
      </trkpt>
      <trkpt lat="40.4188400" lon="-3.7488500">
        <ele>645.3</ele>
        <time>2021-02-23T17:22:26Z</time>
      </trkpt>
      <trkpt lat="40.4188500" lon="-3.7488610">
        <ele>645.4</ele>
        <time>2021-02-23T17:22:27Z</time>
      </trkpt>
      <trkpt lat="40.4188730" lon="-3.7488870">
        <ele>645.8</ele>
        <time>2021-02-23T17:22:28Z</time>
      </trkpt>
      <trkpt lat="40.4188800" lon="-3.7488960">
        <ele>646.0</ele>
        <time>2021-02-23T17:22:29Z</time>
      </trkpt>
      <trkpt lat="40.4189050" lon="-3.7489240">
        <ele>646.4</ele>
        <time>2021-02-23T17:22:30Z</time>
      </trkpt>
      <trkpt lat="40.4189160" lon="-3.7489360">
        <ele>646.6</ele>
        <time>2021-02-23T17:22:31Z</time>
      </trkpt>
      <trkpt lat="40.4189260" lon="-3.7489470">
        <ele>646.8</ele>
        <time>2021-02-23T17:22:32Z</time>
      </trkpt>
      <trkpt lat="40.4189520" lon="-3.7489760">
        <ele>647.2</ele>
        <time>2021-02-23T17:22:33Z</time>
      </trkpt>
      <trkpt lat="40.4189620" lon="-3.7489870">
        <ele>647.4</ele>
        <time>2021-02-23T17:22:34Z</time>
      </trkpt>
      <trkpt lat="40.4189730" lon="-3.7489990">
        <ele>647.6</ele>
        <time>2021-02-23T17:22:35Z</time>
      </trkpt>
      <trkpt lat="40.4189980" lon="-3.7490250">
        <ele>648.0</ele>
        <time>2021-02-23T17:22:36Z</time>
      </trkpt>
      <trkpt lat="40.4190060" lon="-3.7490340">
        <ele>648.1</ele>
        <time>2021-02-23T17:22:37Z</time>
      </trkpt>
      <trkpt lat="40.4190330" lon="-3.7490640">
        <ele>648.5</ele>
        <time>2021-02-23T17:22:38Z</time>
      </trkpt>
      <trkpt lat="40.4190440" lon="-3.7490750">
        <ele>648.7</ele>
        <time>2021-02-23T17:22:39Z</time>
      </trkpt>
      <trkpt lat="40.4190550" lon="-3.7490870">
        <ele>648.8</ele>
        <time>2021-02-23T17:22:40Z</time>
      </trkpt>
      <trkpt lat="40.4190800" lon="-3.7491130">
        <ele>649.2</ele>
        <time>2021-02-23T17:22:41Z</time>
      </trkpt>
      <trkpt lat="40.4190880" lon="-3.7491220">
        <ele>649.3</ele>
        <time>2021-02-23T17:22:42Z</time>
      </trkpt>
      <trkpt lat="40.4191160" lon="-3.7491500">
        <ele>649.8</ele>
        <time>2021-02-23T17:22:43Z</time>
      </trkpt>
      <trkpt lat="40.4191260" lon="-3.7491620">
        <ele>649.9</ele>
        <time>2021-02-23T17:22:44Z</time>
      </trkpt>
      <trkpt lat="40.4191370" lon="-3.7491730">
        <ele>650.1</ele>
        <time>2021-02-23T17:22:45Z</time>
      </trkpt>
      <trkpt lat="40.4191610" lon="-3.7491980">
        <ele>650.4</ele>
        <time>2021-02-23T17:22:46Z</time>
      </trkpt>
      <trkpt lat="40.4191680" lon="-3.7492070">
        <ele>650.5</ele>
        <time>2021-02-23T17:22:47Z</time>
      </trkpt>
      <trkpt lat="40.4191930" lon="-3.7492340">
        <ele>650.9</ele>
        <time>2021-02-23T17:22:48Z</time>
      </trkpt>
      <trkpt lat="40.4192020" lon="-3.7492440">
        <ele>651.0</ele>
        <time>2021-02-23T17:22:49Z</time>
      </trkpt>
      <trkpt lat="40.4192120" lon="-3.7492550">
        <ele>651.2</ele>
        <time>2021-02-23T17:22:50Z</time>
      </trkpt>
      <trkpt lat="40.4192330" lon="-3.7492790">
        <ele>651.5</ele>
        <time>2021-02-23T17:22:51Z</time>
      </trkpt>
      <trkpt lat="40.4192410" lon="-3.7492890">
        <ele>651.6</ele>
        <time>2021-02-23T17:22:52Z</time>
      </trkpt>
      <trkpt lat="40.4192490" lon="-3.7492980">
        <ele>651.8</ele>
        <time>2021-02-23T17:22:53Z</time>
      </trkpt>
      <trkpt lat="40.4192650" lon="-3.7493160">
        <ele>652.0</ele>
        <time>2021-02-23T17:22:54Z</time>
      </trkpt>
      <trkpt lat="40.4192890" lon="-3.7493830">
        <ele>652.4</ele>
        <time>2021-02-23T17:22:55Z</time>
      </trkpt>
      <trkpt lat="40.4193070" lon="-3.7494450">
        <ele>652.6</ele>
        <time>2021-02-23T17:22:56Z</time>
      </trkpt>
      <trkpt lat="40.4193430" lon="-3.7495690">
        <ele>653.4</ele>
        <time>2021-02-23T17:22:57Z</time>
      </trkpt>
      <trkpt lat="40.4193760" lon="-3.7496880">
        <ele>653.7</ele>
        <time>2021-02-23T17:22:58Z</time>
      </trkpt>
      <trkpt lat="40.4194250" lon="-3.7498660">
        <ele>653.9</ele>
        <time>2021-02-23T17:24:00Z</time>
      </trkpt>
      <trkpt lat="40.4194410" lon="-3.7499250">
        <ele>654.0</ele>
        <time>2021-02-23T17:24:01Z</time>
      </trkpt>
      <trkpt lat="40.4194740" lon="-3.7500440">
        <ele>654.1</ele>
        <time>2021-02-23T17:24:02Z</time>
      </trkpt>
      <trkpt lat="40.4194840" lon="-3.7500780">
        <ele>654.1</ele>
        <time>2021-02-23T17:24:03Z</time>
      </trkpt>
      <trkpt lat="40.4194900" lon="-3.7500920">
        <ele>654.1</ele>
        <time>2021-02-23T17:24:04Z</time>
      </trkpt>
      <trkpt lat="40.4194950" lon="-3.7501060">
        <ele>654.1</ele>
        <time>2021-02-23T17:24:05Z</time>
      </trkpt>
      <trkpt lat="40.4195100" lon="-3.7501370">
        <ele>654.1</ele>
        <time>2021-02-23T17:24:06Z</time>
      </trkpt>
      <trkpt lat="40.4195150" lon="-3.7501480">
        <ele>654.1</ele>
        <time>2021-02-23T17:24:07Z</time>
      </trkpt>
      <trkpt lat="40.4195350" lon="-3.7501790">
        <ele>654.1</ele>
        <time>2021-02-23T17:24:08Z</time>
      </trkpt>
      <trkpt lat="40.4195440" lon="-3.7501900">
        <ele>654.1</ele>
        <time>2021-02-23T17:24:09Z</time>
      </trkpt>
      <trkpt lat="40.4195520" lon="-3.7502010">
        <ele>654.1</ele>
        <time>2021-02-23T17:24:10Z</time>
      </trkpt>
      <trkpt lat="40.4195770" lon="-3.7502270">
        <ele>654.1</ele>
        <time>2021-02-23T17:24:11Z</time>
      </trkpt>
      <trkpt lat="40.4195850" lon="-3.7502360">
        <ele>654.1</ele>
        <time>2021-02-23T17:24:12Z</time>
      </trkpt>
      <trkpt lat="40.4196160" lon="-3.7502630">
        <ele>654.2</ele>
        <time>2021-02-23T17:24:13Z</time>
      </trkpt>
      <trkpt lat="40.4196300" lon="-3.7502720">
        <ele>654.2</ele>
        <time>2021-02-23T17:24:14Z</time>
      </trkpt>
      <trkpt lat="40.4196430" lon="-3.7502820">
        <ele>654.2</ele>
        <time>2021-02-23T17:24:15Z</time>
      </trkpt>
      <trkpt lat="40.4196800" lon="-3.7503050">
        <ele>654.2</ele>
        <time>2021-02-23T17:24:16Z</time>
      </trkpt>
      <trkpt lat="40.4196940" lon="-3.7503130">
        <ele>654.2</ele>
        <time>2021-02-23T17:24:17Z</time>
      </trkpt>
      <trkpt lat="40.4197090" lon="-3.7503220">
        <ele>654.2</ele>
        <time>2021-02-23T17:24:18Z</time>
      </trkpt>
      <trkpt lat="40.4197450" lon="-3.7503410">
        <ele>654.2</ele>
        <time>2021-02-23T17:24:19Z</time>
      </trkpt>
      <trkpt lat="40.4197560" lon="-3.7503470">
        <ele>654.2</ele>
        <time>2021-02-23T17:24:20Z</time>
      </trkpt>
      <trkpt lat="40.4197960" lon="-3.7503680">
        <ele>654.2</ele>
        <time>2021-02-23T17:24:21Z</time>
      </trkpt>
      <trkpt lat="40.4198120" lon="-3.7503760">
        <ele>654.2</ele>
        <time>2021-02-23T17:24:22Z</time>
      </trkpt>
      <trkpt lat="40.4198280" lon="-3.7503850">
        <ele>654.3</ele>
        <time>2021-02-23T17:24:23Z</time>
      </trkpt>
      <trkpt lat="40.4198640" lon="-3.7504050">
        <ele>654.3</ele>
        <time>2021-02-23T17:24:24Z</time>
      </trkpt>
      <trkpt lat="40.4198760" lon="-3.7504120">
        <ele>654.3</ele>
        <time>2021-02-23T17:24:25Z</time>
      </trkpt>
      <trkpt lat="40.4199150" lon="-3.7504380">
        <ele>654.3</ele>
        <time>2021-02-23T17:24:26Z</time>
      </trkpt>
      <trkpt lat="40.4199300" lon="-3.7504480">
        <ele>654.3</ele>
        <time>2021-02-23T17:24:27Z</time>
      </trkpt>
      <trkpt lat="40.4199460" lon="-3.7504590">
        <ele>654.3</ele>
        <time>2021-02-23T17:24:28Z</time>
      </trkpt>
      <trkpt lat="40.4199800" lon="-3.7504850">
        <ele>654.3</ele>
        <time>2021-02-23T17:24:29Z</time>
      </trkpt>
      <trkpt lat="40.4199910" lon="-3.7504940">
        <ele>654.3</ele>
        <time>2021-02-23T17:24:30Z</time>
      </trkpt>
      <trkpt lat="40.4200270" lon="-3.7505280">
        <ele>654.4</ele>
        <time>2021-02-23T17:24:31Z</time>
      </trkpt>
      <trkpt lat="40.4200410" lon="-3.7505410">
        <ele>654.4</ele>
        <time>2021-02-23T17:24:32Z</time>
      </trkpt>
      <trkpt lat="40.4200550" lon="-3.7505550">
        <ele>654.4</ele>
        <time>2021-02-23T17:24:33Z</time>
      </trkpt>
      <trkpt lat="40.4200890" lon="-3.7505930">
        <ele>654.4</ele>
        <time>2021-02-23T17:24:34Z</time>
      </trkpt>
      <trkpt lat="40.4201020" lon="-3.7506080">
        <ele>654.4</ele>
        <time>2021-02-23T17:24:35Z</time>
      </trkpt>
      <trkpt lat="40.4201150" lon="-3.7506240">
        <ele>654.4</ele>
        <time>2021-02-23T17:24:36Z</time>
      </trkpt>
      <trkpt lat="40.4201440" lon="-3.7506600">
        <ele>654.4</ele>
        <time>2021-02-23T17:24:37Z</time>
      </trkpt>
      <trkpt lat="40.4201530" lon="-3.7506730">
        <ele>654.4</ele>
        <time>2021-02-23T17:24:38Z</time>
      </trkpt>
      <trkpt lat="40.4201840" lon="-3.7507160">
        <ele>654.4</ele>
        <time>2021-02-23T17:24:39Z</time>
      </trkpt>
      <trkpt lat="40.4201960" lon="-3.7507330">
        <ele>654.4</ele>
        <time>2021-02-23T17:24:40Z</time>
      </trkpt>
      <trkpt lat="40.4202080" lon="-3.7507500">
        <ele>654.3</ele>
        <time>2021-02-23T17:24:41Z</time>
      </trkpt>
      <trkpt lat="40.4202350" lon="-3.7507880">
        <ele>654.3</ele>
        <time>2021-02-23T17:24:42Z</time>
      </trkpt>
      <trkpt lat="40.4202440" lon="-3.7508010">
        <ele>654.3</ele>
        <time>2021-02-23T17:24:43Z</time>
      </trkpt>
      <trkpt lat="40.4202740" lon="-3.7508420">
        <ele>654.3</ele>
        <time>2021-02-23T17:24:44Z</time>
      </trkpt>
      <trkpt lat="40.4202870" lon="-3.7508590">
        <ele>654.3</ele>
        <time>2021-02-23T17:24:45Z</time>
      </trkpt>
      <trkpt lat="40.4202990" lon="-3.7508750">
        <ele>654.3</ele>
        <time>2021-02-23T17:24:46Z</time>
      </trkpt>
      <trkpt lat="40.4203280" lon="-3.7509090">
        <ele>654.3</ele>
        <time>2021-02-23T17:24:47Z</time>
      </trkpt>
      <trkpt lat="40.4203370" lon="-3.7509210">
        <ele>654.3</ele>
        <time>2021-02-23T17:24:48Z</time>
      </trkpt>
      <trkpt lat="40.4203690" lon="-3.7509560">
        <ele>654.3</ele>
        <time>2021-02-23T17:24:49Z</time>
      </trkpt>
      <trkpt lat="40.4203830" lon="-3.7509690">
        <ele>654.3</ele>
        <time>2021-02-23T17:24:50Z</time>
      </trkpt>
      <trkpt lat="40.4203960" lon="-3.7509830">
        <ele>654.3</ele>
        <time>2021-02-23T17:24:51Z</time>
      </trkpt>
      <trkpt lat="40.4204310" lon="-3.7510140">
        <ele>654.2</ele>
        <time>2021-02-23T17:24:52Z</time>
      </trkpt>
      <trkpt lat="40.4204450" lon="-3.7510260">
        <ele>654.2</ele>
        <time>2021-02-23T17:24:53Z</time>
      </trkpt>
      <trkpt lat="40.4204590" lon="-3.7510380">
        <ele>654.2</ele>
        <time>2021-02-23T17:24:54Z</time>
      </trkpt>
      <trkpt lat="40.4204910" lon="-3.7510630">
        <ele>654.2</ele>
        <time>2021-02-23T17:24:55Z</time>
      </trkpt>
      <trkpt lat="40.4205020" lon="-3.7510720">
        <ele>654.2</ele>
        <time>2021-02-23T17:24:56Z</time>
      </trkpt>
      <trkpt lat="40.4205390" lon="-3.7510970">
        <ele>654.2</ele>
        <time>2021-02-23T17:24:57Z</time>
      </trkpt>
      <trkpt lat="40.4205770" lon="-3.7511220">
        <ele>654.2</ele>
        <time>2021-02-23T17:24:58Z</time>
      </trkpt>
      <trkpt lat="40.4206010" lon="-3.7511360">
        <ele>654.2</ele>
        <time>2021-02-23T17:24:59Z</time>
      </trkpt>
      <trkpt lat="40.4206250" lon="-3.7511510">
        <ele>654.2</ele>
        <time>2021-02-23T17:25:00Z</time>
      </trkpt>
      <trkpt lat="40.4206360" lon="-3.7511570">
        <ele>654.2</ele>
        <time>2021-02-23T17:25:01Z</time>
      </trkpt>
      <trkpt lat="40.4206740" lon="-3.7511770">
        <ele>654.2</ele>
        <time>2021-02-23T17:25:02Z</time>
      </trkpt>
      <trkpt lat="40.4206900" lon="-3.7511850">
        <ele>654.2</ele>
        <time>2021-02-23T17:25:03Z</time>
      </trkpt>
      <trkpt lat="40.4207050" lon="-3.7511930">
        <ele>654.2</ele>
        <time>2021-02-23T17:25:04Z</time>
      </trkpt>
      <trkpt lat="40.4207400" lon="-3.7512090">
        <ele>654.2</ele>
        <time>2021-02-23T17:25:05Z</time>
      </trkpt>
      <trkpt lat="40.4207510" lon="-3.7512150">
        <ele>654.3</ele>
        <time>2021-02-23T17:25:06Z</time>
      </trkpt>
      <trkpt lat="40.4207890" lon="-3.7512360">
        <ele>654.3</ele>
        <time>2021-02-23T17:25:07Z</time>
      </trkpt>
      <trkpt lat="40.4208050" lon="-3.7512440">
        <ele>654.3</ele>
        <time>2021-02-23T17:25:08Z</time>
      </trkpt>
      <trkpt lat="40.4208200" lon="-3.7512530">
        <ele>654.3</ele>
        <time>2021-02-23T17:25:09Z</time>
      </trkpt>
      <trkpt lat="40.4208570" lon="-3.7512760">
        <ele>654.4</ele>
        <time>2021-02-23T17:25:10Z</time>
      </trkpt>
      <trkpt lat="40.4208720" lon="-3.7512850">
        <ele>654.4</ele>
        <time>2021-02-23T17:25:11Z</time>
      </trkpt>
      <trkpt lat="40.4208870" lon="-3.7512950">
        <ele>654.4</ele>
        <time>2021-02-23T17:25:12Z</time>
      </trkpt>
      <trkpt lat="40.4209200" lon="-3.7513190">
        <ele>654.5</ele>
        <time>2021-02-23T17:25:13Z</time>
      </trkpt>
      <trkpt lat="40.4209310" lon="-3.7513270">
        <ele>654.5</ele>
        <time>2021-02-23T17:25:14Z</time>
      </trkpt>
      <trkpt lat="40.4209660" lon="-3.7513550">
        <ele>654.6</ele>
        <time>2021-02-23T17:25:15Z</time>
      </trkpt>
      <trkpt lat="40.4209790" lon="-3.7513660">
        <ele>654.6</ele>
        <time>2021-02-23T17:25:16Z</time>
      </trkpt>
      <trkpt lat="40.4209930" lon="-3.7513780">
        <ele>654.6</ele>
        <time>2021-02-23T17:25:17Z</time>
      </trkpt>
      <trkpt lat="40.4210230" lon="-3.7514040">
        <ele>654.6</ele>
        <time>2021-02-23T17:25:18Z</time>
      </trkpt>
      <trkpt lat="40.4210320" lon="-3.7514130">
        <ele>654.6</ele>
        <time>2021-02-23T17:25:19Z</time>
      </trkpt>
      <trkpt lat="40.4210620" lon="-3.7514430">
        <ele>654.7</ele>
        <time>2021-02-23T17:25:20Z</time>
      </trkpt>
      <trkpt lat="40.4210740" lon="-3.7514560">
        <ele>654.7</ele>
        <time>2021-02-23T17:25:21Z</time>
      </trkpt>
      <trkpt lat="40.4210850" lon="-3.7514680">
        <ele>654.7</ele>
        <time>2021-02-23T17:25:22Z</time>
      </trkpt>
      <trkpt lat="40.4211090" lon="-3.7514950">
        <ele>654.7</ele>
        <time>2021-02-23T17:25:23Z</time>
      </trkpt>
      <trkpt lat="40.4211160" lon="-3.7515050">
        <ele>654.7</ele>
        <time>2021-02-23T17:25:24Z</time>
      </trkpt>
      <trkpt lat="40.4211390" lon="-3.7515350">
        <ele>654.7</ele>
        <time>2021-02-23T17:25:25Z</time>
      </trkpt>
      <trkpt lat="40.4211470" lon="-3.7515470">
        <ele>654.7</ele>
        <time>2021-02-23T17:25:26Z</time>
      </trkpt>
      <trkpt lat="40.4211560" lon="-3.7515590">
        <ele>654.7</ele>
        <time>2021-02-23T17:25:27Z</time>
      </trkpt>
      <trkpt lat="40.4211540" lon="-3.7515880">
        <ele>654.7</ele>
        <time>2021-02-23T17:25:28Z</time>
      </trkpt>
      <trkpt lat="40.4211560" lon="-3.7516150">
        <ele>654.7</ele>
        <time>2021-02-23T17:25:29Z</time>
      </trkpt>
      <trkpt lat="40.4211570" lon="-3.7516430">
        <ele>654.7</ele>
        <time>2021-02-23T17:25:30Z</time>
      </trkpt>
      <trkpt lat="40.4211590" lon="-3.7516870">
        <ele>654.7</ele>
        <time>2021-02-23T17:25:31Z</time>
      </trkpt>
      <trkpt lat="40.4211590" lon="-3.7517030">
        <ele>654.6</ele>
        <time>2021-02-23T17:25:32Z</time>
      </trkpt>
      <trkpt lat="40.4211610" lon="-3.7517560">
        <ele>654.6</ele>
        <time>2021-02-23T17:25:33Z</time>
      </trkpt>
      <trkpt lat="40.4211610" lon="-3.7517790">
        <ele>654.6</ele>
        <time>2021-02-23T17:25:34Z</time>
      </trkpt>
      <trkpt lat="40.4211620" lon="-3.7518010">
        <ele>654.6</ele>
        <time>2021-02-23T17:25:35Z</time>
      </trkpt>
      <trkpt lat="40.4211650" lon="-3.7518540">
        <ele>654.6</ele>
        <time>2021-02-23T17:25:36Z</time>
      </trkpt>
      <trkpt lat="40.4211650" lon="-3.7518720">
        <ele>654.6</ele>
        <time>2021-02-23T17:25:37Z</time>
      </trkpt>
      <trkpt lat="40.4211690" lon="-3.7519340">
        <ele>654.6</ele>
        <time>2021-02-23T17:25:38Z</time>
      </trkpt>
      <trkpt lat="40.4211710" lon="-3.7519580">
        <ele>654.6</ele>
        <time>2021-02-23T17:25:39Z</time>
      </trkpt>
      <trkpt lat="40.4211730" lon="-3.7519830">
        <ele>654.6</ele>
        <time>2021-02-23T17:25:40Z</time>
      </trkpt>
      <trkpt lat="40.4211780" lon="-3.7520380">
        <ele>654.6</ele>
        <time>2021-02-23T17:25:41Z</time>
      </trkpt>
      <trkpt lat="40.4211800" lon="-3.7520570">
        <ele>654.6</ele>
        <time>2021-02-23T17:25:42Z</time>
      </trkpt>
      <trkpt lat="40.4211880" lon="-3.7521180">
        <ele>654.6</ele>
        <time>2021-02-23T17:25:43Z</time>
      </trkpt>
      <trkpt lat="40.4211920" lon="-3.7521430">
        <ele>654.6</ele>
        <time>2021-02-23T17:25:44Z</time>
      </trkpt>
      <trkpt lat="40.4211950" lon="-3.7521670">
        <ele>654.6</ele>
        <time>2021-02-23T17:25:45Z</time>
      </trkpt>
      <trkpt lat="40.4212050" lon="-3.7522250">
        <ele>654.6</ele>
        <time>2021-02-23T17:25:46Z</time>
      </trkpt>
      <trkpt lat="40.4212090" lon="-3.7522490">
        <ele>654.6</ele>
        <time>2021-02-23T17:25:47Z</time>
      </trkpt>
      <trkpt lat="40.4212130" lon="-3.7522720">
        <ele>654.6</ele>
        <time>2021-02-23T17:25:48Z</time>
      </trkpt>
      <trkpt lat="40.4212230" lon="-3.7523220">
        <ele>654.6</ele>
        <time>2021-02-23T17:25:49Z</time>
      </trkpt>
      <trkpt lat="40.4212260" lon="-3.7523390">
        <ele>654.6</ele>
        <time>2021-02-23T17:25:50Z</time>
      </trkpt>
      <trkpt lat="40.4212370" lon="-3.7523930">
        <ele>654.6</ele>
        <time>2021-02-23T17:25:51Z</time>
      </trkpt>
      <trkpt lat="40.4212400" lon="-3.7524150">
        <ele>654.6</ele>
        <time>2021-02-23T17:25:52Z</time>
      </trkpt>
      <trkpt lat="40.4212440" lon="-3.7524360">
        <ele>654.6</ele>
        <time>2021-02-23T17:25:53Z</time>
      </trkpt>
      <trkpt lat="40.4212530" lon="-3.7524830">
        <ele>654.6</ele>
        <time>2021-02-23T17:25:54Z</time>
      </trkpt>
      <trkpt lat="40.4212550" lon="-3.7524990">
        <ele>654.6</ele>
        <time>2021-02-23T17:25:55Z</time>
      </trkpt>
      <trkpt lat="40.4212640" lon="-3.7525490">
        <ele>654.6</ele>
        <time>2021-02-23T17:25:56Z</time>
      </trkpt>
      <trkpt lat="40.4212670" lon="-3.7525700">
        <ele>654.6</ele>
        <time>2021-02-23T17:25:57Z</time>
      </trkpt>
      <trkpt lat="40.4212710" lon="-3.7525900">
        <ele>654.6</ele>
        <time>2021-02-23T17:25:58Z</time>
      </trkpt>
      <trkpt lat="40.4212790" lon="-3.7526350">
        <ele>654.6</ele>
        <time>2021-02-23T17:25:59Z</time>
      </trkpt>
      <trkpt lat="40.4212820" lon="-3.7526500">
        <ele>654.6</ele>
        <time>2021-02-23T17:26:00Z</time>
      </trkpt>
      <trkpt lat="40.4212940" lon="-3.7527000">
        <ele>654.6</ele>
        <time>2021-02-23T17:26:01Z</time>
      </trkpt>
      <trkpt lat="40.4212990" lon="-3.7527190">
        <ele>654.6</ele>
        <time>2021-02-23T17:26:02Z</time>
      </trkpt>
      <trkpt lat="40.4213040" lon="-3.7527390">
        <ele>654.6</ele>
        <time>2021-02-23T17:26:03Z</time>
      </trkpt>
      <trkpt lat="40.4213200" lon="-3.7527870">
        <ele>654.6</ele>
        <time>2021-02-23T17:26:04Z</time>
      </trkpt>
      <trkpt lat="40.4213270" lon="-3.7528070">
        <ele>654.6</ele>
        <time>2021-02-23T17:26:05Z</time>
      </trkpt>
      <trkpt lat="40.4213340" lon="-3.7528260">
        <ele>654.6</ele>
        <time>2021-02-23T17:26:06Z</time>
      </trkpt>
      <trkpt lat="40.4213520" lon="-3.7528690">
        <ele>654.6</ele>
        <time>2021-02-23T17:26:07Z</time>
      </trkpt>
      <trkpt lat="40.4213580" lon="-3.7528840">
        <ele>654.6</ele>
        <time>2021-02-23T17:26:08Z</time>
      </trkpt>
      <trkpt lat="40.4213790" lon="-3.7529320">
        <ele>654.6</ele>
        <time>2021-02-23T17:26:09Z</time>
      </trkpt>
      <trkpt lat="40.4213870" lon="-3.7529520">
        <ele>654.7</ele>
        <time>2021-02-23T17:26:10Z</time>
      </trkpt>
      <trkpt lat="40.4213960" lon="-3.7529710">
        <ele>654.7</ele>
        <time>2021-02-23T17:26:11Z</time>
      </trkpt>
      <trkpt lat="40.4214160" lon="-3.7530160">
        <ele>654.7</ele>
        <time>2021-02-23T17:26:12Z</time>
      </trkpt>
      <trkpt lat="40.4214220" lon="-3.7530310">
        <ele>654.7</ele>
        <time>2021-02-23T17:26:13Z</time>
      </trkpt>
      <trkpt lat="40.4214420" lon="-3.7530830">
        <ele>654.8</ele>
        <time>2021-02-23T17:26:14Z</time>
      </trkpt>
      <trkpt lat="40.4214490" lon="-3.7531030">
        <ele>654.8</ele>
        <time>2021-02-23T17:26:15Z</time>
      </trkpt>
      <trkpt lat="40.4214570" lon="-3.7531240">
        <ele>654.8</ele>
        <time>2021-02-23T17:26:16Z</time>
      </trkpt>
      <trkpt lat="40.4214720" lon="-3.7531710">
        <ele>654.9</ele>
        <time>2021-02-23T17:26:17Z</time>
      </trkpt>
      <trkpt lat="40.4214770" lon="-3.7531870">
        <ele>654.9</ele>
        <time>2021-02-23T17:26:18Z</time>
      </trkpt>
      <trkpt lat="40.4214900" lon="-3.7532420">
        <ele>654.9</ele>
        <time>2021-02-23T17:26:19Z</time>
      </trkpt>
      <trkpt lat="40.4214940" lon="-3.7532640">
        <ele>655.0</ele>
        <time>2021-02-23T17:26:20Z</time>
      </trkpt>
      <trkpt lat="40.4214990" lon="-3.7532860">
        <ele>655.0</ele>
        <time>2021-02-23T17:26:21Z</time>
      </trkpt>
      <trkpt lat="40.4215080" lon="-3.7533430">
        <ele>655.1</ele>
        <time>2021-02-23T17:26:22Z</time>
      </trkpt>
      <trkpt lat="40.4215120" lon="-3.7533650">
        <ele>655.1</ele>
        <time>2021-02-23T17:26:23Z</time>
      </trkpt>
      <trkpt lat="40.4215150" lon="-3.7533880">
        <ele>655.1</ele>
        <time>2021-02-23T17:26:24Z</time>
      </trkpt>
      <trkpt lat="40.4215200" lon="-3.7534390">
        <ele>655.2</ele>
        <time>2021-02-23T17:26:25Z</time>
      </trkpt>
      <trkpt lat="40.4215210" lon="-3.7534560">
        <ele>655.2</ele>
        <time>2021-02-23T17:26:26Z</time>
      </trkpt>
      <trkpt lat="40.4215240" lon="-3.7535130">
        <ele>655.3</ele>
        <time>2021-02-23T17:26:27Z</time>
      </trkpt>
      <trkpt lat="40.4215260" lon="-3.7535350">
        <ele>655.4</ele>
        <time>2021-02-23T17:26:28Z</time>
      </trkpt>
      <trkpt lat="40.4215270" lon="-3.7535580">
        <ele>655.4</ele>
        <time>2021-02-23T17:26:29Z</time>
      </trkpt>
      <trkpt lat="40.4215300" lon="-3.7536090">
        <ele>655.5</ele>
        <time>2021-02-23T17:26:30Z</time>
      </trkpt>
      <trkpt lat="40.4215300" lon="-3.7536260">
        <ele>655.5</ele>
        <time>2021-02-23T17:26:31Z</time>
      </trkpt>
      <trkpt lat="40.4215340" lon="-3.7536810">
        <ele>655.6</ele>
        <time>2021-02-23T17:26:32Z</time>
      </trkpt>
      <trkpt lat="40.4215350" lon="-3.7537030">
        <ele>655.7</ele>
        <time>2021-02-23T17:26:33Z</time>
      </trkpt>
      <trkpt lat="40.4215370" lon="-3.7537250">
        <ele>655.8</ele>
        <time>2021-02-23T17:26:34Z</time>
      </trkpt>
      <trkpt lat="40.4215420" lon="-3.7537740">
        <ele>655.9</ele>
        <time>2021-02-23T17:26:35Z</time>
      </trkpt>
      <trkpt lat="40.4215430" lon="-3.7537900">
        <ele>655.9</ele>
        <time>2021-02-23T17:26:36Z</time>
      </trkpt>
      <trkpt lat="40.4215510" lon="-3.7538420">
        <ele>656.0</ele>
        <time>2021-02-23T17:26:37Z</time>
      </trkpt>
      <trkpt lat="40.4215540" lon="-3.7538620">
        <ele>656.2</ele>
        <time>2021-02-23T17:26:38Z</time>
      </trkpt>
      <trkpt lat="40.4215580" lon="-3.7538820">
        <ele>656.2</ele>
        <time>2021-02-23T17:26:39Z</time>
      </trkpt>
      <trkpt lat="40.4215770" lon="-3.7539290">
        <ele>656.4</ele>
        <time>2021-02-23T17:26:40Z</time>
      </trkpt>
      <trkpt lat="40.4215850" lon="-3.7539470">
        <ele>656.4</ele>
        <time>2021-02-23T17:26:41Z</time>
      </trkpt>
      <trkpt lat="40.4215930" lon="-3.7539660">
        <ele>656.5</ele>
        <time>2021-02-23T17:26:42Z</time>
      </trkpt>
      <trkpt lat="40.4216130" lon="-3.7540070">
        <ele>656.6</ele>
        <time>2021-02-23T17:26:43Z</time>
      </trkpt>
      <trkpt lat="40.4216190" lon="-3.7540210">
        <ele>656.7</ele>
        <time>2021-02-23T17:26:44Z</time>
      </trkpt>
      <trkpt lat="40.4216410" lon="-3.7540670">
        <ele>656.8</ele>
        <time>2021-02-23T17:26:45Z</time>
      </trkpt>
      <trkpt lat="40.4216500" lon="-3.7540850">
        <ele>656.9</ele>
        <time>2021-02-23T17:26:46Z</time>
      </trkpt>
      <trkpt lat="40.4216590" lon="-3.7541030">
        <ele>656.9</ele>
        <time>2021-02-23T17:26:47Z</time>
      </trkpt>
      <trkpt lat="40.4216810" lon="-3.7541430">
        <ele>657.0</ele>
        <time>2021-02-23T17:26:48Z</time>
      </trkpt>
      <trkpt lat="40.4216880" lon="-3.7541560">
        <ele>657.1</ele>
        <time>2021-02-23T17:26:49Z</time>
      </trkpt>
      <trkpt lat="40.4217130" lon="-3.7542010">
        <ele>657.2</ele>
        <time>2021-02-23T17:26:50Z</time>
      </trkpt>
      <trkpt lat="40.4217230" lon="-3.7542190">
        <ele>657.3</ele>
        <time>2021-02-23T17:26:51Z</time>
      </trkpt>
      <trkpt lat="40.4217330" lon="-3.7542370">
        <ele>657.3</ele>
        <time>2021-02-23T17:26:52Z</time>
      </trkpt>
      <trkpt lat="40.4217570" lon="-3.7542770">
        <ele>657.5</ele>
        <time>2021-02-23T17:26:53Z</time>
      </trkpt>
      <trkpt lat="40.4217640" lon="-3.7542910">
        <ele>657.5</ele>
        <time>2021-02-23T17:26:54Z</time>
      </trkpt>
      <trkpt lat="40.4217910" lon="-3.7543360">
        <ele>657.6</ele>
        <time>2021-02-23T17:26:55Z</time>
      </trkpt>
      <trkpt lat="40.4218010" lon="-3.7543550">
        <ele>657.7</ele>
        <time>2021-02-23T17:26:56Z</time>
      </trkpt>
      <trkpt lat="40.4218120" lon="-3.7543730">
        <ele>657.7</ele>
        <time>2021-02-23T17:26:57Z</time>
      </trkpt>
      <trkpt lat="40.4218380" lon="-3.7544180">
        <ele>657.9</ele>
        <time>2021-02-23T17:26:58Z</time>
      </trkpt>
      <trkpt lat="40.4218490" lon="-3.7544370">
        <ele>657.9</ele>
        <time>2021-02-23T17:26:59Z</time>
      </trkpt>
      <trkpt lat="40.4218590" lon="-3.7544550">
        <ele>658.0</ele>
        <time>2021-02-23T17:27:00Z</time>
      </trkpt>
      <trkpt lat="40.4218830" lon="-3.7544970">
        <ele>658.1</ele>
        <time>2021-02-23T17:27:01Z</time>
      </trkpt>
      <trkpt lat="40.4218910" lon="-3.7545110">
        <ele>658.1</ele>
        <time>2021-02-23T17:27:02Z</time>
      </trkpt>
      <trkpt lat="40.4219160" lon="-3.7545570">
        <ele>658.2</ele>
        <time>2021-02-23T17:27:03Z</time>
      </trkpt>
      <trkpt lat="40.4219270" lon="-3.7545760">
        <ele>658.3</ele>
        <time>2021-02-23T17:27:04Z</time>
      </trkpt>
      <trkpt lat="40.4219370" lon="-3.7545940">
        <ele>658.3</ele>
        <time>2021-02-23T17:27:05Z</time>
      </trkpt>
      <trkpt lat="40.4219600" lon="-3.7546350">
        <ele>658.4</ele>
        <time>2021-02-23T17:27:06Z</time>
      </trkpt>
      <trkpt lat="40.4219670" lon="-3.7546490">
        <ele>658.4</ele>
        <time>2021-02-23T17:27:07Z</time>
      </trkpt>
      <trkpt lat="40.4219920" lon="-3.7546950">
        <ele>658.5</ele>
        <time>2021-02-23T17:27:08Z</time>
      </trkpt>
      <trkpt lat="40.4220020" lon="-3.7547130">
        <ele>658.5</ele>
        <time>2021-02-23T17:27:09Z</time>
      </trkpt>
      <trkpt lat="40.4220120" lon="-3.7547310">
        <ele>658.6</ele>
        <time>2021-02-23T17:27:10Z</time>
      </trkpt>
      <trkpt lat="40.4220350" lon="-3.7547720">
        <ele>658.7</ele>
        <time>2021-02-23T17:27:11Z</time>
      </trkpt>
      <trkpt lat="40.4220420" lon="-3.7547860">
        <ele>658.7</ele>
        <time>2021-02-23T17:27:12Z</time>
      </trkpt>
      <trkpt lat="40.4220660" lon="-3.7548310">
        <ele>658.8</ele>
        <time>2021-02-23T17:27:13Z</time>
      </trkpt>
      <trkpt lat="40.4220770" lon="-3.7548490">
        <ele>658.9</ele>
        <time>2021-02-23T17:27:14Z</time>
      </trkpt>
      <trkpt lat="40.4220870" lon="-3.7548670">
        <ele>658.9</ele>
        <time>2021-02-23T17:27:15Z</time>
      </trkpt>
      <trkpt lat="40.4221130" lon="-3.7549110">
        <ele>659.0</ele>
        <time>2021-02-23T17:27:16Z</time>
      </trkpt>
      <trkpt lat="40.4221230" lon="-3.7549280">
        <ele>659.1</ele>
        <time>2021-02-23T17:27:17Z</time>
      </trkpt>
      <trkpt lat="40.4221340" lon="-3.7549460">
        <ele>659.1</ele>
        <time>2021-02-23T17:27:18Z</time>
      </trkpt>
      <trkpt lat="40.4221590" lon="-3.7549860">
        <ele>659.2</ele>
        <time>2021-02-23T17:27:19Z</time>
      </trkpt>
      <trkpt lat="40.4221670" lon="-3.7549990">
        <ele>659.3</ele>
        <time>2021-02-23T17:27:20Z</time>
      </trkpt>
      <trkpt lat="40.4221960" lon="-3.7550410">
        <ele>659.4</ele>
        <time>2021-02-23T17:27:21Z</time>
      </trkpt>
      <trkpt lat="40.4222070" lon="-3.7550580">
        <ele>659.4</ele>
        <time>2021-02-23T17:27:22Z</time>
      </trkpt>
      <trkpt lat="40.4222190" lon="-3.7550750">
        <ele>659.5</ele>
        <time>2021-02-23T17:27:23Z</time>
      </trkpt>
      <trkpt lat="40.4222470" lon="-3.7551120">
        <ele>659.6</ele>
        <time>2021-02-23T17:27:24Z</time>
      </trkpt>
      <trkpt lat="40.4222560" lon="-3.7551240">
        <ele>659.6</ele>
        <time>2021-02-23T17:27:25Z</time>
      </trkpt>
      <trkpt lat="40.4222880" lon="-3.7551630">
        <ele>659.7</ele>
        <time>2021-02-23T17:27:26Z</time>
      </trkpt>
      <trkpt lat="40.4223010" lon="-3.7551790">
        <ele>659.7</ele>
        <time>2021-02-23T17:27:27Z</time>
      </trkpt>
      <trkpt lat="40.4223140" lon="-3.7551940">
        <ele>659.8</ele>
        <time>2021-02-23T17:27:28Z</time>
      </trkpt>
      <trkpt lat="40.4223450" lon="-3.7552280">
        <ele>659.9</ele>
        <time>2021-02-23T17:27:29Z</time>
      </trkpt>
      <trkpt lat="40.4223550" lon="-3.7552390">
        <ele>660.0</ele>
        <time>2021-02-23T17:27:30Z</time>
      </trkpt>
      <trkpt lat="40.4223890" lon="-3.7552760">
        <ele>660.1</ele>
        <time>2021-02-23T17:27:31Z</time>
      </trkpt>
      <trkpt lat="40.4224030" lon="-3.7552900">
        <ele>660.2</ele>
        <time>2021-02-23T17:27:32Z</time>
      </trkpt>
      <trkpt lat="40.4224170" lon="-3.7553050">
        <ele>660.3</ele>
        <time>2021-02-23T17:27:33Z</time>
      </trkpt>
      <trkpt lat="40.4224510" lon="-3.7553400">
        <ele>660.5</ele>
        <time>2021-02-23T17:27:34Z</time>
      </trkpt>
      <trkpt lat="40.4224650" lon="-3.7553550">
        <ele>660.6</ele>
        <time>2021-02-23T17:27:35Z</time>
      </trkpt>
      <trkpt lat="40.4224780" lon="-3.7553690">
        <ele>660.6</ele>
        <time>2021-02-23T17:27:36Z</time>
      </trkpt>
      <trkpt lat="40.4225060" lon="-3.7554020">
        <ele>660.8</ele>
        <time>2021-02-23T17:27:37Z</time>
      </trkpt>
      <trkpt lat="40.4225150" lon="-3.7554130">
        <ele>660.9</ele>
        <time>2021-02-23T17:27:38Z</time>
      </trkpt>
      <trkpt lat="40.4225410" lon="-3.7554520">
        <ele>661.4</ele>
        <time>2021-02-23T17:27:39Z</time>
      </trkpt>
      <trkpt lat="40.4225500" lon="-3.7554690">
        <ele>661.4</ele>
        <time>2021-02-23T17:27:40Z</time>
      </trkpt>
      <trkpt lat="40.4225600" lon="-3.7554850">
        <ele>661.4</ele>
        <time>2021-02-23T17:27:41Z</time>
      </trkpt>
      <trkpt lat="40.4225780" lon="-3.7555230">
        <ele>661.4</ele>
        <time>2021-02-23T17:27:42Z</time>
      </trkpt>
      <trkpt lat="40.4225830" lon="-3.7555370">
        <ele>661.4</ele>
        <time>2021-02-23T17:27:43Z</time>
      </trkpt>
      <trkpt lat="40.4225970" lon="-3.7555850">
        <ele>661.4</ele>
        <time>2021-02-23T17:27:44Z</time>
      </trkpt>
      <trkpt lat="40.4226020" lon="-3.7556040">
        <ele>661.1</ele>
        <time>2021-02-23T17:27:45Z</time>
      </trkpt>
      <trkpt lat="40.4226070" lon="-3.7556240">
        <ele>661.1</ele>
        <time>2021-02-23T17:27:46Z</time>
      </trkpt>
      <trkpt lat="40.4226140" lon="-3.7556700">
        <ele>661.0</ele>
        <time>2021-02-23T17:27:47Z</time>
      </trkpt>
      <trkpt lat="40.4226160" lon="-3.7556860">
        <ele>661.0</ele>
        <time>2021-02-23T17:27:48Z</time>
      </trkpt>
      <trkpt lat="40.4226220" lon="-3.7557400">
        <ele>661.0</ele>
        <time>2021-02-23T17:27:49Z</time>
      </trkpt>
      <trkpt lat="40.4226250" lon="-3.7557630">
        <ele>661.0</ele>
        <time>2021-02-23T17:27:50Z</time>
      </trkpt>
      <trkpt lat="40.4226270" lon="-3.7557850">
        <ele>661.0</ele>
        <time>2021-02-23T17:27:51Z</time>
      </trkpt>
      <trkpt lat="40.4226320" lon="-3.7558420">
        <ele>661.0</ele>
        <time>2021-02-23T17:27:52Z</time>
      </trkpt>
      <trkpt lat="40.4226350" lon="-3.7558660">
        <ele>661.0</ele>
        <time>2021-02-23T17:27:53Z</time>
      </trkpt>
      <trkpt lat="40.4226370" lon="-3.7558890">
        <ele>661.0</ele>
        <time>2021-02-23T17:27:54Z</time>
      </trkpt>
      <trkpt lat="40.4226420" lon="-3.7559420">
        <ele>661.1</ele>
        <time>2021-02-23T17:27:55Z</time>
      </trkpt>
      <trkpt lat="40.4226440" lon="-3.7559600">
        <ele>661.1</ele>
        <time>2021-02-23T17:27:56Z</time>
      </trkpt>
      <trkpt lat="40.4226510" lon="-3.7560200">
        <ele>661.1</ele>
        <time>2021-02-23T17:27:57Z</time>
      </trkpt>
      <trkpt lat="40.4226550" lon="-3.7560440">
        <ele>661.1</ele>
        <time>2021-02-23T17:27:58Z</time>
      </trkpt>
      <trkpt lat="40.4226580" lon="-3.7560680">
        <ele>661.1</ele>
        <time>2021-02-23T17:27:59Z</time>
      </trkpt>
      <trkpt lat="40.4226660" lon="-3.7561200">
        <ele>661.2</ele>
        <time>2021-02-23T17:28:00Z</time>
      </trkpt>
      <trkpt lat="40.4226690" lon="-3.7561380">
        <ele>661.2</ele>
        <time>2021-02-23T17:28:01Z</time>
      </trkpt>
      <trkpt lat="40.4226780" lon="-3.7561970">
        <ele>661.2</ele>
        <time>2021-02-23T17:28:02Z</time>
      </trkpt>
      <trkpt lat="40.4226820" lon="-3.7562200">
        <ele>661.2</ele>
        <time>2021-02-23T17:28:03Z</time>
      </trkpt>
      <trkpt lat="40.4226860" lon="-3.7562430">
        <ele>661.3</ele>
        <time>2021-02-23T17:28:04Z</time>
      </trkpt>
      <trkpt lat="40.4226960" lon="-3.7562940">
        <ele>661.3</ele>
        <time>2021-02-23T17:28:05Z</time>
      </trkpt>
      <trkpt lat="40.4226990" lon="-3.7563120">
        <ele>661.3</ele>
        <time>2021-02-23T17:28:06Z</time>
      </trkpt>
      <trkpt lat="40.4227090" lon="-3.7563680">
        <ele>661.4</ele>
        <time>2021-02-23T17:28:07Z</time>
      </trkpt>
      <trkpt lat="40.4227130" lon="-3.7563910">
        <ele>661.4</ele>
        <time>2021-02-23T17:28:08Z</time>
      </trkpt>
      <trkpt lat="40.4227170" lon="-3.7564130">
        <ele>661.4</ele>
        <time>2021-02-23T17:28:09Z</time>
      </trkpt>
      <trkpt lat="40.4227260" lon="-3.7564690">
        <ele>661.5</ele>
        <time>2021-02-23T17:28:10Z</time>
      </trkpt>
      <trkpt lat="40.4227300" lon="-3.7564920">
        <ele>661.5</ele>
        <time>2021-02-23T17:28:11Z</time>
      </trkpt>
      <trkpt lat="40.4227330" lon="-3.7565140">
        <ele>661.5</ele>
        <time>2021-02-23T17:28:12Z</time>
      </trkpt>
      <trkpt lat="40.4227410" lon="-3.7565650">
        <ele>661.5</ele>
        <time>2021-02-23T17:28:13Z</time>
      </trkpt>
      <trkpt lat="40.4227430" lon="-3.7565820">
        <ele>661.5</ele>
        <time>2021-02-23T17:28:14Z</time>
      </trkpt>
      <trkpt lat="40.4227510" lon="-3.7566390">
        <ele>661.5</ele>
        <time>2021-02-23T17:28:15Z</time>
      </trkpt>
      <trkpt lat="40.4227530" lon="-3.7566610">
        <ele>661.5</ele>
        <time>2021-02-23T17:28:16Z</time>
      </trkpt>
      <trkpt lat="40.4227560" lon="-3.7566840">
        <ele>661.5</ele>
        <time>2021-02-23T17:28:17Z</time>
      </trkpt>
      <trkpt lat="40.4227620" lon="-3.7567350">
        <ele>661.4</ele>
        <time>2021-02-23T17:28:18Z</time>
      </trkpt>
      <trkpt lat="40.4227640" lon="-3.7567530">
        <ele>661.4</ele>
        <time>2021-02-23T17:28:19Z</time>
      </trkpt>
      <trkpt lat="40.4227700" lon="-3.7568110">
        <ele>661.4</ele>
        <time>2021-02-23T17:28:20Z</time>
      </trkpt>
      <trkpt lat="40.4227730" lon="-3.7568350">
        <ele>661.4</ele>
        <time>2021-02-23T17:28:21Z</time>
      </trkpt>
      <trkpt lat="40.4227750" lon="-3.7568580">
        <ele>661.4</ele>
        <time>2021-02-23T17:28:22Z</time>
      </trkpt>
      <trkpt lat="40.4227810" lon="-3.7569100">
        <ele>661.4</ele>
        <time>2021-02-23T17:28:23Z</time>
      </trkpt>
      <trkpt lat="40.4227830" lon="-3.7569280">
        <ele>661.4</ele>
        <time>2021-02-23T17:28:24Z</time>
      </trkpt>
      <trkpt lat="40.4227900" lon="-3.7569860">
        <ele>661.4</ele>
        <time>2021-02-23T17:28:25Z</time>
      </trkpt>
      <trkpt lat="40.4227930" lon="-3.7570090">
        <ele>661.4</ele>
        <time>2021-02-23T17:28:26Z</time>
      </trkpt>
      <trkpt lat="40.4227960" lon="-3.7570320">
        <ele>661.4</ele>
        <time>2021-02-23T17:28:27Z</time>
      </trkpt>
      <trkpt lat="40.4228040" lon="-3.7570890">
        <ele>661.4</ele>
        <time>2021-02-23T17:28:28Z</time>
      </trkpt>
      <trkpt lat="40.4228080" lon="-3.7571120">
        <ele>661.4</ele>
        <time>2021-02-23T17:28:29Z</time>
      </trkpt>
      <trkpt lat="40.4228110" lon="-3.7571350">
        <ele>661.4</ele>
        <time>2021-02-23T17:28:30Z</time>
      </trkpt>
      <trkpt lat="40.4228200" lon="-3.7571850">
        <ele>661.3</ele>
        <time>2021-02-23T17:28:31Z</time>
      </trkpt>
      <trkpt lat="40.4228230" lon="-3.7572020">
        <ele>661.3</ele>
        <time>2021-02-23T17:28:32Z</time>
      </trkpt>
      <trkpt lat="40.4228330" lon="-3.7572580">
        <ele>661.3</ele>
        <time>2021-02-23T17:28:33Z</time>
      </trkpt>
      <trkpt lat="40.4228370" lon="-3.7572810">
        <ele>661.3</ele>
        <time>2021-02-23T17:28:34Z</time>
      </trkpt>
      <trkpt lat="40.4228410" lon="-3.7573030">
        <ele>661.3</ele>
        <time>2021-02-23T17:28:35Z</time>
      </trkpt>
      <trkpt lat="40.4228520" lon="-3.7573530">
        <ele>661.3</ele>
        <time>2021-02-23T17:28:36Z</time>
      </trkpt>
      <trkpt lat="40.4228550" lon="-3.7573700">
        <ele>661.3</ele>
        <time>2021-02-23T17:28:37Z</time>
      </trkpt>
      <trkpt lat="40.4228670" lon="-3.7574260">
        <ele>661.3</ele>
        <time>2021-02-23T17:28:38Z</time>
      </trkpt>
      <trkpt lat="40.4228720" lon="-3.7574490">
        <ele>661.3</ele>
        <time>2021-02-23T17:28:39Z</time>
      </trkpt>
      <trkpt lat="40.4228770" lon="-3.7574710">
        <ele>661.3</ele>
        <time>2021-02-23T17:28:40Z</time>
      </trkpt>
      <trkpt lat="40.4228880" lon="-3.7575210">
        <ele>661.4</ele>
        <time>2021-02-23T17:28:41Z</time>
      </trkpt>
      <trkpt lat="40.4228920" lon="-3.7575380">
        <ele>661.4</ele>
        <time>2021-02-23T17:28:42Z</time>
      </trkpt>
      <trkpt lat="40.4229040" lon="-3.7575930">
        <ele>661.4</ele>
        <time>2021-02-23T17:28:43Z</time>
      </trkpt>
      <trkpt lat="40.4229100" lon="-3.7576140">
        <ele>661.4</ele>
        <time>2021-02-23T17:28:44Z</time>
      </trkpt>
      <trkpt lat="40.4229150" lon="-3.7576360">
        <ele>661.4</ele>
        <time>2021-02-23T17:28:45Z</time>
      </trkpt>
      <trkpt lat="40.4229270" lon="-3.7576900">
        <ele>661.4</ele>
        <time>2021-02-23T17:28:46Z</time>
      </trkpt>
      <trkpt lat="40.4229320" lon="-3.7577110">
        <ele>661.5</ele>
        <time>2021-02-23T17:28:47Z</time>
      </trkpt>
      <trkpt lat="40.4229370" lon="-3.7577320">
        <ele>661.5</ele>
        <time>2021-02-23T17:28:48Z</time>
      </trkpt>
      <trkpt lat="40.4229480" lon="-3.7577780">
        <ele>661.5</ele>
        <time>2021-02-23T17:28:49Z</time>
      </trkpt>
      <trkpt lat="40.4229510" lon="-3.7577940">
        <ele>661.5</ele>
        <time>2021-02-23T17:28:50Z</time>
      </trkpt>
      <trkpt lat="40.4229630" lon="-3.7578450">
        <ele>661.5</ele>
        <time>2021-02-23T17:28:51Z</time>
      </trkpt>
      <trkpt lat="40.4229670" lon="-3.7578650">
        <ele>661.5</ele>
        <time>2021-02-23T17:28:52Z</time>
      </trkpt>
      <trkpt lat="40.4229720" lon="-3.7578850">
        <ele>661.5</ele>
        <time>2021-02-23T17:28:53Z</time>
      </trkpt>
      <trkpt lat="40.4229830" lon="-3.7579290">
        <ele>661.6</ele>
        <time>2021-02-23T17:28:54Z</time>
      </trkpt>
      <trkpt lat="40.4229870" lon="-3.7579440">
        <ele>661.6</ele>
        <time>2021-02-23T17:28:55Z</time>
      </trkpt>
      <trkpt lat="40.4230010" lon="-3.7579940">
        <ele>661.6</ele>
        <time>2021-02-23T17:28:56Z</time>
      </trkpt>
      <trkpt lat="40.4230060" lon="-3.7580130">
        <ele>661.6</ele>
        <time>2021-02-23T17:28:57Z</time>
      </trkpt>
      <trkpt lat="40.4230120" lon="-3.7580330">
        <ele>661.6</ele>
        <time>2021-02-23T17:28:58Z</time>
      </trkpt>
      <trkpt lat="40.4230270" lon="-3.7580760">
        <ele>661.7</ele>
        <time>2021-02-23T17:28:59Z</time>
      </trkpt>
      <trkpt lat="40.4230320" lon="-3.7580910">
        <ele>661.7</ele>
        <time>2021-02-23T17:29:00Z</time>
      </trkpt>
      <trkpt lat="40.4230500" lon="-3.7581400">
        <ele>661.8</ele>
        <time>2021-02-23T17:29:01Z</time>
      </trkpt>
      <trkpt lat="40.4230580" lon="-3.7581590">
        <ele>661.8</ele>
        <time>2021-02-23T17:29:02Z</time>
      </trkpt>
      <trkpt lat="40.4230650" lon="-3.7581790">
        <ele>661.8</ele>
        <time>2021-02-23T17:29:03Z</time>
      </trkpt>
      <trkpt lat="40.4230850" lon="-3.7582280">
        <ele>661.9</ele>
        <time>2021-02-23T17:29:04Z</time>
      </trkpt>
      <trkpt lat="40.4230930" lon="-3.7582470">
        <ele>661.9</ele>
        <time>2021-02-23T17:29:05Z</time>
      </trkpt>
      <trkpt lat="40.4231010" lon="-3.7582670">
        <ele>662.0</ele>
        <time>2021-02-23T17:29:06Z</time>
      </trkpt>
      <trkpt lat="40.4231200" lon="-3.7583110">
        <ele>662.1</ele>
        <time>2021-02-23T17:29:07Z</time>
      </trkpt>
      <trkpt lat="40.4231260" lon="-3.7583260">
        <ele>662.1</ele>
        <time>2021-02-23T17:29:08Z</time>
      </trkpt>
      <trkpt lat="40.4231470" lon="-3.7583750">
        <ele>662.2</ele>
        <time>2021-02-23T17:29:09Z</time>
      </trkpt>
      <trkpt lat="40.4231560" lon="-3.7583940">
        <ele>662.2</ele>
        <time>2021-02-23T17:29:10Z</time>
      </trkpt>
      <trkpt lat="40.4231640" lon="-3.7584140">
        <ele>662.2</ele>
        <time>2021-02-23T17:29:11Z</time>
      </trkpt>
      <trkpt lat="40.4231830" lon="-3.7584570">
        <ele>662.2</ele>
        <time>2021-02-23T17:29:12Z</time>
      </trkpt>
      <trkpt lat="40.4231890" lon="-3.7584720">
        <ele>662.3</ele>
        <time>2021-02-23T17:29:13Z</time>
      </trkpt>
      <trkpt lat="40.4232090" lon="-3.7585210">
        <ele>662.3</ele>
        <time>2021-02-23T17:29:14Z</time>
      </trkpt>
      <trkpt lat="40.4232180" lon="-3.7585410">
        <ele>662.3</ele>
        <time>2021-02-23T17:29:15Z</time>
      </trkpt>
      <trkpt lat="40.4232260" lon="-3.7585600">
        <ele>662.3</ele>
        <time>2021-02-23T17:29:16Z</time>
      </trkpt>
      <trkpt lat="40.4232440" lon="-3.7586030">
        <ele>662.3</ele>
        <time>2021-02-23T17:29:17Z</time>
      </trkpt>
      <trkpt lat="40.4232490" lon="-3.7586180">
        <ele>662.3</ele>
        <time>2021-02-23T17:29:18Z</time>
      </trkpt>
      <trkpt lat="40.4232680" lon="-3.7586680">
        <ele>662.6</ele>
        <time>2021-02-23T17:29:19Z</time>
      </trkpt>
      <trkpt lat="40.4232760" lon="-3.7586870">
        <ele>662.6</ele>
        <time>2021-02-23T17:29:20Z</time>
      </trkpt>
      <trkpt lat="40.4232830" lon="-3.7587070">
        <ele>662.7</ele>
        <time>2021-02-23T17:29:21Z</time>
      </trkpt>
      <trkpt lat="40.4233010" lon="-3.7587560">
        <ele>662.8</ele>
        <time>2021-02-23T17:29:22Z</time>
      </trkpt>
      <trkpt lat="40.4233080" lon="-3.7587770">
        <ele>662.8</ele>
        <time>2021-02-23T17:29:23Z</time>
      </trkpt>
      <trkpt lat="40.4233150" lon="-3.7587970">
        <ele>662.9</ele>
        <time>2021-02-23T17:29:24Z</time>
      </trkpt>
      <trkpt lat="40.4233300" lon="-3.7588430">
        <ele>662.9</ele>
        <time>2021-02-23T17:29:25Z</time>
      </trkpt>
      <trkpt lat="40.4233350" lon="-3.7588590">
        <ele>663.0</ele>
        <time>2021-02-23T17:29:26Z</time>
      </trkpt>
      <trkpt lat="40.4233500" lon="-3.7589110">
        <ele>663.0</ele>
        <time>2021-02-23T17:29:27Z</time>
      </trkpt>
      <trkpt lat="40.4233570" lon="-3.7589330">
        <ele>663.0</ele>
        <time>2021-02-23T17:29:28Z</time>
      </trkpt>
      <trkpt lat="40.4233630" lon="-3.7589540">
        <ele>663.1</ele>
        <time>2021-02-23T17:29:29Z</time>
      </trkpt>
      <trkpt lat="40.4233770" lon="-3.7590020">
        <ele>663.1</ele>
        <time>2021-02-23T17:29:30Z</time>
      </trkpt>
      <trkpt lat="40.4233810" lon="-3.7590190">
        <ele>663.2</ele>
        <time>2021-02-23T17:29:31Z</time>
      </trkpt>
      <trkpt lat="40.4233950" lon="-3.7590740">
        <ele>663.2</ele>
        <time>2021-02-23T17:29:32Z</time>
      </trkpt>
      <trkpt lat="40.4234010" lon="-3.7590970">
        <ele>663.2</ele>
        <time>2021-02-23T17:29:33Z</time>
      </trkpt>
      <trkpt lat="40.4234060" lon="-3.7591190">
        <ele>663.3</ele>
        <time>2021-02-23T17:29:34Z</time>
      </trkpt>
      <trkpt lat="40.4234190" lon="-3.7591690">
        <ele>663.3</ele>
        <time>2021-02-23T17:29:35Z</time>
      </trkpt>
      <trkpt lat="40.4234230" lon="-3.7591860">
        <ele>663.3</ele>
        <time>2021-02-23T17:29:36Z</time>
      </trkpt>
      <trkpt lat="40.4234360" lon="-3.7592430">
        <ele>663.4</ele>
        <time>2021-02-23T17:29:37Z</time>
      </trkpt>
      <trkpt lat="40.4234420" lon="-3.7592650">
        <ele>663.4</ele>
        <time>2021-02-23T17:29:38Z</time>
      </trkpt>
      <trkpt lat="40.4234470" lon="-3.7592880">
        <ele>663.4</ele>
        <time>2021-02-23T17:29:39Z</time>
      </trkpt>
      <trkpt lat="40.4234610" lon="-3.7593440">
        <ele>663.4</ele>
        <time>2021-02-23T17:29:40Z</time>
      </trkpt>
      <trkpt lat="40.4234660" lon="-3.7593670">
        <ele>663.5</ele>
        <time>2021-02-23T17:29:41Z</time>
      </trkpt>
      <trkpt lat="40.4234720" lon="-3.7593890">
        <ele>663.5</ele>
        <time>2021-02-23T17:29:42Z</time>
      </trkpt>
      <trkpt lat="40.4234860" lon="-3.7594390">
        <ele>663.5</ele>
        <time>2021-02-23T17:29:43Z</time>
      </trkpt>
      <trkpt lat="40.4234900" lon="-3.7594560">
        <ele>663.5</ele>
        <time>2021-02-23T17:29:44Z</time>
      </trkpt>
      <trkpt lat="40.4235060" lon="-3.7595110">
        <ele>663.5</ele>
        <time>2021-02-23T17:29:45Z</time>
      </trkpt>
      <trkpt lat="40.4235130" lon="-3.7595330">
        <ele>663.5</ele>
        <time>2021-02-23T17:29:46Z</time>
      </trkpt>
      <trkpt lat="40.4235190" lon="-3.7595550">
        <ele>663.5</ele>
        <time>2021-02-23T17:29:47Z</time>
      </trkpt>
      <trkpt lat="40.4235350" lon="-3.7596040">
        <ele>663.5</ele>
        <time>2021-02-23T17:29:48Z</time>
      </trkpt>
      <trkpt lat="40.4235400" lon="-3.7596210">
        <ele>663.5</ele>
        <time>2021-02-23T17:29:49Z</time>
      </trkpt>
      <trkpt lat="40.4235580" lon="-3.7596760">
        <ele>663.5</ele>
        <time>2021-02-23T17:29:50Z</time>
      </trkpt>
      <trkpt lat="40.4235660" lon="-3.7596980">
        <ele>663.5</ele>
        <time>2021-02-23T17:29:51Z</time>
      </trkpt>
      <trkpt lat="40.4235730" lon="-3.7597200">
        <ele>663.5</ele>
        <time>2021-02-23T17:29:52Z</time>
      </trkpt>
      <trkpt lat="40.4235910" lon="-3.7597690">
        <ele>663.5</ele>
        <time>2021-02-23T17:29:53Z</time>
      </trkpt>
      <trkpt lat="40.4235960" lon="-3.7597850">
        <ele>663.5</ele>
        <time>2021-02-23T17:29:54Z</time>
      </trkpt>
      <trkpt lat="40.4236160" lon="-3.7598400">
        <ele>663.5</ele>
        <time>2021-02-23T17:29:55Z</time>
      </trkpt>
      <trkpt lat="40.4236230" lon="-3.7598620">
        <ele>663.5</ele>
        <time>2021-02-23T17:29:56Z</time>
      </trkpt>
      <trkpt lat="40.4236310" lon="-3.7598840">
        <ele>663.5</ele>
        <time>2021-02-23T17:29:57Z</time>
      </trkpt>
      <trkpt lat="40.4236510" lon="-3.7599390">
        <ele>663.4</ele>
        <time>2021-02-23T17:29:58Z</time>
      </trkpt>
      <trkpt lat="40.4236580" lon="-3.7599620">
        <ele>663.4</ele>
        <time>2021-02-23T17:29:59Z</time>
      </trkpt>
      <trkpt lat="40.4236660" lon="-3.7599840">
        <ele>663.3</ele>
        <time>2021-02-23T17:30:00Z</time>
      </trkpt>
      <trkpt lat="40.4236840" lon="-3.7600340">
        <ele>663.2</ele>
        <time>2021-02-23T17:30:01Z</time>
      </trkpt>
      <trkpt lat="40.4236890" lon="-3.7600510">
        <ele>663.2</ele>
        <time>2021-02-23T17:30:02Z</time>
      </trkpt>
      <trkpt lat="40.4237080" lon="-3.7601080">
        <ele>663.1</ele>
        <time>2021-02-23T17:30:03Z</time>
      </trkpt>
      <trkpt lat="40.4237150" lon="-3.7601310">
        <ele>663.0</ele>
        <time>2021-02-23T17:30:04Z</time>
      </trkpt>
      <trkpt lat="40.4237230" lon="-3.7601540">
        <ele>663.0</ele>
        <time>2021-02-23T17:30:05Z</time>
      </trkpt>
      <trkpt lat="40.4237390" lon="-3.7602050">
        <ele>662.9</ele>
        <time>2021-02-23T17:30:06Z</time>
      </trkpt>
      <trkpt lat="40.4237440" lon="-3.7602230">
        <ele>662.8</ele>
        <time>2021-02-23T17:30:07Z</time>
      </trkpt>
      <trkpt lat="40.4237620" lon="-3.7602810">
        <ele>662.7</ele>
        <time>2021-02-23T17:30:08Z</time>
      </trkpt>
      <trkpt lat="40.4237690" lon="-3.7603050">
        <ele>662.6</ele>
        <time>2021-02-23T17:30:09Z</time>
      </trkpt>
      <trkpt lat="40.4237760" lon="-3.7603280">
        <ele>662.6</ele>
        <time>2021-02-23T17:30:10Z</time>
      </trkpt>
      <trkpt lat="40.4237930" lon="-3.7603800">
        <ele>662.5</ele>
        <time>2021-02-23T17:30:11Z</time>
      </trkpt>
      <trkpt lat="40.4237980" lon="-3.7603980">
        <ele>662.4</ele>
        <time>2021-02-23T17:30:12Z</time>
      </trkpt>
      <trkpt lat="40.4238150" lon="-3.7604560">
        <ele>662.3</ele>
        <time>2021-02-23T17:30:13Z</time>
      </trkpt>
      <trkpt lat="40.4238230" lon="-3.7604800">
        <ele>662.3</ele>
        <time>2021-02-23T17:30:14Z</time>
      </trkpt>
      <trkpt lat="40.4238300" lon="-3.7605030">
        <ele>662.2</ele>
        <time>2021-02-23T17:30:15Z</time>
      </trkpt>
      <trkpt lat="40.4238470" lon="-3.7605600">
        <ele>662.1</ele>
        <time>2021-02-23T17:30:16Z</time>
      </trkpt>
      <trkpt lat="40.4238540" lon="-3.7605840">
        <ele>662.1</ele>
        <time>2021-02-23T17:30:17Z</time>
      </trkpt>
      <trkpt lat="40.4238610" lon="-3.7606070">
        <ele>662.0</ele>
        <time>2021-02-23T17:30:18Z</time>
      </trkpt>
      <trkpt lat="40.4238770" lon="-3.7606590">
        <ele>661.9</ele>
        <time>2021-02-23T17:30:19Z</time>
      </trkpt>
      <trkpt lat="40.4238820" lon="-3.7606760">
        <ele>661.9</ele>
        <time>2021-02-23T17:30:20Z</time>
      </trkpt>
      <trkpt lat="40.4239000" lon="-3.7607340">
        <ele>661.8</ele>
        <time>2021-02-23T17:30:21Z</time>
      </trkpt>
      <trkpt lat="40.4239070" lon="-3.7607580">
        <ele>661.7</ele>
        <time>2021-02-23T17:30:22Z</time>
      </trkpt>
      <trkpt lat="40.4239140" lon="-3.7607810">
        <ele>661.7</ele>
        <time>2021-02-23T17:30:23Z</time>
      </trkpt>
      <trkpt lat="40.4239290" lon="-3.7608330">
        <ele>661.6</ele>
        <time>2021-02-23T17:30:24Z</time>
      </trkpt>
      <trkpt lat="40.4239340" lon="-3.7608510">
        <ele>661.6</ele>
        <time>2021-02-23T17:30:25Z</time>
      </trkpt>
      <trkpt lat="40.4239520" lon="-3.7609090">
        <ele>661.5</ele>
        <time>2021-02-23T17:30:26Z</time>
      </trkpt>
      <trkpt lat="40.4239590" lon="-3.7609320">
        <ele>661.5</ele>
        <time>2021-02-23T17:30:27Z</time>
      </trkpt>
      <trkpt lat="40.4239660" lon="-3.7609550">
        <ele>661.5</ele>
        <time>2021-02-23T17:30:28Z</time>
      </trkpt>
      <trkpt lat="40.4239820" lon="-3.7610070">
        <ele>661.4</ele>
        <time>2021-02-23T17:30:29Z</time>
      </trkpt>
      <trkpt lat="40.4239870" lon="-3.7610240">
        <ele>661.4</ele>
        <time>2021-02-23T17:30:30Z</time>
      </trkpt>
      <trkpt lat="40.4240040" lon="-3.7610820">
        <ele>661.3</ele>
        <time>2021-02-23T17:30:31Z</time>
      </trkpt>
      <trkpt lat="40.4240120" lon="-3.7611050">
        <ele>661.3</ele>
        <time>2021-02-23T17:30:32Z</time>
      </trkpt>
      <trkpt lat="40.4240190" lon="-3.7611280">
        <ele>661.3</ele>
        <time>2021-02-23T17:30:33Z</time>
      </trkpt>
      <trkpt lat="40.4240370" lon="-3.7611850">
        <ele>661.2</ele>
        <time>2021-02-23T17:30:34Z</time>
      </trkpt>
      <trkpt lat="40.4240450" lon="-3.7612070">
        <ele>661.2</ele>
        <time>2021-02-23T17:30:35Z</time>
      </trkpt>
      <trkpt lat="40.4240520" lon="-3.7612300">
        <ele>661.1</ele>
        <time>2021-02-23T17:30:36Z</time>
      </trkpt>
      <trkpt lat="40.4240690" lon="-3.7612820">
        <ele>661.1</ele>
        <time>2021-02-23T17:30:37Z</time>
      </trkpt>
      <trkpt lat="40.4240740" lon="-3.7612990">
        <ele>661.0</ele>
        <time>2021-02-23T17:30:38Z</time>
      </trkpt>
      <trkpt lat="40.4240930" lon="-3.7613560">
        <ele>661.0</ele>
        <time>2021-02-23T17:30:39Z</time>
      </trkpt>
      <trkpt lat="40.4241000" lon="-3.7613790">
        <ele>660.9</ele>
        <time>2021-02-23T17:30:40Z</time>
      </trkpt>
      <trkpt lat="40.4241080" lon="-3.7614020">
        <ele>660.9</ele>
        <time>2021-02-23T17:30:41Z</time>
      </trkpt>
      <trkpt lat="40.4241250" lon="-3.7614530">
        <ele>660.8</ele>
        <time>2021-02-23T17:30:42Z</time>
      </trkpt>
      <trkpt lat="40.4241300" lon="-3.7614700">
        <ele>660.8</ele>
        <time>2021-02-23T17:30:43Z</time>
      </trkpt>
      <trkpt lat="40.4241480" lon="-3.7615280">
        <ele>660.7</ele>
        <time>2021-02-23T17:30:44Z</time>
      </trkpt>
      <trkpt lat="40.4241550" lon="-3.7615510">
        <ele>660.7</ele>
        <time>2021-02-23T17:30:45Z</time>
      </trkpt>
      <trkpt lat="40.4241620" lon="-3.7615740">
        <ele>660.6</ele>
        <time>2021-02-23T17:30:46Z</time>
      </trkpt>
      <trkpt lat="40.4241800" lon="-3.7616320">
        <ele>660.6</ele>
        <time>2021-02-23T17:30:47Z</time>
      </trkpt>
      <trkpt lat="40.4241870" lon="-3.7616550">
        <ele>660.5</ele>
        <time>2021-02-23T17:30:48Z</time>
      </trkpt>
      <trkpt lat="40.4241940" lon="-3.7616780">
        <ele>660.5</ele>
        <time>2021-02-23T17:30:49Z</time>
      </trkpt>
      <trkpt lat="40.4242090" lon="-3.7617300">
        <ele>660.5</ele>
        <time>2021-02-23T17:30:50Z</time>
      </trkpt>
      <trkpt lat="40.4242130" lon="-3.7617480">
        <ele>660.5</ele>
        <time>2021-02-23T17:30:51Z</time>
      </trkpt>
      <trkpt lat="40.4242290" lon="-3.7618060">
        <ele>660.4</ele>
        <time>2021-02-23T17:30:52Z</time>
      </trkpt>
      <trkpt lat="40.4242360" lon="-3.7618300">
        <ele>660.4</ele>
        <time>2021-02-23T17:30:53Z</time>
      </trkpt>
      <trkpt lat="40.4242420" lon="-3.7618530">
        <ele>660.4</ele>
        <time>2021-02-23T17:30:54Z</time>
      </trkpt>
      <trkpt lat="40.4242560" lon="-3.7619060">
        <ele>660.4</ele>
        <time>2021-02-23T17:30:55Z</time>
      </trkpt>
      <trkpt lat="40.4242600" lon="-3.7619240">
        <ele>660.4</ele>
        <time>2021-02-23T17:30:56Z</time>
      </trkpt>
      <trkpt lat="40.4242750" lon="-3.7619810">
        <ele>660.4</ele>
        <time>2021-02-23T17:30:57Z</time>
      </trkpt>
      <trkpt lat="40.4242820" lon="-3.7620050">
        <ele>660.4</ele>
        <time>2021-02-23T17:30:58Z</time>
      </trkpt>
      <trkpt lat="40.4242880" lon="-3.7620280">
        <ele>660.4</ele>
        <time>2021-02-23T17:30:59Z</time>
      </trkpt>
      <trkpt lat="40.4243030" lon="-3.7620790">
        <ele>660.4</ele>
        <time>2021-02-23T17:31:00Z</time>
      </trkpt>
      <trkpt lat="40.4243070" lon="-3.7620970">
        <ele>660.4</ele>
        <time>2021-02-23T17:31:01Z</time>
      </trkpt>
      <trkpt lat="40.4243240" lon="-3.7621530">
        <ele>660.4</ele>
        <time>2021-02-23T17:31:02Z</time>
      </trkpt>
      <trkpt lat="40.4243310" lon="-3.7621760">
        <ele>660.4</ele>
        <time>2021-02-23T17:31:03Z</time>
      </trkpt>
      <trkpt lat="40.4243380" lon="-3.7621980">
        <ele>660.4</ele>
        <time>2021-02-23T17:31:04Z</time>
      </trkpt>
      <trkpt lat="40.4243560" lon="-3.7622540">
        <ele>660.4</ele>
        <time>2021-02-23T17:31:05Z</time>
      </trkpt>
      <trkpt lat="40.4243640" lon="-3.7622760">
        <ele>660.4</ele>
        <time>2021-02-23T17:31:06Z</time>
      </trkpt>
      <trkpt lat="40.4243710" lon="-3.7622980">
        <ele>660.4</ele>
        <time>2021-02-23T17:31:07Z</time>
      </trkpt>
      <trkpt lat="40.4243890" lon="-3.7623470">
        <ele>660.4</ele>
        <time>2021-02-23T17:31:08Z</time>
      </trkpt>
      <trkpt lat="40.4243940" lon="-3.7623630">
        <ele>660.4</ele>
        <time>2021-02-23T17:31:09Z</time>
      </trkpt>
      <trkpt lat="40.4244140" lon="-3.7624170">
        <ele>660.5</ele>
        <time>2021-02-23T17:31:10Z</time>
      </trkpt>
      <trkpt lat="40.4244210" lon="-3.7624390">
        <ele>660.5</ele>
        <time>2021-02-23T17:31:11Z</time>
      </trkpt>
      <trkpt lat="40.4244290" lon="-3.7624600">
        <ele>660.5</ele>
        <time>2021-02-23T17:31:12Z</time>
      </trkpt>
      <trkpt lat="40.4244470" lon="-3.7625080">
        <ele>660.5</ele>
        <time>2021-02-23T17:31:13Z</time>
      </trkpt>
      <trkpt lat="40.4244530" lon="-3.7625240">
        <ele>660.5</ele>
        <time>2021-02-23T17:31:14Z</time>
      </trkpt>
      <trkpt lat="40.4244730" lon="-3.7625770">
        <ele>660.5</ele>
        <time>2021-02-23T17:31:15Z</time>
      </trkpt>
      <trkpt lat="40.4244810" lon="-3.7625990">
        <ele>660.5</ele>
        <time>2021-02-23T17:31:16Z</time>
      </trkpt>
      <trkpt lat="40.4244890" lon="-3.7626200">
        <ele>660.6</ele>
        <time>2021-02-23T17:31:17Z</time>
      </trkpt>
      <trkpt lat="40.4245070" lon="-3.7626680">
        <ele>660.6</ele>
        <time>2021-02-23T17:31:18Z</time>
      </trkpt>
      <trkpt lat="40.4245130" lon="-3.7626840">
        <ele>660.6</ele>
        <time>2021-02-23T17:31:19Z</time>
      </trkpt>
      <trkpt lat="40.4245330" lon="-3.7627360">
        <ele>660.7</ele>
        <time>2021-02-23T17:31:20Z</time>
      </trkpt>
      <trkpt lat="40.4245420" lon="-3.7627570">
        <ele>660.7</ele>
        <time>2021-02-23T17:31:21Z</time>
      </trkpt>
      <trkpt lat="40.4245500" lon="-3.7627780">
        <ele>660.7</ele>
        <time>2021-02-23T17:31:22Z</time>
      </trkpt>
      <trkpt lat="40.4245700" lon="-3.7628310">
        <ele>660.7</ele>
        <time>2021-02-23T17:31:23Z</time>
      </trkpt>
      <trkpt lat="40.4245770" lon="-3.7628520">
        <ele>660.8</ele>
        <time>2021-02-23T17:31:24Z</time>
      </trkpt>
      <trkpt lat="40.4245850" lon="-3.7628730">
        <ele>660.8</ele>
        <time>2021-02-23T17:31:25Z</time>
      </trkpt>
      <trkpt lat="40.4246030" lon="-3.7629190">
        <ele>660.8</ele>
        <time>2021-02-23T17:31:26Z</time>
      </trkpt>
      <trkpt lat="40.4246080" lon="-3.7629350">
        <ele>660.8</ele>
        <time>2021-02-23T17:31:27Z</time>
      </trkpt>
      <trkpt lat="40.4246270" lon="-3.7629880">
        <ele>660.9</ele>
        <time>2021-02-23T17:31:28Z</time>
      </trkpt>
      <trkpt lat="40.4246340" lon="-3.7630100">
        <ele>660.9</ele>
        <time>2021-02-23T17:31:29Z</time>
      </trkpt>
      <trkpt lat="40.4246410" lon="-3.7630310">
        <ele>660.9</ele>
        <time>2021-02-23T17:31:30Z</time>
      </trkpt>
      <trkpt lat="40.4246570" lon="-3.7630790">
        <ele>661.0</ele>
        <time>2021-02-23T17:31:31Z</time>
      </trkpt>
      <trkpt lat="40.4246620" lon="-3.7630950">
        <ele>661.0</ele>
        <time>2021-02-23T17:31:32Z</time>
      </trkpt>
      <trkpt lat="40.4246790" lon="-3.7631500">
        <ele>661.1</ele>
        <time>2021-02-23T17:31:33Z</time>
      </trkpt>
      <trkpt lat="40.4246860" lon="-3.7631720">
        <ele>661.1</ele>
        <time>2021-02-23T17:31:34Z</time>
      </trkpt>
      <trkpt lat="40.4246920" lon="-3.7631940">
        <ele>661.1</ele>
        <time>2021-02-23T17:31:35Z</time>
      </trkpt>
      <trkpt lat="40.4247070" lon="-3.7632440">
        <ele>661.2</ele>
        <time>2021-02-23T17:31:36Z</time>
      </trkpt>
      <trkpt lat="40.4247110" lon="-3.7632610">
        <ele>661.2</ele>
        <time>2021-02-23T17:31:37Z</time>
      </trkpt>
      <trkpt lat="40.4247260" lon="-3.7633180">
        <ele>661.3</ele>
        <time>2021-02-23T17:31:38Z</time>
      </trkpt>
      <trkpt lat="40.4247320" lon="-3.7633410">
        <ele>661.3</ele>
        <time>2021-02-23T17:31:39Z</time>
      </trkpt>
      <trkpt lat="40.4247380" lon="-3.7633640">
        <ele>661.3</ele>
        <time>2021-02-23T17:31:40Z</time>
      </trkpt>
      <trkpt lat="40.4247510" lon="-3.7634220">
        <ele>661.4</ele>
        <time>2021-02-23T17:31:41Z</time>
      </trkpt>
      <trkpt lat="40.4247570" lon="-3.7634460">
        <ele>661.5</ele>
        <time>2021-02-23T17:31:42Z</time>
      </trkpt>
      <trkpt lat="40.4247620" lon="-3.7634690">
        <ele>661.5</ele>
        <time>2021-02-23T17:31:43Z</time>
      </trkpt>
      <trkpt lat="40.4247730" lon="-3.7635220">
        <ele>661.6</ele>
        <time>2021-02-23T17:31:44Z</time>
      </trkpt>
      <trkpt lat="40.4247770" lon="-3.7635400">
        <ele>661.6</ele>
        <time>2021-02-23T17:31:45Z</time>
      </trkpt>
      <trkpt lat="40.4247890" lon="-3.7635990">
        <ele>661.7</ele>
        <time>2021-02-23T17:31:46Z</time>
      </trkpt>
      <trkpt lat="40.4247930" lon="-3.7636230">
        <ele>661.8</ele>
        <time>2021-02-23T17:31:47Z</time>
      </trkpt>
      <trkpt lat="40.4247980" lon="-3.7636460">
        <ele>661.8</ele>
        <time>2021-02-23T17:31:48Z</time>
      </trkpt>
      <trkpt lat="40.4248080" lon="-3.7636980">
        <ele>661.9</ele>
        <time>2021-02-23T17:31:49Z</time>
      </trkpt>
      <trkpt lat="40.4248110" lon="-3.7637160">
        <ele>662.0</ele>
        <time>2021-02-23T17:31:50Z</time>
      </trkpt>
      <trkpt lat="40.4248210" lon="-3.7637740">
        <ele>662.1</ele>
        <time>2021-02-23T17:31:51Z</time>
      </trkpt>
      <trkpt lat="40.4248260" lon="-3.7637970">
        <ele>662.1</ele>
        <time>2021-02-23T17:31:52Z</time>
      </trkpt>
      <trkpt lat="40.4248300" lon="-3.7638200">
        <ele>662.1</ele>
        <time>2021-02-23T17:31:53Z</time>
      </trkpt>
      <trkpt lat="40.4248390" lon="-3.7638710">
        <ele>662.2</ele>
        <time>2021-02-23T17:31:54Z</time>
      </trkpt>
      <trkpt lat="40.4248420" lon="-3.7638880">
        <ele>662.3</ele>
        <time>2021-02-23T17:31:55Z</time>
      </trkpt>
      <trkpt lat="40.4248500" lon="-3.7639440">
        <ele>662.4</ele>
        <time>2021-02-23T17:31:56Z</time>
      </trkpt>
      <trkpt lat="40.4248540" lon="-3.7639660">
        <ele>662.4</ele>
        <time>2021-02-23T17:31:57Z</time>
      </trkpt>
      <trkpt lat="40.4248570" lon="-3.7639880">
        <ele>662.4</ele>
        <time>2021-02-23T17:31:58Z</time>
      </trkpt>
      <trkpt lat="40.4248650" lon="-3.7640430">
        <ele>662.5</ele>
        <time>2021-02-23T17:31:59Z</time>
      </trkpt>
      <trkpt lat="40.4248680" lon="-3.7640640">
        <ele>662.5</ele>
        <time>2021-02-23T17:32:00Z</time>
      </trkpt>
      <trkpt lat="40.4248710" lon="-3.7640860">
        <ele>662.6</ele>
        <time>2021-02-23T17:32:01Z</time>
      </trkpt>
      <trkpt lat="40.4248770" lon="-3.7641350">
        <ele>662.6</ele>
        <time>2021-02-23T17:32:02Z</time>
      </trkpt>
      <trkpt lat="40.4248780" lon="-3.7641510">
        <ele>662.6</ele>
        <time>2021-02-23T17:32:03Z</time>
      </trkpt>
      <trkpt lat="40.4248840" lon="-3.7642060">
        <ele>662.7</ele>
        <time>2021-02-23T17:32:04Z</time>
      </trkpt>
      <trkpt lat="40.4248860" lon="-3.7642280">
        <ele>662.7</ele>
        <time>2021-02-23T17:32:05Z</time>
      </trkpt>
      <trkpt lat="40.4248880" lon="-3.7642500">
        <ele>662.7</ele>
        <time>2021-02-23T17:32:06Z</time>
      </trkpt>
      <trkpt lat="40.4248920" lon="-3.7642990">
        <ele>662.8</ele>
        <time>2021-02-23T17:32:07Z</time>
      </trkpt>
      <trkpt lat="40.4248930" lon="-3.7643160">
        <ele>662.8</ele>
        <time>2021-02-23T17:32:08Z</time>
      </trkpt>
      <trkpt lat="40.4248970" lon="-3.7643730">
        <ele>662.8</ele>
        <time>2021-02-23T17:32:09Z</time>
      </trkpt>
      <trkpt lat="40.4248990" lon="-3.7643960">
        <ele>662.8</ele>
        <time>2021-02-23T17:32:10Z</time>
      </trkpt>
      <trkpt lat="40.4249000" lon="-3.7644190">
        <ele>662.9</ele>
        <time>2021-02-23T17:32:11Z</time>
      </trkpt>
      <trkpt lat="40.4249040" lon="-3.7644710">
        <ele>662.9</ele>
        <time>2021-02-23T17:32:12Z</time>
      </trkpt>
      <trkpt lat="40.4249050" lon="-3.7644890">
        <ele>662.9</ele>
        <time>2021-02-23T17:32:13Z</time>
      </trkpt>
      <trkpt lat="40.4249080" lon="-3.7645480">
        <ele>662.9</ele>
        <time>2021-02-23T17:32:14Z</time>
      </trkpt>
      <trkpt lat="40.4249100" lon="-3.7645710">
        <ele>662.9</ele>
        <time>2021-02-23T17:32:15Z</time>
      </trkpt>
      <trkpt lat="40.4249110" lon="-3.7645950">
        <ele>663.0</ele>
        <time>2021-02-23T17:32:16Z</time>
      </trkpt>
      <trkpt lat="40.4249150" lon="-3.7646550">
        <ele>663.0</ele>
        <time>2021-02-23T17:32:17Z</time>
      </trkpt>
      <trkpt lat="40.4249160" lon="-3.7646800">
        <ele>663.0</ele>
        <time>2021-02-23T17:32:18Z</time>
      </trkpt>
      <trkpt lat="40.4249180" lon="-3.7647040">
        <ele>663.0</ele>
        <time>2021-02-23T17:32:19Z</time>
      </trkpt>
      <trkpt lat="40.4249220" lon="-3.7647580">
        <ele>663.0</ele>
        <time>2021-02-23T17:32:20Z</time>
      </trkpt>
      <trkpt lat="40.4249230" lon="-3.7647770">
        <ele>663.0</ele>
        <time>2021-02-23T17:32:21Z</time>
      </trkpt>
      <trkpt lat="40.4249270" lon="-3.7648390">
        <ele>663.0</ele>
        <time>2021-02-23T17:32:22Z</time>
      </trkpt>
      <trkpt lat="40.4249280" lon="-3.7648630">
        <ele>663.0</ele>
        <time>2021-02-23T17:32:23Z</time>
      </trkpt>
      <trkpt lat="40.4249300" lon="-3.7648880">
        <ele>663.0</ele>
        <time>2021-02-23T17:32:24Z</time>
      </trkpt>
      <trkpt lat="40.4249350" lon="-3.7649430">
        <ele>663.0</ele>
        <time>2021-02-23T17:32:25Z</time>
      </trkpt>
      <trkpt lat="40.4249360" lon="-3.7649620">
        <ele>663.0</ele>
        <time>2021-02-23T17:32:26Z</time>
      </trkpt>
      <trkpt lat="40.4249410" lon="-3.7650240">
        <ele>663.1</ele>
        <time>2021-02-23T17:32:27Z</time>
      </trkpt>
      <trkpt lat="40.4249430" lon="-3.7650490">
        <ele>663.1</ele>
        <time>2021-02-23T17:32:28Z</time>
      </trkpt>
      <trkpt lat="40.4249450" lon="-3.7650740">
        <ele>663.1</ele>
        <time>2021-02-23T17:32:29Z</time>
      </trkpt>
      <trkpt lat="40.4249500" lon="-3.7651300">
        <ele>663.1</ele>
        <time>2021-02-23T17:32:30Z</time>
      </trkpt>
      <trkpt lat="40.4249520" lon="-3.7651490">
        <ele>663.1</ele>
        <time>2021-02-23T17:32:31Z</time>
      </trkpt>
      <trkpt lat="40.4249570" lon="-3.7652110">
        <ele>663.1</ele>
        <time>2021-02-23T17:32:32Z</time>
      </trkpt>
      <trkpt lat="40.4249600" lon="-3.7652350">
        <ele>663.1</ele>
        <time>2021-02-23T17:32:33Z</time>
      </trkpt>
      <trkpt lat="40.4249620" lon="-3.7652600">
        <ele>663.1</ele>
        <time>2021-02-23T17:32:34Z</time>
      </trkpt>
      <trkpt lat="40.4249680" lon="-3.7653200">
        <ele>663.1</ele>
        <time>2021-02-23T17:32:35Z</time>
      </trkpt>
      <trkpt lat="40.4249700" lon="-3.7653450">
        <ele>663.1</ele>
        <time>2021-02-23T17:32:36Z</time>
      </trkpt>
      <trkpt lat="40.4249730" lon="-3.7653690">
        <ele>663.1</ele>
        <time>2021-02-23T17:32:37Z</time>
      </trkpt>
      <trkpt lat="40.4249800" lon="-3.7654230">
        <ele>663.1</ele>
        <time>2021-02-23T17:32:38Z</time>
      </trkpt>
      <trkpt lat="40.4249820" lon="-3.7654410">
        <ele>663.1</ele>
        <time>2021-02-23T17:32:39Z</time>
      </trkpt>
      <trkpt lat="40.4249890" lon="-3.7655010">
        <ele>663.1</ele>
        <time>2021-02-23T17:32:40Z</time>
      </trkpt>
      <trkpt lat="40.4249930" lon="-3.7655240">
        <ele>663.1</ele>
        <time>2021-02-23T17:32:41Z</time>
      </trkpt>
      <trkpt lat="40.4249960" lon="-3.7655480">
        <ele>663.1</ele>
        <time>2021-02-23T17:32:42Z</time>
      </trkpt>
      <trkpt lat="40.4250050" lon="-3.7656000">
        <ele>663.1</ele>
        <time>2021-02-23T17:32:43Z</time>
      </trkpt>
      <trkpt lat="40.4250080" lon="-3.7656180">
        <ele>663.1</ele>
        <time>2021-02-23T17:32:44Z</time>
      </trkpt>
      <trkpt lat="40.4250180" lon="-3.7656750">
        <ele>663.2</ele>
        <time>2021-02-23T17:32:45Z</time>
      </trkpt>
      <trkpt lat="40.4250230" lon="-3.7656980">
        <ele>663.2</ele>
        <time>2021-02-23T17:32:46Z</time>
      </trkpt>
      <trkpt lat="40.4250270" lon="-3.7657210">
        <ele>663.2</ele>
        <time>2021-02-23T17:32:47Z</time>
      </trkpt>
      <trkpt lat="40.4250380" lon="-3.7657710">
        <ele>663.2</ele>
        <time>2021-02-23T17:32:48Z</time>
      </trkpt>
      <trkpt lat="40.4250410" lon="-3.7657880">
        <ele>663.2</ele>
        <time>2021-02-23T17:32:49Z</time>
      </trkpt>
      <trkpt lat="40.4250530" lon="-3.7658440">
        <ele>663.2</ele>
        <time>2021-02-23T17:32:50Z</time>
      </trkpt>
      <trkpt lat="40.4250580" lon="-3.7658660">
        <ele>663.2</ele>
        <time>2021-02-23T17:32:51Z</time>
      </trkpt>
      <trkpt lat="40.4250630" lon="-3.7658880">
        <ele>663.2</ele>
        <time>2021-02-23T17:32:52Z</time>
      </trkpt>
      <trkpt lat="40.4250760" lon="-3.7659420">
        <ele>663.2</ele>
        <time>2021-02-23T17:32:53Z</time>
      </trkpt>
      <trkpt lat="40.4250810" lon="-3.7659630">
        <ele>663.2</ele>
        <time>2021-02-23T17:32:54Z</time>
      </trkpt>
      <trkpt lat="40.4250860" lon="-3.7659850">
        <ele>663.2</ele>
        <time>2021-02-23T17:32:55Z</time>
      </trkpt>
      <trkpt lat="40.4250980" lon="-3.7660330">
        <ele>663.2</ele>
        <time>2021-02-23T17:32:56Z</time>
      </trkpt>
      <trkpt lat="40.4251010" lon="-3.7660500">
        <ele>663.2</ele>
        <time>2021-02-23T17:32:57Z</time>
      </trkpt>
      <trkpt lat="40.4251140" lon="-3.7661040">
        <ele>663.2</ele>
        <time>2021-02-23T17:32:58Z</time>
      </trkpt>
      <trkpt lat="40.4251190" lon="-3.7661250">
        <ele>663.2</ele>
        <time>2021-02-23T17:32:59Z</time>
      </trkpt>
      <trkpt lat="40.4251240" lon="-3.7661470">
        <ele>663.2</ele>
        <time>2021-02-23T17:33:00Z</time>
      </trkpt>
      <trkpt lat="40.4251360" lon="-3.7661950">
        <ele>663.3</ele>
        <time>2021-02-23T17:33:01Z</time>
      </trkpt>
      <trkpt lat="40.4251400" lon="-3.7662120">
        <ele>663.3</ele>
        <time>2021-02-23T17:33:02Z</time>
      </trkpt>
      <trkpt lat="40.4251530" lon="-3.7662660">
        <ele>663.3</ele>
        <time>2021-02-23T17:33:03Z</time>
      </trkpt>
      <trkpt lat="40.4251580" lon="-3.7662890">
        <ele>663.2</ele>
        <time>2021-02-23T17:33:04Z</time>
      </trkpt>
      <trkpt lat="40.4251630" lon="-3.7663110">
        <ele>663.2</ele>
        <time>2021-02-23T17:33:05Z</time>
      </trkpt>
      <trkpt lat="40.4251750" lon="-3.7663610">
        <ele>663.2</ele>
        <time>2021-02-23T17:33:06Z</time>
      </trkpt>
      <trkpt lat="40.4251790" lon="-3.7663780">
        <ele>663.2</ele>
        <time>2021-02-23T17:33:07Z</time>
      </trkpt>
      <trkpt lat="40.4251920" lon="-3.7664350">
        <ele>663.2</ele>
        <time>2021-02-23T17:33:08Z</time>
      </trkpt>
      <trkpt lat="40.4251980" lon="-3.7664570">
        <ele>663.2</ele>
        <time>2021-02-23T17:33:09Z</time>
      </trkpt>
      <trkpt lat="40.4252030" lon="-3.7664800">
        <ele>663.2</ele>
        <time>2021-02-23T17:33:10Z</time>
      </trkpt>
      <trkpt lat="40.4252160" lon="-3.7665380">
        <ele>663.2</ele>
        <time>2021-02-23T17:33:11Z</time>
      </trkpt>
      <trkpt lat="40.4252210" lon="-3.7665620">
        <ele>663.2</ele>
        <time>2021-02-23T17:33:12Z</time>
      </trkpt>
      <trkpt lat="40.4252260" lon="-3.7665850">
        <ele>663.2</ele>
        <time>2021-02-23T17:33:13Z</time>
      </trkpt>
      <trkpt lat="40.4252370" lon="-3.7666370">
        <ele>663.2</ele>
        <time>2021-02-23T17:33:14Z</time>
      </trkpt>
      <trkpt lat="40.4252410" lon="-3.7666550">
        <ele>663.2</ele>
        <time>2021-02-23T17:33:15Z</time>
      </trkpt>
      <trkpt lat="40.4252520" lon="-3.7667140">
        <ele>663.2</ele>
        <time>2021-02-23T17:33:16Z</time>
      </trkpt>
      <trkpt lat="40.4252570" lon="-3.7667370">
        <ele>663.2</ele>
        <time>2021-02-23T17:33:17Z</time>
      </trkpt>
      <trkpt lat="40.4252610" lon="-3.7667610">
        <ele>663.2</ele>
        <time>2021-02-23T17:33:18Z</time>
      </trkpt>
      <trkpt lat="40.4252710" lon="-3.7668140">
        <ele>663.2</ele>
        <time>2021-02-23T17:33:19Z</time>
      </trkpt>
      <trkpt lat="40.4252740" lon="-3.7668320">
        <ele>663.2</ele>
        <time>2021-02-23T17:33:20Z</time>
      </trkpt>
      <trkpt lat="40.4252840" lon="-3.7668920">
        <ele>663.2</ele>
        <time>2021-02-23T17:33:21Z</time>
      </trkpt>
      <trkpt lat="40.4252880" lon="-3.7669150">
        <ele>663.2</ele>
        <time>2021-02-23T17:33:22Z</time>
      </trkpt>
      <trkpt lat="40.4252920" lon="-3.7669390">
        <ele>663.2</ele>
        <time>2021-02-23T17:33:23Z</time>
      </trkpt>
      <trkpt lat="40.4253010" lon="-3.7669920">
        <ele>663.2</ele>
        <time>2021-02-23T17:33:24Z</time>
      </trkpt>
      <trkpt lat="40.4253030" lon="-3.7670100">
        <ele>663.2</ele>
        <time>2021-02-23T17:33:25Z</time>
      </trkpt>
      <trkpt lat="40.4253130" lon="-3.7670690">
        <ele>663.2</ele>
        <time>2021-02-23T17:33:26Z</time>
      </trkpt>
      <trkpt lat="40.4253160" lon="-3.7670930">
        <ele>663.2</ele>
        <time>2021-02-23T17:33:27Z</time>
      </trkpt>
      <trkpt lat="40.4253200" lon="-3.7671160">
        <ele>663.2</ele>
        <time>2021-02-23T17:33:28Z</time>
      </trkpt>
      <trkpt lat="40.4253290" lon="-3.7671740">
        <ele>663.2</ele>
        <time>2021-02-23T17:33:29Z</time>
      </trkpt>
      <trkpt lat="40.4253330" lon="-3.7671980">
        <ele>663.2</ele>
        <time>2021-02-23T17:33:30Z</time>
      </trkpt>
      <trkpt lat="40.4253370" lon="-3.7672210">
        <ele>663.2</ele>
        <time>2021-02-23T17:33:31Z</time>
      </trkpt>
      <trkpt lat="40.4253450" lon="-3.7672730">
        <ele>663.3</ele>
        <time>2021-02-23T17:33:32Z</time>
      </trkpt>
      <trkpt lat="40.4253480" lon="-3.7672910">
        <ele>663.3</ele>
        <time>2021-02-23T17:33:33Z</time>
      </trkpt>
      <trkpt lat="40.4253590" lon="-3.7673490">
        <ele>663.3</ele>
        <time>2021-02-23T17:33:34Z</time>
      </trkpt>
      <trkpt lat="40.4253640" lon="-3.7673720">
        <ele>663.3</ele>
        <time>2021-02-23T17:33:35Z</time>
      </trkpt>
      <trkpt lat="40.4253680" lon="-3.7673950">
        <ele>663.3</ele>
        <time>2021-02-23T17:33:36Z</time>
      </trkpt>
      <trkpt lat="40.4253780" lon="-3.7674470">
        <ele>663.4</ele>
        <time>2021-02-23T17:33:37Z</time>
      </trkpt>
      <trkpt lat="40.4253810" lon="-3.7674640">
        <ele>663.4</ele>
        <time>2021-02-23T17:33:38Z</time>
      </trkpt>
      <trkpt lat="40.4253940" lon="-3.7675220">
        <ele>663.4</ele>
        <time>2021-02-23T17:33:39Z</time>
      </trkpt>
      <trkpt lat="40.4253980" lon="-3.7675440">
        <ele>663.4</ele>
        <time>2021-02-23T17:33:40Z</time>
      </trkpt>
      <trkpt lat="40.4254030" lon="-3.7675670">
        <ele>663.5</ele>
        <time>2021-02-23T17:33:41Z</time>
      </trkpt>
      <trkpt lat="40.4254140" lon="-3.7676190">
        <ele>663.5</ele>
        <time>2021-02-23T17:33:42Z</time>
      </trkpt>
      <trkpt lat="40.4254180" lon="-3.7676360">
        <ele>663.5</ele>
        <time>2021-02-23T17:33:43Z</time>
      </trkpt>
      <trkpt lat="40.4254300" lon="-3.7676930">
        <ele>663.6</ele>
        <time>2021-02-23T17:33:44Z</time>
      </trkpt>
      <trkpt lat="40.4254350" lon="-3.7677160">
        <ele>663.6</ele>
        <time>2021-02-23T17:33:45Z</time>
      </trkpt>
      <trkpt lat="40.4254400" lon="-3.7677390">
        <ele>663.6</ele>
        <time>2021-02-23T17:33:46Z</time>
      </trkpt>
      <trkpt lat="40.4254520" lon="-3.7677960">
        <ele>663.6</ele>
        <time>2021-02-23T17:33:47Z</time>
      </trkpt>
      <trkpt lat="40.4254560" lon="-3.7678180">
        <ele>663.7</ele>
        <time>2021-02-23T17:33:48Z</time>
      </trkpt>
      <trkpt lat="40.4254610" lon="-3.7678410">
        <ele>663.7</ele>
        <time>2021-02-23T17:33:49Z</time>
      </trkpt>
      <trkpt lat="40.4254720" lon="-3.7678930">
        <ele>663.7</ele>
        <time>2021-02-23T17:33:50Z</time>
      </trkpt>
      <trkpt lat="40.4254750" lon="-3.7679100">
        <ele>663.7</ele>
        <time>2021-02-23T17:33:51Z</time>
      </trkpt>
      <trkpt lat="40.4254860" lon="-3.7679680">
        <ele>663.8</ele>
        <time>2021-02-23T17:33:52Z</time>
      </trkpt>
      <trkpt lat="40.4254910" lon="-3.7679910">
        <ele>663.8</ele>
        <time>2021-02-23T17:33:53Z</time>
      </trkpt>
      <trkpt lat="40.4254950" lon="-3.7680140">
        <ele>663.8</ele>
        <time>2021-02-23T17:33:54Z</time>
      </trkpt>
      <trkpt lat="40.4255060" lon="-3.7680660">
        <ele>663.9</ele>
        <time>2021-02-23T17:33:55Z</time>
      </trkpt>
      <trkpt lat="40.4255090" lon="-3.7680840">
        <ele>663.9</ele>
        <time>2021-02-23T17:33:56Z</time>
      </trkpt>
      <trkpt lat="40.4255210" lon="-3.7681430">
        <ele>664.0</ele>
        <time>2021-02-23T17:33:57Z</time>
      </trkpt>
      <trkpt lat="40.4255250" lon="-3.7681660">
        <ele>664.0</ele>
        <time>2021-02-23T17:33:58Z</time>
      </trkpt>
      <trkpt lat="40.4255300" lon="-3.7681900">
        <ele>664.0</ele>
        <time>2021-02-23T17:33:59Z</time>
      </trkpt>
      <trkpt lat="40.4255410" lon="-3.7682430">
        <ele>664.1</ele>
        <time>2021-02-23T17:34:00Z</time>
      </trkpt>
      <trkpt lat="40.4255440" lon="-3.7682610">
        <ele>664.1</ele>
        <time>2021-02-23T17:34:01Z</time>
      </trkpt>
      <trkpt lat="40.4255560" lon="-3.7683200">
        <ele>664.1</ele>
        <time>2021-02-23T17:34:02Z</time>
      </trkpt>
      <trkpt lat="40.4255620" lon="-3.7683430">
        <ele>664.2</ele>
        <time>2021-02-23T17:34:03Z</time>
      </trkpt>
      <trkpt lat="40.4255670" lon="-3.7683670">
        <ele>664.2</ele>
        <time>2021-02-23T17:34:04Z</time>
      </trkpt>
      <trkpt lat="40.4255820" lon="-3.7684260">
        <ele>664.2</ele>
        <time>2021-02-23T17:34:05Z</time>
      </trkpt>
      <trkpt lat="40.4255880" lon="-3.7684500">
        <ele>664.2</ele>
        <time>2021-02-23T17:34:06Z</time>
      </trkpt>
      <trkpt lat="40.4255940" lon="-3.7684730">
        <ele>664.2</ele>
        <time>2021-02-23T17:34:07Z</time>
      </trkpt>
      <trkpt lat="40.4256090" lon="-3.7685250">
        <ele>664.3</ele>
        <time>2021-02-23T17:34:08Z</time>
      </trkpt>
      <trkpt lat="40.4256140" lon="-3.7685430">
        <ele>664.3</ele>
        <time>2021-02-23T17:34:09Z</time>
      </trkpt>
      <trkpt lat="40.4256310" lon="-3.7686010">
        <ele>664.3</ele>
        <time>2021-02-23T17:34:10Z</time>
      </trkpt>
      <trkpt lat="40.4256390" lon="-3.7686240">
        <ele>664.3</ele>
        <time>2021-02-23T17:34:11Z</time>
      </trkpt>
      <trkpt lat="40.4256460" lon="-3.7686470">
        <ele>664.3</ele>
        <time>2021-02-23T17:34:12Z</time>
      </trkpt>
      <trkpt lat="40.4256630" lon="-3.7686990">
        <ele>664.4</ele>
        <time>2021-02-23T17:34:13Z</time>
      </trkpt>
      <trkpt lat="40.4256680" lon="-3.7687160">
        <ele>664.4</ele>
        <time>2021-02-23T17:34:14Z</time>
      </trkpt>
      <trkpt lat="40.4256860" lon="-3.7687740">
        <ele>664.4</ele>
        <time>2021-02-23T17:34:15Z</time>
      </trkpt>
      <trkpt lat="40.4256940" lon="-3.7687970">
        <ele>664.4</ele>
        <time>2021-02-23T17:34:16Z</time>
      </trkpt>
      <trkpt lat="40.4257010" lon="-3.7688200">
        <ele>664.3</ele>
        <time>2021-02-23T17:34:17Z</time>
      </trkpt>
      <trkpt lat="40.4257180" lon="-3.7688710">
        <ele>664.3</ele>
        <time>2021-02-23T17:34:18Z</time>
      </trkpt>
      <trkpt lat="40.4257230" lon="-3.7688890">
        <ele>664.3</ele>
        <time>2021-02-23T17:34:19Z</time>
      </trkpt>
      <trkpt lat="40.4257410" lon="-3.7689460">
        <ele>664.2</ele>
        <time>2021-02-23T17:34:20Z</time>
      </trkpt>
      <trkpt lat="40.4257480" lon="-3.7689690">
        <ele>664.2</ele>
        <time>2021-02-23T17:34:21Z</time>
      </trkpt>
      <trkpt lat="40.4257550" lon="-3.7689920">
        <ele>664.2</ele>
        <time>2021-02-23T17:34:22Z</time>
      </trkpt>
      <trkpt lat="40.4257720" lon="-3.7690490">
        <ele>664.1</ele>
        <time>2021-02-23T17:34:23Z</time>
      </trkpt>
      <trkpt lat="40.4257790" lon="-3.7690710">
        <ele>664.1</ele>
        <time>2021-02-23T17:34:24Z</time>
      </trkpt>
      <trkpt lat="40.4257860" lon="-3.7690940">
        <ele>664.0</ele>
        <time>2021-02-23T17:34:25Z</time>
      </trkpt>
      <trkpt lat="40.4258010" lon="-3.7691460">
        <ele>664.0</ele>
        <time>2021-02-23T17:34:26Z</time>
      </trkpt>
      <trkpt lat="40.4258060" lon="-3.7691630">
        <ele>663.9</ele>
        <time>2021-02-23T17:34:27Z</time>
      </trkpt>
      <trkpt lat="40.4258230" lon="-3.7692200">
        <ele>663.8</ele>
        <time>2021-02-23T17:34:28Z</time>
      </trkpt>
      <trkpt lat="40.4258300" lon="-3.7692420">
        <ele>663.8</ele>
        <time>2021-02-23T17:34:29Z</time>
      </trkpt>
      <trkpt lat="40.4258370" lon="-3.7692650">
        <ele>663.7</ele>
        <time>2021-02-23T17:34:30Z</time>
      </trkpt>
      <trkpt lat="40.4258510" lon="-3.7693160">
        <ele>663.6</ele>
        <time>2021-02-23T17:34:31Z</time>
      </trkpt>
      <trkpt lat="40.4258560" lon="-3.7693340">
        <ele>663.6</ele>
        <time>2021-02-23T17:34:32Z</time>
      </trkpt>
      <trkpt lat="40.4258720" lon="-3.7693910">
        <ele>663.5</ele>
        <time>2021-02-23T17:34:33Z</time>
      </trkpt>
      <trkpt lat="40.4258790" lon="-3.7694140">
        <ele>663.5</ele>
        <time>2021-02-23T17:34:34Z</time>
      </trkpt>
      <trkpt lat="40.4258850" lon="-3.7694370">
        <ele>663.5</ele>
        <time>2021-02-23T17:34:35Z</time>
      </trkpt>
      <trkpt lat="40.4259000" lon="-3.7694890">
        <ele>663.5</ele>
        <time>2021-02-23T17:34:36Z</time>
      </trkpt>
      <trkpt lat="40.4259040" lon="-3.7695070">
        <ele>663.5</ele>
        <time>2021-02-23T17:34:37Z</time>
      </trkpt>
      <trkpt lat="40.4259180" lon="-3.7695650">
        <ele>663.4</ele>
        <time>2021-02-23T17:34:38Z</time>
      </trkpt>
      <trkpt lat="40.4259240" lon="-3.7695890">
        <ele>663.4</ele>
        <time>2021-02-23T17:34:39Z</time>
      </trkpt>
      <trkpt lat="40.4259300" lon="-3.7696120">
        <ele>663.4</ele>
        <time>2021-02-23T17:34:40Z</time>
      </trkpt>
      <trkpt lat="40.4259430" lon="-3.7696700">
        <ele>663.4</ele>
        <time>2021-02-23T17:34:41Z</time>
      </trkpt>
      <trkpt lat="40.4259490" lon="-3.7696940">
        <ele>663.4</ele>
        <time>2021-02-23T17:34:42Z</time>
      </trkpt>
      <trkpt lat="40.4259540" lon="-3.7697170">
        <ele>663.4</ele>
        <time>2021-02-23T17:34:43Z</time>
      </trkpt>
      <trkpt lat="40.4259650" lon="-3.7697680">
        <ele>663.4</ele>
        <time>2021-02-23T17:34:44Z</time>
      </trkpt>
      <trkpt lat="40.4259680" lon="-3.7697860">
        <ele>663.4</ele>
        <time>2021-02-23T17:34:45Z</time>
      </trkpt>
      <trkpt lat="40.4259800" lon="-3.7698430">
        <ele>663.4</ele>
        <time>2021-02-23T17:34:46Z</time>
      </trkpt>
      <trkpt lat="40.4259840" lon="-3.7698660">
        <ele>663.4</ele>
        <time>2021-02-23T17:34:47Z</time>
      </trkpt>
      <trkpt lat="40.4259890" lon="-3.7698890">
        <ele>663.4</ele>
        <time>2021-02-23T17:34:48Z</time>
      </trkpt>
      <trkpt lat="40.4259980" lon="-3.7699390">
        <ele>663.5</ele>
        <time>2021-02-23T17:34:49Z</time>
      </trkpt>
      <trkpt lat="40.4260010" lon="-3.7699560">
        <ele>663.5</ele>
        <time>2021-02-23T17:34:50Z</time>
      </trkpt>
      <trkpt lat="40.4260110" lon="-3.7700110">
        <ele>663.5</ele>
        <time>2021-02-23T17:34:51Z</time>
      </trkpt>
      <trkpt lat="40.4260150" lon="-3.7700330">
        <ele>663.6</ele>
        <time>2021-02-23T17:34:52Z</time>
      </trkpt>
      <trkpt lat="40.4260190" lon="-3.7700550">
        <ele>663.6</ele>
        <time>2021-02-23T17:34:53Z</time>
      </trkpt>
      <trkpt lat="40.4260280" lon="-3.7701040">
        <ele>663.6</ele>
        <time>2021-02-23T17:34:54Z</time>
      </trkpt>
      <trkpt lat="40.4260310" lon="-3.7701210">
        <ele>663.7</ele>
        <time>2021-02-23T17:34:55Z</time>
      </trkpt>
      <trkpt lat="40.4260410" lon="-3.7701760">
        <ele>663.7</ele>
        <time>2021-02-23T17:34:56Z</time>
      </trkpt>
      <trkpt lat="40.4260460" lon="-3.7701970">
        <ele>663.8</ele>
        <time>2021-02-23T17:34:57Z</time>
      </trkpt>
      <trkpt lat="40.4260500" lon="-3.7702190">
        <ele>663.8</ele>
        <time>2021-02-23T17:34:58Z</time>
      </trkpt>
      <trkpt lat="40.4260620" lon="-3.7702730">
        <ele>663.8</ele>
        <time>2021-02-23T17:34:59Z</time>
      </trkpt>
      <trkpt lat="40.4260680" lon="-3.7702950">
        <ele>663.9</ele>
        <time>2021-02-23T17:35:00Z</time>
      </trkpt>
      <trkpt lat="40.4260730" lon="-3.7703170">
        <ele>663.9</ele>
        <time>2021-02-23T17:35:01Z</time>
      </trkpt>
      <trkpt lat="40.4260870" lon="-3.7703660">
        <ele>663.9</ele>
        <time>2021-02-23T17:35:02Z</time>
      </trkpt>
      <trkpt lat="40.4260910" lon="-3.7703830">
        <ele>663.9</ele>
        <time>2021-02-23T17:35:03Z</time>
      </trkpt>
      <trkpt lat="40.4261080" lon="-3.7704390">
        <ele>663.9</ele>
        <time>2021-02-23T17:35:04Z</time>
      </trkpt>
      <trkpt lat="40.4261160" lon="-3.7704620">
        <ele>663.9</ele>
        <time>2021-02-23T17:35:05Z</time>
      </trkpt>
      <trkpt lat="40.4261230" lon="-3.7704840">
        <ele>663.9</ele>
        <time>2021-02-23T17:35:06Z</time>
      </trkpt>
      <trkpt lat="40.4261420" lon="-3.7705330">
        <ele>663.9</ele>
        <time>2021-02-23T17:35:07Z</time>
      </trkpt>
      <trkpt lat="40.4261480" lon="-3.7705500">
        <ele>663.9</ele>
        <time>2021-02-23T17:35:08Z</time>
      </trkpt>
      <trkpt lat="40.4261700" lon="-3.7706060">
        <ele>663.9</ele>
        <time>2021-02-23T17:35:09Z</time>
      </trkpt>
      <trkpt lat="40.4261800" lon="-3.7706280">
        <ele>663.9</ele>
        <time>2021-02-23T17:35:10Z</time>
      </trkpt>
      <trkpt lat="40.4261890" lon="-3.7706500">
        <ele>663.9</ele>
        <time>2021-02-23T17:35:11Z</time>
      </trkpt>
      <trkpt lat="40.4262120" lon="-3.7706990">
        <ele>663.9</ele>
        <time>2021-02-23T17:35:12Z</time>
      </trkpt>
      <trkpt lat="40.4262190" lon="-3.7707150">
        <ele>663.9</ele>
        <time>2021-02-23T17:35:13Z</time>
      </trkpt>
      <trkpt lat="40.4262460" lon="-3.7707690">
        <ele>663.8</ele>
        <time>2021-02-23T17:35:14Z</time>
      </trkpt>
      <trkpt lat="40.4262560" lon="-3.7707910">
        <ele>663.8</ele>
        <time>2021-02-23T17:35:15Z</time>
      </trkpt>
      <trkpt lat="40.4262670" lon="-3.7708120">
        <ele>663.8</ele>
        <time>2021-02-23T17:35:16Z</time>
      </trkpt>
      <trkpt lat="40.4262950" lon="-3.7708650">
        <ele>663.7</ele>
        <time>2021-02-23T17:35:17Z</time>
      </trkpt>
      <trkpt lat="40.4263050" lon="-3.7708860">
        <ele>663.7</ele>
        <time>2021-02-23T17:35:18Z</time>
      </trkpt>
      <trkpt lat="40.4263160" lon="-3.7709070">
        <ele>663.7</ele>
        <time>2021-02-23T17:35:19Z</time>
      </trkpt>
      <trkpt lat="40.4263410" lon="-3.7709540">
        <ele>663.6</ele>
        <time>2021-02-23T17:35:20Z</time>
      </trkpt>
      <trkpt lat="40.4263490" lon="-3.7709700">
        <ele>663.6</ele>
        <time>2021-02-23T17:35:21Z</time>
      </trkpt>
      <trkpt lat="40.4263760" lon="-3.7710210">
        <ele>663.6</ele>
        <time>2021-02-23T17:35:22Z</time>
      </trkpt>
      <trkpt lat="40.4263870" lon="-3.7710420">
        <ele>663.6</ele>
        <time>2021-02-23T17:35:23Z</time>
      </trkpt>
      <trkpt lat="40.4263980" lon="-3.7710620">
        <ele>663.6</ele>
        <time>2021-02-23T17:35:24Z</time>
      </trkpt>
      <trkpt lat="40.4264220" lon="-3.7711070">
        <ele>663.6</ele>
        <time>2021-02-23T17:35:25Z</time>
      </trkpt>
      <trkpt lat="40.4264300" lon="-3.7711220">
        <ele>663.6</ele>
        <time>2021-02-23T17:35:26Z</time>
      </trkpt>
      <trkpt lat="40.4264570" lon="-3.7711710">
        <ele>663.6</ele>
        <time>2021-02-23T17:35:27Z</time>
      </trkpt>
      <trkpt lat="40.4264670" lon="-3.7711900">
        <ele>663.6</ele>
        <time>2021-02-23T17:35:28Z</time>
      </trkpt>
      <trkpt lat="40.4264780" lon="-3.7712100">
        <ele>663.6</ele>
        <time>2021-02-23T17:35:29Z</time>
      </trkpt>
      <trkpt lat="40.4265020" lon="-3.7712530">
        <ele>663.7</ele>
        <time>2021-02-23T17:35:30Z</time>
      </trkpt>
      <trkpt lat="40.4265100" lon="-3.7712670">
        <ele>663.7</ele>
        <time>2021-02-23T17:35:31Z</time>
      </trkpt>
      <trkpt lat="40.4265370" lon="-3.7713140">
        <ele>663.7</ele>
        <time>2021-02-23T17:35:32Z</time>
      </trkpt>
      <trkpt lat="40.4265470" lon="-3.7713330">
        <ele>663.7</ele>
        <time>2021-02-23T17:35:33Z</time>
      </trkpt>
      <trkpt lat="40.4265580" lon="-3.7713510">
        <ele>663.8</ele>
        <time>2021-02-23T17:35:34Z</time>
      </trkpt>
      <trkpt lat="40.4265850" lon="-3.7713970">
        <ele>663.8</ele>
        <time>2021-02-23T17:35:35Z</time>
      </trkpt>
      <trkpt lat="40.4265950" lon="-3.7714160">
        <ele>663.8</ele>
        <time>2021-02-23T17:35:36Z</time>
      </trkpt>
      <trkpt lat="40.4266060" lon="-3.7714340">
        <ele>663.9</ele>
        <time>2021-02-23T17:35:37Z</time>
      </trkpt>
      <trkpt lat="40.4266310" lon="-3.7714740">
        <ele>663.9</ele>
        <time>2021-02-23T17:35:38Z</time>
      </trkpt>
      <trkpt lat="40.4266390" lon="-3.7714880">
        <ele>664.0</ele>
        <time>2021-02-23T17:35:39Z</time>
      </trkpt>
      <trkpt lat="40.4266660" lon="-3.7715310">
        <ele>664.0</ele>
        <time>2021-02-23T17:35:40Z</time>
      </trkpt>
      <trkpt lat="40.4266780" lon="-3.7715490">
        <ele>664.1</ele>
        <time>2021-02-23T17:35:41Z</time>
      </trkpt>
      <trkpt lat="40.4266890" lon="-3.7715660">
        <ele>664.1</ele>
        <time>2021-02-23T17:35:42Z</time>
      </trkpt>
      <trkpt lat="40.4267150" lon="-3.7716030">
        <ele>664.2</ele>
        <time>2021-02-23T17:35:43Z</time>
      </trkpt>
      <trkpt lat="40.4267240" lon="-3.7716160">
        <ele>664.2</ele>
        <time>2021-02-23T17:35:44Z</time>
      </trkpt>
      <trkpt lat="40.4267540" lon="-3.7716560">
        <ele>664.4</ele>
        <time>2021-02-23T17:35:45Z</time>
      </trkpt>
      <trkpt lat="40.4267660" lon="-3.7716710">
        <ele>664.4</ele>
        <time>2021-02-23T17:35:46Z</time>
      </trkpt>
      <trkpt lat="40.4267780" lon="-3.7716870">
        <ele>664.5</ele>
        <time>2021-02-23T17:35:47Z</time>
      </trkpt>
      <trkpt lat="40.4268060" lon="-3.7717210">
        <ele>664.6</ele>
        <time>2021-02-23T17:35:48Z</time>
      </trkpt>
      <trkpt lat="40.4268150" lon="-3.7717320">
        <ele>664.7</ele>
        <time>2021-02-23T17:35:49Z</time>
      </trkpt>
      <trkpt lat="40.4268470" lon="-3.7717680">
        <ele>664.8</ele>
        <time>2021-02-23T17:35:50Z</time>
      </trkpt>
      <trkpt lat="40.4268600" lon="-3.7717820">
        <ele>664.9</ele>
        <time>2021-02-23T17:35:51Z</time>
      </trkpt>
      <trkpt lat="40.4268730" lon="-3.7717960">
        <ele>665.0</ele>
        <time>2021-02-23T17:35:52Z</time>
      </trkpt>
      <trkpt lat="40.4269070" lon="-3.7718290">
        <ele>665.1</ele>
        <time>2021-02-23T17:35:53Z</time>
      </trkpt>
      <trkpt lat="40.4269200" lon="-3.7718420">
        <ele>665.2</ele>
        <time>2021-02-23T17:35:54Z</time>
      </trkpt>
      <trkpt lat="40.4269340" lon="-3.7718550">
        <ele>665.3</ele>
        <time>2021-02-23T17:35:55Z</time>
      </trkpt>
      <trkpt lat="40.4269660" lon="-3.7718830">
        <ele>665.5</ele>
        <time>2021-02-23T17:35:56Z</time>
      </trkpt>
      <trkpt lat="40.4269760" lon="-3.7718930">
        <ele>665.5</ele>
        <time>2021-02-23T17:35:57Z</time>
      </trkpt>
      <trkpt lat="40.4270120" lon="-3.7719230">
        <ele>665.7</ele>
        <time>2021-02-23T17:35:58Z</time>
      </trkpt>
      <trkpt lat="40.4270270" lon="-3.7719340">
        <ele>665.8</ele>
        <time>2021-02-23T17:35:59Z</time>
      </trkpt>
      <trkpt lat="40.4270410" lon="-3.7719460">
        <ele>665.9</ele>
        <time>2021-02-23T17:36:00Z</time>
      </trkpt>
      <trkpt lat="40.4270750" lon="-3.7719710">
        <ele>666.0</ele>
        <time>2021-02-23T17:36:01Z</time>
      </trkpt>
      <trkpt lat="40.4270860" lon="-3.7719790">
        <ele>666.1</ele>
        <time>2021-02-23T17:36:02Z</time>
      </trkpt>
      <trkpt lat="40.4271230" lon="-3.7720050">
        <ele>666.3</ele>
        <time>2021-02-23T17:36:03Z</time>
      </trkpt>
      <trkpt lat="40.4271380" lon="-3.7720140">
        <ele>666.4</ele>
        <time>2021-02-23T17:36:04Z</time>
      </trkpt>
      <trkpt lat="40.4271530" lon="-3.7720240">
        <ele>666.4</ele>
        <time>2021-02-23T17:36:05Z</time>
      </trkpt>
      <trkpt lat="40.4271880" lon="-3.7720440">
        <ele>666.6</ele>
        <time>2021-02-23T17:36:06Z</time>
      </trkpt>
      <trkpt lat="40.4271990" lon="-3.7720510">
        <ele>666.6</ele>
        <time>2021-02-23T17:36:07Z</time>
      </trkpt>
      <trkpt lat="40.4272400" lon="-3.7720670">
        <ele>666.8</ele>
        <time>2021-02-23T17:36:08Z</time>
      </trkpt>
      <trkpt lat="40.4272570" lon="-3.7720720">
        <ele>666.9</ele>
        <time>2021-02-23T17:36:09Z</time>
      </trkpt>
      <trkpt lat="40.4272750" lon="-3.7720760">
        <ele>666.9</ele>
        <time>2021-02-23T17:36:10Z</time>
      </trkpt>
      <trkpt lat="40.4273190" lon="-3.7720820">
        <ele>667.1</ele>
        <time>2021-02-23T17:36:11Z</time>
      </trkpt>
      <trkpt lat="40.4273370" lon="-3.7720850">
        <ele>667.1</ele>
        <time>2021-02-23T17:36:12Z</time>
      </trkpt>
      <trkpt lat="40.4273550" lon="-3.7720870">
        <ele>667.2</ele>
        <time>2021-02-23T17:36:13Z</time>
      </trkpt>
      <trkpt lat="40.4273960" lon="-3.7720900">
        <ele>667.3</ele>
        <time>2021-02-23T17:36:14Z</time>
      </trkpt>
      <trkpt lat="40.4274090" lon="-3.7720910">
        <ele>667.3</ele>
        <time>2021-02-23T17:36:15Z</time>
      </trkpt>
      <trkpt lat="40.4274550" lon="-3.7720920">
        <ele>667.2</ele>
        <time>2021-02-23T17:36:16Z</time>
      </trkpt>
      <trkpt lat="40.4274740" lon="-3.7720920">
        <ele>667.2</ele>
        <time>2021-02-23T17:36:17Z</time>
      </trkpt>
      <trkpt lat="40.4274920" lon="-3.7720920">
        <ele>667.2</ele>
        <time>2021-02-23T17:36:18Z</time>
      </trkpt>
      <trkpt lat="40.4275340" lon="-3.7720900">
        <ele>667.1</ele>
        <time>2021-02-23T17:36:19Z</time>
      </trkpt>
      <trkpt lat="40.4275480" lon="-3.7720890">
        <ele>667.1</ele>
        <time>2021-02-23T17:36:20Z</time>
      </trkpt>
      <trkpt lat="40.4275950" lon="-3.7720850">
        <ele>667.0</ele>
        <time>2021-02-23T17:36:21Z</time>
      </trkpt>
      <trkpt lat="40.4276130" lon="-3.7720820">
        <ele>666.9</ele>
        <time>2021-02-23T17:36:22Z</time>
      </trkpt>
      <trkpt lat="40.4276320" lon="-3.7720800">
        <ele>666.9</ele>
        <time>2021-02-23T17:36:23Z</time>
      </trkpt>
      <trkpt lat="40.4276740" lon="-3.7720740">
        <ele>666.8</ele>
        <time>2021-02-23T17:36:24Z</time>
      </trkpt>
      <trkpt lat="40.4276880" lon="-3.7720710">
        <ele>666.8</ele>
        <time>2021-02-23T17:36:25Z</time>
      </trkpt>
      <trkpt lat="40.4277350" lon="-3.7720610">
        <ele>666.7</ele>
        <time>2021-02-23T17:36:26Z</time>
      </trkpt>
      <trkpt lat="40.4277540" lon="-3.7720570">
        <ele>666.6</ele>
        <time>2021-02-23T17:36:27Z</time>
      </trkpt>
      <trkpt lat="40.4277730" lon="-3.7720530">
        <ele>666.6</ele>
        <time>2021-02-23T17:36:28Z</time>
      </trkpt>
      <trkpt lat="40.4278190" lon="-3.7720420">
        <ele>666.5</ele>
        <time>2021-02-23T17:36:29Z</time>
      </trkpt>
      <trkpt lat="40.4278380" lon="-3.7720380">
        <ele>666.5</ele>
        <time>2021-02-23T17:36:30Z</time>
      </trkpt>
      <trkpt lat="40.4278560" lon="-3.7720330">
        <ele>666.5</ele>
        <time>2021-02-23T17:36:31Z</time>
      </trkpt>
      <trkpt lat="40.4278980" lon="-3.7720230">
        <ele>666.4</ele>
        <time>2021-02-23T17:36:32Z</time>
      </trkpt>
      <trkpt lat="40.4279120" lon="-3.7720190">
        <ele>666.4</ele>
        <time>2021-02-23T17:36:33Z</time>
      </trkpt>
      <trkpt lat="40.4279590" lon="-3.7720060">
        <ele>666.4</ele>
        <time>2021-02-23T17:36:34Z</time>
      </trkpt>
      <trkpt lat="40.4279770" lon="-3.7720000">
        <ele>666.4</ele>
        <time>2021-02-23T17:36:35Z</time>
      </trkpt>
      <trkpt lat="40.4279960" lon="-3.7719950">
        <ele>666.4</ele>
        <time>2021-02-23T17:36:36Z</time>
      </trkpt>
      <trkpt lat="40.4280370" lon="-3.7719830">
        <ele>666.4</ele>
        <time>2021-02-23T17:36:37Z</time>
      </trkpt>
      <trkpt lat="40.4280510" lon="-3.7719790">
        <ele>666.4</ele>
        <time>2021-02-23T17:36:38Z</time>
      </trkpt>
      <trkpt lat="40.4280970" lon="-3.7719650">
        <ele>666.4</ele>
        <time>2021-02-23T17:36:39Z</time>
      </trkpt>
      <trkpt lat="40.4281150" lon="-3.7719600">
        <ele>666.5</ele>
        <time>2021-02-23T17:36:40Z</time>
      </trkpt>
      <trkpt lat="40.4281330" lon="-3.7719540">
        <ele>666.5</ele>
        <time>2021-02-23T17:36:41Z</time>
      </trkpt>
      <trkpt lat="40.4281750" lon="-3.7719420">
        <ele>666.6</ele>
        <time>2021-02-23T17:36:42Z</time>
      </trkpt>
      <trkpt lat="40.4281880" lon="-3.7719380">
        <ele>666.6</ele>
        <time>2021-02-23T17:36:43Z</time>
      </trkpt>
      <trkpt lat="40.4282320" lon="-3.7719250">
        <ele>666.7</ele>
        <time>2021-02-23T17:36:44Z</time>
      </trkpt>
      <trkpt lat="40.4282490" lon="-3.7719200">
        <ele>666.7</ele>
        <time>2021-02-23T17:36:45Z</time>
      </trkpt>
      <trkpt lat="40.4282670" lon="-3.7719150">
        <ele>666.8</ele>
        <time>2021-02-23T17:36:46Z</time>
      </trkpt>
      <trkpt lat="40.4283090" lon="-3.7719050">
        <ele>666.9</ele>
        <time>2021-02-23T17:36:47Z</time>
      </trkpt>
      <trkpt lat="40.4283250" lon="-3.7719020">
        <ele>666.9</ele>
        <time>2021-02-23T17:36:48Z</time>
      </trkpt>
      <trkpt lat="40.4283420" lon="-3.7718980">
        <ele>667.0</ele>
        <time>2021-02-23T17:36:49Z</time>
      </trkpt>
      <trkpt lat="40.4283770" lon="-3.7718920">
        <ele>667.1</ele>
        <time>2021-02-23T17:36:50Z</time>
      </trkpt>
      <trkpt lat="40.4283880" lon="-3.7718900">
        <ele>667.1</ele>
        <time>2021-02-23T17:36:51Z</time>
      </trkpt>
      <trkpt lat="40.4284230" lon="-3.7718890">
        <ele>667.2</ele>
        <time>2021-02-23T17:36:52Z</time>
      </trkpt>
      <trkpt lat="40.4284370" lon="-3.7718900">
        <ele>667.3</ele>
        <time>2021-02-23T17:36:53Z</time>
      </trkpt>
      <trkpt lat="40.4284500" lon="-3.7718900">
        <ele>667.3</ele>
        <time>2021-02-23T17:36:54Z</time>
      </trkpt>
      <trkpt lat="40.4284770" lon="-3.7718940">
        <ele>667.4</ele>
        <time>2021-02-23T17:36:55Z</time>
      </trkpt>
      <trkpt lat="40.4284850" lon="-3.7718960">
        <ele>667.4</ele>
        <time>2021-02-23T17:36:56Z</time>
      </trkpt>
      <trkpt lat="40.4285010" lon="-3.7719020">
        <ele>667.7</ele>
        <time>2021-02-23T17:36:57Z</time>
      </trkpt>
      <trkpt lat="40.4285020" lon="-3.7719190">
        <ele>667.7</ele>
        <time>2021-02-23T17:36:58Z</time>
      </trkpt>
      <trkpt lat="40.4284990" lon="-3.7719410">
        <ele>667.6</ele>
        <time>2021-02-23T17:36:59Z</time>
      </trkpt>
      <trkpt lat="40.4284920" lon="-3.7719760">
        <ele>667.6</ele>
        <time>2021-02-23T17:37:00Z</time>
      </trkpt>
      <trkpt lat="40.4284890" lon="-3.7719880">
        <ele>667.6</ele>
        <time>2021-02-23T17:37:01Z</time>
      </trkpt>
      <trkpt lat="40.4284760" lon="-3.7720280">
        <ele>667.6</ele>
        <time>2021-02-23T17:37:02Z</time>
      </trkpt>
      <trkpt lat="40.4284700" lon="-3.7720440">
        <ele>667.6</ele>
        <time>2021-02-23T17:37:03Z</time>
      </trkpt>
      <trkpt lat="40.4284640" lon="-3.7720610">
        <ele>667.5</ele>
        <time>2021-02-23T17:37:04Z</time>
      </trkpt>
      <trkpt lat="40.4284460" lon="-3.7721030">
        <ele>667.5</ele>
        <time>2021-02-23T17:37:05Z</time>
      </trkpt>
      <trkpt lat="40.4284390" lon="-3.7721200">
        <ele>667.4</ele>
        <time>2021-02-23T17:37:06Z</time>
      </trkpt>
      <trkpt lat="40.4284310" lon="-3.7721370">
        <ele>667.4</ele>
        <time>2021-02-23T17:37:07Z</time>
      </trkpt>
      <trkpt lat="40.4284110" lon="-3.7721760">
        <ele>667.4</ele>
        <time>2021-02-23T17:37:08Z</time>
      </trkpt>
      <trkpt lat="40.4284040" lon="-3.7721890">
        <ele>667.4</ele>
        <time>2021-02-23T17:37:09Z</time>
      </trkpt>
      <trkpt lat="40.4283790" lon="-3.7722340">
        <ele>667.4</ele>
        <time>2021-02-23T17:37:10Z</time>
      </trkpt>
      <trkpt lat="40.4283680" lon="-3.7722520">
        <ele>667.3</ele>
        <time>2021-02-23T17:37:11Z</time>
      </trkpt>
      <trkpt lat="40.4283580" lon="-3.7722700">
        <ele>667.3</ele>
        <time>2021-02-23T17:37:12Z</time>
      </trkpt>
      <trkpt lat="40.4283340" lon="-3.7723110">
        <ele>667.3</ele>
        <time>2021-02-23T17:37:13Z</time>
      </trkpt>
      <trkpt lat="40.4283260" lon="-3.7723250">
        <ele>667.3</ele>
        <time>2021-02-23T17:37:14Z</time>
      </trkpt>
      <trkpt lat="40.4282980" lon="-3.7723720">
        <ele>667.4</ele>
        <time>2021-02-23T17:37:15Z</time>
      </trkpt>
      <trkpt lat="40.4282860" lon="-3.7723900">
        <ele>667.4</ele>
        <time>2021-02-23T17:37:16Z</time>
      </trkpt>
      <trkpt lat="40.4282750" lon="-3.7724090">
        <ele>667.4</ele>
        <time>2021-02-23T17:37:17Z</time>
      </trkpt>
      <trkpt lat="40.4282490" lon="-3.7724520">
        <ele>667.4</ele>
        <time>2021-02-23T17:37:18Z</time>
      </trkpt>
      <trkpt lat="40.4282400" lon="-3.7724660">
        <ele>667.5</ele>
        <time>2021-02-23T17:37:19Z</time>
      </trkpt>
      <trkpt lat="40.4282100" lon="-3.7725130">
        <ele>667.5</ele>
        <time>2021-02-23T17:37:20Z</time>
      </trkpt>
      <trkpt lat="40.4281980" lon="-3.7725310">
        <ele>667.6</ele>
        <time>2021-02-23T17:37:21Z</time>
      </trkpt>
      <trkpt lat="40.4281860" lon="-3.7725500">
        <ele>667.6</ele>
        <time>2021-02-23T17:37:22Z</time>
      </trkpt>
      <trkpt lat="40.4281560" lon="-3.7725960">
        <ele>667.7</ele>
        <time>2021-02-23T17:37:23Z</time>
      </trkpt>
      <trkpt lat="40.4281440" lon="-3.7726150">
        <ele>667.7</ele>
        <time>2021-02-23T17:37:24Z</time>
      </trkpt>
      <trkpt lat="40.4281320" lon="-3.7726330">
        <ele>667.7</ele>
        <time>2021-02-23T17:37:25Z</time>
      </trkpt>
      <trkpt lat="40.4281050" lon="-3.7726740">
        <ele>667.8</ele>
        <time>2021-02-23T17:37:26Z</time>
      </trkpt>
      <trkpt lat="40.4280960" lon="-3.7726870">
        <ele>667.8</ele>
        <time>2021-02-23T17:37:27Z</time>
      </trkpt>
      <trkpt lat="40.4280660" lon="-3.7727320">
        <ele>667.9</ele>
        <time>2021-02-23T17:37:28Z</time>
      </trkpt>
      <trkpt lat="40.4280540" lon="-3.7727490">
        <ele>667.9</ele>
        <time>2021-02-23T17:37:29Z</time>
      </trkpt>
      <trkpt lat="40.4280420" lon="-3.7727670">
        <ele>667.9</ele>
        <time>2021-02-23T17:37:30Z</time>
      </trkpt>
      <trkpt lat="40.4280150" lon="-3.7728060">
        <ele>668.0</ele>
        <time>2021-02-23T17:37:31Z</time>
      </trkpt>
      <trkpt lat="40.4280060" lon="-3.7728190">
        <ele>668.0</ele>
        <time>2021-02-23T17:37:32Z</time>
      </trkpt>
      <trkpt lat="40.4279780" lon="-3.7728640">
        <ele>668.1</ele>
        <time>2021-02-23T17:37:33Z</time>
      </trkpt>
      <trkpt lat="40.4279660" lon="-3.7728810">
        <ele>668.2</ele>
        <time>2021-02-23T17:37:34Z</time>
      </trkpt>
      <trkpt lat="40.4279550" lon="-3.7728990">
        <ele>668.2</ele>
        <time>2021-02-23T17:37:35Z</time>
      </trkpt>
      <trkpt lat="40.4279300" lon="-3.7729400">
        <ele>668.3</ele>
        <time>2021-02-23T17:37:36Z</time>
      </trkpt>
      <trkpt lat="40.4279210" lon="-3.7729540">
        <ele>668.4</ele>
        <time>2021-02-23T17:37:37Z</time>
      </trkpt>
      <trkpt lat="40.4278940" lon="-3.7729990">
        <ele>668.5</ele>
        <time>2021-02-23T17:37:38Z</time>
      </trkpt>
      <trkpt lat="40.4278840" lon="-3.7730180">
        <ele>668.5</ele>
        <time>2021-02-23T17:37:39Z</time>
      </trkpt>
      <trkpt lat="40.4278730" lon="-3.7730360">
        <ele>668.6</ele>
        <time>2021-02-23T17:37:40Z</time>
      </trkpt>
      <trkpt lat="40.4278450" lon="-3.7730810">
        <ele>668.7</ele>
        <time>2021-02-23T17:37:41Z</time>
      </trkpt>
      <trkpt lat="40.4278350" lon="-3.7731000">
        <ele>668.8</ele>
        <time>2021-02-23T17:37:42Z</time>
      </trkpt>
      <trkpt lat="40.4278240" lon="-3.7731180">
        <ele>668.8</ele>
        <time>2021-02-23T17:37:43Z</time>
      </trkpt>
      <trkpt lat="40.4278000" lon="-3.7731590">
        <ele>668.9</ele>
        <time>2021-02-23T17:37:44Z</time>
      </trkpt>
      <trkpt lat="40.4277920" lon="-3.7731720">
        <ele>669.0</ele>
        <time>2021-02-23T17:37:45Z</time>
      </trkpt>
      <trkpt lat="40.4277650" lon="-3.7732170">
        <ele>669.1</ele>
        <time>2021-02-23T17:37:46Z</time>
      </trkpt>
      <trkpt lat="40.4277550" lon="-3.7732360">
        <ele>669.1</ele>
        <time>2021-02-23T17:37:47Z</time>
      </trkpt>
      <trkpt lat="40.4277440" lon="-3.7732540">
        <ele>669.2</ele>
        <time>2021-02-23T17:37:48Z</time>
      </trkpt>
      <trkpt lat="40.4277200" lon="-3.7732950">
        <ele>669.3</ele>
        <time>2021-02-23T17:37:49Z</time>
      </trkpt>
      <trkpt lat="40.4277120" lon="-3.7733080">
        <ele>669.3</ele>
        <time>2021-02-23T17:37:50Z</time>
      </trkpt>
      <trkpt lat="40.4276860" lon="-3.7733530">
        <ele>669.4</ele>
        <time>2021-02-23T17:37:51Z</time>
      </trkpt>
      <trkpt lat="40.4276760" lon="-3.7733720">
        <ele>669.4</ele>
        <time>2021-02-23T17:37:52Z</time>
      </trkpt>
      <trkpt lat="40.4276660" lon="-3.7733900">
        <ele>669.4</ele>
        <time>2021-02-23T17:37:53Z</time>
      </trkpt>
      <trkpt lat="40.4276410" lon="-3.7734370">
        <ele>669.5</ele>
        <time>2021-02-23T17:37:54Z</time>
      </trkpt>
      <trkpt lat="40.4276310" lon="-3.7734570">
        <ele>669.5</ele>
        <time>2021-02-23T17:37:55Z</time>
      </trkpt>
      <trkpt lat="40.4276210" lon="-3.7734760">
        <ele>669.5</ele>
        <time>2021-02-23T17:37:56Z</time>
      </trkpt>
      <trkpt lat="40.4275990" lon="-3.7735200">
        <ele>669.5</ele>
        <time>2021-02-23T17:37:57Z</time>
      </trkpt>
      <trkpt lat="40.4275910" lon="-3.7735350">
        <ele>669.5</ele>
        <time>2021-02-23T17:37:58Z</time>
      </trkpt>
      <trkpt lat="40.4275670" lon="-3.7735870">
        <ele>669.5</ele>
        <time>2021-02-23T17:37:59Z</time>
      </trkpt>
      <trkpt lat="40.4275570" lon="-3.7736070">
        <ele>669.5</ele>
        <time>2021-02-23T17:38:00Z</time>
      </trkpt>
      <trkpt lat="40.4275470" lon="-3.7736280">
        <ele>669.5</ele>
        <time>2021-02-23T17:38:01Z</time>
      </trkpt>
      <trkpt lat="40.4275240" lon="-3.7736750">
        <ele>669.5</ele>
        <time>2021-02-23T17:38:02Z</time>
      </trkpt>
      <trkpt lat="40.4275160" lon="-3.7736900">
        <ele>669.5</ele>
        <time>2021-02-23T17:38:03Z</time>
      </trkpt>
      <trkpt lat="40.4274890" lon="-3.7737420">
        <ele>669.4</ele>
        <time>2021-02-23T17:38:04Z</time>
      </trkpt>
      <trkpt lat="40.4274780" lon="-3.7737630">
        <ele>669.4</ele>
        <time>2021-02-23T17:38:05Z</time>
      </trkpt>
      <trkpt lat="40.4274670" lon="-3.7737840">
        <ele>669.4</ele>
        <time>2021-02-23T17:38:06Z</time>
      </trkpt>
      <trkpt lat="40.4274410" lon="-3.7738300">
        <ele>669.3</ele>
        <time>2021-02-23T17:38:07Z</time>
      </trkpt>
      <trkpt lat="40.4274320" lon="-3.7738450">
        <ele>669.3</ele>
        <time>2021-02-23T17:38:08Z</time>
      </trkpt>
      <trkpt lat="40.4274000" lon="-3.7738950">
        <ele>669.2</ele>
        <time>2021-02-23T17:38:09Z</time>
      </trkpt>
      <trkpt lat="40.4273870" lon="-3.7739140">
        <ele>669.2</ele>
        <time>2021-02-23T17:38:10Z</time>
      </trkpt>
      <trkpt lat="40.4273740" lon="-3.7739340">
        <ele>669.2</ele>
        <time>2021-02-23T17:38:11Z</time>
      </trkpt>
      <trkpt lat="40.4273400" lon="-3.7739820">
        <ele>669.1</ele>
        <time>2021-02-23T17:38:12Z</time>
      </trkpt>
      <trkpt lat="40.4273260" lon="-3.7740010">
        <ele>669.1</ele>
        <time>2021-02-23T17:38:13Z</time>
      </trkpt>
      <trkpt lat="40.4273120" lon="-3.7740200">
        <ele>669.0</ele>
        <time>2021-02-23T17:38:14Z</time>
      </trkpt>
      <trkpt lat="40.4272790" lon="-3.7740620">
        <ele>669.0</ele>
        <time>2021-02-23T17:38:15Z</time>
      </trkpt>
      <trkpt lat="40.4272680" lon="-3.7740760">
        <ele>669.0</ele>
        <time>2021-02-23T17:38:16Z</time>
      </trkpt>
      <trkpt lat="40.4272310" lon="-3.7741210">
        <ele>668.9</ele>
        <time>2021-02-23T17:38:17Z</time>
      </trkpt>
      <trkpt lat="40.4272160" lon="-3.7741390">
        <ele>668.9</ele>
        <time>2021-02-23T17:38:18Z</time>
      </trkpt>
      <trkpt lat="40.4272010" lon="-3.7741570">
        <ele>668.9</ele>
        <time>2021-02-23T17:38:19Z</time>
      </trkpt>
      <trkpt lat="40.4271690" lon="-3.7741950">
        <ele>668.8</ele>
        <time>2021-02-23T17:38:20Z</time>
      </trkpt>
      <trkpt lat="40.4271580" lon="-3.7742070">
        <ele>668.8</ele>
        <time>2021-02-23T17:38:21Z</time>
      </trkpt>
      <trkpt lat="40.4271240" lon="-3.7742470">
        <ele>668.7</ele>
        <time>2021-02-23T17:38:22Z</time>
      </trkpt>
      <trkpt lat="40.4271100" lon="-3.7742630">
        <ele>668.7</ele>
        <time>2021-02-23T17:38:23Z</time>
      </trkpt>
      <trkpt lat="40.4270970" lon="-3.7742780">
        <ele>668.7</ele>
        <time>2021-02-23T17:38:24Z</time>
      </trkpt>
      <trkpt lat="40.4270690" lon="-3.7743090">
        <ele>668.6</ele>
        <time>2021-02-23T17:38:25Z</time>
      </trkpt>
      <trkpt lat="40.4270600" lon="-3.7743180">
        <ele>668.6</ele>
        <time>2021-02-23T17:38:26Z</time>
      </trkpt>
      <trkpt lat="40.4270340" lon="-3.7743470">
        <ele>668.6</ele>
        <time>2021-02-23T17:38:27Z</time>
      </trkpt>
      <trkpt lat="40.4270130" lon="-3.7743710">
        <ele>668.5</ele>
        <time>2021-02-23T17:38:28Z</time>
      </trkpt>
      <trkpt lat="40.4270010" lon="-3.7743860">
        <ele>668.5</ele>
        <time>2021-02-23T17:38:29Z</time>
      </trkpt>
      <trkpt lat="40.4269900" lon="-3.7744000">
        <ele>668.4</ele>
        <time>2021-02-23T17:38:30Z</time>
      </trkpt>
      <trkpt lat="40.4269780" lon="-3.7744140">
        <ele>668.4</ele>
        <time>2021-02-23T17:38:31Z</time>
      </trkpt>
      <trkpt lat="40.4269670" lon="-3.7744280">
        <ele>668.4</ele>
        <time>2021-02-23T17:38:32Z</time>
      </trkpt>
      <trkpt lat="40.4269550" lon="-3.7744430">
        <ele>668.3</ele>
        <time>2021-02-23T17:38:33Z</time>
      </trkpt>
      <trkpt lat="40.4269440" lon="-3.7744570">
        <ele>668.3</ele>
        <time>2021-02-23T17:38:34Z</time>
      </trkpt>
      <trkpt lat="40.4269320" lon="-3.7744710">
        <ele>668.2</ele>
        <time>2021-02-23T17:38:35Z</time>
      </trkpt>
      <trkpt lat="40.4269040" lon="-3.7745220">
        <ele>668.1</ele>
        <time>2021-02-23T17:38:36Z</time>
      </trkpt>
      <trkpt lat="40.4268630" lon="-3.7745980">
        <ele>667.9</ele>
        <time>2021-02-23T17:39:00Z</time>
      </trkpt>
      <trkpt lat="40.4268490" lon="-3.7746230">
        <ele>667.9</ele>
        <time>2021-02-23T17:39:01Z</time>
      </trkpt>
      <trkpt lat="40.4268220" lon="-3.7746740">
        <ele>667.7</ele>
        <time>2021-02-23T17:39:02Z</time>
      </trkpt>
      <trkpt lat="40.4268010" lon="-3.7747130">
        <ele>667.6</ele>
        <time>2021-02-23T17:39:03Z</time>
      </trkpt>
      <trkpt lat="40.4267910" lon="-3.7747300">
        <ele>667.6</ele>
        <time>2021-02-23T17:39:04Z</time>
      </trkpt>
      <trkpt lat="40.4267820" lon="-3.7747470">
        <ele>667.6</ele>
        <time>2021-02-23T17:39:05Z</time>
      </trkpt>
      <trkpt lat="40.4267560" lon="-3.7747940">
        <ele>667.5</ele>
        <time>2021-02-23T17:39:06Z</time>
      </trkpt>
      <trkpt lat="40.4267460" lon="-3.7748130">
        <ele>667.4</ele>
        <time>2021-02-23T17:39:07Z</time>
      </trkpt>
      <trkpt lat="40.4267350" lon="-3.7748330">
        <ele>667.4</ele>
        <time>2021-02-23T17:39:08Z</time>
      </trkpt>
      <trkpt lat="40.4267090" lon="-3.7748790">
        <ele>667.3</ele>
        <time>2021-02-23T17:39:09Z</time>
      </trkpt>
      <trkpt lat="40.4266840" lon="-3.7749200">
        <ele>667.3</ele>
        <time>2021-02-23T17:39:10Z</time>
      </trkpt>
      <trkpt lat="40.4266680" lon="-3.7749460">
        <ele>667.3</ele>
        <time>2021-02-23T17:39:11Z</time>
      </trkpt>
      <trkpt lat="40.4266540" lon="-3.7749670">
        <ele>667.2</ele>
        <time>2021-02-23T17:39:12Z</time>
      </trkpt>
      <trkpt lat="40.4266410" lon="-3.7749880">
        <ele>667.2</ele>
        <time>2021-02-23T17:39:13Z</time>
      </trkpt>
      <trkpt lat="40.4266090" lon="-3.7750340">
        <ele>667.2</ele>
        <time>2021-02-23T17:39:14Z</time>
      </trkpt>
      <trkpt lat="40.4265980" lon="-3.7750490">
        <ele>667.2</ele>
        <time>2021-02-23T17:39:15Z</time>
      </trkpt>
      <trkpt lat="40.4265610" lon="-3.7750980">
        <ele>667.3</ele>
        <time>2021-02-23T17:39:16Z</time>
      </trkpt>
      <trkpt lat="40.4265460" lon="-3.7751180">
        <ele>667.3</ele>
        <time>2021-02-23T17:39:17Z</time>
      </trkpt>
      <trkpt lat="40.4265310" lon="-3.7751370">
        <ele>667.3</ele>
        <time>2021-02-23T17:39:18Z</time>
      </trkpt>
      <trkpt lat="40.4264960" lon="-3.7751790">
        <ele>667.4</ele>
        <time>2021-02-23T17:39:19Z</time>
      </trkpt>
      <trkpt lat="40.4264840" lon="-3.7751930">
        <ele>667.4</ele>
        <time>2021-02-23T17:39:20Z</time>
      </trkpt>
      <trkpt lat="40.4264460" lon="-3.7752380">
        <ele>667.5</ele>
        <time>2021-02-23T17:39:21Z</time>
      </trkpt>
      <trkpt lat="40.4264300" lon="-3.7752570">
        <ele>667.5</ele>
        <time>2021-02-23T17:39:22Z</time>
      </trkpt>
      <trkpt lat="40.4264150" lon="-3.7752750">
        <ele>667.6</ele>
        <time>2021-02-23T17:39:23Z</time>
      </trkpt>
      <trkpt lat="40.4263770" lon="-3.7753220">
        <ele>667.7</ele>
        <time>2021-02-23T17:39:24Z</time>
      </trkpt>
      <trkpt lat="40.4263630" lon="-3.7753410">
        <ele>667.7</ele>
        <time>2021-02-23T17:39:25Z</time>
      </trkpt>
      <trkpt lat="40.4263480" lon="-3.7753600">
        <ele>667.8</ele>
        <time>2021-02-23T17:39:26Z</time>
      </trkpt>
      <trkpt lat="40.4263170" lon="-3.7754040">
        <ele>667.9</ele>
        <time>2021-02-23T17:39:27Z</time>
      </trkpt>
      <trkpt lat="40.4263060" lon="-3.7754190">
        <ele>667.9</ele>
        <time>2021-02-23T17:39:28Z</time>
      </trkpt>
      <trkpt lat="40.4262730" lon="-3.7754710">
        <ele>668.0</ele>
        <time>2021-02-23T17:39:29Z</time>
      </trkpt>
      <trkpt lat="40.4262600" lon="-3.7754920">
        <ele>668.0</ele>
        <time>2021-02-23T17:39:30Z</time>
      </trkpt>
      <trkpt lat="40.4262470" lon="-3.7755130">
        <ele>668.1</ele>
        <time>2021-02-23T17:39:31Z</time>
      </trkpt>
      <trkpt lat="40.4262190" lon="-3.7755620">
        <ele>668.3</ele>
        <time>2021-02-23T17:39:32Z</time>
      </trkpt>
      <trkpt lat="40.4261940" lon="-3.7756060">
        <ele>668.4</ele>
        <time>2021-02-23T17:39:33Z</time>
      </trkpt>
      <trkpt lat="40.4261790" lon="-3.7756330">
        <ele>668.5</ele>
        <time>2021-02-23T17:39:34Z</time>
      </trkpt>
      <trkpt lat="40.4261670" lon="-3.7756560">
        <ele>668.5</ele>
        <time>2021-02-23T17:39:35Z</time>
      </trkpt>
      <trkpt lat="40.4261550" lon="-3.7756780">
        <ele>668.6</ele>
        <time>2021-02-23T17:39:36Z</time>
      </trkpt>
      <trkpt lat="40.4261280" lon="-3.7757290">
        <ele>668.7</ele>
        <time>2021-02-23T17:39:37Z</time>
      </trkpt>
      <trkpt lat="40.4261040" lon="-3.7757740">
        <ele>668.8</ele>
        <time>2021-02-23T17:39:38Z</time>
      </trkpt>
      <trkpt lat="40.4260890" lon="-3.7758020">
        <ele>668.8</ele>
        <time>2021-02-23T17:39:39Z</time>
      </trkpt>
      <trkpt lat="40.4260760" lon="-3.7758250">
        <ele>668.9</ele>
        <time>2021-02-23T17:39:40Z</time>
      </trkpt>
      <trkpt lat="40.4260640" lon="-3.7758470">
        <ele>668.9</ele>
        <time>2021-02-23T17:39:41Z</time>
      </trkpt>
      <trkpt lat="40.4260340" lon="-3.7759030">
        <ele>669.0</ele>
        <time>2021-02-23T17:39:42Z</time>
      </trkpt>
      <trkpt lat="40.4260210" lon="-3.7759250">
        <ele>669.0</ele>
        <time>2021-02-23T17:39:43Z</time>
      </trkpt>
      <trkpt lat="40.4260090" lon="-3.7759470">
        <ele>669.0</ele>
        <time>2021-02-23T17:39:44Z</time>
      </trkpt>
      <trkpt lat="40.4259810" lon="-3.7759960">
        <ele>669.0</ele>
        <time>2021-02-23T17:39:45Z</time>
      </trkpt>
      <trkpt lat="40.4259710" lon="-3.7760120">
        <ele>669.1</ele>
        <time>2021-02-23T17:39:46Z</time>
      </trkpt>
      <trkpt lat="40.4259400" lon="-3.7760650">
        <ele>669.1</ele>
        <time>2021-02-23T17:39:47Z</time>
      </trkpt>
      <trkpt lat="40.4259270" lon="-3.7760860">
        <ele>669.1</ele>
        <time>2021-02-23T17:39:48Z</time>
      </trkpt>
      <trkpt lat="40.4259150" lon="-3.7761070">
        <ele>669.1</ele>
        <time>2021-02-23T17:39:49Z</time>
      </trkpt>
      <trkpt lat="40.4258880" lon="-3.7761550">
        <ele>669.1</ele>
        <time>2021-02-23T17:39:50Z</time>
      </trkpt>
      <trkpt lat="40.4258790" lon="-3.7761700">
        <ele>669.1</ele>
        <time>2021-02-23T17:39:51Z</time>
      </trkpt>
      <trkpt lat="40.4258500" lon="-3.7762210">
        <ele>669.1</ele>
        <time>2021-02-23T17:39:52Z</time>
      </trkpt>
      <trkpt lat="40.4258390" lon="-3.7762410">
        <ele>669.0</ele>
        <time>2021-02-23T17:39:53Z</time>
      </trkpt>
      <trkpt lat="40.4258280" lon="-3.7762620">
        <ele>669.0</ele>
        <time>2021-02-23T17:39:54Z</time>
      </trkpt>
      <trkpt lat="40.4258050" lon="-3.7763090">
        <ele>669.0</ele>
        <time>2021-02-23T17:39:55Z</time>
      </trkpt>
      <trkpt lat="40.4257970" lon="-3.7763240">
        <ele>668.9</ele>
        <time>2021-02-23T17:39:56Z</time>
      </trkpt>
      <trkpt lat="40.4257730" lon="-3.7763760">
        <ele>668.8</ele>
        <time>2021-02-23T17:39:57Z</time>
      </trkpt>
      <trkpt lat="40.4257640" lon="-3.7763970">
        <ele>668.8</ele>
        <time>2021-02-23T17:39:58Z</time>
      </trkpt>
      <trkpt lat="40.4257550" lon="-3.7764180">
        <ele>668.8</ele>
        <time>2021-02-23T17:39:59Z</time>
      </trkpt>
      <trkpt lat="40.4257340" lon="-3.7764710">
        <ele>668.6</ele>
        <time>2021-02-23T17:40:00Z</time>
      </trkpt>
      <trkpt lat="40.4257260" lon="-3.7764920">
        <ele>668.6</ele>
        <time>2021-02-23T17:40:01Z</time>
      </trkpt>
      <trkpt lat="40.4257180" lon="-3.7765130">
        <ele>668.6</ele>
        <time>2021-02-23T17:40:02Z</time>
      </trkpt>
      <trkpt lat="40.4257020" lon="-3.7765600">
        <ele>668.5</ele>
        <time>2021-02-23T17:40:03Z</time>
      </trkpt>
      <trkpt lat="40.4256960" lon="-3.7765750">
        <ele>668.4</ele>
        <time>2021-02-23T17:40:04Z</time>
      </trkpt>
      <trkpt lat="40.4256780" lon="-3.7766270">
        <ele>668.4</ele>
        <time>2021-02-23T17:40:05Z</time>
      </trkpt>
      <trkpt lat="40.4256700" lon="-3.7766470">
        <ele>668.3</ele>
        <time>2021-02-23T17:40:06Z</time>
      </trkpt>
      <trkpt lat="40.4256630" lon="-3.7766680">
        <ele>668.3</ele>
        <time>2021-02-23T17:40:07Z</time>
      </trkpt>
      <trkpt lat="40.4256460" lon="-3.7767130">
        <ele>668.2</ele>
        <time>2021-02-23T17:40:08Z</time>
      </trkpt>
      <trkpt lat="40.4256400" lon="-3.7767280">
        <ele>668.2</ele>
        <time>2021-02-23T17:40:09Z</time>
      </trkpt>
      <trkpt lat="40.4256200" lon="-3.7767780">
        <ele>668.2</ele>
        <time>2021-02-23T17:40:10Z</time>
      </trkpt>
      <trkpt lat="40.4256110" lon="-3.7767980">
        <ele>668.2</ele>
        <time>2021-02-23T17:40:11Z</time>
      </trkpt>
      <trkpt lat="40.4256030" lon="-3.7768180">
        <ele>668.1</ele>
        <time>2021-02-23T17:40:12Z</time>
      </trkpt>
      <trkpt lat="40.4255820" lon="-3.7768630">
        <ele>668.1</ele>
        <time>2021-02-23T17:40:13Z</time>
      </trkpt>
      <trkpt lat="40.4255740" lon="-3.7768770">
        <ele>668.1</ele>
        <time>2021-02-23T17:40:14Z</time>
      </trkpt>
      <trkpt lat="40.4255480" lon="-3.7769270">
        <ele>668.1</ele>
        <time>2021-02-23T17:40:15Z</time>
      </trkpt>
      <trkpt lat="40.4255380" lon="-3.7769460">
        <ele>668.1</ele>
        <time>2021-02-23T17:40:16Z</time>
      </trkpt>
      <trkpt lat="40.4255270" lon="-3.7769660">
        <ele>668.1</ele>
        <time>2021-02-23T17:40:17Z</time>
      </trkpt>
      <trkpt lat="40.4254980" lon="-3.7770150">
        <ele>668.2</ele>
        <time>2021-02-23T17:40:18Z</time>
      </trkpt>
      <trkpt lat="40.4254870" lon="-3.7770340">
        <ele>668.2</ele>
        <time>2021-02-23T17:40:19Z</time>
      </trkpt>
      <trkpt lat="40.4254750" lon="-3.7770540">
        <ele>668.2</ele>
        <time>2021-02-23T17:40:20Z</time>
      </trkpt>
      <trkpt lat="40.4254480" lon="-3.7770980">
        <ele>668.3</ele>
        <time>2021-02-23T17:40:21Z</time>
      </trkpt>
      <trkpt lat="40.4254380" lon="-3.7771120">
        <ele>668.3</ele>
        <time>2021-02-23T17:40:22Z</time>
      </trkpt>
      <trkpt lat="40.4254080" lon="-3.7771600">
        <ele>668.4</ele>
        <time>2021-02-23T17:40:23Z</time>
      </trkpt>
      <trkpt lat="40.4253950" lon="-3.7771800">
        <ele>668.5</ele>
        <time>2021-02-23T17:40:24Z</time>
      </trkpt>
      <trkpt lat="40.4253830" lon="-3.7771990">
        <ele>668.5</ele>
        <time>2021-02-23T17:40:25Z</time>
      </trkpt>
      <trkpt lat="40.4253550" lon="-3.7772430">
        <ele>668.6</ele>
        <time>2021-02-23T17:40:26Z</time>
      </trkpt>
      <trkpt lat="40.4253450" lon="-3.7772570">
        <ele>668.7</ele>
        <time>2021-02-23T17:40:27Z</time>
      </trkpt>
      <trkpt lat="40.4253140" lon="-3.7773050">
        <ele>668.8</ele>
        <time>2021-02-23T17:40:28Z</time>
      </trkpt>
      <trkpt lat="40.4253020" lon="-3.7773240">
        <ele>668.8</ele>
        <time>2021-02-23T17:40:29Z</time>
      </trkpt>
      <trkpt lat="40.4252890" lon="-3.7773430">
        <ele>668.9</ele>
        <time>2021-02-23T17:40:30Z</time>
      </trkpt>
      <trkpt lat="40.4252610" lon="-3.7773860">
        <ele>669.0</ele>
        <time>2021-02-23T17:40:31Z</time>
      </trkpt>
      <trkpt lat="40.4252520" lon="-3.7774000">
        <ele>669.1</ele>
        <time>2021-02-23T17:40:32Z</time>
      </trkpt>
      <trkpt lat="40.4252200" lon="-3.7774470">
        <ele>669.2</ele>
        <time>2021-02-23T17:40:33Z</time>
      </trkpt>
      <trkpt lat="40.4252080" lon="-3.7774660">
        <ele>669.3</ele>
        <time>2021-02-23T17:40:34Z</time>
      </trkpt>
      <trkpt lat="40.4251950" lon="-3.7774850">
        <ele>669.3</ele>
        <time>2021-02-23T17:40:35Z</time>
      </trkpt>
      <trkpt lat="40.4251640" lon="-3.7775330">
        <ele>669.5</ele>
        <time>2021-02-23T17:40:36Z</time>
      </trkpt>
      <trkpt lat="40.4251520" lon="-3.7775510">
        <ele>669.5</ele>
        <time>2021-02-23T17:40:37Z</time>
      </trkpt>
      <trkpt lat="40.4251390" lon="-3.7775700">
        <ele>669.6</ele>
        <time>2021-02-23T17:40:38Z</time>
      </trkpt>
      <trkpt lat="40.4251110" lon="-3.7776120">
        <ele>669.8</ele>
        <time>2021-02-23T17:40:39Z</time>
      </trkpt>
      <trkpt lat="40.4251010" lon="-3.7776260">
        <ele>669.9</ele>
        <time>2021-02-23T17:40:40Z</time>
      </trkpt>
      <trkpt lat="40.4250690" lon="-3.7776720">
        <ele>670.1</ele>
        <time>2021-02-23T17:40:41Z</time>
      </trkpt>
      <trkpt lat="40.4250560" lon="-3.7776910">
        <ele>670.1</ele>
        <time>2021-02-23T17:40:42Z</time>
      </trkpt>
      <trkpt lat="40.4250430" lon="-3.7777090">
        <ele>670.2</ele>
        <time>2021-02-23T17:40:43Z</time>
      </trkpt>
      <trkpt lat="40.4250150" lon="-3.7777500">
        <ele>670.4</ele>
        <time>2021-02-23T17:40:44Z</time>
      </trkpt>
      <trkpt lat="40.4250050" lon="-3.7777630">
        <ele>670.5</ele>
        <time>2021-02-23T17:40:45Z</time>
      </trkpt>
      <trkpt lat="40.4249740" lon="-3.7778080">
        <ele>670.7</ele>
        <time>2021-02-23T17:40:46Z</time>
      </trkpt>
      <trkpt lat="40.4249620" lon="-3.7778250">
        <ele>670.8</ele>
        <time>2021-02-23T17:40:47Z</time>
      </trkpt>
      <trkpt lat="40.4249490" lon="-3.7778430">
        <ele>670.9</ele>
        <time>2021-02-23T17:40:48Z</time>
      </trkpt>
      <trkpt lat="40.4249210" lon="-3.7778820">
        <ele>671.1</ele>
        <time>2021-02-23T17:40:49Z</time>
      </trkpt>
      <trkpt lat="40.4249120" lon="-3.7778940">
        <ele>671.2</ele>
        <time>2021-02-23T17:40:50Z</time>
      </trkpt>
      <trkpt lat="40.4248810" lon="-3.7779370">
        <ele>671.4</ele>
        <time>2021-02-23T17:40:51Z</time>
      </trkpt>
      <trkpt lat="40.4248680" lon="-3.7779530">
        <ele>671.5</ele>
        <time>2021-02-23T17:40:52Z</time>
      </trkpt>
      <trkpt lat="40.4248560" lon="-3.7779700">
        <ele>671.5</ele>
        <time>2021-02-23T17:40:53Z</time>
      </trkpt>
      <trkpt lat="40.4248250" lon="-3.7780100">
        <ele>671.7</ele>
        <time>2021-02-23T17:40:54Z</time>
      </trkpt>
      <trkpt lat="40.4248130" lon="-3.7780270">
        <ele>671.8</ele>
        <time>2021-02-23T17:40:55Z</time>
      </trkpt>
      <trkpt lat="40.4248000" lon="-3.7780430">
        <ele>671.9</ele>
        <time>2021-02-23T17:40:56Z</time>
      </trkpt>
      <trkpt lat="40.4247720" lon="-3.7780780">
        <ele>672.0</ele>
        <time>2021-02-23T17:40:57Z</time>
      </trkpt>
      <trkpt lat="40.4247620" lon="-3.7780900">
        <ele>672.1</ele>
        <time>2021-02-23T17:40:58Z</time>
      </trkpt>
      <trkpt lat="40.4247300" lon="-3.7781280">
        <ele>672.3</ele>
        <time>2021-02-23T17:40:59Z</time>
      </trkpt>
      <trkpt lat="40.4247170" lon="-3.7781430">
        <ele>672.4</ele>
        <time>2021-02-23T17:41:00Z</time>
      </trkpt>
      <trkpt lat="40.4247040" lon="-3.7781580">
        <ele>672.4</ele>
        <time>2021-02-23T17:41:01Z</time>
      </trkpt>
      <trkpt lat="40.4246750" lon="-3.7781910">
        <ele>672.6</ele>
        <time>2021-02-23T17:41:02Z</time>
      </trkpt>
      <trkpt lat="40.4246650" lon="-3.7782020">
        <ele>672.6</ele>
        <time>2021-02-23T17:41:03Z</time>
      </trkpt>
      <trkpt lat="40.4246320" lon="-3.7782380">
        <ele>672.8</ele>
        <time>2021-02-23T17:41:04Z</time>
      </trkpt>
      <trkpt lat="40.4246190" lon="-3.7782530">
        <ele>672.9</ele>
        <time>2021-02-23T17:41:05Z</time>
      </trkpt>
      <trkpt lat="40.4246060" lon="-3.7782670">
        <ele>673.0</ele>
        <time>2021-02-23T17:41:06Z</time>
      </trkpt>
      <trkpt lat="40.4245770" lon="-3.7782990">
        <ele>673.1</ele>
        <time>2021-02-23T17:41:07Z</time>
      </trkpt>
      <trkpt lat="40.4245670" lon="-3.7783100">
        <ele>673.2</ele>
        <time>2021-02-23T17:41:08Z</time>
      </trkpt>
      <trkpt lat="40.4245350" lon="-3.7783470">
        <ele>673.3</ele>
        <time>2021-02-23T17:41:09Z</time>
      </trkpt>
      <trkpt lat="40.4245230" lon="-3.7783610">
        <ele>673.4</ele>
        <time>2021-02-23T17:41:10Z</time>
      </trkpt>
      <trkpt lat="40.4245100" lon="-3.7783760">
        <ele>673.5</ele>
        <time>2021-02-23T17:41:11Z</time>
      </trkpt>
      <trkpt lat="40.4244800" lon="-3.7784130">
        <ele>673.6</ele>
        <time>2021-02-23T17:41:12Z</time>
      </trkpt>
      <trkpt lat="40.4244680" lon="-3.7784290">
        <ele>673.7</ele>
        <time>2021-02-23T17:41:13Z</time>
      </trkpt>
      <trkpt lat="40.4244560" lon="-3.7784440">
        <ele>673.7</ele>
        <time>2021-02-23T17:41:14Z</time>
      </trkpt>
      <trkpt lat="40.4244290" lon="-3.7784790">
        <ele>673.8</ele>
        <time>2021-02-23T17:41:15Z</time>
      </trkpt>
      <trkpt lat="40.4244200" lon="-3.7784910">
        <ele>673.9</ele>
        <time>2021-02-23T17:41:16Z</time>
      </trkpt>
      <trkpt lat="40.4243920" lon="-3.7785300">
        <ele>674.0</ele>
        <time>2021-02-23T17:41:17Z</time>
      </trkpt>
      <trkpt lat="40.4243800" lon="-3.7785460">
        <ele>674.0</ele>
        <time>2021-02-23T17:41:18Z</time>
      </trkpt>
      <trkpt lat="40.4243690" lon="-3.7785620">
        <ele>674.0</ele>
        <time>2021-02-23T17:41:19Z</time>
      </trkpt>
      <trkpt lat="40.4243450" lon="-3.7785980">
        <ele>674.1</ele>
        <time>2021-02-23T17:41:20Z</time>
      </trkpt>
      <trkpt lat="40.4243360" lon="-3.7786100">
        <ele>674.1</ele>
        <time>2021-02-23T17:41:21Z</time>
      </trkpt>
      <trkpt lat="40.4243100" lon="-3.7786500">
        <ele>674.2</ele>
        <time>2021-02-23T17:41:22Z</time>
      </trkpt>
      <trkpt lat="40.4242990" lon="-3.7786650">
        <ele>674.3</ele>
        <time>2021-02-23T17:41:23Z</time>
      </trkpt>
      <trkpt lat="40.4242890" lon="-3.7786810">
        <ele>674.3</ele>
        <time>2021-02-23T17:41:24Z</time>
      </trkpt>
      <trkpt lat="40.4242670" lon="-3.7787160">
        <ele>674.4</ele>
        <time>2021-02-23T17:41:25Z</time>
      </trkpt>
      <trkpt lat="40.4242590" lon="-3.7787270">
        <ele>674.4</ele>
        <time>2021-02-23T17:41:26Z</time>
      </trkpt>
      <trkpt lat="40.4242340" lon="-3.7787640">
        <ele>674.6</ele>
        <time>2021-02-23T17:41:27Z</time>
      </trkpt>
      <trkpt lat="40.4242230" lon="-3.7787780">
        <ele>674.6</ele>
        <time>2021-02-23T17:41:28Z</time>
      </trkpt>
      <trkpt lat="40.4242130" lon="-3.7787930">
        <ele>674.6</ele>
        <time>2021-02-23T17:41:29Z</time>
      </trkpt>
      <trkpt lat="40.4241870" lon="-3.7788290">
        <ele>674.8</ele>
        <time>2021-02-23T17:41:30Z</time>
      </trkpt>
      <trkpt lat="40.4241770" lon="-3.7788430">
        <ele>674.8</ele>
        <time>2021-02-23T17:41:31Z</time>
      </trkpt>
      <trkpt lat="40.4241660" lon="-3.7788570">
        <ele>674.9</ele>
        <time>2021-02-23T17:41:32Z</time>
      </trkpt>
      <trkpt lat="40.4241420" lon="-3.7788870">
        <ele>675.0</ele>
        <time>2021-02-23T17:41:33Z</time>
      </trkpt>
      <trkpt lat="40.4241330" lon="-3.7788970">
        <ele>675.1</ele>
        <time>2021-02-23T17:41:34Z</time>
      </trkpt>
      <trkpt lat="40.4241030" lon="-3.7789280">
        <ele>675.2</ele>
        <time>2021-02-23T17:41:35Z</time>
      </trkpt>
      <trkpt lat="40.4240900" lon="-3.7789400">
        <ele>675.3</ele>
        <time>2021-02-23T17:41:36Z</time>
      </trkpt>
      <trkpt lat="40.4240780" lon="-3.7789520">
        <ele>675.4</ele>
        <time>2021-02-23T17:41:37Z</time>
      </trkpt>
      <trkpt lat="40.4240490" lon="-3.7789770">
        <ele>675.5</ele>
        <time>2021-02-23T17:41:38Z</time>
      </trkpt>
      <trkpt lat="40.4240390" lon="-3.7789850">
        <ele>675.6</ele>
        <time>2021-02-23T17:41:39Z</time>
      </trkpt>
      <trkpt lat="40.4240040" lon="-3.7790110">
        <ele>675.8</ele>
        <time>2021-02-23T17:41:40Z</time>
      </trkpt>
      <trkpt lat="40.4239900" lon="-3.7790210">
        <ele>675.8</ele>
        <time>2021-02-23T17:41:41Z</time>
      </trkpt>
      <trkpt lat="40.4239760" lon="-3.7790310">
        <ele>675.9</ele>
        <time>2021-02-23T17:41:42Z</time>
      </trkpt>
      <trkpt lat="40.4239430" lon="-3.7790530">
        <ele>676.1</ele>
        <time>2021-02-23T17:41:43Z</time>
      </trkpt>
      <trkpt lat="40.4239320" lon="-3.7790590">
        <ele>676.1</ele>
        <time>2021-02-23T17:41:44Z</time>
      </trkpt>
      <trkpt lat="40.4238950" lon="-3.7790800">
        <ele>676.3</ele>
        <time>2021-02-23T17:41:45Z</time>
      </trkpt>
      <trkpt lat="40.4238810" lon="-3.7790890">
        <ele>676.4</ele>
        <time>2021-02-23T17:41:46Z</time>
      </trkpt>
      <trkpt lat="40.4238660" lon="-3.7790970">
        <ele>676.5</ele>
        <time>2021-02-23T17:41:47Z</time>
      </trkpt>
      <trkpt lat="40.4238280" lon="-3.7791170">
        <ele>676.7</ele>
        <time>2021-02-23T17:41:48Z</time>
      </trkpt>
      <trkpt lat="40.4238130" lon="-3.7791240">
        <ele>676.8</ele>
        <time>2021-02-23T17:41:49Z</time>
      </trkpt>
      <trkpt lat="40.4237980" lon="-3.7791320">
        <ele>676.8</ele>
        <time>2021-02-23T17:41:50Z</time>
      </trkpt>
      <trkpt lat="40.4237650" lon="-3.7791470">
        <ele>677.0</ele>
        <time>2021-02-23T17:41:51Z</time>
      </trkpt>
      <trkpt lat="40.4237530" lon="-3.7791520">
        <ele>677.1</ele>
        <time>2021-02-23T17:41:52Z</time>
      </trkpt>
      <trkpt lat="40.4237160" lon="-3.7791680">
        <ele>677.3</ele>
        <time>2021-02-23T17:41:53Z</time>
      </trkpt>
      <trkpt lat="40.4237010" lon="-3.7791750">
        <ele>677.3</ele>
        <time>2021-02-23T17:41:54Z</time>
      </trkpt>
      <trkpt lat="40.4236860" lon="-3.7791810">
        <ele>677.4</ele>
        <time>2021-02-23T17:41:55Z</time>
      </trkpt>
      <trkpt lat="40.4236530" lon="-3.7791940">
        <ele>677.6</ele>
        <time>2021-02-23T17:41:56Z</time>
      </trkpt>
      <trkpt lat="40.4236420" lon="-3.7791980">
        <ele>677.6</ele>
        <time>2021-02-23T17:41:57Z</time>
      </trkpt>
      <trkpt lat="40.4236040" lon="-3.7792130">
        <ele>677.8</ele>
        <time>2021-02-23T17:41:58Z</time>
      </trkpt>
      <trkpt lat="40.4235890" lon="-3.7792180">
        <ele>677.9</ele>
        <time>2021-02-23T17:41:59Z</time>
      </trkpt>
      <trkpt lat="40.4235740" lon="-3.7792240">
        <ele>678.0</ele>
        <time>2021-02-23T17:42:00Z</time>
      </trkpt>
      <trkpt lat="40.4235410" lon="-3.7792380">
        <ele>678.2</ele>
        <time>2021-02-23T17:42:01Z</time>
      </trkpt>
      <trkpt lat="40.4235300" lon="-3.7792420">
        <ele>678.3</ele>
        <time>2021-02-23T17:42:02Z</time>
      </trkpt>
      <trkpt lat="40.4234920" lon="-3.7792570">
        <ele>678.5</ele>
        <time>2021-02-23T17:42:03Z</time>
      </trkpt>
      <trkpt lat="40.4234770" lon="-3.7792640">
        <ele>678.6</ele>
        <time>2021-02-23T17:42:04Z</time>
      </trkpt>
      <trkpt lat="40.4234620" lon="-3.7792700">
        <ele>678.7</ele>
        <time>2021-02-23T17:42:05Z</time>
      </trkpt>
      <trkpt lat="40.4234250" lon="-3.7792860">
        <ele>678.9</ele>
        <time>2021-02-23T17:42:06Z</time>
      </trkpt>
      <trkpt lat="40.4234100" lon="-3.7792920">
        <ele>679.0</ele>
        <time>2021-02-23T17:42:07Z</time>
      </trkpt>
      <trkpt lat="40.4233950" lon="-3.7792990">
        <ele>679.1</ele>
        <time>2021-02-23T17:42:08Z</time>
      </trkpt>
      <trkpt lat="40.4233620" lon="-3.7793140">
        <ele>679.3</ele>
        <time>2021-02-23T17:42:09Z</time>
      </trkpt>
      <trkpt lat="40.4233510" lon="-3.7793190">
        <ele>679.4</ele>
        <time>2021-02-23T17:42:10Z</time>
      </trkpt>
      <trkpt lat="40.4233140" lon="-3.7793370">
        <ele>679.7</ele>
        <time>2021-02-23T17:42:11Z</time>
      </trkpt>
      <trkpt lat="40.4233000" lon="-3.7793440">
        <ele>679.8</ele>
        <time>2021-02-23T17:42:12Z</time>
      </trkpt>
      <trkpt lat="40.4232850" lon="-3.7793510">
        <ele>679.9</ele>
        <time>2021-02-23T17:42:13Z</time>
      </trkpt>
      <trkpt lat="40.4232520" lon="-3.7793690">
        <ele>680.1</ele>
        <time>2021-02-23T17:42:14Z</time>
      </trkpt>
      <trkpt lat="40.4232410" lon="-3.7793740">
        <ele>680.2</ele>
        <time>2021-02-23T17:42:15Z</time>
      </trkpt>
      <trkpt lat="40.4232040" lon="-3.7793930">
        <ele>680.5</ele>
        <time>2021-02-23T17:42:16Z</time>
      </trkpt>
      <trkpt lat="40.4231900" lon="-3.7794000">
        <ele>680.7</ele>
        <time>2021-02-23T17:42:17Z</time>
      </trkpt>
      <trkpt lat="40.4231750" lon="-3.7794080">
        <ele>680.8</ele>
        <time>2021-02-23T17:42:18Z</time>
      </trkpt>
      <trkpt lat="40.4231420" lon="-3.7794260">
        <ele>681.1</ele>
        <time>2021-02-23T17:42:19Z</time>
      </trkpt>
      <trkpt lat="40.4231300" lon="-3.7794310">
        <ele>681.2</ele>
        <time>2021-02-23T17:42:20Z</time>
      </trkpt>
      <trkpt lat="40.4230930" lon="-3.7794510">
        <ele>681.5</ele>
        <time>2021-02-23T17:42:21Z</time>
      </trkpt>
      <trkpt lat="40.4230790" lon="-3.7794580">
        <ele>681.7</ele>
        <time>2021-02-23T17:42:22Z</time>
      </trkpt>
      <trkpt lat="40.4230640" lon="-3.7794660">
        <ele>681.8</ele>
        <time>2021-02-23T17:42:23Z</time>
      </trkpt>
      <trkpt lat="40.4230270" lon="-3.7794850">
        <ele>682.2</ele>
        <time>2021-02-23T17:42:24Z</time>
      </trkpt>
      <trkpt lat="40.4230130" lon="-3.7794930">
        <ele>682.3</ele>
        <time>2021-02-23T17:42:25Z</time>
      </trkpt>
      <trkpt lat="40.4229980" lon="-3.7795010">
        <ele>682.5</ele>
        <time>2021-02-23T17:42:26Z</time>
      </trkpt>
      <trkpt lat="40.4229660" lon="-3.7795190">
        <ele>682.8</ele>
        <time>2021-02-23T17:42:27Z</time>
      </trkpt>
      <trkpt lat="40.4229550" lon="-3.7795250">
        <ele>682.9</ele>
        <time>2021-02-23T17:42:28Z</time>
      </trkpt>
      <trkpt lat="40.4229210" lon="-3.7795450">
        <ele>683.3</ele>
        <time>2021-02-23T17:42:29Z</time>
      </trkpt>
      <trkpt lat="40.4229080" lon="-3.7795540">
        <ele>683.5</ele>
        <time>2021-02-23T17:42:30Z</time>
      </trkpt>
      <trkpt lat="40.4228940" lon="-3.7795620">
        <ele>683.6</ele>
        <time>2021-02-23T17:42:31Z</time>
      </trkpt>
      <trkpt lat="40.4228640" lon="-3.7795820">
        <ele>684.0</ele>
        <time>2021-02-23T17:42:32Z</time>
      </trkpt>
      <trkpt lat="40.4228540" lon="-3.7795890">
        <ele>684.1</ele>
        <time>2021-02-23T17:42:33Z</time>
      </trkpt>
      <trkpt lat="40.4228220" lon="-3.7796120">
        <ele>684.5</ele>
        <time>2021-02-23T17:42:34Z</time>
      </trkpt>
      <trkpt lat="40.4228100" lon="-3.7796220">
        <ele>684.6</ele>
        <time>2021-02-23T17:42:35Z</time>
      </trkpt>
      <trkpt lat="40.4227970" lon="-3.7796310">
        <ele>684.7</ele>
        <time>2021-02-23T17:42:36Z</time>
      </trkpt>
      <trkpt lat="40.4227700" lon="-3.7796530">
        <ele>685.0</ele>
        <time>2021-02-23T17:42:37Z</time>
      </trkpt>
      <trkpt lat="40.4227610" lon="-3.7796600">
        <ele>685.1</ele>
        <time>2021-02-23T17:42:38Z</time>
      </trkpt>
      <trkpt lat="40.4227300" lon="-3.7796850">
        <ele>685.5</ele>
        <time>2021-02-23T17:42:39Z</time>
      </trkpt>
      <trkpt lat="40.4227180" lon="-3.7796950">
        <ele>685.6</ele>
        <time>2021-02-23T17:42:40Z</time>
      </trkpt>
      <trkpt lat="40.4227060" lon="-3.7797050">
        <ele>685.7</ele>
        <time>2021-02-23T17:42:41Z</time>
      </trkpt>
      <trkpt lat="40.4226760" lon="-3.7797300">
        <ele>686.1</ele>
        <time>2021-02-23T17:42:42Z</time>
      </trkpt>
      <trkpt lat="40.4226630" lon="-3.7797400">
        <ele>686.2</ele>
        <time>2021-02-23T17:42:43Z</time>
      </trkpt>
      <trkpt lat="40.4226510" lon="-3.7797500">
        <ele>686.3</ele>
        <time>2021-02-23T17:42:44Z</time>
      </trkpt>
      <trkpt lat="40.4226240" lon="-3.7797740">
        <ele>686.6</ele>
        <time>2021-02-23T17:42:45Z</time>
      </trkpt>
      <trkpt lat="40.4226140" lon="-3.7797810">
        <ele>686.7</ele>
        <time>2021-02-23T17:42:46Z</time>
      </trkpt>
      <trkpt lat="40.4225820" lon="-3.7798050">
        <ele>687.1</ele>
        <time>2021-02-23T17:42:47Z</time>
      </trkpt>
      <trkpt lat="40.4225690" lon="-3.7798140">
        <ele>687.2</ele>
        <time>2021-02-23T17:42:48Z</time>
      </trkpt>
      <trkpt lat="40.4225560" lon="-3.7798240">
        <ele>687.3</ele>
        <time>2021-02-23T17:42:49Z</time>
      </trkpt>
      <trkpt lat="40.4225260" lon="-3.7798450">
        <ele>687.7</ele>
        <time>2021-02-23T17:42:50Z</time>
      </trkpt>
      <trkpt lat="40.4225160" lon="-3.7798520">
        <ele>687.8</ele>
        <time>2021-02-23T17:42:51Z</time>
      </trkpt>
      <trkpt lat="40.4224820" lon="-3.7798730">
        <ele>688.1</ele>
        <time>2021-02-23T17:42:52Z</time>
      </trkpt>
      <trkpt lat="40.4224690" lon="-3.7798800">
        <ele>688.2</ele>
        <time>2021-02-23T17:42:53Z</time>
      </trkpt>
      <trkpt lat="40.4224550" lon="-3.7798880">
        <ele>688.4</ele>
        <time>2021-02-23T17:42:54Z</time>
      </trkpt>
      <trkpt lat="40.4224250" lon="-3.7799030">
        <ele>688.7</ele>
        <time>2021-02-23T17:42:55Z</time>
      </trkpt>
      <trkpt lat="40.4224140" lon="-3.7799070">
        <ele>688.8</ele>
        <time>2021-02-23T17:42:56Z</time>
      </trkpt>
      <trkpt lat="40.4223800" lon="-3.7799200">
        <ele>689.2</ele>
        <time>2021-02-23T17:42:57Z</time>
      </trkpt>
      <trkpt lat="40.4223650" lon="-3.7799250">
        <ele>689.3</ele>
        <time>2021-02-23T17:42:58Z</time>
      </trkpt>
      <trkpt lat="40.4223510" lon="-3.7799290">
        <ele>689.5</ele>
        <time>2021-02-23T17:42:59Z</time>
      </trkpt>
      <trkpt lat="40.4223150" lon="-3.7799370">
        <ele>689.8</ele>
        <time>2021-02-23T17:43:00Z</time>
      </trkpt>
      <trkpt lat="40.4223010" lon="-3.7799390">
        <ele>690.0</ele>
        <time>2021-02-23T17:43:01Z</time>
      </trkpt>
      <trkpt lat="40.4222860" lon="-3.7799420">
        <ele>690.1</ele>
        <time>2021-02-23T17:43:02Z</time>
      </trkpt>
      <trkpt lat="40.4222520" lon="-3.7799460">
        <ele>690.4</ele>
        <time>2021-02-23T17:43:03Z</time>
      </trkpt>
      <trkpt lat="40.4222400" lon="-3.7799470">
        <ele>690.5</ele>
        <time>2021-02-23T17:43:04Z</time>
      </trkpt>
      <trkpt lat="40.4222010" lon="-3.7799490">
        <ele>690.9</ele>
        <time>2021-02-23T17:43:05Z</time>
      </trkpt>
      <trkpt lat="40.4221860" lon="-3.7799510">
        <ele>691.0</ele>
        <time>2021-02-23T17:43:06Z</time>
      </trkpt>
      <trkpt lat="40.4221700" lon="-3.7799520">
        <ele>691.2</ele>
        <time>2021-02-23T17:43:07Z</time>
      </trkpt>
      <trkpt lat="40.4221330" lon="-3.7799540">
        <ele>691.5</ele>
        <time>2021-02-23T17:43:08Z</time>
      </trkpt>
      <trkpt lat="40.4221210" lon="-3.7799550">
        <ele>691.6</ele>
        <time>2021-02-23T17:43:09Z</time>
      </trkpt>
      <trkpt lat="40.4220810" lon="-3.7799600">
        <ele>691.9</ele>
        <time>2021-02-23T17:43:10Z</time>
      </trkpt>
      <trkpt lat="40.4220640" lon="-3.7799620">
        <ele>692.0</ele>
        <time>2021-02-23T17:43:11Z</time>
      </trkpt>
      <trkpt lat="40.4220480" lon="-3.7799640">
        <ele>692.2</ele>
        <time>2021-02-23T17:43:12Z</time>
      </trkpt>
      <trkpt lat="40.4220110" lon="-3.7799720">
        <ele>692.5</ele>
        <time>2021-02-23T17:43:13Z</time>
      </trkpt>
      <trkpt lat="40.4219990" lon="-3.7799740">
        <ele>692.6</ele>
        <time>2021-02-23T17:43:14Z</time>
      </trkpt>
      <trkpt lat="40.4219590" lon="-3.7799850">
        <ele>692.9</ele>
        <time>2021-02-23T17:43:15Z</time>
      </trkpt>
      <trkpt lat="40.4219440" lon="-3.7799890">
        <ele>693.0</ele>
        <time>2021-02-23T17:43:16Z</time>
      </trkpt>
      <trkpt lat="40.4219280" lon="-3.7799940">
        <ele>693.1</ele>
        <time>2021-02-23T17:43:17Z</time>
      </trkpt>
      <trkpt lat="40.4218890" lon="-3.7800090">
        <ele>693.4</ele>
        <time>2021-02-23T17:43:18Z</time>
      </trkpt>
      <trkpt lat="40.4218740" lon="-3.7800160">
        <ele>693.5</ele>
        <time>2021-02-23T17:43:19Z</time>
      </trkpt>
      <trkpt lat="40.4218590" lon="-3.7800220">
        <ele>693.6</ele>
        <time>2021-02-23T17:43:20Z</time>
      </trkpt>
      <trkpt lat="40.4218260" lon="-3.7800380">
        <ele>693.8</ele>
        <time>2021-02-23T17:43:21Z</time>
      </trkpt>
      <trkpt lat="40.4218150" lon="-3.7800440">
        <ele>693.9</ele>
        <time>2021-02-23T17:43:22Z</time>
      </trkpt>
      <trkpt lat="40.4217790" lon="-3.7800650">
        <ele>694.1</ele>
        <time>2021-02-23T17:43:23Z</time>
      </trkpt>
      <trkpt lat="40.4217640" lon="-3.7800730">
        <ele>694.1</ele>
        <time>2021-02-23T17:43:24Z</time>
      </trkpt>
      <trkpt lat="40.4217500" lon="-3.7800820">
        <ele>694.1</ele>
        <time>2021-02-23T17:43:25Z</time>
      </trkpt>
      <trkpt lat="40.4217180" lon="-3.7801020">
        <ele>694.1</ele>
        <time>2021-02-23T17:43:26Z</time>
      </trkpt>
      <trkpt lat="40.4217070" lon="-3.7801090">
        <ele>694.1</ele>
        <time>2021-02-23T17:43:27Z</time>
      </trkpt>
      <trkpt lat="40.4216700" lon="-3.7801330">
        <ele>694.1</ele>
        <time>2021-02-23T17:43:28Z</time>
      </trkpt>
      <trkpt lat="40.4216550" lon="-3.7801420">
        <ele>694.1</ele>
        <time>2021-02-23T17:43:29Z</time>
      </trkpt>
      <trkpt lat="40.4216400" lon="-3.7801520">
        <ele>694.1</ele>
        <time>2021-02-23T17:43:30Z</time>
      </trkpt>
      <trkpt lat="40.4216060" lon="-3.7801730">
        <ele>694.1</ele>
        <time>2021-02-23T17:43:31Z</time>
      </trkpt>
      <trkpt lat="40.4215940" lon="-3.7801800">
        <ele>694.1</ele>
        <time>2021-02-23T17:43:32Z</time>
      </trkpt>
      <trkpt lat="40.4215540" lon="-3.7802010">
        <ele>694.0</ele>
        <time>2021-02-23T17:43:33Z</time>
      </trkpt>
      <trkpt lat="40.4215380" lon="-3.7802100">
        <ele>693.9</ele>
        <time>2021-02-23T17:43:34Z</time>
      </trkpt>
      <trkpt lat="40.4215220" lon="-3.7802180">
        <ele>693.9</ele>
        <time>2021-02-23T17:43:35Z</time>
      </trkpt>
      <trkpt lat="40.4214800" lon="-3.7802360">
        <ele>693.7</ele>
        <time>2021-02-23T17:43:36Z</time>
      </trkpt>
      <trkpt lat="40.4214630" lon="-3.7802420">
        <ele>693.7</ele>
        <time>2021-02-23T17:43:37Z</time>
      </trkpt>
      <trkpt lat="40.4214460" lon="-3.7802490">
        <ele>693.6</ele>
        <time>2021-02-23T17:43:38Z</time>
      </trkpt>
      <trkpt lat="40.4214070" lon="-3.7802620">
        <ele>693.5</ele>
        <time>2021-02-23T17:43:39Z</time>
      </trkpt>
      <trkpt lat="40.4213940" lon="-3.7802660">
        <ele>693.4</ele>
        <time>2021-02-23T17:43:40Z</time>
      </trkpt>
      <trkpt lat="40.4213500" lon="-3.7802770">
        <ele>693.2</ele>
        <time>2021-02-23T17:43:41Z</time>
      </trkpt>
      <trkpt lat="40.4213320" lon="-3.7802800">
        <ele>693.1</ele>
        <time>2021-02-23T17:43:42Z</time>
      </trkpt>
      <trkpt lat="40.4213140" lon="-3.7802840">
        <ele>693.0</ele>
        <time>2021-02-23T17:43:43Z</time>
      </trkpt>
      <trkpt lat="40.4212720" lon="-3.7802910">
        <ele>692.8</ele>
        <time>2021-02-23T17:43:44Z</time>
      </trkpt>
      <trkpt lat="40.4212580" lon="-3.7802930">
        <ele>692.7</ele>
        <time>2021-02-23T17:43:45Z</time>
      </trkpt>
      <trkpt lat="40.4212120" lon="-3.7802990">
        <ele>692.4</ele>
        <time>2021-02-23T17:43:46Z</time>
      </trkpt>
      <trkpt lat="40.4211930" lon="-3.7803020">
        <ele>692.3</ele>
        <time>2021-02-23T17:43:47Z</time>
      </trkpt>
      <trkpt lat="40.4211740" lon="-3.7803040">
        <ele>692.2</ele>
        <time>2021-02-23T17:43:48Z</time>
      </trkpt>
      <trkpt lat="40.4211310" lon="-3.7803090">
        <ele>691.9</ele>
        <time>2021-02-23T17:43:49Z</time>
      </trkpt>
      <trkpt lat="40.4211170" lon="-3.7803100">
        <ele>691.8</ele>
        <time>2021-02-23T17:43:50Z</time>
      </trkpt>
      <trkpt lat="40.4210680" lon="-3.7803150">
        <ele>691.5</ele>
        <time>2021-02-23T17:43:51Z</time>
      </trkpt>
      <trkpt lat="40.4210480" lon="-3.7803180">
        <ele>691.4</ele>
        <time>2021-02-23T17:43:52Z</time>
      </trkpt>
      <trkpt lat="40.4210290" lon="-3.7803200">
        <ele>691.3</ele>
        <time>2021-02-23T17:43:53Z</time>
      </trkpt>
      <trkpt lat="40.4209790" lon="-3.7803260">
        <ele>690.9</ele>
        <time>2021-02-23T17:43:54Z</time>
      </trkpt>
      <trkpt lat="40.4209600" lon="-3.7803280">
        <ele>690.8</ele>
        <time>2021-02-23T17:43:55Z</time>
      </trkpt>
      <trkpt lat="40.4209400" lon="-3.7803310">
        <ele>690.6</ele>
        <time>2021-02-23T17:43:56Z</time>
      </trkpt>
      <trkpt lat="40.4208960" lon="-3.7803380">
        <ele>690.3</ele>
        <time>2021-02-23T17:43:57Z</time>
      </trkpt>
      <trkpt lat="40.4208810" lon="-3.7803400">
        <ele>690.1</ele>
        <time>2021-02-23T17:43:58Z</time>
      </trkpt>
      <trkpt lat="40.4208320" lon="-3.7803470">
        <ele>689.8</ele>
        <time>2021-02-23T17:43:59Z</time>
      </trkpt>
      <trkpt lat="40.4208130" lon="-3.7803510">
        <ele>689.6</ele>
        <time>2021-02-23T17:44:00Z</time>
      </trkpt>
      <trkpt lat="40.4207930" lon="-3.7803540">
        <ele>689.4</ele>
        <time>2021-02-23T17:44:01Z</time>
      </trkpt>
      <trkpt lat="40.4207490" lon="-3.7803620">
        <ele>689.1</ele>
        <time>2021-02-23T17:44:02Z</time>
      </trkpt>
      <trkpt lat="40.4207340" lon="-3.7803650">
        <ele>689.0</ele>
        <time>2021-02-23T17:44:03Z</time>
      </trkpt>
      <trkpt lat="40.4206860" lon="-3.7803740">
        <ele>688.6</ele>
        <time>2021-02-23T17:44:04Z</time>
      </trkpt>
      <trkpt lat="40.4206670" lon="-3.7803770">
        <ele>688.5</ele>
        <time>2021-02-23T17:44:05Z</time>
      </trkpt>
      <trkpt lat="40.4206480" lon="-3.7803810">
        <ele>688.3</ele>
        <time>2021-02-23T17:44:06Z</time>
      </trkpt>
      <trkpt lat="40.4206050" lon="-3.7803900">
        <ele>688.0</ele>
        <time>2021-02-23T17:44:07Z</time>
      </trkpt>
      <trkpt lat="40.4205900" lon="-3.7803920">
        <ele>687.9</ele>
        <time>2021-02-23T17:44:08Z</time>
      </trkpt>
      <trkpt lat="40.4205430" lon="-3.7804010">
        <ele>687.5</ele>
        <time>2021-02-23T17:44:09Z</time>
      </trkpt>
      <trkpt lat="40.4205230" lon="-3.7804050">
        <ele>687.4</ele>
        <time>2021-02-23T17:44:10Z</time>
      </trkpt>
      <trkpt lat="40.4205040" lon="-3.7804080">
        <ele>687.2</ele>
        <time>2021-02-23T17:44:11Z</time>
      </trkpt>
      <trkpt lat="40.4204560" lon="-3.7804170">
        <ele>686.9</ele>
        <time>2021-02-23T17:44:12Z</time>
      </trkpt>
      <trkpt lat="40.4204360" lon="-3.7804210">
        <ele>686.7</ele>
        <time>2021-02-23T17:44:13Z</time>
      </trkpt>
      <trkpt lat="40.4204170" lon="-3.7804240">
        <ele>686.6</ele>
        <time>2021-02-23T17:44:14Z</time>
      </trkpt>
      <trkpt lat="40.4203730" lon="-3.7804320">
        <ele>686.3</ele>
        <time>2021-02-23T17:44:15Z</time>
      </trkpt>
      <trkpt lat="40.4203580" lon="-3.7804350">
        <ele>686.2</ele>
        <time>2021-02-23T17:44:16Z</time>
      </trkpt>
      <trkpt lat="40.4203100" lon="-3.7804440">
        <ele>685.8</ele>
        <time>2021-02-23T17:44:17Z</time>
      </trkpt>
      <trkpt lat="40.4202900" lon="-3.7804480">
        <ele>685.7</ele>
        <time>2021-02-23T17:44:18Z</time>
      </trkpt>
      <trkpt lat="40.4202710" lon="-3.7804520">
        <ele>685.5</ele>
        <time>2021-02-23T17:44:19Z</time>
      </trkpt>
      <trkpt lat="40.4202270" lon="-3.7804620">
        <ele>685.2</ele>
        <time>2021-02-23T17:44:20Z</time>
      </trkpt>
      <trkpt lat="40.4202130" lon="-3.7804650">
        <ele>685.1</ele>
        <time>2021-02-23T17:44:21Z</time>
      </trkpt>
      <trkpt lat="40.4201650" lon="-3.7804780">
        <ele>684.8</ele>
        <time>2021-02-23T17:44:22Z</time>
      </trkpt>
      <trkpt lat="40.4201460" lon="-3.7804830">
        <ele>684.6</ele>
        <time>2021-02-23T17:44:23Z</time>
      </trkpt>
      <trkpt lat="40.4201270" lon="-3.7804890">
        <ele>684.5</ele>
        <time>2021-02-23T17:44:24Z</time>
      </trkpt>
      <trkpt lat="40.4200850" lon="-3.7805040">
        <ele>684.2</ele>
        <time>2021-02-23T17:44:25Z</time>
      </trkpt>
      <trkpt lat="40.4200710" lon="-3.7805090">
        <ele>684.0</ele>
        <time>2021-02-23T17:44:26Z</time>
      </trkpt>
      <trkpt lat="40.4200260" lon="-3.7805280">
        <ele>683.7</ele>
        <time>2021-02-23T17:44:27Z</time>
      </trkpt>
      <trkpt lat="40.4200070" lon="-3.7805370">
        <ele>683.6</ele>
        <time>2021-02-23T17:44:28Z</time>
      </trkpt>
      <trkpt lat="40.4199890" lon="-3.7805450">
        <ele>683.4</ele>
        <time>2021-02-23T17:44:29Z</time>
      </trkpt>
      <trkpt lat="40.4199440" lon="-3.7805680">
        <ele>683.1</ele>
        <time>2021-02-23T17:44:30Z</time>
      </trkpt>
      <trkpt lat="40.4199270" lon="-3.7805770">
        <ele>683.0</ele>
        <time>2021-02-23T17:44:31Z</time>
      </trkpt>
      <trkpt lat="40.4199090" lon="-3.7805870">
        <ele>682.8</ele>
        <time>2021-02-23T17:44:32Z</time>
      </trkpt>
      <trkpt lat="40.4198700" lon="-3.7806100">
        <ele>682.6</ele>
        <time>2021-02-23T17:44:33Z</time>
      </trkpt>
      <trkpt lat="40.4198570" lon="-3.7806180">
        <ele>682.5</ele>
        <time>2021-02-23T17:44:34Z</time>
      </trkpt>
      <trkpt lat="40.4198140" lon="-3.7806430">
        <ele>682.2</ele>
        <time>2021-02-23T17:44:35Z</time>
      </trkpt>
      <trkpt lat="40.4197960" lon="-3.7806520">
        <ele>682.1</ele>
        <time>2021-02-23T17:44:36Z</time>
      </trkpt>
      <trkpt lat="40.4197790" lon="-3.7806620">
        <ele>682.0</ele>
        <time>2021-02-23T17:44:37Z</time>
      </trkpt>
      <trkpt lat="40.4197400" lon="-3.7806830">
        <ele>681.8</ele>
        <time>2021-02-23T17:44:38Z</time>
      </trkpt>
      <trkpt lat="40.4197270" lon="-3.7806900">
        <ele>681.7</ele>
        <time>2021-02-23T17:44:39Z</time>
      </trkpt>
      <trkpt lat="40.4196830" lon="-3.7807100">
        <ele>681.6</ele>
        <time>2021-02-23T17:44:40Z</time>
      </trkpt>
      <trkpt lat="40.4196660" lon="-3.7807170">
        <ele>681.5</ele>
        <time>2021-02-23T17:44:41Z</time>
      </trkpt>
      <trkpt lat="40.4196480" lon="-3.7807250">
        <ele>681.5</ele>
        <time>2021-02-23T17:44:42Z</time>
      </trkpt>
      <trkpt lat="40.4196080" lon="-3.7807390">
        <ele>681.4</ele>
        <time>2021-02-23T17:44:43Z</time>
      </trkpt>
      <trkpt lat="40.4195940" lon="-3.7807430">
        <ele>681.3</ele>
        <time>2021-02-23T17:44:44Z</time>
      </trkpt>
      <trkpt lat="40.4195480" lon="-3.7807550">
        <ele>681.2</ele>
        <time>2021-02-23T17:44:45Z</time>
      </trkpt>
      <trkpt lat="40.4195290" lon="-3.7807590">
        <ele>681.2</ele>
        <time>2021-02-23T17:44:46Z</time>
      </trkpt>
      <trkpt lat="40.4195110" lon="-3.7807630">
        <ele>681.2</ele>
        <time>2021-02-23T17:44:47Z</time>
      </trkpt>
      <trkpt lat="40.4194630" lon="-3.7807680">
        <ele>681.1</ele>
        <time>2021-02-23T17:44:48Z</time>
      </trkpt>
      <trkpt lat="40.4194450" lon="-3.7807700">
        <ele>681.1</ele>
        <time>2021-02-23T17:44:49Z</time>
      </trkpt>
      <trkpt lat="40.4194260" lon="-3.7807710">
        <ele>681.1</ele>
        <time>2021-02-23T17:44:50Z</time>
      </trkpt>
      <trkpt lat="40.4193840" lon="-3.7807710">
        <ele>681.1</ele>
        <time>2021-02-23T17:44:51Z</time>
      </trkpt>
      <trkpt lat="40.4193690" lon="-3.7807710">
        <ele>681.1</ele>
        <time>2021-02-23T17:44:52Z</time>
      </trkpt>
      <trkpt lat="40.4193220" lon="-3.7807670">
        <ele>681.1</ele>
        <time>2021-02-23T17:44:53Z</time>
      </trkpt>
      <trkpt lat="40.4193040" lon="-3.7807640">
        <ele>681.1</ele>
        <time>2021-02-23T17:44:54Z</time>
      </trkpt>
      <trkpt lat="40.4192850" lon="-3.7807620">
        <ele>681.1</ele>
        <time>2021-02-23T17:44:55Z</time>
      </trkpt>
      <trkpt lat="40.4192440" lon="-3.7807520">
        <ele>681.0</ele>
        <time>2021-02-23T17:44:56Z</time>
      </trkpt>
      <trkpt lat="40.4192300" lon="-3.7807490">
        <ele>681.0</ele>
        <time>2021-02-23T17:44:57Z</time>
      </trkpt>
      <trkpt lat="40.4191860" lon="-3.7807350">
        <ele>681.0</ele>
        <time>2021-02-23T17:44:58Z</time>
      </trkpt>
      <trkpt lat="40.4191680" lon="-3.7807290">
        <ele>681.0</ele>
        <time>2021-02-23T17:44:59Z</time>
      </trkpt>
      <trkpt lat="40.4191510" lon="-3.7807230">
        <ele>681.0</ele>
        <time>2021-02-23T17:45:00Z</time>
      </trkpt>
      <trkpt lat="40.4191120" lon="-3.7807060">
        <ele>681.0</ele>
        <time>2021-02-23T17:45:01Z</time>
      </trkpt>
      <trkpt lat="40.4190990" lon="-3.7807000">
        <ele>681.0</ele>
        <time>2021-02-23T17:45:02Z</time>
      </trkpt>
      <trkpt lat="40.4190560" lon="-3.7806790">
        <ele>681.0</ele>
        <time>2021-02-23T17:45:03Z</time>
      </trkpt>
      <trkpt lat="40.4190390" lon="-3.7806700">
        <ele>681.0</ele>
        <time>2021-02-23T17:45:04Z</time>
      </trkpt>
      <trkpt lat="40.4190220" lon="-3.7806610">
        <ele>681.0</ele>
        <time>2021-02-23T17:45:05Z</time>
      </trkpt>
      <trkpt lat="40.4189800" lon="-3.7806370">
        <ele>680.9</ele>
        <time>2021-02-23T17:45:06Z</time>
      </trkpt>
      <trkpt lat="40.4189630" lon="-3.7806260">
        <ele>680.9</ele>
        <time>2021-02-23T17:45:07Z</time>
      </trkpt>
      <trkpt lat="40.4189460" lon="-3.7806160">
        <ele>680.9</ele>
        <time>2021-02-23T17:45:08Z</time>
      </trkpt>
      <trkpt lat="40.4189070" lon="-3.7805930">
        <ele>680.9</ele>
        <time>2021-02-23T17:45:09Z</time>
      </trkpt>
      <trkpt lat="40.4188940" lon="-3.7805850">
        <ele>680.9</ele>
        <time>2021-02-23T17:45:10Z</time>
      </trkpt>
      <trkpt lat="40.4188500" lon="-3.7805570">
        <ele>680.8</ele>
        <time>2021-02-23T17:45:11Z</time>
      </trkpt>
      <trkpt lat="40.4188330" lon="-3.7805470">
        <ele>680.8</ele>
        <time>2021-02-23T17:45:12Z</time>
      </trkpt>
      <trkpt lat="40.4188150" lon="-3.7805360">
        <ele>680.8</ele>
        <time>2021-02-23T17:45:13Z</time>
      </trkpt>
      <trkpt lat="40.4187750" lon="-3.7805120">
        <ele>680.8</ele>
        <time>2021-02-23T17:45:14Z</time>
      </trkpt>
      <trkpt lat="40.4187610" lon="-3.7805040">
        <ele>680.8</ele>
        <time>2021-02-23T17:45:15Z</time>
      </trkpt>
      <trkpt lat="40.4187160" lon="-3.7804800">
        <ele>680.8</ele>
        <time>2021-02-23T17:45:16Z</time>
      </trkpt>
      <trkpt lat="40.4186970" lon="-3.7804710">
        <ele>680.8</ele>
        <time>2021-02-23T17:45:17Z</time>
      </trkpt>
      <trkpt lat="40.4186790" lon="-3.7804620">
        <ele>680.7</ele>
        <time>2021-02-23T17:45:18Z</time>
      </trkpt>
      <trkpt lat="40.4186330" lon="-3.7804430">
        <ele>680.7</ele>
        <time>2021-02-23T17:45:19Z</time>
      </trkpt>
      <trkpt lat="40.4186140" lon="-3.7804370">
        <ele>680.7</ele>
        <time>2021-02-23T17:45:20Z</time>
      </trkpt>
      <trkpt lat="40.4185960" lon="-3.7804300">
        <ele>680.7</ele>
        <time>2021-02-23T17:45:21Z</time>
      </trkpt>
      <trkpt lat="40.4185540" lon="-3.7804180">
        <ele>680.7</ele>
        <time>2021-02-23T17:45:22Z</time>
      </trkpt>
      <trkpt lat="40.4185400" lon="-3.7804150">
        <ele>680.7</ele>
        <time>2021-02-23T17:45:23Z</time>
      </trkpt>
      <trkpt lat="40.4184930" lon="-3.7804080">
        <ele>680.6</ele>
        <time>2021-02-23T17:45:24Z</time>
      </trkpt>
      <trkpt lat="40.4184750" lon="-3.7804060">
        <ele>680.5</ele>
        <time>2021-02-23T17:45:25Z</time>
      </trkpt>
      <trkpt lat="40.4184560" lon="-3.7804040">
        <ele>680.5</ele>
        <time>2021-02-23T17:45:26Z</time>
      </trkpt>
      <trkpt lat="40.4184190" lon="-3.7804130">
        <ele>680.3</ele>
        <time>2021-02-23T17:45:27Z</time>
      </trkpt>
      <trkpt lat="40.4184080" lon="-3.7804230">
        <ele>680.2</ele>
        <time>2021-02-23T17:45:28Z</time>
      </trkpt>
      <trkpt lat="40.4183770" lon="-3.7804610">
        <ele>679.9</ele>
        <time>2021-02-23T17:45:29Z</time>
      </trkpt>
      <trkpt lat="40.4183650" lon="-3.7804780">
        <ele>679.8</ele>
        <time>2021-02-23T17:45:30Z</time>
      </trkpt>
      <trkpt lat="40.4183530" lon="-3.7804940">
        <ele>679.6</ele>
        <time>2021-02-23T17:45:31Z</time>
      </trkpt>
      <trkpt lat="40.4183290" lon="-3.7805340">
        <ele>679.3</ele>
        <time>2021-02-23T17:45:32Z</time>
      </trkpt>
      <trkpt lat="40.4183210" lon="-3.7805480">
        <ele>679.2</ele>
        <time>2021-02-23T17:45:33Z</time>
      </trkpt>
      <trkpt lat="40.4182970" lon="-3.7805990">
        <ele>678.7</ele>
        <time>2021-02-23T17:45:34Z</time>
      </trkpt>
      <trkpt lat="40.4182870" lon="-3.7806190">
        <ele>678.5</ele>
        <time>2021-02-23T17:45:35Z</time>
      </trkpt>
      <trkpt lat="40.4182780" lon="-3.7806400">
        <ele>678.3</ele>
        <time>2021-02-23T17:45:36Z</time>
      </trkpt>
      <trkpt lat="40.4182560" lon="-3.7806960">
        <ele>677.8</ele>
        <time>2021-02-23T17:45:37Z</time>
      </trkpt>
      <trkpt lat="40.4182480" lon="-3.7807180">
        <ele>677.6</ele>
        <time>2021-02-23T17:45:38Z</time>
      </trkpt>
      <trkpt lat="40.4182390" lon="-3.7807410">
        <ele>677.4</ele>
        <time>2021-02-23T17:45:39Z</time>
      </trkpt>
      <trkpt lat="40.4182200" lon="-3.7807930">
        <ele>676.9</ele>
        <time>2021-02-23T17:45:40Z</time>
      </trkpt>
      <trkpt lat="40.4182130" lon="-3.7808100">
        <ele>676.7</ele>
        <time>2021-02-23T17:45:41Z</time>
      </trkpt>
      <trkpt lat="40.4181890" lon="-3.7808660">
        <ele>676.2</ele>
        <time>2021-02-23T17:45:42Z</time>
      </trkpt>
      <trkpt lat="40.4181800" lon="-3.7808880">
        <ele>676.0</ele>
        <time>2021-02-23T17:45:43Z</time>
      </trkpt>
      <trkpt lat="40.4181700" lon="-3.7809100">
        <ele>675.8</ele>
        <time>2021-02-23T17:45:44Z</time>
      </trkpt>
      <trkpt lat="40.4181470" lon="-3.7809570">
        <ele>675.5</ele>
        <time>2021-02-23T17:45:45Z</time>
      </trkpt>
      <trkpt lat="40.4181390" lon="-3.7809720">
        <ele>675.4</ele>
        <time>2021-02-23T17:45:46Z</time>
      </trkpt>
      <trkpt lat="40.4181100" lon="-3.7810190">
        <ele>675.1</ele>
        <time>2021-02-23T17:45:47Z</time>
      </trkpt>
      <trkpt lat="40.4180970" lon="-3.7810370">
        <ele>675.0</ele>
        <time>2021-02-23T17:45:48Z</time>
      </trkpt>
      <trkpt lat="40.4180850" lon="-3.7810550">
        <ele>674.9</ele>
        <time>2021-02-23T17:45:49Z</time>
      </trkpt>
      <trkpt lat="40.4180560" lon="-3.7810900">
        <ele>674.7</ele>
        <time>2021-02-23T17:45:50Z</time>
      </trkpt>
      <trkpt lat="40.4180450" lon="-3.7811010">
        <ele>674.6</ele>
        <time>2021-02-23T17:45:51Z</time>
      </trkpt>
      <trkpt lat="40.4180090" lon="-3.7811320">
        <ele>674.4</ele>
        <time>2021-02-23T17:45:52Z</time>
      </trkpt>
      <trkpt lat="40.4179940" lon="-3.7811430">
        <ele>674.4</ele>
        <time>2021-02-23T17:45:53Z</time>
      </trkpt>
      <trkpt lat="40.4179790" lon="-3.7811540">
        <ele>674.3</ele>
        <time>2021-02-23T17:45:54Z</time>
      </trkpt>
      <trkpt lat="40.4179390" lon="-3.7811720">
        <ele>674.2</ele>
        <time>2021-02-23T17:45:55Z</time>
      </trkpt>
      <trkpt lat="40.4179220" lon="-3.7811780">
        <ele>674.2</ele>
        <time>2021-02-23T17:45:56Z</time>
      </trkpt>
      <trkpt lat="40.4179060" lon="-3.7811840">
        <ele>674.1</ele>
        <time>2021-02-23T17:45:57Z</time>
      </trkpt>
      <trkpt lat="40.4178690" lon="-3.7811920">
        <ele>674.1</ele>
        <time>2021-02-23T17:45:58Z</time>
      </trkpt>
      <trkpt lat="40.4178560" lon="-3.7811930">
        <ele>674.0</ele>
        <time>2021-02-23T17:45:59Z</time>
      </trkpt>
      <trkpt lat="40.4178130" lon="-3.7811930">
        <ele>674.0</ele>
        <time>2021-02-23T17:46:00Z</time>
      </trkpt>
      <trkpt lat="40.4177950" lon="-3.7811910">
        <ele>674.0</ele>
        <time>2021-02-23T17:46:01Z</time>
      </trkpt>
      <trkpt lat="40.4177780" lon="-3.7811900">
        <ele>674.0</ele>
        <time>2021-02-23T17:46:02Z</time>
      </trkpt>
      <trkpt lat="40.4177390" lon="-3.7811820">
        <ele>674.0</ele>
        <time>2021-02-23T17:46:03Z</time>
      </trkpt>
      <trkpt lat="40.4177250" lon="-3.7811790">
        <ele>674.0</ele>
        <time>2021-02-23T17:46:04Z</time>
      </trkpt>
      <trkpt lat="40.4176810" lon="-3.7811660">
        <ele>674.0</ele>
        <time>2021-02-23T17:46:05Z</time>
      </trkpt>
      <trkpt lat="40.4176630" lon="-3.7811600">
        <ele>674.0</ele>
        <time>2021-02-23T17:46:06Z</time>
      </trkpt>
      <trkpt lat="40.4176450" lon="-3.7811540">
        <ele>674.0</ele>
        <time>2021-02-23T17:46:07Z</time>
      </trkpt>
      <trkpt lat="40.4176060" lon="-3.7811370">
        <ele>674.1</ele>
        <time>2021-02-23T17:46:08Z</time>
      </trkpt>
      <trkpt lat="40.4175920" lon="-3.7811320">
        <ele>674.1</ele>
        <time>2021-02-23T17:46:09Z</time>
      </trkpt>
      <trkpt lat="40.4175470" lon="-3.7811130">
        <ele>674.2</ele>
        <time>2021-02-23T17:46:10Z</time>
      </trkpt>
      <trkpt lat="40.4175290" lon="-3.7811050">
        <ele>674.2</ele>
        <time>2021-02-23T17:46:11Z</time>
      </trkpt>
      <trkpt lat="40.4175110" lon="-3.7810970">
        <ele>674.3</ele>
        <time>2021-02-23T17:46:12Z</time>
      </trkpt>
      <trkpt lat="40.4174660" lon="-3.7810790">
        <ele>674.4</ele>
        <time>2021-02-23T17:46:13Z</time>
      </trkpt>
      <trkpt lat="40.4174490" lon="-3.7810710">
        <ele>674.5</ele>
        <time>2021-02-23T17:46:14Z</time>
      </trkpt>
      <trkpt lat="40.4174310" lon="-3.7810640">
        <ele>674.5</ele>
        <time>2021-02-23T17:46:15Z</time>
      </trkpt>
      <trkpt lat="40.4173910" lon="-3.7810490">
        <ele>674.7</ele>
        <time>2021-02-23T17:46:16Z</time>
      </trkpt>
      <trkpt lat="40.4173770" lon="-3.7810450">
        <ele>674.8</ele>
        <time>2021-02-23T17:46:17Z</time>
      </trkpt>
      <trkpt lat="40.4173330" lon="-3.7810310">
        <ele>675.0</ele>
        <time>2021-02-23T17:46:18Z</time>
      </trkpt>
      <trkpt lat="40.4173160" lon="-3.7810250">
        <ele>675.1</ele>
        <time>2021-02-23T17:46:19Z</time>
      </trkpt>
      <trkpt lat="40.4172980" lon="-3.7810200">
        <ele>675.1</ele>
        <time>2021-02-23T17:46:20Z</time>
      </trkpt>
      <trkpt lat="40.4172590" lon="-3.7810080">
        <ele>675.3</ele>
        <time>2021-02-23T17:46:21Z</time>
      </trkpt>
      <trkpt lat="40.4172460" lon="-3.7810050">
        <ele>675.4</ele>
        <time>2021-02-23T17:46:22Z</time>
      </trkpt>
      <trkpt lat="40.4172200" lon="-3.7809980">
        <ele>675.5</ele>
        <time>2021-02-23T17:46:23Z</time>
      </trkpt>
      <trkpt lat="40.4171680" lon="-3.7809850">
        <ele>675.7</ele>
        <time>2021-02-23T17:46:25Z</time>
      </trkpt>
      <trkpt lat="40.4171300" lon="-3.7809750">
        <ele>675.8</ele>
        <time>2021-02-23T17:46:26Z</time>
      </trkpt>
      <trkpt lat="40.4171170" lon="-3.7809720">
        <ele>675.9</ele>
        <time>2021-02-23T17:46:27Z</time>
      </trkpt>
      <trkpt lat="40.4170910" lon="-3.7809660">
        <ele>676.0</ele>
        <time>2021-02-23T17:46:28Z</time>
      </trkpt>
      <trkpt lat="40.4170390" lon="-3.7809520">
        <ele>676.1</ele>
        <time>2021-02-23T17:46:30Z</time>
      </trkpt>
      <trkpt lat="40.4169950" lon="-3.7809410">
        <ele>676.2</ele>
        <time>2021-02-23T17:46:31Z</time>
      </trkpt>
      <trkpt lat="40.4169780" lon="-3.7809370">
        <ele>676.3</ele>
        <time>2021-02-23T17:46:32Z</time>
      </trkpt>
      <trkpt lat="40.4169600" lon="-3.7809320">
        <ele>676.3</ele>
        <time>2021-02-23T17:46:33Z</time>
      </trkpt>
      <trkpt lat="40.4169210" lon="-3.7809200">
        <ele>676.4</ele>
        <time>2021-02-23T17:46:34Z</time>
      </trkpt>
      <trkpt lat="40.4169080" lon="-3.7809170">
        <ele>676.5</ele>
        <time>2021-02-23T17:46:35Z</time>
      </trkpt>
      <trkpt lat="40.4168650" lon="-3.7809050">
        <ele>676.6</ele>
        <time>2021-02-23T17:46:36Z</time>
      </trkpt>
      <trkpt lat="40.4168470" lon="-3.7809010">
        <ele>676.6</ele>
        <time>2021-02-23T17:46:37Z</time>
      </trkpt>
      <trkpt lat="40.4168300" lon="-3.7808960">
        <ele>676.7</ele>
        <time>2021-02-23T17:46:38Z</time>
      </trkpt>
      <trkpt lat="40.4167910" lon="-3.7808850">
        <ele>676.8</ele>
        <time>2021-02-23T17:46:39Z</time>
      </trkpt>
      <trkpt lat="40.4167770" lon="-3.7808810">
        <ele>676.8</ele>
        <time>2021-02-23T17:46:40Z</time>
      </trkpt>
      <trkpt lat="40.4167330" lon="-3.7808700">
        <ele>677.0</ele>
        <time>2021-02-23T17:46:41Z</time>
      </trkpt>
      <trkpt lat="40.4167160" lon="-3.7808650">
        <ele>677.0</ele>
        <time>2021-02-23T17:46:42Z</time>
      </trkpt>
      <trkpt lat="40.4166980" lon="-3.7808610">
        <ele>677.1</ele>
        <time>2021-02-23T17:46:43Z</time>
      </trkpt>
      <trkpt lat="40.4166590" lon="-3.7808500">
        <ele>677.2</ele>
        <time>2021-02-23T17:46:44Z</time>
      </trkpt>
      <trkpt lat="40.4166450" lon="-3.7808470">
        <ele>677.3</ele>
        <time>2021-02-23T17:46:45Z</time>
      </trkpt>
      <trkpt lat="40.4166000" lon="-3.7808370">
        <ele>677.4</ele>
        <time>2021-02-23T17:46:46Z</time>
      </trkpt>
      <trkpt lat="40.4165830" lon="-3.7808330">
        <ele>677.5</ele>
        <time>2021-02-23T17:46:47Z</time>
      </trkpt>
      <trkpt lat="40.4165650" lon="-3.7808290">
        <ele>677.5</ele>
        <time>2021-02-23T17:46:48Z</time>
      </trkpt>
      <trkpt lat="40.4164990" lon="-3.7808150">
        <ele>677.7</ele>
        <time>2021-02-23T17:46:50Z</time>
      </trkpt>
      <trkpt lat="40.4164860" lon="-3.7808120">
        <ele>677.8</ele>
        <time>2021-02-23T17:46:51Z</time>
      </trkpt>
      <trkpt lat="40.4164470" lon="-3.7808040">
        <ele>677.8</ele>
        <time>2021-02-23T17:46:52Z</time>
      </trkpt>
      <trkpt lat="40.4164340" lon="-3.7808020">
        <ele>677.9</ele>
        <time>2021-02-23T17:46:53Z</time>
      </trkpt>
      <trkpt lat="40.4163920" lon="-3.7807950">
        <ele>677.9</ele>
        <time>2021-02-23T17:46:54Z</time>
      </trkpt>
      <trkpt lat="40.4163750" lon="-3.7807920">
        <ele>677.9</ele>
        <time>2021-02-23T17:46:55Z</time>
      </trkpt>
      <trkpt lat="40.4163580" lon="-3.7807890">
        <ele>677.9</ele>
        <time>2021-02-23T17:46:56Z</time>
      </trkpt>
      <trkpt lat="40.4163210" lon="-3.7807820">
        <ele>677.9</ele>
        <time>2021-02-23T17:46:57Z</time>
      </trkpt>
      <trkpt lat="40.4163080" lon="-3.7807800">
        <ele>677.9</ele>
        <time>2021-02-23T17:46:58Z</time>
      </trkpt>
      <trkpt lat="40.4162680" lon="-3.7807720">
        <ele>677.8</ele>
        <time>2021-02-23T17:46:59Z</time>
      </trkpt>
      <trkpt lat="40.4162510" lon="-3.7807700">
        <ele>677.8</ele>
        <time>2021-02-23T17:47:00Z</time>
      </trkpt>
      <trkpt lat="40.4162350" lon="-3.7807670">
        <ele>677.7</ele>
        <time>2021-02-23T17:47:01Z</time>
      </trkpt>
      <trkpt lat="40.4161980" lon="-3.7807600">
        <ele>677.6</ele>
        <time>2021-02-23T17:47:02Z</time>
      </trkpt>
      <trkpt lat="40.4161860" lon="-3.7807580">
        <ele>677.5</ele>
        <time>2021-02-23T17:47:03Z</time>
      </trkpt>
      <trkpt lat="40.4161450" lon="-3.7807510">
        <ele>677.4</ele>
        <time>2021-02-23T17:47:04Z</time>
      </trkpt>
      <trkpt lat="40.4161280" lon="-3.7807480">
        <ele>677.3</ele>
        <time>2021-02-23T17:47:05Z</time>
      </trkpt>
      <trkpt lat="40.4161120" lon="-3.7807450">
        <ele>677.2</ele>
        <time>2021-02-23T17:47:06Z</time>
      </trkpt>
      <trkpt lat="40.4160700" lon="-3.7807380">
        <ele>677.0</ele>
        <time>2021-02-23T17:47:07Z</time>
      </trkpt>
      <trkpt lat="40.4160540" lon="-3.7807360">
        <ele>676.9</ele>
        <time>2021-02-23T17:47:08Z</time>
      </trkpt>
      <trkpt lat="40.4160370" lon="-3.7807330">
        <ele>676.9</ele>
        <time>2021-02-23T17:47:09Z</time>
      </trkpt>
      <trkpt lat="40.4159990" lon="-3.7807280">
        <ele>676.7</ele>
        <time>2021-02-23T17:47:10Z</time>
      </trkpt>
      <trkpt lat="40.4159860" lon="-3.7807260">
        <ele>676.6</ele>
        <time>2021-02-23T17:47:11Z</time>
      </trkpt>
      <trkpt lat="40.4159430" lon="-3.7807200">
        <ele>676.5</ele>
        <time>2021-02-23T17:47:12Z</time>
      </trkpt>
      <trkpt lat="40.4159250" lon="-3.7807180">
        <ele>676.4</ele>
        <time>2021-02-23T17:47:13Z</time>
      </trkpt>
      <trkpt lat="40.4159080" lon="-3.7807160">
        <ele>676.3</ele>
        <time>2021-02-23T17:47:14Z</time>
      </trkpt>
      <trkpt lat="40.4158680" lon="-3.7807100">
        <ele>676.2</ele>
        <time>2021-02-23T17:47:15Z</time>
      </trkpt>
      <trkpt lat="40.4158550" lon="-3.7807090">
        <ele>676.1</ele>
        <time>2021-02-23T17:47:16Z</time>
      </trkpt>
      <trkpt lat="40.4158100" lon="-3.7807040">
        <ele>676.0</ele>
        <time>2021-02-23T17:47:17Z</time>
      </trkpt>
      <trkpt lat="40.4157910" lon="-3.7807010">
        <ele>676.0</ele>
        <time>2021-02-23T17:47:18Z</time>
      </trkpt>
      <trkpt lat="40.4157730" lon="-3.7806990">
        <ele>675.9</ele>
        <time>2021-02-23T17:47:19Z</time>
      </trkpt>
      <trkpt lat="40.4157310" lon="-3.7806940">
        <ele>675.9</ele>
        <time>2021-02-23T17:47:20Z</time>
      </trkpt>
      <trkpt lat="40.4157170" lon="-3.7806920">
        <ele>675.9</ele>
        <time>2021-02-23T17:47:21Z</time>
      </trkpt>
      <trkpt lat="40.4156700" lon="-3.7806850">
        <ele>675.9</ele>
        <time>2021-02-23T17:47:22Z</time>
      </trkpt>
      <trkpt lat="40.4156510" lon="-3.7806830">
        <ele>675.9</ele>
        <time>2021-02-23T17:47:23Z</time>
      </trkpt>
      <trkpt lat="40.4156320" lon="-3.7806800">
        <ele>675.9</ele>
        <time>2021-02-23T17:47:24Z</time>
      </trkpt>
      <trkpt lat="40.4155840" lon="-3.7806720">
        <ele>675.9</ele>
        <time>2021-02-23T17:47:25Z</time>
      </trkpt>
      <trkpt lat="40.4155650" lon="-3.7806680">
        <ele>675.9</ele>
        <time>2021-02-23T17:47:26Z</time>
      </trkpt>
      <trkpt lat="40.4155460" lon="-3.7806650">
        <ele>676.0</ele>
        <time>2021-02-23T17:47:27Z</time>
      </trkpt>
      <trkpt lat="40.4155040" lon="-3.7806570">
        <ele>676.0</ele>
        <time>2021-02-23T17:47:28Z</time>
      </trkpt>
      <trkpt lat="40.4154900" lon="-3.7806540">
        <ele>676.0</ele>
        <time>2021-02-23T17:47:29Z</time>
      </trkpt>
      <trkpt lat="40.4154440" lon="-3.7806440">
        <ele>676.1</ele>
        <time>2021-02-23T17:47:30Z</time>
      </trkpt>
      <trkpt lat="40.4154260" lon="-3.7806400">
        <ele>676.2</ele>
        <time>2021-02-23T17:47:31Z</time>
      </trkpt>
      <trkpt lat="40.4154080" lon="-3.7806360">
        <ele>676.3</ele>
        <time>2021-02-23T17:47:32Z</time>
      </trkpt>
      <trkpt lat="40.4153690" lon="-3.7806280">
        <ele>676.4</ele>
        <time>2021-02-23T17:47:33Z</time>
      </trkpt>
      <trkpt lat="40.4153560" lon="-3.7806250">
        <ele>676.4</ele>
        <time>2021-02-23T17:47:34Z</time>
      </trkpt>
      <trkpt lat="40.4153150" lon="-3.7806150">
        <ele>676.6</ele>
        <time>2021-02-23T17:47:35Z</time>
      </trkpt>
      <trkpt lat="40.4152980" lon="-3.7806110">
        <ele>676.7</ele>
        <time>2021-02-23T17:47:36Z</time>
      </trkpt>
      <trkpt lat="40.4152820" lon="-3.7806070">
        <ele>676.8</ele>
        <time>2021-02-23T17:47:37Z</time>
      </trkpt>
      <trkpt lat="40.4152470" lon="-3.7805980">
        <ele>676.9</ele>
        <time>2021-02-23T17:47:38Z</time>
      </trkpt>
      <trkpt lat="40.4152350" lon="-3.7805950">
        <ele>677.0</ele>
        <time>2021-02-23T17:47:39Z</time>
      </trkpt>
      <trkpt lat="40.4151970" lon="-3.7805850">
        <ele>677.2</ele>
        <time>2021-02-23T17:47:40Z</time>
      </trkpt>
      <trkpt lat="40.4151830" lon="-3.7805800">
        <ele>677.3</ele>
        <time>2021-02-23T17:47:41Z</time>
      </trkpt>
      <trkpt lat="40.4151680" lon="-3.7805760">
        <ele>677.4</ele>
        <time>2021-02-23T17:47:42Z</time>
      </trkpt>
      <trkpt lat="40.4151320" lon="-3.7805640">
        <ele>677.6</ele>
        <time>2021-02-23T17:47:43Z</time>
      </trkpt>
      <trkpt lat="40.4151190" lon="-3.7805600">
        <ele>677.7</ele>
        <time>2021-02-23T17:47:44Z</time>
      </trkpt>
      <trkpt lat="40.4151050" lon="-3.7805550">
        <ele>677.8</ele>
        <time>2021-02-23T17:47:45Z</time>
      </trkpt>
      <trkpt lat="40.4150740" lon="-3.7805430">
        <ele>678.0</ele>
        <time>2021-02-23T17:47:46Z</time>
      </trkpt>
      <trkpt lat="40.4150640" lon="-3.7805390">
        <ele>678.0</ele>
        <time>2021-02-23T17:47:47Z</time>
      </trkpt>
      <trkpt lat="40.4150310" lon="-3.7805250">
        <ele>678.2</ele>
        <time>2021-02-23T17:47:48Z</time>
      </trkpt>
      <trkpt lat="40.4150170" lon="-3.7805200">
        <ele>678.3</ele>
        <time>2021-02-23T17:47:49Z</time>
      </trkpt>
      <trkpt lat="40.4150040" lon="-3.7805140">
        <ele>678.4</ele>
        <time>2021-02-23T17:47:50Z</time>
      </trkpt>
      <trkpt lat="40.4149730" lon="-3.7805000">
        <ele>678.5</ele>
        <time>2021-02-23T17:47:51Z</time>
      </trkpt>
      <trkpt lat="40.4149630" lon="-3.7804960">
        <ele>678.6</ele>
        <time>2021-02-23T17:47:52Z</time>
      </trkpt>
      <trkpt lat="40.4149280" lon="-3.7804810">
        <ele>678.7</ele>
        <time>2021-02-23T17:47:53Z</time>
      </trkpt>
      <trkpt lat="40.4149140" lon="-3.7804760">
        <ele>678.8</ele>
        <time>2021-02-23T17:47:54Z</time>
      </trkpt>
      <trkpt lat="40.4149000" lon="-3.7804700">
        <ele>678.8</ele>
        <time>2021-02-23T17:47:55Z</time>
      </trkpt>
      <trkpt lat="40.4148670" lon="-3.7804580">
        <ele>678.9</ele>
        <time>2021-02-23T17:47:56Z</time>
      </trkpt>
      <trkpt lat="40.4148560" lon="-3.7804550">
        <ele>678.9</ele>
        <time>2021-02-23T17:47:57Z</time>
      </trkpt>
      <trkpt lat="40.4148180" lon="-3.7804440">
        <ele>679.0</ele>
        <time>2021-02-23T17:47:58Z</time>
      </trkpt>
      <trkpt lat="40.4148030" lon="-3.7804390">
        <ele>679.0</ele>
        <time>2021-02-23T17:47:59Z</time>
      </trkpt>
      <trkpt lat="40.4147870" lon="-3.7804350">
        <ele>679.0</ele>
        <time>2021-02-23T17:48:00Z</time>
      </trkpt>
      <trkpt lat="40.4147480" lon="-3.7804260">
        <ele>679.0</ele>
        <time>2021-02-23T17:48:01Z</time>
      </trkpt>
      <trkpt lat="40.4147310" lon="-3.7804220">
        <ele>679.0</ele>
        <time>2021-02-23T17:48:02Z</time>
      </trkpt>
      <trkpt lat="40.4147150" lon="-3.7804190">
        <ele>679.0</ele>
        <time>2021-02-23T17:48:03Z</time>
      </trkpt>
      <trkpt lat="40.4146790" lon="-3.7804110">
        <ele>678.9</ele>
        <time>2021-02-23T17:48:04Z</time>
      </trkpt>
      <trkpt lat="40.4146660" lon="-3.7804090">
        <ele>678.9</ele>
        <time>2021-02-23T17:48:05Z</time>
      </trkpt>
      <trkpt lat="40.4146240" lon="-3.7804010">
        <ele>678.9</ele>
        <time>2021-02-23T17:48:06Z</time>
      </trkpt>
      <trkpt lat="40.4146070" lon="-3.7803980">
        <ele>678.9</ele>
        <time>2021-02-23T17:48:07Z</time>
      </trkpt>
      <trkpt lat="40.4145900" lon="-3.7803950">
        <ele>678.8</ele>
        <time>2021-02-23T17:48:08Z</time>
      </trkpt>
      <trkpt lat="40.4145510" lon="-3.7803880">
        <ele>678.8</ele>
        <time>2021-02-23T17:48:09Z</time>
      </trkpt>
      <trkpt lat="40.4145380" lon="-3.7803860">
        <ele>678.8</ele>
        <time>2021-02-23T17:48:10Z</time>
      </trkpt>
      <trkpt lat="40.4144940" lon="-3.7803780">
        <ele>678.7</ele>
        <time>2021-02-23T17:48:11Z</time>
      </trkpt>
      <trkpt lat="40.4144770" lon="-3.7803740">
        <ele>678.7</ele>
        <time>2021-02-23T17:48:12Z</time>
      </trkpt>
      <trkpt lat="40.4144590" lon="-3.7803710">
        <ele>678.7</ele>
        <time>2021-02-23T17:48:13Z</time>
      </trkpt>
      <trkpt lat="40.4144200" lon="-3.7803620">
        <ele>678.6</ele>
        <time>2021-02-23T17:48:14Z</time>
      </trkpt>
      <trkpt lat="40.4144060" lon="-3.7803590">
        <ele>678.6</ele>
        <time>2021-02-23T17:48:15Z</time>
      </trkpt>
      <trkpt lat="40.4143610" lon="-3.7803470">
        <ele>678.6</ele>
        <time>2021-02-23T17:48:16Z</time>
      </trkpt>
      <trkpt lat="40.4143430" lon="-3.7803410">
        <ele>678.5</ele>
        <time>2021-02-23T17:48:17Z</time>
      </trkpt>
      <trkpt lat="40.4143250" lon="-3.7803350">
        <ele>678.5</ele>
        <time>2021-02-23T17:48:18Z</time>
      </trkpt>
      <trkpt lat="40.4142810" lon="-3.7803130">
        <ele>678.4</ele>
        <time>2021-02-23T17:48:19Z</time>
      </trkpt>
      <trkpt lat="40.4142640" lon="-3.7803040">
        <ele>678.4</ele>
        <time>2021-02-23T17:48:20Z</time>
      </trkpt>
      <trkpt lat="40.4142460" lon="-3.7802950">
        <ele>678.3</ele>
        <time>2021-02-23T17:48:21Z</time>
      </trkpt>
      <trkpt lat="40.4142080" lon="-3.7802750">
        <ele>678.2</ele>
        <time>2021-02-23T17:48:22Z</time>
      </trkpt>
      <trkpt lat="40.4141950" lon="-3.7802680">
        <ele>678.2</ele>
        <time>2021-02-23T17:48:23Z</time>
      </trkpt>
      <trkpt lat="40.4141530" lon="-3.7802440">
        <ele>678.0</ele>
        <time>2021-02-23T17:48:24Z</time>
      </trkpt>
      <trkpt lat="40.4141370" lon="-3.7802350">
        <ele>677.9</ele>
        <time>2021-02-23T17:48:25Z</time>
      </trkpt>
      <trkpt lat="40.4141200" lon="-3.7802250">
        <ele>677.8</ele>
        <time>2021-02-23T17:48:26Z</time>
      </trkpt>
      <trkpt lat="40.4140830" lon="-3.7802030">
        <ele>677.6</ele>
        <time>2021-02-23T17:48:27Z</time>
      </trkpt>
      <trkpt lat="40.4140700" lon="-3.7801960">
        <ele>677.6</ele>
        <time>2021-02-23T17:48:28Z</time>
      </trkpt>
      <trkpt lat="40.4140290" lon="-3.7801730">
        <ele>677.4</ele>
        <time>2021-02-23T17:48:29Z</time>
      </trkpt>
      <trkpt lat="40.4140130" lon="-3.7801630">
        <ele>677.3</ele>
        <time>2021-02-23T17:48:30Z</time>
      </trkpt>
      <trkpt lat="40.4139960" lon="-3.7801540">
        <ele>677.2</ele>
        <time>2021-02-23T17:48:31Z</time>
      </trkpt>
      <trkpt lat="40.4139580" lon="-3.7801330">
        <ele>677.0</ele>
        <time>2021-02-23T17:48:32Z</time>
      </trkpt>
      <trkpt lat="40.4139450" lon="-3.7801260">
        <ele>676.9</ele>
        <time>2021-02-23T17:48:33Z</time>
      </trkpt>
      <trkpt lat="40.4139020" lon="-3.7801040">
        <ele>676.7</ele>
        <time>2021-02-23T17:48:34Z</time>
      </trkpt>
      <trkpt lat="40.4138840" lon="-3.7800960">
        <ele>676.6</ele>
        <time>2021-02-23T17:48:35Z</time>
      </trkpt>
      <trkpt lat="40.4138670" lon="-3.7800870">
        <ele>676.5</ele>
        <time>2021-02-23T17:48:36Z</time>
      </trkpt>
      <trkpt lat="40.4138220" lon="-3.7800660">
        <ele>676.3</ele>
        <time>2021-02-23T17:48:37Z</time>
      </trkpt>
      <trkpt lat="40.4138040" lon="-3.7800580">
        <ele>676.3</ele>
        <time>2021-02-23T17:48:38Z</time>
      </trkpt>
      <trkpt lat="40.4137860" lon="-3.7800500">
        <ele>676.2</ele>
        <time>2021-02-23T17:48:39Z</time>
      </trkpt>
      <trkpt lat="40.4137460" lon="-3.7800320">
        <ele>676.1</ele>
        <time>2021-02-23T17:48:40Z</time>
      </trkpt>
      <trkpt lat="40.4137320" lon="-3.7800270">
        <ele>676.1</ele>
        <time>2021-02-23T17:48:41Z</time>
      </trkpt>
      <trkpt lat="40.4136860" lon="-3.7800080">
        <ele>676.0</ele>
        <time>2021-02-23T17:48:42Z</time>
      </trkpt>
      <trkpt lat="40.4136670" lon="-3.7800000">
        <ele>676.0</ele>
        <time>2021-02-23T17:48:43Z</time>
      </trkpt>
      <trkpt lat="40.4136490" lon="-3.7799930">
        <ele>676.0</ele>
        <time>2021-02-23T17:48:44Z</time>
      </trkpt>
      <trkpt lat="40.4136090" lon="-3.7799750">
        <ele>676.0</ele>
        <time>2021-02-23T17:48:45Z</time>
      </trkpt>
      <trkpt lat="40.4135950" lon="-3.7799690">
        <ele>676.0</ele>
        <time>2021-02-23T17:48:46Z</time>
      </trkpt>
      <trkpt lat="40.4135510" lon="-3.7799480">
        <ele>676.1</ele>
        <time>2021-02-23T17:48:47Z</time>
      </trkpt>
      <trkpt lat="40.4135340" lon="-3.7799400">
        <ele>676.1</ele>
        <time>2021-02-23T17:48:48Z</time>
      </trkpt>
      <trkpt lat="40.4135160" lon="-3.7799310">
        <ele>676.1</ele>
        <time>2021-02-23T17:48:49Z</time>
      </trkpt>
      <trkpt lat="40.4134780" lon="-3.7799100">
        <ele>676.2</ele>
        <time>2021-02-23T17:48:50Z</time>
      </trkpt>
      <trkpt lat="40.4134650" lon="-3.7799030">
        <ele>676.2</ele>
        <time>2021-02-23T17:48:51Z</time>
      </trkpt>
      <trkpt lat="40.4134240" lon="-3.7798760">
        <ele>676.4</ele>
        <time>2021-02-23T17:48:52Z</time>
      </trkpt>
      <trkpt lat="40.4134070" lon="-3.7798640">
        <ele>676.4</ele>
        <time>2021-02-23T17:48:53Z</time>
      </trkpt>
      <trkpt lat="40.4133910" lon="-3.7798530">
        <ele>676.5</ele>
        <time>2021-02-23T17:48:54Z</time>
      </trkpt>
      <trkpt lat="40.4133510" lon="-3.7798230">
        <ele>676.7</ele>
        <time>2021-02-23T17:48:55Z</time>
      </trkpt>
      <trkpt lat="40.4133360" lon="-3.7798100">
        <ele>676.7</ele>
        <time>2021-02-23T17:48:56Z</time>
      </trkpt>
      <trkpt lat="40.4133200" lon="-3.7797980">
        <ele>676.8</ele>
        <time>2021-02-23T17:48:57Z</time>
      </trkpt>
      <trkpt lat="40.4132860" lon="-3.7797680">
        <ele>677.0</ele>
        <time>2021-02-23T17:48:58Z</time>
      </trkpt>
      <trkpt lat="40.4132740" lon="-3.7797580">
        <ele>677.0</ele>
        <time>2021-02-23T17:48:59Z</time>
      </trkpt>
      <trkpt lat="40.4132360" lon="-3.7797230">
        <ele>677.2</ele>
        <time>2021-02-23T17:49:00Z</time>
      </trkpt>
      <trkpt lat="40.4132200" lon="-3.7797080">
        <ele>677.3</ele>
        <time>2021-02-23T17:49:01Z</time>
      </trkpt>
      <trkpt lat="40.4132050" lon="-3.7796940">
        <ele>677.4</ele>
        <time>2021-02-23T17:49:02Z</time>
      </trkpt>
      <trkpt lat="40.4131710" lon="-3.7796620">
        <ele>677.5</ele>
        <time>2021-02-23T17:49:03Z</time>
      </trkpt>
      <trkpt lat="40.4131590" lon="-3.7796510">
        <ele>677.6</ele>
        <time>2021-02-23T17:49:04Z</time>
      </trkpt>
      <trkpt lat="40.4131210" lon="-3.7796130">
        <ele>677.7</ele>
        <time>2021-02-23T17:49:05Z</time>
      </trkpt>
      <trkpt lat="40.4131060" lon="-3.7795980">
        <ele>677.8</ele>
        <time>2021-02-23T17:49:06Z</time>
      </trkpt>
      <trkpt lat="40.4130910" lon="-3.7795830">
        <ele>677.9</ele>
        <time>2021-02-23T17:49:07Z</time>
      </trkpt>
      <trkpt lat="40.4130570" lon="-3.7795480">
        <ele>678.0</ele>
        <time>2021-02-23T17:49:08Z</time>
      </trkpt>
      <trkpt lat="40.4130450" lon="-3.7795370">
        <ele>678.0</ele>
        <time>2021-02-23T17:49:09Z</time>
      </trkpt>
      <trkpt lat="40.4130070" lon="-3.7794980">
        <ele>678.2</ele>
        <time>2021-02-23T17:49:10Z</time>
      </trkpt>
      <trkpt lat="40.4129920" lon="-3.7794830">
        <ele>678.2</ele>
        <time>2021-02-23T17:49:11Z</time>
      </trkpt>
      <trkpt lat="40.4129770" lon="-3.7794670">
        <ele>678.3</ele>
        <time>2021-02-23T17:49:12Z</time>
      </trkpt>
      <trkpt lat="40.4129390" lon="-3.7794290">
        <ele>678.5</ele>
        <time>2021-02-23T17:49:13Z</time>
      </trkpt>
      <trkpt lat="40.4129230" lon="-3.7794130">
        <ele>678.5</ele>
        <time>2021-02-23T17:49:14Z</time>
      </trkpt>
      <trkpt lat="40.4129080" lon="-3.7793980">
        <ele>678.6</ele>
        <time>2021-02-23T17:49:15Z</time>
      </trkpt>
      <trkpt lat="40.4128740" lon="-3.7793630">
        <ele>678.7</ele>
        <time>2021-02-23T17:49:16Z</time>
      </trkpt>
      <trkpt lat="40.4128630" lon="-3.7793520">
        <ele>678.7</ele>
        <time>2021-02-23T17:49:17Z</time>
      </trkpt>
      <trkpt lat="40.4128250" lon="-3.7793140">
        <ele>678.9</ele>
        <time>2021-02-23T17:49:18Z</time>
      </trkpt>
      <trkpt lat="40.4128110" lon="-3.7792980">
        <ele>678.9</ele>
        <time>2021-02-23T17:49:19Z</time>
      </trkpt>
      <trkpt lat="40.4127960" lon="-3.7792830">
        <ele>679.0</ele>
        <time>2021-02-23T17:49:20Z</time>
      </trkpt>
      <trkpt lat="40.4127640" lon="-3.7792480">
        <ele>679.1</ele>
        <time>2021-02-23T17:49:21Z</time>
      </trkpt>
      <trkpt lat="40.4127530" lon="-3.7792370">
        <ele>679.1</ele>
        <time>2021-02-23T17:49:22Z</time>
      </trkpt>
      <trkpt lat="40.4127200" lon="-3.7791970">
        <ele>679.2</ele>
        <time>2021-02-23T17:49:23Z</time>
      </trkpt>
      <trkpt lat="40.4127080" lon="-3.7791810">
        <ele>679.2</ele>
        <time>2021-02-23T17:49:24Z</time>
      </trkpt>
      <trkpt lat="40.4126950" lon="-3.7791650">
        <ele>679.2</ele>
        <time>2021-02-23T17:49:25Z</time>
      </trkpt>
      <trkpt lat="40.4126700" lon="-3.7791270">
        <ele>679.3</ele>
        <time>2021-02-23T17:49:26Z</time>
      </trkpt>
      <trkpt lat="40.4126610" lon="-3.7791150">
        <ele>679.3</ele>
        <time>2021-02-23T17:49:27Z</time>
      </trkpt>
      <trkpt lat="40.4126350" lon="-3.7790710">
        <ele>679.4</ele>
        <time>2021-02-23T17:49:28Z</time>
      </trkpt>
      <trkpt lat="40.4126260" lon="-3.7790540">
        <ele>679.4</ele>
        <time>2021-02-23T17:49:29Z</time>
      </trkpt>
      <trkpt lat="40.4126160" lon="-3.7790360">
        <ele>679.4</ele>
        <time>2021-02-23T17:49:30Z</time>
      </trkpt>
      <trkpt lat="40.4126170" lon="-3.7789840">
        <ele>679.4</ele>
        <time>2021-02-23T17:49:31Z</time>
      </trkpt>
      <trkpt lat="40.4126190" lon="-3.7789620">
        <ele>679.4</ele>
        <time>2021-02-23T17:49:32Z</time>
      </trkpt>
      <trkpt lat="40.4126200" lon="-3.7789410">
        <ele>679.4</ele>
        <time>2021-02-23T17:49:33Z</time>
      </trkpt>
      <trkpt lat="40.4126260" lon="-3.7788920">
        <ele>679.4</ele>
        <time>2021-02-23T17:49:34Z</time>
      </trkpt>
      <trkpt lat="40.4126280" lon="-3.7788750">
        <ele>679.4</ele>
        <time>2021-02-23T17:49:35Z</time>
      </trkpt>
      <trkpt lat="40.4126380" lon="-3.7788200">
        <ele>679.3</ele>
        <time>2021-02-23T17:49:36Z</time>
      </trkpt>
      <trkpt lat="40.4126430" lon="-3.7787970">
        <ele>679.3</ele>
        <time>2021-02-23T17:49:37Z</time>
      </trkpt>
      <trkpt lat="40.4126470" lon="-3.7787750">
        <ele>679.3</ele>
        <time>2021-02-23T17:49:38Z</time>
      </trkpt>
      <trkpt lat="40.4126600" lon="-3.7787250">
        <ele>679.2</ele>
        <time>2021-02-23T17:49:39Z</time>
      </trkpt>
      <trkpt lat="40.4126640" lon="-3.7787080">
        <ele>679.2</ele>
        <time>2021-02-23T17:49:40Z</time>
      </trkpt>
      <trkpt lat="40.4126780" lon="-3.7786520">
        <ele>679.2</ele>
        <time>2021-02-23T17:49:41Z</time>
      </trkpt>
      <trkpt lat="40.4126840" lon="-3.7786300">
        <ele>679.1</ele>
        <time>2021-02-23T17:49:42Z</time>
      </trkpt>
      <trkpt lat="40.4126900" lon="-3.7786070">
        <ele>679.1</ele>
        <time>2021-02-23T17:49:43Z</time>
      </trkpt>
      <trkpt lat="40.4127030" lon="-3.7785560">
        <ele>679.0</ele>
        <time>2021-02-23T17:49:44Z</time>
      </trkpt>
      <trkpt lat="40.4127070" lon="-3.7785390">
        <ele>679.0</ele>
        <time>2021-02-23T17:49:45Z</time>
      </trkpt>
      <trkpt lat="40.4127180" lon="-3.7784830">
        <ele>679.0</ele>
        <time>2021-02-23T17:49:46Z</time>
      </trkpt>
      <trkpt lat="40.4127220" lon="-3.7784600">
        <ele>679.0</ele>
        <time>2021-02-23T17:49:47Z</time>
      </trkpt>
      <trkpt lat="40.4127260" lon="-3.7784380">
        <ele>679.0</ele>
        <time>2021-02-23T17:49:48Z</time>
      </trkpt>
      <trkpt lat="40.4127330" lon="-3.7783810">
        <ele>678.9</ele>
        <time>2021-02-23T17:49:49Z</time>
      </trkpt>
      <trkpt lat="40.4127350" lon="-3.7783590">
        <ele>678.9</ele>
        <time>2021-02-23T17:49:50Z</time>
      </trkpt>
      <trkpt lat="40.4127370" lon="-3.7783360">
        <ele>678.9</ele>
        <time>2021-02-23T17:49:51Z</time>
      </trkpt>
      <trkpt lat="40.4127240" lon="-3.7782910">
        <ele>678.9</ele>
        <time>2021-02-23T17:49:52Z</time>
      </trkpt>
      <trkpt lat="40.4127170" lon="-3.7782760">
        <ele>678.9</ele>
        <time>2021-02-23T17:49:53Z</time>
      </trkpt>
      <trkpt lat="40.4126930" lon="-3.7782280">
        <ele>678.9</ele>
        <time>2021-02-23T17:49:54Z</time>
      </trkpt>
      <trkpt lat="40.4126830" lon="-3.7782090">
        <ele>678.9</ele>
        <time>2021-02-23T17:49:55Z</time>
      </trkpt>
      <trkpt lat="40.4126730" lon="-3.7781900">
        <ele>678.9</ele>
        <time>2021-02-23T17:49:56Z</time>
      </trkpt>
      <trkpt lat="40.4126490" lon="-3.7781490">
        <ele>678.9</ele>
        <time>2021-02-23T17:49:57Z</time>
      </trkpt>
      <trkpt lat="40.4126410" lon="-3.7781350">
        <ele>678.9</ele>
        <time>2021-02-23T17:49:58Z</time>
      </trkpt>
      <trkpt lat="40.4126110" lon="-3.7780910">
        <ele>678.9</ele>
        <time>2021-02-23T17:49:59Z</time>
      </trkpt>
      <trkpt lat="40.4125980" lon="-3.7780730">
        <ele>678.8</ele>
        <time>2021-02-23T17:50:00Z</time>
      </trkpt>
      <trkpt lat="40.4125860" lon="-3.7780560">
        <ele>678.8</ele>
        <time>2021-02-23T17:50:01Z</time>
      </trkpt>
      <trkpt lat="40.4125570" lon="-3.7780170">
        <ele>678.8</ele>
        <time>2021-02-23T17:50:02Z</time>
      </trkpt>
      <trkpt lat="40.4125470" lon="-3.7780040">
        <ele>678.8</ele>
        <time>2021-02-23T17:50:03Z</time>
      </trkpt>
      <trkpt lat="40.4125130" lon="-3.7779610">
        <ele>678.8</ele>
        <time>2021-02-23T17:50:04Z</time>
      </trkpt>
      <trkpt lat="40.4125000" lon="-3.7779440">
        <ele>678.8</ele>
        <time>2021-02-23T17:50:05Z</time>
      </trkpt>
      <trkpt lat="40.4124860" lon="-3.7779270">
        <ele>678.8</ele>
        <time>2021-02-23T17:50:06Z</time>
      </trkpt>
      <trkpt lat="40.4124510" lon="-3.7778850">
        <ele>678.8</ele>
        <time>2021-02-23T17:50:07Z</time>
      </trkpt>
      <trkpt lat="40.4124360" lon="-3.7778680">
        <ele>678.8</ele>
        <time>2021-02-23T17:50:08Z</time>
      </trkpt>
      <trkpt lat="40.4124220" lon="-3.7778510">
        <ele>678.8</ele>
        <time>2021-02-23T17:50:09Z</time>
      </trkpt>
      <trkpt lat="40.4123890" lon="-3.7778140">
        <ele>678.8</ele>
        <time>2021-02-23T17:50:10Z</time>
      </trkpt>
      <trkpt lat="40.4123780" lon="-3.7778020">
        <ele>678.8</ele>
        <time>2021-02-23T17:50:11Z</time>
      </trkpt>
      <trkpt lat="40.4123400" lon="-3.7777630">
        <ele>678.8</ele>
        <time>2021-02-23T17:50:12Z</time>
      </trkpt>
      <trkpt lat="40.4123240" lon="-3.7777490">
        <ele>678.8</ele>
        <time>2021-02-23T17:50:13Z</time>
      </trkpt>
      <trkpt lat="40.4123090" lon="-3.7777340">
        <ele>678.8</ele>
        <time>2021-02-23T17:50:14Z</time>
      </trkpt>
      <trkpt lat="40.4122730" lon="-3.7777020">
        <ele>678.8</ele>
        <time>2021-02-23T17:50:15Z</time>
      </trkpt>
      <trkpt lat="40.4122610" lon="-3.7776920">
        <ele>678.8</ele>
        <time>2021-02-23T17:50:16Z</time>
      </trkpt>
      <trkpt lat="40.4122190" lon="-3.7776620">
        <ele>678.8</ele>
        <time>2021-02-23T17:50:17Z</time>
      </trkpt>
      <trkpt lat="40.4122030" lon="-3.7776510">
        <ele>678.7</ele>
        <time>2021-02-23T17:50:18Z</time>
      </trkpt>
      <trkpt lat="40.4121860" lon="-3.7776390">
        <ele>678.7</ele>
        <time>2021-02-23T17:50:19Z</time>
      </trkpt>
      <trkpt lat="40.4121470" lon="-3.7776140">
        <ele>678.7</ele>
        <time>2021-02-23T17:50:20Z</time>
      </trkpt>
      <trkpt lat="40.4121340" lon="-3.7776070">
        <ele>678.7</ele>
        <time>2021-02-23T17:50:21Z</time>
      </trkpt>
      <trkpt lat="40.4120900" lon="-3.7775820">
        <ele>678.6</ele>
        <time>2021-02-23T17:50:22Z</time>
      </trkpt>
      <trkpt lat="40.4120730" lon="-3.7775720">
        <ele>678.5</ele>
        <time>2021-02-23T17:50:23Z</time>
      </trkpt>
      <trkpt lat="40.4120550" lon="-3.7775620">
        <ele>678.5</ele>
        <time>2021-02-23T17:50:24Z</time>
      </trkpt>
      <trkpt lat="40.4120130" lon="-3.7775370">
        <ele>678.4</ele>
        <time>2021-02-23T17:50:25Z</time>
      </trkpt>
      <trkpt lat="40.4119960" lon="-3.7775260">
        <ele>678.4</ele>
        <time>2021-02-23T17:50:26Z</time>
      </trkpt>
      <trkpt lat="40.4119790" lon="-3.7775160">
        <ele>678.3</ele>
        <time>2021-02-23T17:50:27Z</time>
      </trkpt>
      <trkpt lat="40.4119420" lon="-3.7774900">
        <ele>678.2</ele>
        <time>2021-02-23T17:50:28Z</time>
      </trkpt>
      <trkpt lat="40.4119300" lon="-3.7774820">
        <ele>678.2</ele>
        <time>2021-02-23T17:50:29Z</time>
      </trkpt>
      <trkpt lat="40.4118910" lon="-3.7774490">
        <ele>678.1</ele>
        <time>2021-02-23T17:50:30Z</time>
      </trkpt>
      <trkpt lat="40.4118760" lon="-3.7774360">
        <ele>678.0</ele>
        <time>2021-02-23T17:50:31Z</time>
      </trkpt>
      <trkpt lat="40.4118610" lon="-3.7774220">
        <ele>678.0</ele>
        <time>2021-02-23T17:50:32Z</time>
      </trkpt>
      <trkpt lat="40.4118290" lon="-3.7773890">
        <ele>677.9</ele>
        <time>2021-02-23T17:50:33Z</time>
      </trkpt>
      <trkpt lat="40.4118180" lon="-3.7773780">
        <ele>677.8</ele>
        <time>2021-02-23T17:50:34Z</time>
      </trkpt>
      <trkpt lat="40.4117940" lon="-3.7773250">
        <ele>677.6</ele>
        <time>2021-02-23T17:50:35Z</time>
      </trkpt>
      <trkpt lat="40.4117860" lon="-3.7773030">
        <ele>677.5</ele>
        <time>2021-02-23T17:50:36Z</time>
      </trkpt>
      <trkpt lat="40.4117790" lon="-3.7772810">
        <ele>677.5</ele>
        <time>2021-02-23T17:50:37Z</time>
      </trkpt>
      <trkpt lat="40.4117650" lon="-3.7772300">
        <ele>677.5</ele>
        <time>2021-02-23T17:50:38Z</time>
      </trkpt>
      <trkpt lat="40.4117600" lon="-3.7772130">
        <ele>677.4</ele>
        <time>2021-02-23T17:50:39Z</time>
      </trkpt>
      <trkpt lat="40.4117470" lon="-3.7771560">
        <ele>677.4</ele>
        <time>2021-02-23T17:50:40Z</time>
      </trkpt>
      <trkpt lat="40.4117430" lon="-3.7771320">
        <ele>677.4</ele>
        <time>2021-02-23T17:50:41Z</time>
      </trkpt>
      <trkpt lat="40.4117380" lon="-3.7771090">
        <ele>677.3</ele>
        <time>2021-02-23T17:50:42Z</time>
      </trkpt>
      <trkpt lat="40.4117290" lon="-3.7770500">
        <ele>677.3</ele>
        <time>2021-02-23T17:50:43Z</time>
      </trkpt>
      <trkpt lat="40.4117270" lon="-3.7770270">
        <ele>677.3</ele>
        <time>2021-02-23T17:50:44Z</time>
      </trkpt>
      <trkpt lat="40.4117240" lon="-3.7770030">
        <ele>677.3</ele>
        <time>2021-02-23T17:50:45Z</time>
      </trkpt>
      <trkpt lat="40.4117190" lon="-3.7769490">
        <ele>677.2</ele>
        <time>2021-02-23T17:50:46Z</time>
      </trkpt>
      <trkpt lat="40.4117180" lon="-3.7769310">
        <ele>677.2</ele>
        <time>2021-02-23T17:50:47Z</time>
      </trkpt>
      <trkpt lat="40.4117170" lon="-3.7768710">
        <ele>677.1</ele>
        <time>2021-02-23T17:50:48Z</time>
      </trkpt>
      <trkpt lat="40.4117160" lon="-3.7768460">
        <ele>677.1</ele>
        <time>2021-02-23T17:50:49Z</time>
      </trkpt>
      <trkpt lat="40.4117160" lon="-3.7768220">
        <ele>677.1</ele>
        <time>2021-02-23T17:50:50Z</time>
      </trkpt>
      <trkpt lat="40.4117170" lon="-3.7767670">
        <ele>677.1</ele>
        <time>2021-02-23T17:50:51Z</time>
      </trkpt>
      <trkpt lat="40.4117170" lon="-3.7767480">
        <ele>677.0</ele>
        <time>2021-02-23T17:50:52Z</time>
      </trkpt>
      <trkpt lat="40.4117210" lon="-3.7766870">
        <ele>677.0</ele>
        <time>2021-02-23T17:50:53Z</time>
      </trkpt>
      <trkpt lat="40.4117220" lon="-3.7766620">
        <ele>677.0</ele>
        <time>2021-02-23T17:50:54Z</time>
      </trkpt>
      <trkpt lat="40.4117240" lon="-3.7766380">
        <ele>677.0</ele>
        <time>2021-02-23T17:50:55Z</time>
      </trkpt>
      <trkpt lat="40.4117290" lon="-3.7765830">
        <ele>676.9</ele>
        <time>2021-02-23T17:50:56Z</time>
      </trkpt>
      <trkpt lat="40.4117300" lon="-3.7765640">
        <ele>676.9</ele>
        <time>2021-02-23T17:50:57Z</time>
      </trkpt>
      <trkpt lat="40.4117350" lon="-3.7765040">
        <ele>676.8</ele>
        <time>2021-02-23T17:50:58Z</time>
      </trkpt>
      <trkpt lat="40.4117370" lon="-3.7764800">
        <ele>676.8</ele>
        <time>2021-02-23T17:50:59Z</time>
      </trkpt>
      <trkpt lat="40.4117390" lon="-3.7764560">
        <ele>676.8</ele>
        <time>2021-02-23T17:51:00Z</time>
      </trkpt>
      <trkpt lat="40.4117430" lon="-3.7763950">
        <ele>676.7</ele>
        <time>2021-02-23T17:51:01Z</time>
      </trkpt>
      <trkpt lat="40.4117450" lon="-3.7763710">
        <ele>676.7</ele>
        <time>2021-02-23T17:51:02Z</time>
      </trkpt>
      <trkpt lat="40.4117460" lon="-3.7763470">
        <ele>676.7</ele>
        <time>2021-02-23T17:51:03Z</time>
      </trkpt>
      <trkpt lat="40.4117490" lon="-3.7762930">
        <ele>676.6</ele>
        <time>2021-02-23T17:51:04Z</time>
      </trkpt>
      <trkpt lat="40.4117490" lon="-3.7762740">
        <ele>676.6</ele>
        <time>2021-02-23T17:51:05Z</time>
      </trkpt>
      <trkpt lat="40.4117490" lon="-3.7762120">
        <ele>676.6</ele>
        <time>2021-02-23T17:51:06Z</time>
      </trkpt>
      <trkpt lat="40.4117480" lon="-3.7761870">
        <ele>676.6</ele>
        <time>2021-02-23T17:51:07Z</time>
      </trkpt>
      <trkpt lat="40.4117480" lon="-3.7761620">
        <ele>676.6</ele>
        <time>2021-02-23T17:51:08Z</time>
      </trkpt>
      <trkpt lat="40.4117470" lon="-3.7761050">
        <ele>676.5</ele>
        <time>2021-02-23T17:51:09Z</time>
      </trkpt>
      <trkpt lat="40.4117460" lon="-3.7760860">
        <ele>676.5</ele>
        <time>2021-02-23T17:51:10Z</time>
      </trkpt>
      <trkpt lat="40.4117430" lon="-3.7760210">
        <ele>676.5</ele>
        <time>2021-02-23T17:51:11Z</time>
      </trkpt>
      <trkpt lat="40.4117410" lon="-3.7759940">
        <ele>676.5</ele>
        <time>2021-02-23T17:51:12Z</time>
      </trkpt>
      <trkpt lat="40.4117400" lon="-3.7759680">
        <ele>676.4</ele>
        <time>2021-02-23T17:51:13Z</time>
      </trkpt>
      <trkpt lat="40.4117370" lon="-3.7759080">
        <ele>676.4</ele>
        <time>2021-02-23T17:51:14Z</time>
      </trkpt>
      <trkpt lat="40.4117350" lon="-3.7758540">
        <ele>676.4</ele>
        <time>2021-02-23T17:51:15Z</time>
      </trkpt>
      <trkpt lat="40.4117330" lon="-3.7758210">
        <ele>676.3</ele>
        <time>2021-02-23T17:51:16Z</time>
      </trkpt>
      <trkpt lat="40.4117310" lon="-3.7757930">
        <ele>676.3</ele>
        <time>2021-02-23T17:51:17Z</time>
      </trkpt>
      <trkpt lat="40.4117300" lon="-3.7757660">
        <ele>676.3</ele>
        <time>2021-02-23T17:51:18Z</time>
      </trkpt>
      <trkpt lat="40.4117270" lon="-3.7756990">
        <ele>676.2</ele>
        <time>2021-02-23T17:51:19Z</time>
      </trkpt>
      <trkpt lat="40.4117260" lon="-3.7756720">
        <ele>676.2</ele>
        <time>2021-02-23T17:51:20Z</time>
      </trkpt>
      <trkpt lat="40.4117250" lon="-3.7756450">
        <ele>676.2</ele>
        <time>2021-02-23T17:51:21Z</time>
      </trkpt>
      <trkpt lat="40.4117230" lon="-3.7755840">
        <ele>676.1</ele>
        <time>2021-02-23T17:51:22Z</time>
      </trkpt>
      <trkpt lat="40.4117210" lon="-3.7755300">
        <ele>676.1</ele>
        <time>2021-02-23T17:51:23Z</time>
      </trkpt>
      <trkpt lat="40.4117190" lon="-3.7754970">
        <ele>676.1</ele>
        <time>2021-02-23T17:51:24Z</time>
      </trkpt>
      <trkpt lat="40.4117190" lon="-3.7754710">
        <ele>676.0</ele>
        <time>2021-02-23T17:51:25Z</time>
      </trkpt>
      <trkpt lat="40.4117180" lon="-3.7754440">
        <ele>676.0</ele>
        <time>2021-02-23T17:51:26Z</time>
      </trkpt>
      <trkpt lat="40.4117180" lon="-3.7753840">
        <ele>675.9</ele>
        <time>2021-02-23T17:51:27Z</time>
      </trkpt>
      <trkpt lat="40.4117170" lon="-3.7753650">
        <ele>675.9</ele>
        <time>2021-02-23T17:51:28Z</time>
      </trkpt>
      <trkpt lat="40.4117170" lon="-3.7753000">
        <ele>675.8</ele>
        <time>2021-02-23T17:51:29Z</time>
      </trkpt>
      <trkpt lat="40.4117180" lon="-3.7752730">
        <ele>675.8</ele>
        <time>2021-02-23T17:51:30Z</time>
      </trkpt>
      <trkpt lat="40.4117180" lon="-3.7752470">
        <ele>675.8</ele>
        <time>2021-02-23T17:51:31Z</time>
      </trkpt>
      <trkpt lat="40.4117200" lon="-3.7751890">
        <ele>675.7</ele>
        <time>2021-02-23T17:51:32Z</time>
      </trkpt>
      <trkpt lat="40.4117200" lon="-3.7751690">
        <ele>675.7</ele>
        <time>2021-02-23T17:51:33Z</time>
      </trkpt>
      <trkpt lat="40.4117230" lon="-3.7751040">
        <ele>675.6</ele>
        <time>2021-02-23T17:51:34Z</time>
      </trkpt>
      <trkpt lat="40.4117240" lon="-3.7750770">
        <ele>675.5</ele>
        <time>2021-02-23T17:51:35Z</time>
      </trkpt>
      <trkpt lat="40.4117260" lon="-3.7750510">
        <ele>675.5</ele>
        <time>2021-02-23T17:51:36Z</time>
      </trkpt>
      <trkpt lat="40.4117300" lon="-3.7749860">
        <ele>675.4</ele>
        <time>2021-02-23T17:51:37Z</time>
      </trkpt>
      <trkpt lat="40.4117320" lon="-3.7749590">
        <ele>675.4</ele>
        <time>2021-02-23T17:51:38Z</time>
      </trkpt>
      <trkpt lat="40.4117340" lon="-3.7749330">
        <ele>675.3</ele>
        <time>2021-02-23T17:51:39Z</time>
      </trkpt>
      <trkpt lat="40.4117390" lon="-3.7748750">
        <ele>675.2</ele>
        <time>2021-02-23T17:51:40Z</time>
      </trkpt>
      <trkpt lat="40.4117410" lon="-3.7748550">
        <ele>675.2</ele>
        <time>2021-02-23T17:51:41Z</time>
      </trkpt>
      <trkpt lat="40.4117480" lon="-3.7747900">
        <ele>675.1</ele>
        <time>2021-02-23T17:51:42Z</time>
      </trkpt>
      <trkpt lat="40.4117500" lon="-3.7747650">
        <ele>675.0</ele>
        <time>2021-02-23T17:51:43Z</time>
      </trkpt>
      <trkpt lat="40.4117530" lon="-3.7747390">
        <ele>675.0</ele>
        <time>2021-02-23T17:51:44Z</time>
      </trkpt>
      <trkpt lat="40.4117600" lon="-3.7746830">
        <ele>674.9</ele>
        <time>2021-02-23T17:51:45Z</time>
      </trkpt>
      <trkpt lat="40.4117620" lon="-3.7746640">
        <ele>674.9</ele>
        <time>2021-02-23T17:51:46Z</time>
      </trkpt>
      <trkpt lat="40.4117700" lon="-3.7746030">
        <ele>674.8</ele>
        <time>2021-02-23T17:51:47Z</time>
      </trkpt>
      <trkpt lat="40.4117730" lon="-3.7745780">
        <ele>674.7</ele>
        <time>2021-02-23T17:51:48Z</time>
      </trkpt>
      <trkpt lat="40.4117760" lon="-3.7745540">
        <ele>674.7</ele>
        <time>2021-02-23T17:51:49Z</time>
      </trkpt>
      <trkpt lat="40.4117840" lon="-3.7745000">
        <ele>674.6</ele>
        <time>2021-02-23T17:51:50Z</time>
      </trkpt>
      <trkpt lat="40.4117860" lon="-3.7744820">
        <ele>674.6</ele>
        <time>2021-02-23T17:51:51Z</time>
      </trkpt>
      <trkpt lat="40.4117940" lon="-3.7744230">
        <ele>674.5</ele>
        <time>2021-02-23T17:51:52Z</time>
      </trkpt>
      <trkpt lat="40.4117980" lon="-3.7744000">
        <ele>674.5</ele>
        <time>2021-02-23T17:51:53Z</time>
      </trkpt>
      <trkpt lat="40.4118010" lon="-3.7743760">
        <ele>674.5</ele>
        <time>2021-02-23T17:51:54Z</time>
      </trkpt>
      <trkpt lat="40.4118090" lon="-3.7743170">
        <ele>674.4</ele>
        <time>2021-02-23T17:51:55Z</time>
      </trkpt>
      <trkpt lat="40.4118130" lon="-3.7742930">
        <ele>674.4</ele>
        <time>2021-02-23T17:51:56Z</time>
      </trkpt>
      <trkpt lat="40.4118160" lon="-3.7742700">
        <ele>674.3</ele>
        <time>2021-02-23T17:51:57Z</time>
      </trkpt>
      <trkpt lat="40.4118210" lon="-3.7742350">
        <ele>674.3</ele>
        <time>2021-02-23T17:51:58Z</time>
      </trkpt>
      <trkpt lat="40.4118260" lon="-3.7741990">
        <ele>674.2</ele>
        <time>2021-02-23T17:51:59Z</time>
      </trkpt>
      <trkpt lat="40.4118300" lon="-3.7741640">
        <ele>674.2</ele>
        <time>2021-02-23T17:52:00Z</time>
      </trkpt>
      <trkpt lat="40.4119220" lon="-3.7739140">
        <ele>673.7</ele>
        <time>2021-02-23T17:53:18Z</time>
      </trkpt>
      <trkpt lat="40.4119360" lon="-3.7738470">
        <ele>673.5</ele>
        <time>2021-02-23T17:53:19Z</time>
      </trkpt>
      <trkpt lat="40.4119420" lon="-3.7738180">
        <ele>673.5</ele>
        <time>2021-02-23T17:53:20Z</time>
      </trkpt>
      <trkpt lat="40.4119490" lon="-3.7737880">
        <ele>673.4</ele>
        <time>2021-02-23T17:53:21Z</time>
      </trkpt>
      <trkpt lat="40.4119550" lon="-3.7737580">
        <ele>673.4</ele>
        <time>2021-02-23T17:53:22Z</time>
      </trkpt>
      <trkpt lat="40.4119610" lon="-3.7737290">
        <ele>673.3</ele>
        <time>2021-02-23T17:53:23Z</time>
      </trkpt>
      <trkpt lat="40.4119670" lon="-3.7736990">
        <ele>673.2</ele>
        <time>2021-02-23T17:53:24Z</time>
      </trkpt>
      <trkpt lat="40.4119800" lon="-3.7736390">
        <ele>673.1</ele>
        <time>2021-02-23T17:53:25Z</time>
      </trkpt>
      <trkpt lat="40.4119860" lon="-3.7736130">
        <ele>673.1</ele>
        <time>2021-02-23T17:53:26Z</time>
      </trkpt>
      <trkpt lat="40.4119910" lon="-3.7735880">
        <ele>673.0</ele>
        <time>2021-02-23T17:53:27Z</time>
      </trkpt>
      <trkpt lat="40.4120020" lon="-3.7735310">
        <ele>672.9</ele>
        <time>2021-02-23T17:53:28Z</time>
      </trkpt>
      <trkpt lat="40.4120130" lon="-3.7734800">
        <ele>672.8</ele>
        <time>2021-02-23T17:53:29Z</time>
      </trkpt>
      <trkpt lat="40.4120190" lon="-3.7734470">
        <ele>672.7</ele>
        <time>2021-02-23T17:53:30Z</time>
      </trkpt>
      <trkpt lat="40.4120240" lon="-3.7734220">
        <ele>672.7</ele>
        <time>2021-02-23T17:53:31Z</time>
      </trkpt>
      <trkpt lat="40.4120290" lon="-3.7733960">
        <ele>672.6</ele>
        <time>2021-02-23T17:53:32Z</time>
      </trkpt>
      <trkpt lat="40.4120410" lon="-3.7733350">
        <ele>672.5</ele>
        <time>2021-02-23T17:53:33Z</time>
      </trkpt>
      <trkpt lat="40.4120520" lon="-3.7732810">
        <ele>672.4</ele>
        <time>2021-02-23T17:53:34Z</time>
      </trkpt>
      <trkpt lat="40.4120580" lon="-3.7732470">
        <ele>672.3</ele>
        <time>2021-02-23T17:53:35Z</time>
      </trkpt>
      <trkpt lat="40.4120630" lon="-3.7732200">
        <ele>672.2</ele>
        <time>2021-02-23T17:53:36Z</time>
      </trkpt>
      <trkpt lat="40.4120680" lon="-3.7731920">
        <ele>672.2</ele>
        <time>2021-02-23T17:53:37Z</time>
      </trkpt>
      <trkpt lat="40.4120790" lon="-3.7731350">
        <ele>672.1</ele>
        <time>2021-02-23T17:53:38Z</time>
      </trkpt>
      <trkpt lat="40.4120820" lon="-3.7731180">
        <ele>672.0</ele>
        <time>2021-02-23T17:53:39Z</time>
      </trkpt>
      <trkpt lat="40.4120980" lon="-3.7730320">
        <ele>671.9</ele>
        <time>2021-02-23T17:53:41Z</time>
      </trkpt>
      <trkpt lat="40.4121080" lon="-3.7729770">
        <ele>671.7</ele>
        <time>2021-02-23T17:53:42Z</time>
      </trkpt>
      <trkpt lat="40.4121140" lon="-3.7729420">
        <ele>671.7</ele>
        <time>2021-02-23T17:53:43Z</time>
      </trkpt>
      <trkpt lat="40.4121190" lon="-3.7729140">
        <ele>671.6</ele>
        <time>2021-02-23T17:53:44Z</time>
      </trkpt>
      <trkpt lat="40.4121240" lon="-3.7728860">
        <ele>671.5</ele>
        <time>2021-02-23T17:53:45Z</time>
      </trkpt>
      <trkpt lat="40.4121350" lon="-3.7728230">
        <ele>671.4</ele>
        <time>2021-02-23T17:53:46Z</time>
      </trkpt>
      <trkpt lat="40.4121440" lon="-3.7727670">
        <ele>671.3</ele>
        <time>2021-02-23T17:53:47Z</time>
      </trkpt>
      <trkpt lat="40.4121490" lon="-3.7727320">
        <ele>671.2</ele>
        <time>2021-02-23T17:53:48Z</time>
      </trkpt>
      <trkpt lat="40.4121540" lon="-3.7727040">
        <ele>671.2</ele>
        <time>2021-02-23T17:53:49Z</time>
      </trkpt>
      <trkpt lat="40.4121580" lon="-3.7726760">
        <ele>671.1</ele>
        <time>2021-02-23T17:53:50Z</time>
      </trkpt>
      <trkpt lat="40.4121670" lon="-3.7726130">
        <ele>671.0</ele>
        <time>2021-02-23T17:53:51Z</time>
      </trkpt>
      <trkpt lat="40.4121750" lon="-3.7725570">
        <ele>670.9</ele>
        <time>2021-02-23T17:53:52Z</time>
      </trkpt>
      <trkpt lat="40.4121800" lon="-3.7725220">
        <ele>670.8</ele>
        <time>2021-02-23T17:53:53Z</time>
      </trkpt>
      <trkpt lat="40.4121830" lon="-3.7724950">
        <ele>670.7</ele>
        <time>2021-02-23T17:53:54Z</time>
      </trkpt>
      <trkpt lat="40.4121870" lon="-3.7724670">
        <ele>670.7</ele>
        <time>2021-02-23T17:53:55Z</time>
      </trkpt>
      <trkpt lat="40.4121950" lon="-3.7724040">
        <ele>670.5</ele>
        <time>2021-02-23T17:53:56Z</time>
      </trkpt>
      <trkpt lat="40.4122010" lon="-3.7723490">
        <ele>670.4</ele>
        <time>2021-02-23T17:53:57Z</time>
      </trkpt>
      <trkpt lat="40.4122050" lon="-3.7723140">
        <ele>670.4</ele>
        <time>2021-02-23T17:53:58Z</time>
      </trkpt>
      <trkpt lat="40.4122080" lon="-3.7722860">
        <ele>670.3</ele>
        <time>2021-02-23T17:53:59Z</time>
      </trkpt>
      <trkpt lat="40.4122110" lon="-3.7722580">
        <ele>670.2</ele>
        <time>2021-02-23T17:54:00Z</time>
      </trkpt>
      <trkpt lat="40.4122180" lon="-3.7721890">
        <ele>670.1</ele>
        <time>2021-02-23T17:54:01Z</time>
      </trkpt>
      <trkpt lat="40.4122200" lon="-3.7721620">
        <ele>670.0</ele>
        <time>2021-02-23T17:54:02Z</time>
      </trkpt>
      <trkpt lat="40.4122230" lon="-3.7721340">
        <ele>670.0</ele>
        <time>2021-02-23T17:54:03Z</time>
      </trkpt>
      <trkpt lat="40.4122300" lon="-3.7720730">
        <ele>669.9</ele>
        <time>2021-02-23T17:54:04Z</time>
      </trkpt>
      <trkpt lat="40.4122360" lon="-3.7720180">
        <ele>669.7</ele>
        <time>2021-02-23T17:54:05Z</time>
      </trkpt>
      <trkpt lat="40.4122390" lon="-3.7719840">
        <ele>669.7</ele>
        <time>2021-02-23T17:54:06Z</time>
      </trkpt>
      <trkpt lat="40.4122410" lon="-3.7719570">
        <ele>669.6</ele>
        <time>2021-02-23T17:54:07Z</time>
      </trkpt>
      <trkpt lat="40.4122440" lon="-3.7719300">
        <ele>669.6</ele>
        <time>2021-02-23T17:54:08Z</time>
      </trkpt>
      <trkpt lat="40.4122500" lon="-3.7718700">
        <ele>669.4</ele>
        <time>2021-02-23T17:54:09Z</time>
      </trkpt>
      <trkpt lat="40.4122520" lon="-3.7718500">
        <ele>669.4</ele>
        <time>2021-02-23T17:54:10Z</time>
      </trkpt>
      <trkpt lat="40.4122570" lon="-3.7717850">
        <ele>669.2</ele>
        <time>2021-02-23T17:54:11Z</time>
      </trkpt>
      <trkpt lat="40.4122600" lon="-3.7717580">
        <ele>669.2</ele>
        <time>2021-02-23T17:54:12Z</time>
      </trkpt>
      <trkpt lat="40.4122620" lon="-3.7717320">
        <ele>669.1</ele>
        <time>2021-02-23T17:54:13Z</time>
      </trkpt>
      <trkpt lat="40.4122650" lon="-3.7716740">
        <ele>669.0</ele>
        <time>2021-02-23T17:54:14Z</time>
      </trkpt>
      <trkpt lat="40.4122670" lon="-3.7716150">
        <ele>668.9</ele>
        <time>2021-02-23T17:54:15Z</time>
      </trkpt>
      <trkpt lat="40.4122670" lon="-3.7715760">
        <ele>668.8</ele>
        <time>2021-02-23T17:54:16Z</time>
      </trkpt>
      <trkpt lat="40.4122680" lon="-3.7715360">
        <ele>668.7</ele>
        <time>2021-02-23T17:54:17Z</time>
      </trkpt>
      <trkpt lat="40.4122680" lon="-3.7714970">
        <ele>668.6</ele>
        <time>2021-02-23T17:54:18Z</time>
      </trkpt>
      <trkpt lat="40.4122660" lon="-3.7714300">
        <ele>668.5</ele>
        <time>2021-02-23T17:54:19Z</time>
      </trkpt>
      <trkpt lat="40.4122650" lon="-3.7714040">
        <ele>668.4</ele>
        <time>2021-02-23T17:54:20Z</time>
      </trkpt>
      <trkpt lat="40.4122640" lon="-3.7713770">
        <ele>668.4</ele>
        <time>2021-02-23T17:54:21Z</time>
      </trkpt>
      <trkpt lat="40.4122610" lon="-3.7713170">
        <ele>668.2</ele>
        <time>2021-02-23T17:54:22Z</time>
      </trkpt>
      <trkpt lat="40.4122590" lon="-3.7712970">
        <ele>668.2</ele>
        <time>2021-02-23T17:54:23Z</time>
      </trkpt>
      <trkpt lat="40.4122550" lon="-3.7712290">
        <ele>668.1</ele>
        <time>2021-02-23T17:54:24Z</time>
      </trkpt>
      <trkpt lat="40.4122530" lon="-3.7712030">
        <ele>668.0</ele>
        <time>2021-02-23T17:54:25Z</time>
      </trkpt>
      <trkpt lat="40.4122510" lon="-3.7711760">
        <ele>668.0</ele>
        <time>2021-02-23T17:54:26Z</time>
      </trkpt>
      <trkpt lat="40.4122470" lon="-3.7711160">
        <ele>667.9</ele>
        <time>2021-02-23T17:54:27Z</time>
      </trkpt>
      <trkpt lat="40.4122460" lon="-3.7710960">
        <ele>667.9</ele>
        <time>2021-02-23T17:54:28Z</time>
      </trkpt>
      <trkpt lat="40.4122400" lon="-3.7710310">
        <ele>667.8</ele>
        <time>2021-02-23T17:54:29Z</time>
      </trkpt>
      <trkpt lat="40.4122380" lon="-3.7710040">
        <ele>667.8</ele>
        <time>2021-02-23T17:54:30Z</time>
      </trkpt>
      <trkpt lat="40.4122360" lon="-3.7709780">
        <ele>667.8</ele>
        <time>2021-02-23T17:54:31Z</time>
      </trkpt>
      <trkpt lat="40.4122320" lon="-3.7709190">
        <ele>667.6</ele>
        <time>2021-02-23T17:54:32Z</time>
      </trkpt>
      <trkpt lat="40.4122290" lon="-3.7708670">
        <ele>667.5</ele>
        <time>2021-02-23T17:54:33Z</time>
      </trkpt>
      <trkpt lat="40.4122260" lon="-3.7708350">
        <ele>667.5</ele>
        <time>2021-02-23T17:54:34Z</time>
      </trkpt>
      <trkpt lat="40.4122240" lon="-3.7708090">
        <ele>667.4</ele>
        <time>2021-02-23T17:54:35Z</time>
      </trkpt>
      <trkpt lat="40.4122220" lon="-3.7707830">
        <ele>667.3</ele>
        <time>2021-02-23T17:54:36Z</time>
      </trkpt>
      <trkpt lat="40.4122190" lon="-3.7707190">
        <ele>667.2</ele>
        <time>2021-02-23T17:54:37Z</time>
      </trkpt>
      <trkpt lat="40.4122170" lon="-3.7706930">
        <ele>667.1</ele>
        <time>2021-02-23T17:54:38Z</time>
      </trkpt>
      <trkpt lat="40.4122160" lon="-3.7706670">
        <ele>667.1</ele>
        <time>2021-02-23T17:54:39Z</time>
      </trkpt>
      <trkpt lat="40.4122130" lon="-3.7706090">
        <ele>666.9</ele>
        <time>2021-02-23T17:54:40Z</time>
      </trkpt>
      <trkpt lat="40.4122120" lon="-3.7705900">
        <ele>666.9</ele>
        <time>2021-02-23T17:54:41Z</time>
      </trkpt>
      <trkpt lat="40.4122090" lon="-3.7705260">
        <ele>666.8</ele>
        <time>2021-02-23T17:54:42Z</time>
      </trkpt>
      <trkpt lat="40.4122080" lon="-3.7705010">
        <ele>666.7</ele>
        <time>2021-02-23T17:54:43Z</time>
      </trkpt>
      <trkpt lat="40.4122070" lon="-3.7704750">
        <ele>666.7</ele>
        <time>2021-02-23T17:54:44Z</time>
      </trkpt>
      <trkpt lat="40.4122040" lon="-3.7704160">
        <ele>666.5</ele>
        <time>2021-02-23T17:54:45Z</time>
      </trkpt>
      <trkpt lat="40.4122030" lon="-3.7703970">
        <ele>666.5</ele>
        <time>2021-02-23T17:54:46Z</time>
      </trkpt>
      <trkpt lat="40.4122010" lon="-3.7703320">
        <ele>666.3</ele>
        <time>2021-02-23T17:54:47Z</time>
      </trkpt>
      <trkpt lat="40.4121990" lon="-3.7703060">
        <ele>666.3</ele>
        <time>2021-02-23T17:54:48Z</time>
      </trkpt>
      <trkpt lat="40.4121980" lon="-3.7702800">
        <ele>666.2</ele>
        <time>2021-02-23T17:54:49Z</time>
      </trkpt>
      <trkpt lat="40.4121960" lon="-3.7702200">
        <ele>666.1</ele>
        <time>2021-02-23T17:54:50Z</time>
      </trkpt>
      <trkpt lat="40.4121940" lon="-3.7701670">
        <ele>666.0</ele>
        <time>2021-02-23T17:54:51Z</time>
      </trkpt>
      <trkpt lat="40.4121920" lon="-3.7701340">
        <ele>665.9</ele>
        <time>2021-02-23T17:54:52Z</time>
      </trkpt>
      <trkpt lat="40.4121900" lon="-3.7701080">
        <ele>665.9</ele>
        <time>2021-02-23T17:54:53Z</time>
      </trkpt>
      <trkpt lat="40.4121890" lon="-3.7700810">
        <ele>665.8</ele>
        <time>2021-02-23T17:54:54Z</time>
      </trkpt>
      <trkpt lat="40.4121870" lon="-3.7700150">
        <ele>665.7</ele>
        <time>2021-02-23T17:54:55Z</time>
      </trkpt>
      <trkpt lat="40.4121870" lon="-3.7699880">
        <ele>665.6</ele>
        <time>2021-02-23T17:54:56Z</time>
      </trkpt>
      <trkpt lat="40.4121860" lon="-3.7699620">
        <ele>665.6</ele>
        <time>2021-02-23T17:54:57Z</time>
      </trkpt>
      <trkpt lat="40.4121850" lon="-3.7699020">
        <ele>665.4</ele>
        <time>2021-02-23T17:54:58Z</time>
      </trkpt>
      <trkpt lat="40.4121840" lon="-3.7698820">
        <ele>665.4</ele>
        <time>2021-02-23T17:54:59Z</time>
      </trkpt>
      <trkpt lat="40.4121840" lon="-3.7698170">
        <ele>665.2</ele>
        <time>2021-02-23T17:55:00Z</time>
      </trkpt>
      <trkpt lat="40.4121830" lon="-3.7697900">
        <ele>665.2</ele>
        <time>2021-02-23T17:55:01Z</time>
      </trkpt>
      <trkpt lat="40.4121830" lon="-3.7697640">
        <ele>665.1</ele>
        <time>2021-02-23T17:55:02Z</time>
      </trkpt>
      <trkpt lat="40.4121830" lon="-3.7697060">
        <ele>665.0</ele>
        <time>2021-02-23T17:55:03Z</time>
      </trkpt>
      <trkpt lat="40.4121830" lon="-3.7696860">
        <ele>665.0</ele>
        <time>2021-02-23T17:55:04Z</time>
      </trkpt>
      <trkpt lat="40.4121830" lon="-3.7696210">
        <ele>664.9</ele>
        <time>2021-02-23T17:55:05Z</time>
      </trkpt>
      <trkpt lat="40.4121840" lon="-3.7695950">
        <ele>664.8</ele>
        <time>2021-02-23T17:55:06Z</time>
      </trkpt>
      <trkpt lat="40.4121840" lon="-3.7695690">
        <ele>664.8</ele>
        <time>2021-02-23T17:55:07Z</time>
      </trkpt>
      <trkpt lat="40.4121850" lon="-3.7695100">
        <ele>664.7</ele>
        <time>2021-02-23T17:55:08Z</time>
      </trkpt>
      <trkpt lat="40.4121850" lon="-3.7694900">
        <ele>664.6</ele>
        <time>2021-02-23T17:55:09Z</time>
      </trkpt>
      <trkpt lat="40.4121860" lon="-3.7694250">
        <ele>664.5</ele>
        <time>2021-02-23T17:55:10Z</time>
      </trkpt>
      <trkpt lat="40.4121870" lon="-3.7694000">
        <ele>664.4</ele>
        <time>2021-02-23T17:55:11Z</time>
      </trkpt>
      <trkpt lat="40.4121880" lon="-3.7693740">
        <ele>664.4</ele>
        <time>2021-02-23T17:55:12Z</time>
      </trkpt>
      <trkpt lat="40.4121920" lon="-3.7693090">
        <ele>664.2</ele>
        <time>2021-02-23T17:55:13Z</time>
      </trkpt>
      <trkpt lat="40.4121930" lon="-3.7692830">
        <ele>664.1</ele>
        <time>2021-02-23T17:55:14Z</time>
      </trkpt>
      <trkpt lat="40.4121950" lon="-3.7692570">
        <ele>664.1</ele>
        <time>2021-02-23T17:55:15Z</time>
      </trkpt>
      <trkpt lat="40.4122010" lon="-3.7692000">
        <ele>663.9</ele>
        <time>2021-02-23T17:55:16Z</time>
      </trkpt>
      <trkpt lat="40.4122030" lon="-3.7691810">
        <ele>663.8</ele>
        <time>2021-02-23T17:55:17Z</time>
      </trkpt>
      <trkpt lat="40.4122120" lon="-3.7691190">
        <ele>663.6</ele>
        <time>2021-02-23T17:55:18Z</time>
      </trkpt>
      <trkpt lat="40.4122160" lon="-3.7690950">
        <ele>663.5</ele>
        <time>2021-02-23T17:55:19Z</time>
      </trkpt>
      <trkpt lat="40.4122200" lon="-3.7690700">
        <ele>663.4</ele>
        <time>2021-02-23T17:55:20Z</time>
      </trkpt>
      <trkpt lat="40.4122310" lon="-3.7690160">
        <ele>663.1</ele>
        <time>2021-02-23T17:55:21Z</time>
      </trkpt>
      <trkpt lat="40.4122350" lon="-3.7689980">
        <ele>663.0</ele>
        <time>2021-02-23T17:55:22Z</time>
      </trkpt>
      <trkpt lat="40.4122480" lon="-3.7689410">
        <ele>662.8</ele>
        <time>2021-02-23T17:55:23Z</time>
      </trkpt>
      <trkpt lat="40.4122540" lon="-3.7689180">
        <ele>662.7</ele>
        <time>2021-02-23T17:55:24Z</time>
      </trkpt>
      <trkpt lat="40.4122590" lon="-3.7688960">
        <ele>662.6</ele>
        <time>2021-02-23T17:55:25Z</time>
      </trkpt>
      <trkpt lat="40.4122720" lon="-3.7688470">
        <ele>662.3</ele>
        <time>2021-02-23T17:55:26Z</time>
      </trkpt>
      <trkpt lat="40.4122760" lon="-3.7688300">
        <ele>662.2</ele>
        <time>2021-02-23T17:55:27Z</time>
      </trkpt>
      <trkpt lat="40.4122890" lon="-3.7687790">
        <ele>662.0</ele>
        <time>2021-02-23T17:55:28Z</time>
      </trkpt>
      <trkpt lat="40.4122940" lon="-3.7687580">
        <ele>661.9</ele>
        <time>2021-02-23T17:55:29Z</time>
      </trkpt>
      <trkpt lat="40.4122990" lon="-3.7687380">
        <ele>661.8</ele>
        <time>2021-02-23T17:55:30Z</time>
      </trkpt>
      <trkpt lat="40.4123090" lon="-3.7686890">
        <ele>661.6</ele>
        <time>2021-02-23T17:55:31Z</time>
      </trkpt>
      <trkpt lat="40.4123130" lon="-3.7686690">
        <ele>661.5</ele>
        <time>2021-02-23T17:55:32Z</time>
      </trkpt>
      <trkpt lat="40.4123170" lon="-3.7686500">
        <ele>661.4</ele>
        <time>2021-02-23T17:55:33Z</time>
      </trkpt>
      <trkpt lat="40.4123240" lon="-3.7686080">
        <ele>661.2</ele>
        <time>2021-02-23T17:55:34Z</time>
      </trkpt>
      <trkpt lat="40.4123260" lon="-3.7685940">
        <ele>661.2</ele>
        <time>2021-02-23T17:55:35Z</time>
      </trkpt>
      <trkpt lat="40.4123340" lon="-3.7685480">
        <ele>661.0</ele>
        <time>2021-02-23T17:55:36Z</time>
      </trkpt>
      <trkpt lat="40.4123360" lon="-3.7685290">
        <ele>660.9</ele>
        <time>2021-02-23T17:55:37Z</time>
      </trkpt>
      <trkpt lat="40.4123390" lon="-3.7685110">
        <ele>660.8</ele>
        <time>2021-02-23T17:55:38Z</time>
      </trkpt>
      <trkpt lat="40.4123450" lon="-3.7684690">
        <ele>660.6</ele>
        <time>2021-02-23T17:55:39Z</time>
      </trkpt>
      <trkpt lat="40.4123470" lon="-3.7684540">
        <ele>660.5</ele>
        <time>2021-02-23T17:55:40Z</time>
      </trkpt>
      <trkpt lat="40.4123540" lon="-3.7684060">
        <ele>660.3</ele>
        <time>2021-02-23T17:55:41Z</time>
      </trkpt>
      <trkpt lat="40.4123560" lon="-3.7683860">
        <ele>660.2</ele>
        <time>2021-02-23T17:55:42Z</time>
      </trkpt>
      <trkpt lat="40.4123590" lon="-3.7683660">
        <ele>660.1</ele>
        <time>2021-02-23T17:55:43Z</time>
      </trkpt>
      <trkpt lat="40.4123650" lon="-3.7683150">
        <ele>659.9</ele>
        <time>2021-02-23T17:55:44Z</time>
      </trkpt>
      <trkpt lat="40.4123670" lon="-3.7682940">
        <ele>659.8</ele>
        <time>2021-02-23T17:55:45Z</time>
      </trkpt>
      <trkpt lat="40.4123690" lon="-3.7682730">
        <ele>659.7</ele>
        <time>2021-02-23T17:55:46Z</time>
      </trkpt>
      <trkpt lat="40.4123740" lon="-3.7682250">
        <ele>659.4</ele>
        <time>2021-02-23T17:55:47Z</time>
      </trkpt>
      <trkpt lat="40.4123750" lon="-3.7682080">
        <ele>659.4</ele>
        <time>2021-02-23T17:55:48Z</time>
      </trkpt>
      <trkpt lat="40.4123790" lon="-3.7681520">
        <ele>659.1</ele>
        <time>2021-02-23T17:55:49Z</time>
      </trkpt>
      <trkpt lat="40.4123800" lon="-3.7681300">
        <ele>659.0</ele>
        <time>2021-02-23T17:55:50Z</time>
      </trkpt>
      <trkpt lat="40.4123820" lon="-3.7681070">
        <ele>658.8</ele>
        <time>2021-02-23T17:55:51Z</time>
      </trkpt>
      <trkpt lat="40.4123860" lon="-3.7680560">
        <ele>658.6</ele>
        <time>2021-02-23T17:55:52Z</time>
      </trkpt>
      <trkpt lat="40.4123870" lon="-3.7680390">
        <ele>658.5</ele>
        <time>2021-02-23T17:55:53Z</time>
      </trkpt>
      <trkpt lat="40.4123920" lon="-3.7679820">
        <ele>658.1</ele>
        <time>2021-02-23T17:55:54Z</time>
      </trkpt>
      <trkpt lat="40.4123940" lon="-3.7679580">
        <ele>658.0</ele>
        <time>2021-02-23T17:55:55Z</time>
      </trkpt>
      <trkpt lat="40.4123970" lon="-3.7679350">
        <ele>657.9</ele>
        <time>2021-02-23T17:55:56Z</time>
      </trkpt>
      <trkpt lat="40.4124050" lon="-3.7678830">
        <ele>657.5</ele>
        <time>2021-02-23T17:55:57Z</time>
      </trkpt>
      <trkpt lat="40.4124080" lon="-3.7678650">
        <ele>657.4</ele>
        <time>2021-02-23T17:55:58Z</time>
      </trkpt>
      <trkpt lat="40.4124200" lon="-3.7678070">
        <ele>657.0</ele>
        <time>2021-02-23T17:55:59Z</time>
      </trkpt>
      <trkpt lat="40.4124260" lon="-3.7677830">
        <ele>656.9</ele>
        <time>2021-02-23T17:56:00Z</time>
      </trkpt>
      <trkpt lat="40.4124310" lon="-3.7677600">
        <ele>656.7</ele>
        <time>2021-02-23T17:56:01Z</time>
      </trkpt>
      <trkpt lat="40.4124480" lon="-3.7677020">
        <ele>656.3</ele>
        <time>2021-02-23T17:56:02Z</time>
      </trkpt>
      <trkpt lat="40.4124540" lon="-3.7676780">
        <ele>656.1</ele>
        <time>2021-02-23T17:56:03Z</time>
      </trkpt>
      <trkpt lat="40.4124610" lon="-3.7676550">
        <ele>656.0</ele>
        <time>2021-02-23T17:56:04Z</time>
      </trkpt>
      <trkpt lat="40.4124780" lon="-3.7676030">
        <ele>655.6</ele>
        <time>2021-02-23T17:56:05Z</time>
      </trkpt>
      <trkpt lat="40.4124840" lon="-3.7675850">
        <ele>655.5</ele>
        <time>2021-02-23T17:56:06Z</time>
      </trkpt>
      <trkpt lat="40.4125030" lon="-3.7675280">
        <ele>655.0</ele>
        <time>2021-02-23T17:56:07Z</time>
      </trkpt>
      <trkpt lat="40.4125110" lon="-3.7675050">
        <ele>654.8</ele>
        <time>2021-02-23T17:56:08Z</time>
      </trkpt>
      <trkpt lat="40.4125190" lon="-3.7674820">
        <ele>654.7</ele>
        <time>2021-02-23T17:56:09Z</time>
      </trkpt>
      <trkpt lat="40.4125370" lon="-3.7674310">
        <ele>654.3</ele>
        <time>2021-02-23T17:56:10Z</time>
      </trkpt>
      <trkpt lat="40.4125430" lon="-3.7674140">
        <ele>654.1</ele>
        <time>2021-02-23T17:56:11Z</time>
      </trkpt>
      <trkpt lat="40.4125620" lon="-3.7673560">
        <ele>653.7</ele>
        <time>2021-02-23T17:56:12Z</time>
      </trkpt>
      <trkpt lat="40.4125700" lon="-3.7673330">
        <ele>653.6</ele>
        <time>2021-02-23T17:56:13Z</time>
      </trkpt>
      <trkpt lat="40.4125770" lon="-3.7673100">
        <ele>653.4</ele>
        <time>2021-02-23T17:56:14Z</time>
      </trkpt>
      <trkpt lat="40.4125940" lon="-3.7672580">
        <ele>653.0</ele>
        <time>2021-02-23T17:56:15Z</time>
      </trkpt>
      <trkpt lat="40.4125990" lon="-3.7672400">
        <ele>652.9</ele>
        <time>2021-02-23T17:56:16Z</time>
      </trkpt>
      <trkpt lat="40.4126160" lon="-3.7671800">
        <ele>652.6</ele>
        <time>2021-02-23T17:56:17Z</time>
      </trkpt>
      <trkpt lat="40.4126230" lon="-3.7671570">
        <ele>652.4</ele>
        <time>2021-02-23T17:56:18Z</time>
      </trkpt>
      <trkpt lat="40.4126300" lon="-3.7671330">
        <ele>652.3</ele>
        <time>2021-02-23T17:56:19Z</time>
      </trkpt>
      <trkpt lat="40.4126480" lon="-3.7670730">
        <ele>651.9</ele>
        <time>2021-02-23T17:56:20Z</time>
      </trkpt>
      <trkpt lat="40.4126560" lon="-3.7670480">
        <ele>651.8</ele>
        <time>2021-02-23T17:56:21Z</time>
      </trkpt>
      <trkpt lat="40.4126630" lon="-3.7670240">
        <ele>651.6</ele>
        <time>2021-02-23T17:56:22Z</time>
      </trkpt>
      <trkpt lat="40.4126810" lon="-3.7669700">
        <ele>651.3</ele>
        <time>2021-02-23T17:56:23Z</time>
      </trkpt>
      <trkpt lat="40.4126980" lon="-3.7669220">
        <ele>651.0</ele>
        <time>2021-02-23T17:56:24Z</time>
      </trkpt>
      <trkpt lat="40.4127090" lon="-3.7668910">
        <ele>650.9</ele>
        <time>2021-02-23T17:56:25Z</time>
      </trkpt>
      <trkpt lat="40.4127180" lon="-3.7668670">
        <ele>650.8</ele>
        <time>2021-02-23T17:56:26Z</time>
      </trkpt>
      <trkpt lat="40.4127270" lon="-3.7668430">
        <ele>650.6</ele>
        <time>2021-02-23T17:56:27Z</time>
      </trkpt>
      <trkpt lat="40.4127490" lon="-3.7667890">
        <ele>650.4</ele>
        <time>2021-02-23T17:56:28Z</time>
      </trkpt>
      <trkpt lat="40.4127680" lon="-3.7667410">
        <ele>650.2</ele>
        <time>2021-02-23T17:56:29Z</time>
      </trkpt>
      <trkpt lat="40.4127800" lon="-3.7667100">
        <ele>650.1</ele>
        <time>2021-02-23T17:56:30Z</time>
      </trkpt>
      <trkpt lat="40.4127900" lon="-3.7666870">
        <ele>650.0</ele>
        <time>2021-02-23T17:56:31Z</time>
      </trkpt>
      <trkpt lat="40.4128000" lon="-3.7666630">
        <ele>649.9</ele>
        <time>2021-02-23T17:56:32Z</time>
      </trkpt>
      <trkpt lat="40.4128230" lon="-3.7666090">
        <ele>649.7</ele>
        <time>2021-02-23T17:56:33Z</time>
      </trkpt>
      <trkpt lat="40.4128430" lon="-3.7665610">
        <ele>649.5</ele>
        <time>2021-02-23T17:56:34Z</time>
      </trkpt>
      <trkpt lat="40.4128550" lon="-3.7665310">
        <ele>649.4</ele>
        <time>2021-02-23T17:56:35Z</time>
      </trkpt>
      <trkpt lat="40.4128640" lon="-3.7665080">
        <ele>649.3</ele>
        <time>2021-02-23T17:56:36Z</time>
      </trkpt>
      <trkpt lat="40.4128740" lon="-3.7664840">
        <ele>649.2</ele>
        <time>2021-02-23T17:56:37Z</time>
      </trkpt>
      <trkpt lat="40.4128970" lon="-3.7664250">
        <ele>649.0</ele>
        <time>2021-02-23T17:56:38Z</time>
      </trkpt>
      <trkpt lat="40.4129060" lon="-3.7664020">
        <ele>648.9</ele>
        <time>2021-02-23T17:56:39Z</time>
      </trkpt>
      <trkpt lat="40.4129150" lon="-3.7663780">
        <ele>648.8</ele>
        <time>2021-02-23T17:56:40Z</time>
      </trkpt>
      <trkpt lat="40.4129330" lon="-3.7663240">
        <ele>648.6</ele>
        <time>2021-02-23T17:56:41Z</time>
      </trkpt>
      <trkpt lat="40.4129390" lon="-3.7663060">
        <ele>648.6</ele>
        <time>2021-02-23T17:56:42Z</time>
      </trkpt>
      <trkpt lat="40.4129580" lon="-3.7662460">
        <ele>648.4</ele>
        <time>2021-02-23T17:56:43Z</time>
      </trkpt>
      <trkpt lat="40.4129660" lon="-3.7662220">
        <ele>648.3</ele>
        <time>2021-02-23T17:56:44Z</time>
      </trkpt>
      <trkpt lat="40.4129730" lon="-3.7661980">
        <ele>648.2</ele>
        <time>2021-02-23T17:56:45Z</time>
      </trkpt>
      <trkpt lat="40.4129880" lon="-3.7661440">
        <ele>648.1</ele>
        <time>2021-02-23T17:56:46Z</time>
      </trkpt>
      <trkpt lat="40.4129930" lon="-3.7661260">
        <ele>648.1</ele>
        <time>2021-02-23T17:56:47Z</time>
      </trkpt>
      <trkpt lat="40.4130080" lon="-3.7660650">
        <ele>648.0</ele>
        <time>2021-02-23T17:56:48Z</time>
      </trkpt>
      <trkpt lat="40.4130140" lon="-3.7660410">
        <ele>648.0</ele>
        <time>2021-02-23T17:56:49Z</time>
      </trkpt>
      <trkpt lat="40.4130200" lon="-3.7660160">
        <ele>648.0</ele>
        <time>2021-02-23T17:56:50Z</time>
      </trkpt>
      <trkpt lat="40.4130320" lon="-3.7659610">
        <ele>647.9</ele>
        <time>2021-02-23T17:56:51Z</time>
      </trkpt>
      <trkpt lat="40.4130350" lon="-3.7659420">
        <ele>647.9</ele>
        <time>2021-02-23T17:56:52Z</time>
      </trkpt>
      <trkpt lat="40.4130460" lon="-3.7658790">
        <ele>647.9</ele>
        <time>2021-02-23T17:56:53Z</time>
      </trkpt>
      <trkpt lat="40.4130510" lon="-3.7658540">
        <ele>647.8</ele>
        <time>2021-02-23T17:56:54Z</time>
      </trkpt>
      <trkpt lat="40.4130550" lon="-3.7658290">
        <ele>647.8</ele>
        <time>2021-02-23T17:56:55Z</time>
      </trkpt>
      <trkpt lat="40.4130650" lon="-3.7657660">
        <ele>647.7</ele>
        <time>2021-02-23T17:56:56Z</time>
      </trkpt>
      <trkpt lat="40.4130680" lon="-3.7657400">
        <ele>647.6</ele>
        <time>2021-02-23T17:56:57Z</time>
      </trkpt>
      <trkpt lat="40.4130720" lon="-3.7657150">
        <ele>647.6</ele>
        <time>2021-02-23T17:56:58Z</time>
      </trkpt>
      <trkpt lat="40.4130800" lon="-3.7656570">
        <ele>647.4</ele>
        <time>2021-02-23T17:56:59Z</time>
      </trkpt>
      <trkpt lat="40.4130820" lon="-3.7656380">
        <ele>647.4</ele>
        <time>2021-02-23T17:57:00Z</time>
      </trkpt>
      <trkpt lat="40.4130890" lon="-3.7655730">
        <ele>647.3</ele>
        <time>2021-02-23T17:57:01Z</time>
      </trkpt>
      <trkpt lat="40.4130920" lon="-3.7655480">
        <ele>647.2</ele>
        <time>2021-02-23T17:57:02Z</time>
      </trkpt>
      <trkpt lat="40.4130950" lon="-3.7655220">
        <ele>647.2</ele>
        <time>2021-02-23T17:57:03Z</time>
      </trkpt>
      <trkpt lat="40.4131020" lon="-3.7654650">
        <ele>647.1</ele>
        <time>2021-02-23T17:57:04Z</time>
      </trkpt>
      <trkpt lat="40.4131040" lon="-3.7654460">
        <ele>647.1</ele>
        <time>2021-02-23T17:57:05Z</time>
      </trkpt>
      <trkpt lat="40.4131110" lon="-3.7653820">
        <ele>647.0</ele>
        <time>2021-02-23T17:57:06Z</time>
      </trkpt>
      <trkpt lat="40.4131130" lon="-3.7653570">
        <ele>646.9</ele>
        <time>2021-02-23T17:57:07Z</time>
      </trkpt>
      <trkpt lat="40.4131160" lon="-3.7653310">
        <ele>646.9</ele>
        <time>2021-02-23T17:57:08Z</time>
      </trkpt>
      <trkpt lat="40.4131230" lon="-3.7652750">
        <ele>646.8</ele>
        <time>2021-02-23T17:57:09Z</time>
      </trkpt>
      <trkpt lat="40.4131250" lon="-3.7652560">
        <ele>646.8</ele>
        <time>2021-02-23T17:57:10Z</time>
      </trkpt>
      <trkpt lat="40.4131320" lon="-3.7651930">
        <ele>646.7</ele>
        <time>2021-02-23T17:57:11Z</time>
      </trkpt>
      <trkpt lat="40.4131340" lon="-3.7651680">
        <ele>646.7</ele>
        <time>2021-02-23T17:57:12Z</time>
      </trkpt>
      <trkpt lat="40.4131370" lon="-3.7651430">
        <ele>646.6</ele>
        <time>2021-02-23T17:57:13Z</time>
      </trkpt>
      <trkpt lat="40.4131450" lon="-3.7650800">
        <ele>646.5</ele>
        <time>2021-02-23T17:57:14Z</time>
      </trkpt>
      <trkpt lat="40.4131480" lon="-3.7650550">
        <ele>646.5</ele>
        <time>2021-02-23T17:57:15Z</time>
      </trkpt>
      <trkpt lat="40.4131510" lon="-3.7650300">
        <ele>646.4</ele>
        <time>2021-02-23T17:57:16Z</time>
      </trkpt>
      <trkpt lat="40.4131590" lon="-3.7649730">
        <ele>646.3</ele>
        <time>2021-02-23T17:57:17Z</time>
      </trkpt>
      <trkpt lat="40.4131610" lon="-3.7649540">
        <ele>646.3</ele>
        <time>2021-02-23T17:57:18Z</time>
      </trkpt>
      <trkpt lat="40.4131690" lon="-3.7648910">
        <ele>646.2</ele>
        <time>2021-02-23T17:57:19Z</time>
      </trkpt>
      <trkpt lat="40.4131730" lon="-3.7648650">
        <ele>646.1</ele>
        <time>2021-02-23T17:57:20Z</time>
      </trkpt>
      <trkpt lat="40.4131760" lon="-3.7648400">
        <ele>646.0</ele>
        <time>2021-02-23T17:57:21Z</time>
      </trkpt>
      <trkpt lat="40.4131850" lon="-3.7647830">
        <ele>645.9</ele>
        <time>2021-02-23T17:57:22Z</time>
      </trkpt>
      <trkpt lat="40.4131870" lon="-3.7647630">
        <ele>645.8</ele>
        <time>2021-02-23T17:57:23Z</time>
      </trkpt>
      <trkpt lat="40.4131970" lon="-3.7646980">
        <ele>645.7</ele>
        <time>2021-02-23T17:57:24Z</time>
      </trkpt>
      <trkpt lat="40.4132000" lon="-3.7646720">
        <ele>645.6</ele>
        <time>2021-02-23T17:57:25Z</time>
      </trkpt>
      <trkpt lat="40.4132040" lon="-3.7646460">
        <ele>645.5</ele>
        <time>2021-02-23T17:57:26Z</time>
      </trkpt>
      <trkpt lat="40.4132130" lon="-3.7645870">
        <ele>645.3</ele>
        <time>2021-02-23T17:57:27Z</time>
      </trkpt>
      <trkpt lat="40.4132210" lon="-3.7645340">
        <ele>645.1</ele>
        <time>2021-02-23T17:57:28Z</time>
      </trkpt>
      <trkpt lat="40.4132260" lon="-3.7645010">
        <ele>645.0</ele>
        <time>2021-02-23T17:57:29Z</time>
      </trkpt>
      <trkpt lat="40.4132300" lon="-3.7644740">
        <ele>644.8</ele>
        <time>2021-02-23T17:57:30Z</time>
      </trkpt>
      <trkpt lat="40.4132340" lon="-3.7644480">
        <ele>644.7</ele>
        <time>2021-02-23T17:57:31Z</time>
      </trkpt>
      <trkpt lat="40.4132450" lon="-3.7643800">
        <ele>644.4</ele>
        <time>2021-02-23T17:57:32Z</time>
      </trkpt>
      <trkpt lat="40.4132500" lon="-3.7643540">
        <ele>644.3</ele>
        <time>2021-02-23T17:57:33Z</time>
      </trkpt>
      <trkpt lat="40.4132540" lon="-3.7643270">
        <ele>644.1</ele>
        <time>2021-02-23T17:57:34Z</time>
      </trkpt>
      <trkpt lat="40.4132640" lon="-3.7642660">
        <ele>643.8</ele>
        <time>2021-02-23T17:57:35Z</time>
      </trkpt>
      <trkpt lat="40.4132670" lon="-3.7642450">
        <ele>643.7</ele>
        <time>2021-02-23T17:57:36Z</time>
      </trkpt>
      <trkpt lat="40.4132770" lon="-3.7641770">
        <ele>643.4</ele>
        <time>2021-02-23T17:57:37Z</time>
      </trkpt>
      <trkpt lat="40.4132810" lon="-3.7641490">
        <ele>643.3</ele>
        <time>2021-02-23T17:57:38Z</time>
      </trkpt>
      <trkpt lat="40.4132850" lon="-3.7641220">
        <ele>643.1</ele>
        <time>2021-02-23T17:57:39Z</time>
      </trkpt>
      <trkpt lat="40.4132950" lon="-3.7640600">
        <ele>642.8</ele>
        <time>2021-02-23T17:57:40Z</time>
      </trkpt>
      <trkpt lat="40.4133030" lon="-3.7640050">
        <ele>642.5</ele>
        <time>2021-02-23T17:57:41Z</time>
      </trkpt>
      <trkpt lat="40.4133080" lon="-3.7639700">
        <ele>642.3</ele>
        <time>2021-02-23T17:57:42Z</time>
      </trkpt>
      <trkpt lat="40.4133120" lon="-3.7639430">
        <ele>642.2</ele>
        <time>2021-02-23T17:57:43Z</time>
      </trkpt>
      <trkpt lat="40.4133160" lon="-3.7639150">
        <ele>642.0</ele>
        <time>2021-02-23T17:57:44Z</time>
      </trkpt>
      <trkpt lat="40.4133250" lon="-3.7638530">
        <ele>641.7</ele>
        <time>2021-02-23T17:57:45Z</time>
      </trkpt>
      <trkpt lat="40.4133330" lon="-3.7637980">
        <ele>641.4</ele>
        <time>2021-02-23T17:57:46Z</time>
      </trkpt>
      <trkpt lat="40.4133380" lon="-3.7637640">
        <ele>641.2</ele>
        <time>2021-02-23T17:57:47Z</time>
      </trkpt>
      <trkpt lat="40.4133430" lon="-3.7637370">
        <ele>641.1</ele>
        <time>2021-02-23T17:57:48Z</time>
      </trkpt>
      <trkpt lat="40.4133470" lon="-3.7637100">
        <ele>640.9</ele>
        <time>2021-02-23T17:57:49Z</time>
      </trkpt>
      <trkpt lat="40.4133580" lon="-3.7636430">
        <ele>640.6</ele>
        <time>2021-02-23T17:57:50Z</time>
      </trkpt>
      <trkpt lat="40.4133620" lon="-3.7636170">
        <ele>640.4</ele>
        <time>2021-02-23T17:57:51Z</time>
      </trkpt>
      <trkpt lat="40.4133670" lon="-3.7635900">
        <ele>640.3</ele>
        <time>2021-02-23T17:57:52Z</time>
      </trkpt>
      <trkpt lat="40.4133780" lon="-3.7635320">
        <ele>640.0</ele>
        <time>2021-02-23T17:57:53Z</time>
      </trkpt>
      <trkpt lat="40.4133810" lon="-3.7635130">
        <ele>639.9</ele>
        <time>2021-02-23T17:57:54Z</time>
      </trkpt>
      <trkpt lat="40.4133930" lon="-3.7634490">
        <ele>639.5</ele>
        <time>2021-02-23T17:57:55Z</time>
      </trkpt>
      <trkpt lat="40.4133980" lon="-3.7634230">
        <ele>639.4</ele>
        <time>2021-02-23T17:57:56Z</time>
      </trkpt>
      <trkpt lat="40.4134030" lon="-3.7633980">
        <ele>639.2</ele>
        <time>2021-02-23T17:57:57Z</time>
      </trkpt>
      <trkpt lat="40.4134140" lon="-3.7633410">
        <ele>638.9</ele>
        <time>2021-02-23T17:57:58Z</time>
      </trkpt>
      <trkpt lat="40.4134170" lon="-3.7633220">
        <ele>638.8</ele>
        <time>2021-02-23T17:57:59Z</time>
      </trkpt>
      <trkpt lat="40.4134270" lon="-3.7632590">
        <ele>638.5</ele>
        <time>2021-02-23T17:58:00Z</time>
      </trkpt>
      <trkpt lat="40.4134320" lon="-3.7632330">
        <ele>638.4</ele>
        <time>2021-02-23T17:58:01Z</time>
      </trkpt>
      <trkpt lat="40.4134360" lon="-3.7632080">
        <ele>638.3</ele>
        <time>2021-02-23T17:58:02Z</time>
      </trkpt>
      <trkpt lat="40.4134440" lon="-3.7631500">
        <ele>638.0</ele>
        <time>2021-02-23T17:58:03Z</time>
      </trkpt>
      <trkpt lat="40.4134470" lon="-3.7631310">
        <ele>637.9</ele>
        <time>2021-02-23T17:58:04Z</time>
      </trkpt>
      <trkpt lat="40.4134550" lon="-3.7630670">
        <ele>637.6</ele>
        <time>2021-02-23T17:58:05Z</time>
      </trkpt>
      <trkpt lat="40.4134580" lon="-3.7630420">
        <ele>637.4</ele>
        <time>2021-02-23T17:58:06Z</time>
      </trkpt>
      <trkpt lat="40.4134610" lon="-3.7630160">
        <ele>637.3</ele>
        <time>2021-02-23T17:58:07Z</time>
      </trkpt>
      <trkpt lat="40.4134670" lon="-3.7629510">
        <ele>637.0</ele>
        <time>2021-02-23T17:58:08Z</time>
      </trkpt>
      <trkpt lat="40.4134700" lon="-3.7629260">
        <ele>636.9</ele>
        <time>2021-02-23T17:58:09Z</time>
      </trkpt>
      <trkpt lat="40.4134720" lon="-3.7629000">
        <ele>636.8</ele>
        <time>2021-02-23T17:58:10Z</time>
      </trkpt>
      <trkpt lat="40.4134760" lon="-3.7628420">
        <ele>636.5</ele>
        <time>2021-02-23T17:58:11Z</time>
      </trkpt>
      <trkpt lat="40.4134770" lon="-3.7628220">
        <ele>636.4</ele>
        <time>2021-02-23T17:58:12Z</time>
      </trkpt>
      <trkpt lat="40.4134800" lon="-3.7627570">
        <ele>636.1</ele>
        <time>2021-02-23T17:58:13Z</time>
      </trkpt>
      <trkpt lat="40.4134800" lon="-3.7627300">
        <ele>636.0</ele>
        <time>2021-02-23T17:58:14Z</time>
      </trkpt>
      <trkpt lat="40.4134810" lon="-3.7627040">
        <ele>635.9</ele>
        <time>2021-02-23T17:58:15Z</time>
      </trkpt>
      <trkpt lat="40.4134810" lon="-3.7626450">
        <ele>635.6</ele>
        <time>2021-02-23T17:58:16Z</time>
      </trkpt>
      <trkpt lat="40.4134750" lon="-3.7625920">
        <ele>635.4</ele>
        <time>2021-02-23T17:58:17Z</time>
      </trkpt>
      <trkpt lat="40.4134680" lon="-3.7625600">
        <ele>635.2</ele>
        <time>2021-02-23T17:58:18Z</time>
      </trkpt>
      <trkpt lat="40.4134630" lon="-3.7625330">
        <ele>635.1</ele>
        <time>2021-02-23T17:58:19Z</time>
      </trkpt>
      <trkpt lat="40.4134580" lon="-3.7625070">
        <ele>635.0</ele>
        <time>2021-02-23T17:58:20Z</time>
      </trkpt>
      <trkpt lat="40.4134460" lon="-3.7624490">
        <ele>634.7</ele>
        <time>2021-02-23T17:58:21Z</time>
      </trkpt>
      <trkpt lat="40.4134420" lon="-3.7624300">
        <ele>634.6</ele>
        <time>2021-02-23T17:58:22Z</time>
      </trkpt>
      <trkpt lat="40.4134280" lon="-3.7623660">
        <ele>634.4</ele>
        <time>2021-02-23T17:58:23Z</time>
      </trkpt>
      <trkpt lat="40.4134220" lon="-3.7623400">
        <ele>634.3</ele>
        <time>2021-02-23T17:58:24Z</time>
      </trkpt>
      <trkpt lat="40.4134160" lon="-3.7623150">
        <ele>634.2</ele>
        <time>2021-02-23T17:58:25Z</time>
      </trkpt>
      <trkpt lat="40.4134010" lon="-3.7622520">
        <ele>633.9</ele>
        <time>2021-02-23T17:58:26Z</time>
      </trkpt>
      <trkpt lat="40.4133950" lon="-3.7622270">
        <ele>633.8</ele>
        <time>2021-02-23T17:58:27Z</time>
      </trkpt>
      <trkpt lat="40.4133890" lon="-3.7622020">
        <ele>633.7</ele>
        <time>2021-02-23T17:58:28Z</time>
      </trkpt>
      <trkpt lat="40.4133750" lon="-3.7621460">
        <ele>633.6</ele>
        <time>2021-02-23T17:58:29Z</time>
      </trkpt>
      <trkpt lat="40.4133700" lon="-3.7621270">
        <ele>633.5</ele>
        <time>2021-02-23T17:58:30Z</time>
      </trkpt>
      <trkpt lat="40.4133550" lon="-3.7620650">
        <ele>633.3</ele>
        <time>2021-02-23T17:58:31Z</time>
      </trkpt>
      <trkpt lat="40.4133500" lon="-3.7620390">
        <ele>633.2</ele>
        <time>2021-02-23T17:58:32Z</time>
      </trkpt>
      <trkpt lat="40.4133440" lon="-3.7620140">
        <ele>633.1</ele>
        <time>2021-02-23T17:58:33Z</time>
      </trkpt>
      <trkpt lat="40.4133320" lon="-3.7619580">
        <ele>633.0</ele>
        <time>2021-02-23T17:58:34Z</time>
      </trkpt>
      <trkpt lat="40.4133280" lon="-3.7619390">
        <ele>632.9</ele>
        <time>2021-02-23T17:58:35Z</time>
      </trkpt>
      <trkpt lat="40.4133150" lon="-3.7618750">
        <ele>632.7</ele>
        <time>2021-02-23T17:58:36Z</time>
      </trkpt>
      <trkpt lat="40.4133110" lon="-3.7618500">
        <ele>632.7</ele>
        <time>2021-02-23T17:58:37Z</time>
      </trkpt>
      <trkpt lat="40.4133060" lon="-3.7618240">
        <ele>632.6</ele>
        <time>2021-02-23T17:58:38Z</time>
      </trkpt>
      <trkpt lat="40.4132970" lon="-3.7617670">
        <ele>632.4</ele>
        <time>2021-02-23T17:58:39Z</time>
      </trkpt>
      <trkpt lat="40.4132940" lon="-3.7617480">
        <ele>632.4</ele>
        <time>2021-02-23T17:58:40Z</time>
      </trkpt>
      <trkpt lat="40.4132850" lon="-3.7616830">
        <ele>632.2</ele>
        <time>2021-02-23T17:58:41Z</time>
      </trkpt>
      <trkpt lat="40.4132810" lon="-3.7616580">
        <ele>632.2</ele>
        <time>2021-02-23T17:58:42Z</time>
      </trkpt>
      <trkpt lat="40.4132780" lon="-3.7616320">
        <ele>632.1</ele>
        <time>2021-02-23T17:58:43Z</time>
      </trkpt>
      <trkpt lat="40.4132700" lon="-3.7615680">
        <ele>632.0</ele>
        <time>2021-02-23T17:58:44Z</time>
      </trkpt>
      <trkpt lat="40.4132670" lon="-3.7615420">
        <ele>631.9</ele>
        <time>2021-02-23T17:58:45Z</time>
      </trkpt>
      <trkpt lat="40.4132640" lon="-3.7615160">
        <ele>631.9</ele>
        <time>2021-02-23T17:58:46Z</time>
      </trkpt>
      <trkpt lat="40.4132580" lon="-3.7614580">
        <ele>631.8</ele>
        <time>2021-02-23T17:58:47Z</time>
      </trkpt>
      <trkpt lat="40.4132560" lon="-3.7614390">
        <ele>631.8</ele>
        <time>2021-02-23T17:58:48Z</time>
      </trkpt>
      <trkpt lat="40.4132510" lon="-3.7613750">
        <ele>631.6</ele>
        <time>2021-02-23T17:58:49Z</time>
      </trkpt>
      <trkpt lat="40.4132490" lon="-3.7613490">
        <ele>631.6</ele>
        <time>2021-02-23T17:58:50Z</time>
      </trkpt>
      <trkpt lat="40.4132470" lon="-3.7613230">
        <ele>631.6</ele>
        <time>2021-02-23T17:58:51Z</time>
      </trkpt>
      <trkpt lat="40.4132440" lon="-3.7612650">
        <ele>631.5</ele>
        <time>2021-02-23T17:58:52Z</time>
      </trkpt>
      <trkpt lat="40.4132430" lon="-3.7612460">
        <ele>631.5</ele>
        <time>2021-02-23T17:58:53Z</time>
      </trkpt>
      <trkpt lat="40.4132410" lon="-3.7611810">
        <ele>631.4</ele>
        <time>2021-02-23T17:58:54Z</time>
      </trkpt>
      <trkpt lat="40.4132410" lon="-3.7611540">
        <ele>631.3</ele>
        <time>2021-02-23T17:58:55Z</time>
      </trkpt>
      <trkpt lat="40.4132410" lon="-3.7611280">
        <ele>631.3</ele>
        <time>2021-02-23T17:58:56Z</time>
      </trkpt>
      <trkpt lat="40.4132440" lon="-3.7610680">
        <ele>631.2</ele>
        <time>2021-02-23T17:58:57Z</time>
      </trkpt>
      <trkpt lat="40.4132440" lon="-3.7610480">
        <ele>631.2</ele>
        <time>2021-02-23T17:58:58Z</time>
      </trkpt>
      <trkpt lat="40.4132490" lon="-3.7609800">
        <ele>631.1</ele>
        <time>2021-02-23T17:58:59Z</time>
      </trkpt>
      <trkpt lat="40.4132520" lon="-3.7609520">
        <ele>631.0</ele>
        <time>2021-02-23T17:59:00Z</time>
      </trkpt>
      <trkpt lat="40.4132540" lon="-3.7609250">
        <ele>631.0</ele>
        <time>2021-02-23T17:59:01Z</time>
      </trkpt>
      <trkpt lat="40.4132610" lon="-3.7608560">
        <ele>630.9</ele>
        <time>2021-02-23T17:59:02Z</time>
      </trkpt>
      <trkpt lat="40.4132640" lon="-3.7608280">
        <ele>630.9</ele>
        <time>2021-02-23T17:59:03Z</time>
      </trkpt>
      <trkpt lat="40.4132670" lon="-3.7608000">
        <ele>630.9</ele>
        <time>2021-02-23T17:59:04Z</time>
      </trkpt>
      <trkpt lat="40.4132750" lon="-3.7607380">
        <ele>630.9</ele>
        <time>2021-02-23T17:59:05Z</time>
      </trkpt>
      <trkpt lat="40.4132830" lon="-3.7606820">
        <ele>630.8</ele>
        <time>2021-02-23T17:59:06Z</time>
      </trkpt>
      <trkpt lat="40.4132870" lon="-3.7606470">
        <ele>630.7</ele>
        <time>2021-02-23T17:59:07Z</time>
      </trkpt>
      <trkpt lat="40.4132900" lon="-3.7606200">
        <ele>630.7</ele>
        <time>2021-02-23T17:59:08Z</time>
      </trkpt>
      <trkpt lat="40.4132940" lon="-3.7605920">
        <ele>630.7</ele>
        <time>2021-02-23T17:59:09Z</time>
      </trkpt>
      <trkpt lat="40.4133030" lon="-3.7605310">
        <ele>630.7</ele>
        <time>2021-02-23T17:59:10Z</time>
      </trkpt>
      <trkpt lat="40.4133050" lon="-3.7605100">
        <ele>630.6</ele>
        <time>2021-02-23T17:59:11Z</time>
      </trkpt>
      <trkpt lat="40.4133150" lon="-3.7604420">
        <ele>630.5</ele>
        <time>2021-02-23T17:59:12Z</time>
      </trkpt>
      <trkpt lat="40.4133190" lon="-3.7604150">
        <ele>630.5</ele>
        <time>2021-02-23T17:59:13Z</time>
      </trkpt>
      <trkpt lat="40.4133230" lon="-3.7603880">
        <ele>630.5</ele>
        <time>2021-02-23T17:59:14Z</time>
      </trkpt>
      <trkpt lat="40.4133310" lon="-3.7603270">
        <ele>630.4</ele>
        <time>2021-02-23T17:59:15Z</time>
      </trkpt>
      <trkpt lat="40.4133340" lon="-3.7603070">
        <ele>630.4</ele>
        <time>2021-02-23T17:59:16Z</time>
      </trkpt>
      <trkpt lat="40.4133420" lon="-3.7602390">
        <ele>630.3</ele>
        <time>2021-02-23T17:59:17Z</time>
      </trkpt>
      <trkpt lat="40.4133450" lon="-3.7602120">
        <ele>630.3</ele>
        <time>2021-02-23T17:59:18Z</time>
      </trkpt>
      <trkpt lat="40.4133480" lon="-3.7601850">
        <ele>630.2</ele>
        <time>2021-02-23T17:59:19Z</time>
      </trkpt>
      <trkpt lat="40.4133540" lon="-3.7601180">
        <ele>630.2</ele>
        <time>2021-02-23T17:59:20Z</time>
      </trkpt>
      <trkpt lat="40.4133560" lon="-3.7600910">
        <ele>630.1</ele>
        <time>2021-02-23T17:59:21Z</time>
      </trkpt>
      <trkpt lat="40.4133580" lon="-3.7600640">
        <ele>630.1</ele>
        <time>2021-02-23T17:59:22Z</time>
      </trkpt>
      <trkpt lat="40.4133620" lon="-3.7600040">
        <ele>630.0</ele>
        <time>2021-02-23T17:59:23Z</time>
      </trkpt>
      <trkpt lat="40.4133630" lon="-3.7599840">
        <ele>630.0</ele>
        <time>2021-02-23T17:59:24Z</time>
      </trkpt>
      <trkpt lat="40.4133650" lon="-3.7599180">
        <ele>630.0</ele>
        <time>2021-02-23T17:59:25Z</time>
      </trkpt>
      <trkpt lat="40.4133650" lon="-3.7598920">
        <ele>629.9</ele>
        <time>2021-02-23T17:59:26Z</time>
      </trkpt>
      <trkpt lat="40.4133660" lon="-3.7598660">
        <ele>629.9</ele>
        <time>2021-02-23T17:59:27Z</time>
      </trkpt>
      <trkpt lat="40.4133670" lon="-3.7598080">
        <ele>629.9</ele>
        <time>2021-02-23T17:59:28Z</time>
      </trkpt>
      <trkpt lat="40.4133670" lon="-3.7597890">
        <ele>629.8</ele>
        <time>2021-02-23T17:59:29Z</time>
      </trkpt>
      <trkpt lat="40.4133670" lon="-3.7597260">
        <ele>629.8</ele>
        <time>2021-02-23T17:59:30Z</time>
      </trkpt>
      <trkpt lat="40.4133670" lon="-3.7597000">
        <ele>629.8</ele>
        <time>2021-02-23T17:59:31Z</time>
      </trkpt>
      <trkpt lat="40.4133670" lon="-3.7596750">
        <ele>629.8</ele>
        <time>2021-02-23T17:59:32Z</time>
      </trkpt>
      <trkpt lat="40.4133670" lon="-3.7596190">
        <ele>629.7</ele>
        <time>2021-02-23T17:59:33Z</time>
      </trkpt>
      <trkpt lat="40.4133670" lon="-3.7596000">
        <ele>629.7</ele>
        <time>2021-02-23T17:59:34Z</time>
      </trkpt>
      <trkpt lat="40.4133670" lon="-3.7595380">
        <ele>629.6</ele>
        <time>2021-02-23T17:59:35Z</time>
      </trkpt>
      <trkpt lat="40.4133670" lon="-3.7595130">
        <ele>629.6</ele>
        <time>2021-02-23T17:59:36Z</time>
      </trkpt>
      <trkpt lat="40.4133670" lon="-3.7594880">
        <ele>629.6</ele>
        <time>2021-02-23T17:59:37Z</time>
      </trkpt>
      <trkpt lat="40.4133670" lon="-3.7594250">
        <ele>629.6</ele>
        <time>2021-02-23T17:59:38Z</time>
      </trkpt>
      <trkpt lat="40.4133670" lon="-3.7593990">
        <ele>629.5</ele>
        <time>2021-02-23T17:59:39Z</time>
      </trkpt>
      <trkpt lat="40.4133670" lon="-3.7593740">
        <ele>629.5</ele>
        <time>2021-02-23T17:59:40Z</time>
      </trkpt>
      <trkpt lat="40.4133680" lon="-3.7593170">
        <ele>629.4</ele>
        <time>2021-02-23T17:59:41Z</time>
      </trkpt>
      <trkpt lat="40.4133680" lon="-3.7592970">
        <ele>629.4</ele>
        <time>2021-02-23T17:59:42Z</time>
      </trkpt>
      <trkpt lat="40.4133700" lon="-3.7592330">
        <ele>629.4</ele>
        <time>2021-02-23T17:59:43Z</time>
      </trkpt>
      <trkpt lat="40.4133710" lon="-3.7592070">
        <ele>629.3</ele>
        <time>2021-02-23T17:59:44Z</time>
      </trkpt>
      <trkpt lat="40.4133720" lon="-3.7591810">
        <ele>629.3</ele>
        <time>2021-02-23T17:59:45Z</time>
      </trkpt>
      <trkpt lat="40.4133750" lon="-3.7591230">
        <ele>629.2</ele>
        <time>2021-02-23T17:59:46Z</time>
      </trkpt>
      <trkpt lat="40.4133760" lon="-3.7591030">
        <ele>629.2</ele>
        <time>2021-02-23T17:59:47Z</time>
      </trkpt>
      <trkpt lat="40.4133810" lon="-3.7590390">
        <ele>629.1</ele>
        <time>2021-02-23T17:59:48Z</time>
      </trkpt>
      <trkpt lat="40.4133830" lon="-3.7590130">
        <ele>629.1</ele>
        <time>2021-02-23T17:59:49Z</time>
      </trkpt>
      <trkpt lat="40.4133850" lon="-3.7589870">
        <ele>629.1</ele>
        <time>2021-02-23T17:59:50Z</time>
      </trkpt>
      <trkpt lat="40.4133900" lon="-3.7589290">
        <ele>629.0</ele>
        <time>2021-02-23T17:59:51Z</time>
      </trkpt>
      <trkpt lat="40.4133910" lon="-3.7589100">
        <ele>628.9</ele>
        <time>2021-02-23T17:59:52Z</time>
      </trkpt>
      <trkpt lat="40.4133970" lon="-3.7588450">
        <ele>628.8</ele>
        <time>2021-02-23T17:59:53Z</time>
      </trkpt>
      <trkpt lat="40.4133990" lon="-3.7588190">
        <ele>628.8</ele>
        <time>2021-02-23T17:59:54Z</time>
      </trkpt>
      <trkpt lat="40.4134010" lon="-3.7587930">
        <ele>628.7</ele>
        <time>2021-02-23T17:59:55Z</time>
      </trkpt>
      <trkpt lat="40.4134060" lon="-3.7587290">
        <ele>628.6</ele>
        <time>2021-02-23T17:59:56Z</time>
      </trkpt>
      <trkpt lat="40.4134080" lon="-3.7587030">
        <ele>628.5</ele>
        <time>2021-02-23T17:59:57Z</time>
      </trkpt>
      <trkpt lat="40.4134100" lon="-3.7586770">
        <ele>628.4</ele>
        <time>2021-02-23T17:59:58Z</time>
      </trkpt>
      <trkpt lat="40.4134130" lon="-3.7586190">
        <ele>628.3</ele>
        <time>2021-02-23T17:59:59Z</time>
      </trkpt>
      <trkpt lat="40.4134140" lon="-3.7585990">
        <ele>628.3</ele>
        <time>2021-02-23T18:00:00Z</time>
      </trkpt>
      <trkpt lat="40.4134180" lon="-3.7585330">
        <ele>628.1</ele>
        <time>2021-02-23T18:00:01Z</time>
      </trkpt>
      <trkpt lat="40.4134200" lon="-3.7585070">
        <ele>628.0</ele>
        <time>2021-02-23T18:00:02Z</time>
      </trkpt>
      <trkpt lat="40.4134210" lon="-3.7584810">
        <ele>628.0</ele>
        <time>2021-02-23T18:00:03Z</time>
      </trkpt>
      <trkpt lat="40.4134250" lon="-3.7584220">
        <ele>627.8</ele>
        <time>2021-02-23T18:00:04Z</time>
      </trkpt>
      <trkpt lat="40.4134260" lon="-3.7584020">
        <ele>627.8</ele>
        <time>2021-02-23T18:00:05Z</time>
      </trkpt>
      <trkpt lat="40.4134300" lon="-3.7583370">
        <ele>627.6</ele>
        <time>2021-02-23T18:00:06Z</time>
      </trkpt>
      <trkpt lat="40.4134310" lon="-3.7583110">
        <ele>627.5</ele>
        <time>2021-02-23T18:00:07Z</time>
      </trkpt>
      <trkpt lat="40.4134330" lon="-3.7582850">
        <ele>627.5</ele>
        <time>2021-02-23T18:00:08Z</time>
      </trkpt>
      <trkpt lat="40.4134360" lon="-3.7582260">
        <ele>627.4</ele>
        <time>2021-02-23T18:00:09Z</time>
      </trkpt>
      <trkpt lat="40.4134370" lon="-3.7582060">
        <ele>627.3</ele>
        <time>2021-02-23T18:00:10Z</time>
      </trkpt>
      <trkpt lat="40.4134400" lon="-3.7581410">
        <ele>627.2</ele>
        <time>2021-02-23T18:00:11Z</time>
      </trkpt>
      <trkpt lat="40.4134420" lon="-3.7581150">
        <ele>627.1</ele>
        <time>2021-02-23T18:00:12Z</time>
      </trkpt>
      <trkpt lat="40.4134430" lon="-3.7580890">
        <ele>627.0</ele>
        <time>2021-02-23T18:00:13Z</time>
      </trkpt>
      <trkpt lat="40.4134460" lon="-3.7580240">
        <ele>626.9</ele>
        <time>2021-02-23T18:00:14Z</time>
      </trkpt>
      <trkpt lat="40.4134480" lon="-3.7579980">
        <ele>626.8</ele>
        <time>2021-02-23T18:00:15Z</time>
      </trkpt>
      <trkpt lat="40.4134490" lon="-3.7579720">
        <ele>626.8</ele>
        <time>2021-02-23T18:00:16Z</time>
      </trkpt>
      <trkpt lat="40.4134520" lon="-3.7579130">
        <ele>626.7</ele>
        <time>2021-02-23T18:00:17Z</time>
      </trkpt>
      <trkpt lat="40.4134530" lon="-3.7578930">
        <ele>626.6</ele>
        <time>2021-02-23T18:00:18Z</time>
      </trkpt>
      <trkpt lat="40.4134560" lon="-3.7578280">
        <ele>626.5</ele>
        <time>2021-02-23T18:00:19Z</time>
      </trkpt>
      <trkpt lat="40.4134580" lon="-3.7578010">
        <ele>626.4</ele>
        <time>2021-02-23T18:00:20Z</time>
      </trkpt>
      <trkpt lat="40.4134590" lon="-3.7577750">
        <ele>626.4</ele>
        <time>2021-02-23T18:00:21Z</time>
      </trkpt>
      <trkpt lat="40.4134620" lon="-3.7577150">
        <ele>626.3</ele>
        <time>2021-02-23T18:00:22Z</time>
      </trkpt>
      <trkpt lat="40.4134630" lon="-3.7576950">
        <ele>626.3</ele>
        <time>2021-02-23T18:00:23Z</time>
      </trkpt>
      <trkpt lat="40.4134670" lon="-3.7576290">
        <ele>626.2</ele>
        <time>2021-02-23T18:00:24Z</time>
      </trkpt>
      <trkpt lat="40.4134680" lon="-3.7576030">
        <ele>626.2</ele>
        <time>2021-02-23T18:00:25Z</time>
      </trkpt>
      <trkpt lat="40.4134700" lon="-3.7575760">
        <ele>626.1</ele>
        <time>2021-02-23T18:00:26Z</time>
      </trkpt>
      <trkpt lat="40.4134740" lon="-3.7575160">
        <ele>626.1</ele>
        <time>2021-02-23T18:00:27Z</time>
      </trkpt>
      <trkpt lat="40.4134750" lon="-3.7574960">
        <ele>626.1</ele>
        <time>2021-02-23T18:00:28Z</time>
      </trkpt>
      <trkpt lat="40.4134800" lon="-3.7574300">
        <ele>626.0</ele>
        <time>2021-02-23T18:00:29Z</time>
      </trkpt>
      <trkpt lat="40.4134830" lon="-3.7574030">
        <ele>626.0</ele>
        <time>2021-02-23T18:00:30Z</time>
      </trkpt>
      <trkpt lat="40.4134850" lon="-3.7573770">
        <ele>626.0</ele>
        <time>2021-02-23T18:00:31Z</time>
      </trkpt>
      <trkpt lat="40.4134930" lon="-3.7573120">
        <ele>626.0</ele>
        <time>2021-02-23T18:00:32Z</time>
      </trkpt>
      <trkpt lat="40.4134960" lon="-3.7572870">
        <ele>626.0</ele>
        <time>2021-02-23T18:00:33Z</time>
      </trkpt>
      <trkpt lat="40.4135000" lon="-3.7572610">
        <ele>626.0</ele>
        <time>2021-02-23T18:00:34Z</time>
      </trkpt>
      <trkpt lat="40.4135110" lon="-3.7572030">
        <ele>626.0</ele>
        <time>2021-02-23T18:00:35Z</time>
      </trkpt>
      <trkpt lat="40.4135140" lon="-3.7571840">
        <ele>626.0</ele>
        <time>2021-02-23T18:00:36Z</time>
      </trkpt>
      <trkpt lat="40.4135300" lon="-3.7571210">
        <ele>625.9</ele>
        <time>2021-02-23T18:00:37Z</time>
      </trkpt>
      <trkpt lat="40.4135370" lon="-3.7570970">
        <ele>625.9</ele>
        <time>2021-02-23T18:00:38Z</time>
      </trkpt>
      <trkpt lat="40.4135440" lon="-3.7570720">
        <ele>625.9</ele>
        <time>2021-02-23T18:00:39Z</time>
      </trkpt>
      <trkpt lat="40.4135630" lon="-3.7570180">
        <ele>625.9</ele>
        <time>2021-02-23T18:00:40Z</time>
      </trkpt>
      <trkpt lat="40.4135700" lon="-3.7570000">
        <ele>625.9</ele>
        <time>2021-02-23T18:00:41Z</time>
      </trkpt>
      <trkpt lat="40.4135970" lon="-3.7569430">
        <ele>625.9</ele>
        <time>2021-02-23T18:00:42Z</time>
      </trkpt>
      <trkpt lat="40.4136080" lon="-3.7569200">
        <ele>625.9</ele>
        <time>2021-02-23T18:00:43Z</time>
      </trkpt>
      <trkpt lat="40.4136200" lon="-3.7568980">
        <ele>625.9</ele>
        <time>2021-02-23T18:00:44Z</time>
      </trkpt>
      <trkpt lat="40.4136500" lon="-3.7568510">
        <ele>625.8</ele>
        <time>2021-02-23T18:00:45Z</time>
      </trkpt>
      <trkpt lat="40.4136790" lon="-3.7568110">
        <ele>625.8</ele>
        <time>2021-02-23T18:00:46Z</time>
      </trkpt>
      <trkpt lat="40.4136980" lon="-3.7567860">
        <ele>625.8</ele>
        <time>2021-02-23T18:00:47Z</time>
      </trkpt>
      <trkpt lat="40.4137130" lon="-3.7567680">
        <ele>625.8</ele>
        <time>2021-02-23T18:00:48Z</time>
      </trkpt>
      <trkpt lat="40.4137290" lon="-3.7567490">
        <ele>625.8</ele>
        <time>2021-02-23T18:00:49Z</time>
      </trkpt>
      <trkpt lat="40.4137700" lon="-3.7567060">
        <ele>625.8</ele>
        <time>2021-02-23T18:00:50Z</time>
      </trkpt>
      <trkpt lat="40.4137860" lon="-3.7566890">
        <ele>625.8</ele>
        <time>2021-02-23T18:00:51Z</time>
      </trkpt>
      <trkpt lat="40.4138030" lon="-3.7566720">
        <ele>625.8</ele>
        <time>2021-02-23T18:00:52Z</time>
      </trkpt>
      <trkpt lat="40.4138410" lon="-3.7566350">
        <ele>625.7</ele>
        <time>2021-02-23T18:00:53Z</time>
      </trkpt>
      <trkpt lat="40.4138530" lon="-3.7566220">
        <ele>625.7</ele>
        <time>2021-02-23T18:00:54Z</time>
      </trkpt>
      <trkpt lat="40.4138920" lon="-3.7565790">
        <ele>625.7</ele>
        <time>2021-02-23T18:00:55Z</time>
      </trkpt>
      <trkpt lat="40.4139080" lon="-3.7565610">
        <ele>625.7</ele>
        <time>2021-02-23T18:00:56Z</time>
      </trkpt>
      <trkpt lat="40.4139230" lon="-3.7565440">
        <ele>625.7</ele>
        <time>2021-02-23T18:00:57Z</time>
      </trkpt>
      <trkpt lat="40.4139540" lon="-3.7565020">
        <ele>625.7</ele>
        <time>2021-02-23T18:00:58Z</time>
      </trkpt>
      <trkpt lat="40.4139640" lon="-3.7564880">
        <ele>625.7</ele>
        <time>2021-02-23T18:00:59Z</time>
      </trkpt>
      <trkpt lat="40.4139930" lon="-3.7564370">
        <ele>625.7</ele>
        <time>2021-02-23T18:01:00Z</time>
      </trkpt>
      <trkpt lat="40.4140050" lon="-3.7564160">
        <ele>625.7</ele>
        <time>2021-02-23T18:01:01Z</time>
      </trkpt>
      <trkpt lat="40.4140160" lon="-3.7563950">
        <ele>625.7</ele>
        <time>2021-02-23T18:01:02Z</time>
      </trkpt>
      <trkpt lat="40.4140390" lon="-3.7563460">
        <ele>625.7</ele>
        <time>2021-02-23T18:01:03Z</time>
      </trkpt>
      <trkpt lat="40.4140460" lon="-3.7563290">
        <ele>625.7</ele>
        <time>2021-02-23T18:01:04Z</time>
      </trkpt>
      <trkpt lat="40.4140670" lon="-3.7562730">
        <ele>627.5</ele>
        <time>2021-02-23T18:01:05Z</time>
      </trkpt>
      <trkpt lat="40.4140750" lon="-3.7562500">
        <ele>627.5</ele>
        <time>2021-02-23T18:01:06Z</time>
      </trkpt>
      <trkpt lat="40.4140830" lon="-3.7562270">
        <ele>627.5</ele>
        <time>2021-02-23T18:01:07Z</time>
      </trkpt>
      <trkpt lat="40.4141020" lon="-3.7561700">
        <ele>627.5</ele>
        <time>2021-02-23T18:01:08Z</time>
      </trkpt>
      <trkpt lat="40.4141090" lon="-3.7561480">
        <ele>627.5</ele>
        <time>2021-02-23T18:01:09Z</time>
      </trkpt>
      <trkpt lat="40.4141170" lon="-3.7561250">
        <ele>627.5</ele>
        <time>2021-02-23T18:01:10Z</time>
      </trkpt>
      <trkpt lat="40.4141340" lon="-3.7560750">
        <ele>627.4</ele>
        <time>2021-02-23T18:01:11Z</time>
      </trkpt>
      <trkpt lat="40.4141390" lon="-3.7560580">
        <ele>627.4</ele>
        <time>2021-02-23T18:01:12Z</time>
      </trkpt>
      <trkpt lat="40.4141610" lon="-3.7560050">
        <ele>627.4</ele>
        <time>2021-02-23T18:01:13Z</time>
      </trkpt>
      <trkpt lat="40.4141690" lon="-3.7559840">
        <ele>627.4</ele>
        <time>2021-02-23T18:01:14Z</time>
      </trkpt>
      <trkpt lat="40.4141780" lon="-3.7559630">
        <ele>627.3</ele>
        <time>2021-02-23T18:01:15Z</time>
      </trkpt>
      <trkpt lat="40.4142000" lon="-3.7559180">
        <ele>627.3</ele>
        <time>2021-02-23T18:01:16Z</time>
      </trkpt>
      <trkpt lat="40.4142070" lon="-3.7559030">
        <ele>627.3</ele>
        <time>2021-02-23T18:01:17Z</time>
      </trkpt>
      <trkpt lat="40.4142340" lon="-3.7558550">
        <ele>627.2</ele>
        <time>2021-02-23T18:01:18Z</time>
      </trkpt>
      <trkpt lat="40.4142450" lon="-3.7558370">
        <ele>627.2</ele>
        <time>2021-02-23T18:01:19Z</time>
      </trkpt>
      <trkpt lat="40.4142560" lon="-3.7558180">
        <ele>627.2</ele>
        <time>2021-02-23T18:01:20Z</time>
      </trkpt>
      <trkpt lat="40.4142820" lon="-3.7557770">
        <ele>627.2</ele>
        <time>2021-02-23T18:01:21Z</time>
      </trkpt>
      <trkpt lat="40.4142910" lon="-3.7557640">
        <ele>627.2</ele>
        <time>2021-02-23T18:01:22Z</time>
      </trkpt>
      <trkpt lat="40.4143230" lon="-3.7557200">
        <ele>627.1</ele>
        <time>2021-02-23T18:01:23Z</time>
      </trkpt>
      <trkpt lat="40.4143350" lon="-3.7557020">
        <ele>627.1</ele>
        <time>2021-02-23T18:01:24Z</time>
      </trkpt>
      <trkpt lat="40.4143480" lon="-3.7556850">
        <ele>627.0</ele>
        <time>2021-02-23T18:01:25Z</time>
      </trkpt>
      <trkpt lat="40.4143810" lon="-3.7556430">
        <ele>627.0</ele>
        <time>2021-02-23T18:01:26Z</time>
      </trkpt>
      <trkpt lat="40.4143950" lon="-3.7556250">
        <ele>626.9</ele>
        <time>2021-02-23T18:01:27Z</time>
      </trkpt>
      <trkpt lat="40.4144080" lon="-3.7556080">
        <ele>626.9</ele>
        <time>2021-02-23T18:01:28Z</time>
      </trkpt>
      <trkpt lat="40.4144390" lon="-3.7555690">
        <ele>626.8</ele>
        <time>2021-02-23T18:01:29Z</time>
      </trkpt>
      <trkpt lat="40.4144490" lon="-3.7555550">
        <ele>626.8</ele>
        <time>2021-02-23T18:01:30Z</time>
      </trkpt>
      <trkpt lat="40.4144840" lon="-3.7555110">
        <ele>626.7</ele>
        <time>2021-02-23T18:01:31Z</time>
      </trkpt>
      <trkpt lat="40.4144980" lon="-3.7554920">
        <ele>626.7</ele>
        <time>2021-02-23T18:01:32Z</time>
      </trkpt>
      <trkpt lat="40.4145120" lon="-3.7554740">
        <ele>626.6</ele>
        <time>2021-02-23T18:01:33Z</time>
      </trkpt>
      <trkpt lat="40.4145440" lon="-3.7554320">
        <ele>626.5</ele>
        <time>2021-02-23T18:01:34Z</time>
      </trkpt>
      <trkpt lat="40.4145540" lon="-3.7554180">
        <ele>626.5</ele>
        <time>2021-02-23T18:01:35Z</time>
      </trkpt>
      <trkpt lat="40.4145890" lon="-3.7553700">
        <ele>626.4</ele>
        <time>2021-02-23T18:01:36Z</time>
      </trkpt>
      <trkpt lat="40.4146020" lon="-3.7553500">
        <ele>626.4</ele>
        <time>2021-02-23T18:01:37Z</time>
      </trkpt>
      <trkpt lat="40.4146160" lon="-3.7553310">
        <ele>626.3</ele>
        <time>2021-02-23T18:01:38Z</time>
      </trkpt>
      <trkpt lat="40.4146480" lon="-3.7552860">
        <ele>626.2</ele>
        <time>2021-02-23T18:01:39Z</time>
      </trkpt>
      <trkpt lat="40.4146580" lon="-3.7552710">
        <ele>626.2</ele>
        <time>2021-02-23T18:01:40Z</time>
      </trkpt>
      <trkpt lat="40.4146910" lon="-3.7552210">
        <ele>626.1</ele>
        <time>2021-02-23T18:01:41Z</time>
      </trkpt>
      <trkpt lat="40.4147050" lon="-3.7552000">
        <ele>626.1</ele>
        <time>2021-02-23T18:01:42Z</time>
      </trkpt>
      <trkpt lat="40.4147180" lon="-3.7551800">
        <ele>626.0</ele>
        <time>2021-02-23T18:01:43Z</time>
      </trkpt>
      <trkpt lat="40.4147500" lon="-3.7551290">
        <ele>626.0</ele>
        <time>2021-02-23T18:01:44Z</time>
      </trkpt>
      <trkpt lat="40.4147620" lon="-3.7551080">
        <ele>625.9</ele>
        <time>2021-02-23T18:01:45Z</time>
      </trkpt>
      <trkpt lat="40.4147750" lon="-3.7550870">
        <ele>625.9</ele>
        <time>2021-02-23T18:01:46Z</time>
      </trkpt>
      <trkpt lat="40.4148020" lon="-3.7550390">
        <ele>625.9</ele>
        <time>2021-02-23T18:01:47Z</time>
      </trkpt>
      <trkpt lat="40.4148110" lon="-3.7550230">
        <ele>625.9</ele>
        <time>2021-02-23T18:01:48Z</time>
      </trkpt>
      <trkpt lat="40.4148370" lon="-3.7549680">
        <ele>625.8</ele>
        <time>2021-02-23T18:01:49Z</time>
      </trkpt>
      <trkpt lat="40.4148480" lon="-3.7549450">
        <ele>625.8</ele>
        <time>2021-02-23T18:01:50Z</time>
      </trkpt>
      <trkpt lat="40.4148580" lon="-3.7549230">
        <ele>625.8</ele>
        <time>2021-02-23T18:01:51Z</time>
      </trkpt>
      <trkpt lat="40.4148790" lon="-3.7548720">
        <ele>625.8</ele>
        <time>2021-02-23T18:01:52Z</time>
      </trkpt>
      <trkpt lat="40.4148860" lon="-3.7548540">
        <ele>625.8</ele>
        <time>2021-02-23T18:01:53Z</time>
      </trkpt>
      <trkpt lat="40.4149070" lon="-3.7547950">
        <ele>625.8</ele>
        <time>2021-02-23T18:01:54Z</time>
      </trkpt>
      <trkpt lat="40.4149160" lon="-3.7547710">
        <ele>625.8</ele>
        <time>2021-02-23T18:01:55Z</time>
      </trkpt>
      <trkpt lat="40.4149240" lon="-3.7547470">
        <ele>625.7</ele>
        <time>2021-02-23T18:01:56Z</time>
      </trkpt>
      <trkpt lat="40.4149430" lon="-3.7546930">
        <ele>625.7</ele>
        <time>2021-02-23T18:01:57Z</time>
      </trkpt>
      <trkpt lat="40.4149490" lon="-3.7546750">
        <ele>625.7</ele>
        <time>2021-02-23T18:01:58Z</time>
      </trkpt>
      <trkpt lat="40.4149700" lon="-3.7546150">
        <ele>625.7</ele>
        <time>2021-02-23T18:01:59Z</time>
      </trkpt>
      <trkpt lat="40.4149780" lon="-3.7545920">
        <ele>625.7</ele>
        <time>2021-02-23T18:02:00Z</time>
      </trkpt>
      <trkpt lat="40.4149870" lon="-3.7545680">
        <ele>625.7</ele>
        <time>2021-02-23T18:02:01Z</time>
      </trkpt>
      <trkpt lat="40.4150110" lon="-3.7545110">
        <ele>625.6</ele>
        <time>2021-02-23T18:02:02Z</time>
      </trkpt>
      <trkpt lat="40.4150210" lon="-3.7544880">
        <ele>625.6</ele>
        <time>2021-02-23T18:02:03Z</time>
      </trkpt>
      <trkpt lat="40.4150310" lon="-3.7544660">
        <ele>625.6</ele>
        <time>2021-02-23T18:02:04Z</time>
      </trkpt>
      <trkpt lat="40.4150560" lon="-3.7544170">
        <ele>625.6</ele>
        <time>2021-02-23T18:02:05Z</time>
      </trkpt>
      <trkpt lat="40.4150640" lon="-3.7544010">
        <ele>625.6</ele>
        <time>2021-02-23T18:02:06Z</time>
      </trkpt>
      <trkpt lat="40.4150930" lon="-3.7543500">
        <ele>625.6</ele>
        <time>2021-02-23T18:02:07Z</time>
      </trkpt>
      <trkpt lat="40.4151060" lon="-3.7543300">
        <ele>625.6</ele>
        <time>2021-02-23T18:02:08Z</time>
      </trkpt>
      <trkpt lat="40.4151180" lon="-3.7543100">
        <ele>625.6</ele>
        <time>2021-02-23T18:02:09Z</time>
      </trkpt>
      <trkpt lat="40.4151480" lon="-3.7542670">
        <ele>625.6</ele>
        <time>2021-02-23T18:02:10Z</time>
      </trkpt>
      <trkpt lat="40.4151570" lon="-3.7542520">
        <ele>625.6</ele>
        <time>2021-02-23T18:02:11Z</time>
      </trkpt>
      <trkpt lat="40.4151900" lon="-3.7542040">
        <ele>625.6</ele>
        <time>2021-02-23T18:02:12Z</time>
      </trkpt>
      <trkpt lat="40.4152040" lon="-3.7541860">
        <ele>625.6</ele>
        <time>2021-02-23T18:02:13Z</time>
      </trkpt>
      <trkpt lat="40.4152170" lon="-3.7541670">
        <ele>625.6</ele>
        <time>2021-02-23T18:02:14Z</time>
      </trkpt>
      <trkpt lat="40.4152470" lon="-3.7541240">
        <ele>625.6</ele>
        <time>2021-02-23T18:02:15Z</time>
      </trkpt>
      <trkpt lat="40.4152570" lon="-3.7541100">
        <ele>625.6</ele>
        <time>2021-02-23T18:02:16Z</time>
      </trkpt>
      <trkpt lat="40.4152890" lon="-3.7540630">
        <ele>625.6</ele>
        <time>2021-02-23T18:02:17Z</time>
      </trkpt>
      <trkpt lat="40.4153010" lon="-3.7540440">
        <ele>625.6</ele>
        <time>2021-02-23T18:02:18Z</time>
      </trkpt>
      <trkpt lat="40.4153140" lon="-3.7540250">
        <ele>625.6</ele>
        <time>2021-02-23T18:02:19Z</time>
      </trkpt>
      <trkpt lat="40.4153450" lon="-3.7539770">
        <ele>625.6</ele>
        <time>2021-02-23T18:02:20Z</time>
      </trkpt>
      <trkpt lat="40.4153560" lon="-3.7539580">
        <ele>625.6</ele>
        <time>2021-02-23T18:02:21Z</time>
      </trkpt>
      <trkpt lat="40.4153680" lon="-3.7539390">
        <ele>625.6</ele>
        <time>2021-02-23T18:02:22Z</time>
      </trkpt>
      <trkpt lat="40.4153940" lon="-3.7538960">
        <ele>625.6</ele>
        <time>2021-02-23T18:02:23Z</time>
      </trkpt>
      <trkpt lat="40.4154020" lon="-3.7538810">
        <ele>625.6</ele>
        <time>2021-02-23T18:02:24Z</time>
      </trkpt>
      <trkpt lat="40.4154300" lon="-3.7538340">
        <ele>625.6</ele>
        <time>2021-02-23T18:02:25Z</time>
      </trkpt>
      <trkpt lat="40.4154420" lon="-3.7538150">
        <ele>625.5</ele>
        <time>2021-02-23T18:02:26Z</time>
      </trkpt>
      <trkpt lat="40.4154530" lon="-3.7537960">
        <ele>625.5</ele>
        <time>2021-02-23T18:02:27Z</time>
      </trkpt>
      <trkpt lat="40.4154790" lon="-3.7537540">
        <ele>625.5</ele>
        <time>2021-02-23T18:02:28Z</time>
      </trkpt>
      <trkpt lat="40.4154870" lon="-3.7537400">
        <ele>625.4</ele>
        <time>2021-02-23T18:02:29Z</time>
      </trkpt>
      <trkpt lat="40.4155160" lon="-3.7536930">
        <ele>625.3</ele>
        <time>2021-02-23T18:02:30Z</time>
      </trkpt>
      <trkpt lat="40.4155280" lon="-3.7536740">
        <ele>625.3</ele>
        <time>2021-02-23T18:02:31Z</time>
      </trkpt>
      <trkpt lat="40.4155400" lon="-3.7536560">
        <ele>625.3</ele>
        <time>2021-02-23T18:02:32Z</time>
      </trkpt>
      <trkpt lat="40.4155680" lon="-3.7536140">
        <ele>625.2</ele>
        <time>2021-02-23T18:02:33Z</time>
      </trkpt>
      <trkpt lat="40.4155770" lon="-3.7536000">
        <ele>625.1</ele>
        <time>2021-02-23T18:02:34Z</time>
      </trkpt>
      <trkpt lat="40.4156090" lon="-3.7535550">
        <ele>625.0</ele>
        <time>2021-02-23T18:02:35Z</time>
      </trkpt>
      <trkpt lat="40.4156230" lon="-3.7535380">
        <ele>625.0</ele>
        <time>2021-02-23T18:02:36Z</time>
      </trkpt>
      <trkpt lat="40.4156360" lon="-3.7535200">
        <ele>625.0</ele>
        <time>2021-02-23T18:02:37Z</time>
      </trkpt>
      <trkpt lat="40.4156710" lon="-3.7534770">
        <ele>624.8</ele>
        <time>2021-02-23T18:02:38Z</time>
      </trkpt>
      <trkpt lat="40.4156860" lon="-3.7534610">
        <ele>624.8</ele>
        <time>2021-02-23T18:02:39Z</time>
      </trkpt>
      <trkpt lat="40.4157000" lon="-3.7534440">
        <ele>624.7</ele>
        <time>2021-02-23T18:02:40Z</time>
      </trkpt>
      <trkpt lat="40.4157330" lon="-3.7534070">
        <ele>624.6</ele>
        <time>2021-02-23T18:02:41Z</time>
      </trkpt>
      <trkpt lat="40.4157440" lon="-3.7533950">
        <ele>624.5</ele>
        <time>2021-02-23T18:02:42Z</time>
      </trkpt>
      <trkpt lat="40.4157810" lon="-3.7533540">
        <ele>624.4</ele>
        <time>2021-02-23T18:02:43Z</time>
      </trkpt>
      <trkpt lat="40.4157950" lon="-3.7533380">
        <ele>624.4</ele>
        <time>2021-02-23T18:02:44Z</time>
      </trkpt>
      <trkpt lat="40.4158100" lon="-3.7533220">
        <ele>624.3</ele>
        <time>2021-02-23T18:02:45Z</time>
      </trkpt>
      <trkpt lat="40.4158420" lon="-3.7532860">
        <ele>624.3</ele>
        <time>2021-02-23T18:02:46Z</time>
      </trkpt>
      <trkpt lat="40.4158520" lon="-3.7532730">
        <ele>624.3</ele>
        <time>2021-02-23T18:02:47Z</time>
      </trkpt>
      <trkpt lat="40.4158830" lon="-3.7532320">
        <ele>624.3</ele>
        <time>2021-02-23T18:02:48Z</time>
      </trkpt>
      <trkpt lat="40.4158950" lon="-3.7532150">
        <ele>624.2</ele>
        <time>2021-02-23T18:02:49Z</time>
      </trkpt>
      <trkpt lat="40.4159070" lon="-3.7531980">
        <ele>624.0</ele>
        <time>2021-02-23T18:02:50Z</time>
      </trkpt>
      <trkpt lat="40.4159310" lon="-3.7531580">
        <ele>624.0</ele>
        <time>2021-02-23T18:02:51Z</time>
      </trkpt>
      <trkpt lat="40.4159380" lon="-3.7531450">
        <ele>623.9</ele>
        <time>2021-02-23T18:02:52Z</time>
      </trkpt>
      <trkpt lat="40.4159600" lon="-3.7530990">
        <ele>623.9</ele>
        <time>2021-02-23T18:02:53Z</time>
      </trkpt>
      <trkpt lat="40.4159670" lon="-3.7530810">
        <ele>623.8</ele>
        <time>2021-02-23T18:02:54Z</time>
      </trkpt>
      <trkpt lat="40.4159750" lon="-3.7530620">
        <ele>623.6</ele>
        <time>2021-02-23T18:02:55Z</time>
      </trkpt>
      <trkpt lat="40.4159890" lon="-3.7530140">
        <ele>623.6</ele>
        <time>2021-02-23T18:02:56Z</time>
      </trkpt>
      <trkpt lat="40.4159950" lon="-3.7529950">
        <ele>623.5</ele>
        <time>2021-02-23T18:02:57Z</time>
      </trkpt>
      <trkpt lat="40.4160000" lon="-3.7529750">
        <ele>623.3</ele>
        <time>2021-02-23T18:02:58Z</time>
      </trkpt>
      <trkpt lat="40.4160070" lon="-3.7529300">
        <ele>623.2</ele>
        <time>2021-02-23T18:02:59Z</time>
      </trkpt>
      <trkpt lat="40.4160090" lon="-3.7529140">
        <ele>623.2</ele>
        <time>2021-02-23T18:03:00Z</time>
      </trkpt>
      <trkpt lat="40.4160130" lon="-3.7528600">
        <ele>623.1</ele>
        <time>2021-02-23T18:03:01Z</time>
      </trkpt>
      <trkpt lat="40.4160140" lon="-3.7528380">
        <ele>623.0</ele>
        <time>2021-02-23T18:03:02Z</time>
      </trkpt>
      <trkpt lat="40.4160150" lon="-3.7528160">
        <ele>623.0</ele>
        <time>2021-02-23T18:03:03Z</time>
      </trkpt>
      <trkpt lat="40.4160160" lon="-3.7527650">
        <ele>622.9</ele>
        <time>2021-02-23T18:03:04Z</time>
      </trkpt>
      <trkpt lat="40.4160150" lon="-3.7527480">
        <ele>622.9</ele>
        <time>2021-02-23T18:03:05Z</time>
      </trkpt>
      <trkpt lat="40.4160130" lon="-3.7526880">
        <ele>622.8</ele>
        <time>2021-02-23T18:03:06Z</time>
      </trkpt>
      <trkpt lat="40.4160120" lon="-3.7526640">
        <ele>622.7</ele>
        <time>2021-02-23T18:03:07Z</time>
      </trkpt>
      <trkpt lat="40.4160110" lon="-3.7526400">
        <ele>622.7</ele>
        <time>2021-02-23T18:03:08Z</time>
      </trkpt>
      <trkpt lat="40.4160080" lon="-3.7525840">
        <ele>622.7</ele>
        <time>2021-02-23T18:03:09Z</time>
      </trkpt>
      <trkpt lat="40.4160070" lon="-3.7525660">
        <ele>622.7</ele>
        <time>2021-02-23T18:03:10Z</time>
      </trkpt>
      <trkpt lat="40.4160040" lon="-3.7525040">
        <ele>622.6</ele>
        <time>2021-02-23T18:03:11Z</time>
      </trkpt>
      <trkpt lat="40.4160020" lon="-3.7524780">
        <ele>622.6</ele>
        <time>2021-02-23T18:03:12Z</time>
      </trkpt>
      <trkpt lat="40.4160010" lon="-3.7524530">
        <ele>622.6</ele>
        <time>2021-02-23T18:03:13Z</time>
      </trkpt>
      <trkpt lat="40.4159970" lon="-3.7523880">
        <ele>622.6</ele>
        <time>2021-02-23T18:03:14Z</time>
      </trkpt>
      <trkpt lat="40.4159960" lon="-3.7523620">
        <ele>622.6</ele>
        <time>2021-02-23T18:03:15Z</time>
      </trkpt>
      <trkpt lat="40.4159940" lon="-3.7523360">
        <ele>622.6</ele>
        <time>2021-02-23T18:03:16Z</time>
      </trkpt>
      <trkpt lat="40.4159900" lon="-3.7522770">
        <ele>622.5</ele>
        <time>2021-02-23T18:03:17Z</time>
      </trkpt>
      <trkpt lat="40.4159880" lon="-3.7522580">
        <ele>622.5</ele>
        <time>2021-02-23T18:03:18Z</time>
      </trkpt>
      <trkpt lat="40.4159830" lon="-3.7521930">
        <ele>622.5</ele>
        <time>2021-02-23T18:03:19Z</time>
      </trkpt>
      <trkpt lat="40.4159810" lon="-3.7521660">
        <ele>622.5</ele>
        <time>2021-02-23T18:03:20Z</time>
      </trkpt>
      <trkpt lat="40.4159790" lon="-3.7521400">
        <ele>622.5</ele>
        <time>2021-02-23T18:03:21Z</time>
      </trkpt>
      <trkpt lat="40.4159740" lon="-3.7520800">
        <ele>622.5</ele>
        <time>2021-02-23T18:03:22Z</time>
      </trkpt>
      <trkpt lat="40.4159720" lon="-3.7520610">
        <ele>622.5</ele>
        <time>2021-02-23T18:03:23Z</time>
      </trkpt>
      <trkpt lat="40.4159670" lon="-3.7519960">
        <ele>622.5</ele>
        <time>2021-02-23T18:03:24Z</time>
      </trkpt>
      <trkpt lat="40.4159640" lon="-3.7519690">
        <ele>622.5</ele>
        <time>2021-02-23T18:03:25Z</time>
      </trkpt>
      <trkpt lat="40.4159620" lon="-3.7519430">
        <ele>622.5</ele>
        <time>2021-02-23T18:03:26Z</time>
      </trkpt>
      <trkpt lat="40.4159580" lon="-3.7518840">
        <ele>622.5</ele>
        <time>2021-02-23T18:03:27Z</time>
      </trkpt>
      <trkpt lat="40.4159560" lon="-3.7518650">
        <ele>622.5</ele>
        <time>2021-02-23T18:03:28Z</time>
      </trkpt>
      <trkpt lat="40.4159510" lon="-3.7517990">
        <ele>622.4</ele>
        <time>2021-02-23T18:03:29Z</time>
      </trkpt>
      <trkpt lat="40.4159500" lon="-3.7517720">
        <ele>622.4</ele>
        <time>2021-02-23T18:03:30Z</time>
      </trkpt>
      <trkpt lat="40.4159480" lon="-3.7517460">
        <ele>622.4</ele>
        <time>2021-02-23T18:03:31Z</time>
      </trkpt>
      <trkpt lat="40.4159450" lon="-3.7516780">
        <ele>622.3</ele>
        <time>2021-02-23T18:03:32Z</time>
      </trkpt>
      <trkpt lat="40.4159430" lon="-3.7516520">
        <ele>622.3</ele>
        <time>2021-02-23T18:03:33Z</time>
      </trkpt>
      <trkpt lat="40.4159420" lon="-3.7516250">
        <ele>622.3</ele>
        <time>2021-02-23T18:03:34Z</time>
      </trkpt>
      <trkpt lat="40.4159400" lon="-3.7515630">
        <ele>622.2</ele>
        <time>2021-02-23T18:03:35Z</time>
      </trkpt>
      <trkpt lat="40.4159380" lon="-3.7515090">
        <ele>622.2</ele>
        <time>2021-02-23T18:03:36Z</time>
      </trkpt>
      <trkpt lat="40.4159370" lon="-3.7514750">
        <ele>622.2</ele>
        <time>2021-02-23T18:03:37Z</time>
      </trkpt>
      <trkpt lat="40.4159370" lon="-3.7514480">
        <ele>622.2</ele>
        <time>2021-02-23T18:03:38Z</time>
      </trkpt>
      <trkpt lat="40.4159360" lon="-3.7514210">
        <ele>622.1</ele>
        <time>2021-02-23T18:03:39Z</time>
      </trkpt>
      <trkpt lat="40.4159360" lon="-3.7513600">
        <ele>622.1</ele>
        <time>2021-02-23T18:03:40Z</time>
      </trkpt>
      <trkpt lat="40.4159360" lon="-3.7513060">
        <ele>622.1</ele>
        <time>2021-02-23T18:03:41Z</time>
      </trkpt>
      <trkpt lat="40.4159360" lon="-3.7512720">
        <ele>622.1</ele>
        <time>2021-02-23T18:03:42Z</time>
      </trkpt>
      <trkpt lat="40.4159370" lon="-3.7512450">
        <ele>622.1</ele>
        <time>2021-02-23T18:03:43Z</time>
      </trkpt>
      <trkpt lat="40.4159370" lon="-3.7512180">
        <ele>622.1</ele>
        <time>2021-02-23T18:03:44Z</time>
      </trkpt>
      <trkpt lat="40.4159390" lon="-3.7511570">
        <ele>622.1</ele>
        <time>2021-02-23T18:03:45Z</time>
      </trkpt>
      <trkpt lat="40.4159400" lon="-3.7511360">
        <ele>622.1</ele>
        <time>2021-02-23T18:03:46Z</time>
      </trkpt>
      <trkpt lat="40.4159420" lon="-3.7510690">
        <ele>622.1</ele>
        <time>2021-02-23T18:03:47Z</time>
      </trkpt>
      <trkpt lat="40.4159440" lon="-3.7510410">
        <ele>622.1</ele>
        <time>2021-02-23T18:03:48Z</time>
      </trkpt>
      <trkpt lat="40.4159450" lon="-3.7510140">
        <ele>622.1</ele>
        <time>2021-02-23T18:03:49Z</time>
      </trkpt>
      <trkpt lat="40.4159480" lon="-3.7509470">
        <ele>622.1</ele>
        <time>2021-02-23T18:03:50Z</time>
      </trkpt>
      <trkpt lat="40.4159500" lon="-3.7509190">
        <ele>622.1</ele>
        <time>2021-02-23T18:03:51Z</time>
      </trkpt>
      <trkpt lat="40.4159510" lon="-3.7508920">
        <ele>622.1</ele>
        <time>2021-02-23T18:03:52Z</time>
      </trkpt>
      <trkpt lat="40.4159540" lon="-3.7508310">
        <ele>622.0</ele>
        <time>2021-02-23T18:03:53Z</time>
      </trkpt>
      <trkpt lat="40.4159570" lon="-3.7507760">
        <ele>622.0</ele>
        <time>2021-02-23T18:03:54Z</time>
      </trkpt>
      <trkpt lat="40.4159580" lon="-3.7507420">
        <ele>622.0</ele>
        <time>2021-02-23T18:03:55Z</time>
      </trkpt>
      <trkpt lat="40.4159600" lon="-3.7507150">
        <ele>621.9</ele>
        <time>2021-02-23T18:03:56Z</time>
      </trkpt>
      <trkpt lat="40.4159610" lon="-3.7506880">
        <ele>621.9</ele>
        <time>2021-02-23T18:03:57Z</time>
      </trkpt>
      <trkpt lat="40.4159630" lon="-3.7506270">
        <ele>621.8</ele>
        <time>2021-02-23T18:03:58Z</time>
      </trkpt>
      <trkpt lat="40.4159640" lon="-3.7506070">
        <ele>621.8</ele>
        <time>2021-02-23T18:03:59Z</time>
      </trkpt>
      <trkpt lat="40.4159660" lon="-3.7505410">
        <ele>621.7</ele>
        <time>2021-02-23T18:04:00Z</time>
      </trkpt>
      <trkpt lat="40.4159660" lon="-3.7505150">
        <ele>621.7</ele>
        <time>2021-02-23T18:04:01Z</time>
      </trkpt>
      <trkpt lat="40.4159670" lon="-3.7504890">
        <ele>621.7</ele>
        <time>2021-02-23T18:04:02Z</time>
      </trkpt>
      <trkpt lat="40.4159680" lon="-3.7504300">
        <ele>621.7</ele>
        <time>2021-02-23T18:04:03Z</time>
      </trkpt>
      <trkpt lat="40.4159680" lon="-3.7504100">
        <ele>621.7</ele>
        <time>2021-02-23T18:04:04Z</time>
      </trkpt>
      <trkpt lat="40.4159690" lon="-3.7503460">
        <ele>621.6</ele>
        <time>2021-02-23T18:04:05Z</time>
      </trkpt>
      <trkpt lat="40.4159690" lon="-3.7503200">
        <ele>621.6</ele>
        <time>2021-02-23T18:04:06Z</time>
      </trkpt>
      <trkpt lat="40.4159690" lon="-3.7502940">
        <ele>621.6</ele>
        <time>2021-02-23T18:04:07Z</time>
      </trkpt>
      <trkpt lat="40.4159690" lon="-3.7502300">
        <ele>621.6</ele>
        <time>2021-02-23T18:04:08Z</time>
      </trkpt>
      <trkpt lat="40.4159680" lon="-3.7502050">
        <ele>621.6</ele>
        <time>2021-02-23T18:04:09Z</time>
      </trkpt>
      <trkpt lat="40.4159680" lon="-3.7501790">
        <ele>621.5</ele>
        <time>2021-02-23T18:04:10Z</time>
      </trkpt>
      <trkpt lat="40.4159690" lon="-3.7501210">
        <ele>621.5</ele>
        <time>2021-02-23T18:04:11Z</time>
      </trkpt>
      <trkpt lat="40.4159690" lon="-3.7501020">
        <ele>621.5</ele>
        <time>2021-02-23T18:04:12Z</time>
      </trkpt>
      <trkpt lat="40.4159690" lon="-3.7500370">
        <ele>621.5</ele>
        <time>2021-02-23T18:04:13Z</time>
      </trkpt>
      <trkpt lat="40.4159700" lon="-3.7500120">
        <ele>621.5</ele>
        <time>2021-02-23T18:04:14Z</time>
      </trkpt>
      <trkpt lat="40.4159700" lon="-3.7499860">
        <ele>621.5</ele>
        <time>2021-02-23T18:04:15Z</time>
      </trkpt>
      <trkpt lat="40.4159720" lon="-3.7499290">
        <ele>621.4</ele>
        <time>2021-02-23T18:04:16Z</time>
      </trkpt>
      <trkpt lat="40.4159720" lon="-3.7499090">
        <ele>621.4</ele>
        <time>2021-02-23T18:04:17Z</time>
      </trkpt>
      <trkpt lat="40.4159740" lon="-3.7498440">
        <ele>621.4</ele>
        <time>2021-02-23T18:04:18Z</time>
      </trkpt>
      <trkpt lat="40.4159740" lon="-3.7498180">
        <ele>621.4</ele>
        <time>2021-02-23T18:04:19Z</time>
      </trkpt>
      <trkpt lat="40.4159750" lon="-3.7497920">
        <ele>621.4</ele>
        <time>2021-02-23T18:04:20Z</time>
      </trkpt>
      <trkpt lat="40.4159760" lon="-3.7497260">
        <ele>621.4</ele>
        <time>2021-02-23T18:04:21Z</time>
      </trkpt>
      <trkpt lat="40.4159770" lon="-3.7497000">
        <ele>621.4</ele>
        <time>2021-02-23T18:04:22Z</time>
      </trkpt>
      <trkpt lat="40.4159770" lon="-3.7496740">
        <ele>621.2</ele>
        <time>2021-02-23T18:04:23Z</time>
      </trkpt>
      <trkpt lat="40.4159790" lon="-3.7496140">
        <ele>621.1</ele>
        <time>2021-02-23T18:04:24Z</time>
      </trkpt>
      <trkpt lat="40.4159790" lon="-3.7495940">
        <ele>621.1</ele>
        <time>2021-02-23T18:04:25Z</time>
      </trkpt>
      <trkpt lat="40.4159790" lon="-3.7495270">
        <ele>620.9</ele>
        <time>2021-02-23T18:04:26Z</time>
      </trkpt>
      <trkpt lat="40.4159800" lon="-3.7495010">
        <ele>620.9</ele>
        <time>2021-02-23T18:04:27Z</time>
      </trkpt>
      <trkpt lat="40.4159800" lon="-3.7494740">
        <ele>620.8</ele>
        <time>2021-02-23T18:04:28Z</time>
      </trkpt>
      <trkpt lat="40.4159800" lon="-3.7494150">
        <ele>620.7</ele>
        <time>2021-02-23T18:04:29Z</time>
      </trkpt>
      <trkpt lat="40.4159810" lon="-3.7493620">
        <ele>620.5</ele>
        <time>2021-02-23T18:04:30Z</time>
      </trkpt>
      <trkpt lat="40.4159810" lon="-3.7493280">
        <ele>620.5</ele>
        <time>2021-02-23T18:04:31Z</time>
      </trkpt>
      <trkpt lat="40.4159820" lon="-3.7493020">
        <ele>620.4</ele>
        <time>2021-02-23T18:04:32Z</time>
      </trkpt>
      <trkpt lat="40.4159820" lon="-3.7492750">
        <ele>620.3</ele>
        <time>2021-02-23T18:04:33Z</time>
      </trkpt>
      <trkpt lat="40.4159840" lon="-3.7492150">
        <ele>620.2</ele>
        <time>2021-02-23T18:04:34Z</time>
      </trkpt>
      <trkpt lat="40.4159840" lon="-3.7491950">
        <ele>620.1</ele>
        <time>2021-02-23T18:04:35Z</time>
      </trkpt>
      <trkpt lat="40.4159860" lon="-3.7491290">
        <ele>620.0</ele>
        <time>2021-02-23T18:04:36Z</time>
      </trkpt>
      <trkpt lat="40.4159880" lon="-3.7491030">
        <ele>619.9</ele>
        <time>2021-02-23T18:04:37Z</time>
      </trkpt>
      <trkpt lat="40.4159890" lon="-3.7490760">
        <ele>619.9</ele>
        <time>2021-02-23T18:04:38Z</time>
      </trkpt>
      <trkpt lat="40.4159930" lon="-3.7490100">
        <ele>619.7</ele>
        <time>2021-02-23T18:04:39Z</time>
      </trkpt>
      <trkpt lat="40.4159940" lon="-3.7489830">
        <ele>619.7</ele>
        <time>2021-02-23T18:04:40Z</time>
      </trkpt>
      <trkpt lat="40.4159960" lon="-3.7489570">
        <ele>619.6</ele>
        <time>2021-02-23T18:04:41Z</time>
      </trkpt>
      <trkpt lat="40.4160010" lon="-3.7488980">
        <ele>619.5</ele>
        <time>2021-02-23T18:04:42Z</time>
      </trkpt>
      <trkpt lat="40.4160030" lon="-3.7488780">
        <ele>619.4</ele>
        <time>2021-02-23T18:04:43Z</time>
      </trkpt>
      <trkpt lat="40.4160100" lon="-3.7488130">
        <ele>619.3</ele>
        <time>2021-02-23T18:04:44Z</time>
      </trkpt>
      <trkpt lat="40.4160130" lon="-3.7487870">
        <ele>619.2</ele>
        <time>2021-02-23T18:04:45Z</time>
      </trkpt>
      <trkpt lat="40.4160160" lon="-3.7487610">
        <ele>619.2</ele>
        <time>2021-02-23T18:04:46Z</time>
      </trkpt>
      <trkpt lat="40.4160240" lon="-3.7487050">
        <ele>619.0</ele>
        <time>2021-02-23T18:04:47Z</time>
      </trkpt>
      <trkpt lat="40.4160260" lon="-3.7486860">
        <ele>619.0</ele>
        <time>2021-02-23T18:04:48Z</time>
      </trkpt>
      <trkpt lat="40.4160360" lon="-3.7486250">
        <ele>618.9</ele>
        <time>2021-02-23T18:04:49Z</time>
      </trkpt>
      <trkpt lat="40.4160400" lon="-3.7486010">
        <ele>618.8</ele>
        <time>2021-02-23T18:04:50Z</time>
      </trkpt>
      <trkpt lat="40.4160440" lon="-3.7485770">
        <ele>618.8</ele>
        <time>2021-02-23T18:04:51Z</time>
      </trkpt>
      <trkpt lat="40.4160540" lon="-3.7485240">
        <ele>618.7</ele>
        <time>2021-02-23T18:04:52Z</time>
      </trkpt>
      <trkpt lat="40.4160570" lon="-3.7485060">
        <ele>618.7</ele>
        <time>2021-02-23T18:04:53Z</time>
      </trkpt>
      <trkpt lat="40.4160680" lon="-3.7484490">
        <ele>618.6</ele>
        <time>2021-02-23T18:04:54Z</time>
      </trkpt>
      <trkpt lat="40.4160730" lon="-3.7484260">
        <ele>618.6</ele>
        <time>2021-02-23T18:04:55Z</time>
      </trkpt>
      <trkpt lat="40.4160770" lon="-3.7484030">
        <ele>618.5</ele>
        <time>2021-02-23T18:04:56Z</time>
      </trkpt>
      <trkpt lat="40.4160870" lon="-3.7483460">
        <ele>618.5</ele>
        <time>2021-02-23T18:04:57Z</time>
      </trkpt>
      <trkpt lat="40.4160900" lon="-3.7483240">
        <ele>618.4</ele>
        <time>2021-02-23T18:04:58Z</time>
      </trkpt>
      <trkpt lat="40.4160940" lon="-3.7483010">
        <ele>618.4</ele>
        <time>2021-02-23T18:04:59Z</time>
      </trkpt>
      <trkpt lat="40.4161010" lon="-3.7482490">
        <ele>618.3</ele>
        <time>2021-02-23T18:05:00Z</time>
      </trkpt>
      <trkpt lat="40.4161030" lon="-3.7482310">
        <ele>618.3</ele>
        <time>2021-02-23T18:05:01Z</time>
      </trkpt>
      <trkpt lat="40.4161090" lon="-3.7481720">
        <ele>618.2</ele>
        <time>2021-02-23T18:05:02Z</time>
      </trkpt>
      <trkpt lat="40.4161100" lon="-3.7481490">
        <ele>618.2</ele>
        <time>2021-02-23T18:05:03Z</time>
      </trkpt>
      <trkpt lat="40.4161120" lon="-3.7481250">
        <ele>618.2</ele>
        <time>2021-02-23T18:05:04Z</time>
      </trkpt>
      <trkpt lat="40.4161150" lon="-3.7480710">
        <ele>618.1</ele>
        <time>2021-02-23T18:05:05Z</time>
      </trkpt>
      <trkpt lat="40.4161150" lon="-3.7480530">
        <ele>618.1</ele>
        <time>2021-02-23T18:05:06Z</time>
      </trkpt>
      <trkpt lat="40.4161160" lon="-3.7479910">
        <ele>618.0</ele>
        <time>2021-02-23T18:05:07Z</time>
      </trkpt>
      <trkpt lat="40.4161160" lon="-3.7479650">
        <ele>618.0</ele>
        <time>2021-02-23T18:05:08Z</time>
      </trkpt>
      <trkpt lat="40.4161160" lon="-3.7479400">
        <ele>618.0</ele>
        <time>2021-02-23T18:05:09Z</time>
      </trkpt>
      <trkpt lat="40.4161170" lon="-3.7478830">
        <ele>617.9</ele>
        <time>2021-02-23T18:05:10Z</time>
      </trkpt>
      <trkpt lat="40.4161180" lon="-3.7478320">
        <ele>617.8</ele>
        <time>2021-02-23T18:05:11Z</time>
      </trkpt>
      <trkpt lat="40.4161190" lon="-3.7477990">
        <ele>617.8</ele>
        <time>2021-02-23T18:05:12Z</time>
      </trkpt>
      <trkpt lat="40.4161190" lon="-3.7477730">
        <ele>617.7</ele>
        <time>2021-02-23T18:05:13Z</time>
      </trkpt>
      <trkpt lat="40.4161200" lon="-3.7477470">
        <ele>617.7</ele>
        <time>2021-02-23T18:05:14Z</time>
      </trkpt>
      <trkpt lat="40.4161240" lon="-3.7476810">
        <ele>617.6</ele>
        <time>2021-02-23T18:05:15Z</time>
      </trkpt>
      <trkpt lat="40.4161260" lon="-3.7476550">
        <ele>617.6</ele>
        <time>2021-02-23T18:05:16Z</time>
      </trkpt>
      <trkpt lat="40.4161280" lon="-3.7476290">
        <ele>617.5</ele>
        <time>2021-02-23T18:05:17Z</time>
      </trkpt>
      <trkpt lat="40.4161340" lon="-3.7475700">
        <ele>617.4</ele>
        <time>2021-02-23T18:05:18Z</time>
      </trkpt>
      <trkpt lat="40.4161360" lon="-3.7475500">
        <ele>617.4</ele>
        <time>2021-02-23T18:05:19Z</time>
      </trkpt>
      <trkpt lat="40.4161450" lon="-3.7474840">
        <ele>617.3</ele>
        <time>2021-02-23T18:05:20Z</time>
      </trkpt>
      <trkpt lat="40.4161490" lon="-3.7474570">
        <ele>617.2</ele>
        <time>2021-02-23T18:05:21Z</time>
      </trkpt>
      <trkpt lat="40.4161530" lon="-3.7474310">
        <ele>617.2</ele>
        <time>2021-02-23T18:05:22Z</time>
      </trkpt>
      <trkpt lat="40.4161620" lon="-3.7473700">
        <ele>617.1</ele>
        <time>2021-02-23T18:05:23Z</time>
      </trkpt>
      <trkpt lat="40.4161710" lon="-3.7473160">
        <ele>617.0</ele>
        <time>2021-02-23T18:05:24Z</time>
      </trkpt>
      <trkpt lat="40.4161760" lon="-3.7472820">
        <ele>616.9</ele>
        <time>2021-02-23T18:05:25Z</time>
      </trkpt>
      <trkpt lat="40.4161810" lon="-3.7472540">
        <ele>616.9</ele>
        <time>2021-02-23T18:05:26Z</time>
      </trkpt>
      <trkpt lat="40.4161850" lon="-3.7472270">
        <ele>616.8</ele>
        <time>2021-02-23T18:05:27Z</time>
      </trkpt>
      <trkpt lat="40.4161940" lon="-3.7471660">
        <ele>616.7</ele>
        <time>2021-02-23T18:05:28Z</time>
      </trkpt>
      <trkpt lat="40.4162020" lon="-3.7471110">
        <ele>616.6</ele>
        <time>2021-02-23T18:05:29Z</time>
      </trkpt>
      <trkpt lat="40.4162060" lon="-3.7470770">
        <ele>616.6</ele>
        <time>2021-02-23T18:05:30Z</time>
      </trkpt>
      <trkpt lat="40.4162100" lon="-3.7470490">
        <ele>616.5</ele>
        <time>2021-02-23T18:05:31Z</time>
      </trkpt>
      <trkpt lat="40.4162130" lon="-3.7470220">
        <ele>616.5</ele>
        <time>2021-02-23T18:05:32Z</time>
      </trkpt>
      <trkpt lat="40.4162210" lon="-3.7469540">
        <ele>616.4</ele>
        <time>2021-02-23T18:05:33Z</time>
      </trkpt>
      <trkpt lat="40.4162230" lon="-3.7469280">
        <ele>616.3</ele>
        <time>2021-02-23T18:05:34Z</time>
      </trkpt>
      <trkpt lat="40.4162260" lon="-3.7469010">
        <ele>616.3</ele>
        <time>2021-02-23T18:05:35Z</time>
      </trkpt>
      <trkpt lat="40.4162320" lon="-3.7468420">
        <ele>616.2</ele>
        <time>2021-02-23T18:05:36Z</time>
      </trkpt>
      <trkpt lat="40.4162340" lon="-3.7468220">
        <ele>616.1</ele>
        <time>2021-02-23T18:05:37Z</time>
      </trkpt>
      <trkpt lat="40.4162410" lon="-3.7467590">
        <ele>616.1</ele>
        <time>2021-02-23T18:05:38Z</time>
      </trkpt>
      <trkpt lat="40.4162430" lon="-3.7467330">
        <ele>616.0</ele>
        <time>2021-02-23T18:05:39Z</time>
      </trkpt>
      <trkpt lat="40.4162460" lon="-3.7467080">
        <ele>616.0</ele>
        <time>2021-02-23T18:05:40Z</time>
      </trkpt>
      <trkpt lat="40.4162510" lon="-3.7466540">
        <ele>616.0</ele>
        <time>2021-02-23T18:05:41Z</time>
      </trkpt>
      <trkpt lat="40.4162530" lon="-3.7466360">
        <ele>615.9</ele>
        <time>2021-02-23T18:05:42Z</time>
      </trkpt>
      <trkpt lat="40.4162580" lon="-3.7465770">
        <ele>615.9</ele>
        <time>2021-02-23T18:05:43Z</time>
      </trkpt>
      <trkpt lat="40.4162610" lon="-3.7465540">
        <ele>615.9</ele>
        <time>2021-02-23T18:05:44Z</time>
      </trkpt>
      <trkpt lat="40.4162630" lon="-3.7465310">
        <ele>615.8</ele>
        <time>2021-02-23T18:05:45Z</time>
      </trkpt>
      <trkpt lat="40.4162690" lon="-3.7464810">
        <ele>615.8</ele>
        <time>2021-02-23T18:05:46Z</time>
      </trkpt>
      <trkpt lat="40.4162700" lon="-3.7464640">
        <ele>615.8</ele>
        <time>2021-02-23T18:05:47Z</time>
      </trkpt>
      <trkpt lat="40.4162760" lon="-3.7464110">
        <ele>615.7</ele>
        <time>2021-02-23T18:05:48Z</time>
      </trkpt>
      <trkpt lat="40.4162790" lon="-3.7463900">
        <ele>615.7</ele>
        <time>2021-02-23T18:05:49Z</time>
      </trkpt>
      <trkpt lat="40.4162810" lon="-3.7463690">
        <ele>615.4</ele>
        <time>2021-02-23T18:05:50Z</time>
      </trkpt>
      <trkpt lat="40.4162890" lon="-3.7463180">
        <ele>615.4</ele>
        <time>2021-02-23T18:05:51Z</time>
      </trkpt>
      <trkpt lat="40.4162910" lon="-3.7462980">
        <ele>615.4</ele>
        <time>2021-02-23T18:05:52Z</time>
      </trkpt>
      <trkpt lat="40.4162940" lon="-3.7462780">
        <ele>615.4</ele>
        <time>2021-02-23T18:05:53Z</time>
      </trkpt>
      <trkpt lat="40.4163020" lon="-3.7462350">
        <ele>615.4</ele>
        <time>2021-02-23T18:05:54Z</time>
      </trkpt>
      <trkpt lat="40.4163050" lon="-3.7462200">
        <ele>615.4</ele>
        <time>2021-02-23T18:05:55Z</time>
      </trkpt>
      <trkpt lat="40.4163300" lon="-3.7461780">
        <ele>615.3</ele>
        <time>2021-02-23T18:05:56Z</time>
      </trkpt>
      <trkpt lat="40.4163410" lon="-3.7461610">
        <ele>615.3</ele>
        <time>2021-02-23T18:05:57Z</time>
      </trkpt>
      <trkpt lat="40.4163520" lon="-3.7461440">
        <ele>615.3</ele>
        <time>2021-02-23T18:05:58Z</time>
      </trkpt>
      <trkpt lat="40.4163800" lon="-3.7461070">
        <ele>615.2</ele>
        <time>2021-02-23T18:05:59Z</time>
      </trkpt>
      <trkpt lat="40.4163890" lon="-3.7460940">
        <ele>615.2</ele>
        <time>2021-02-23T18:06:00Z</time>
      </trkpt>
      <trkpt lat="40.4164220" lon="-3.7460530">
        <ele>615.2</ele>
        <time>2021-02-23T18:06:01Z</time>
      </trkpt>
      <trkpt lat="40.4164350" lon="-3.7460380">
        <ele>615.2</ele>
        <time>2021-02-23T18:06:02Z</time>
      </trkpt>
      <trkpt lat="40.4164490" lon="-3.7460220">
        <ele>615.1</ele>
        <time>2021-02-23T18:06:03Z</time>
      </trkpt>
      <trkpt lat="40.4164810" lon="-3.7459870">
        <ele>615.1</ele>
        <time>2021-02-23T18:06:04Z</time>
      </trkpt>
      <trkpt lat="40.4164910" lon="-3.7459750">
        <ele>615.1</ele>
        <time>2021-02-23T18:06:05Z</time>
      </trkpt>
      <trkpt lat="40.4165270" lon="-3.7459370">
        <ele>615.0</ele>
        <time>2021-02-23T18:06:06Z</time>
      </trkpt>
      <trkpt lat="40.4165420" lon="-3.7459230">
        <ele>615.0</ele>
        <time>2021-02-23T18:06:07Z</time>
      </trkpt>
      <trkpt lat="40.4165560" lon="-3.7459080">
        <ele>615.0</ele>
        <time>2021-02-23T18:06:08Z</time>
      </trkpt>
      <trkpt lat="40.4165930" lon="-3.7458710">
        <ele>614.9</ele>
        <time>2021-02-23T18:06:09Z</time>
      </trkpt>
      <trkpt lat="40.4166070" lon="-3.7458560">
        <ele>614.9</ele>
        <time>2021-02-23T18:06:10Z</time>
      </trkpt>
      <trkpt lat="40.4166220" lon="-3.7458410">
        <ele>614.8</ele>
        <time>2021-02-23T18:06:11Z</time>
      </trkpt>
      <trkpt lat="40.4166550" lon="-3.7458080">
        <ele>614.8</ele>
        <time>2021-02-23T18:06:12Z</time>
      </trkpt>
      <trkpt lat="40.4166660" lon="-3.7457970">
        <ele>614.8</ele>
        <time>2021-02-23T18:06:13Z</time>
      </trkpt>
      <trkpt lat="40.4167030" lon="-3.7457590">
        <ele>614.7</ele>
        <time>2021-02-23T18:06:14Z</time>
      </trkpt>
      <trkpt lat="40.4167180" lon="-3.7457430">
        <ele>614.7</ele>
        <time>2021-02-23T18:06:15Z</time>
      </trkpt>
      <trkpt lat="40.4167330" lon="-3.7457280">
        <ele>614.6</ele>
        <time>2021-02-23T18:06:16Z</time>
      </trkpt>
      <trkpt lat="40.4167670" lon="-3.7456920">
        <ele>614.6</ele>
        <time>2021-02-23T18:06:17Z</time>
      </trkpt>
      <trkpt lat="40.4167780" lon="-3.7456800">
        <ele>614.6</ele>
        <time>2021-02-23T18:06:18Z</time>
      </trkpt>
      <trkpt lat="40.4168160" lon="-3.7456390">
        <ele>614.5</ele>
        <time>2021-02-23T18:06:19Z</time>
      </trkpt>
      <trkpt lat="40.4168320" lon="-3.7456220">
        <ele>614.5</ele>
        <time>2021-02-23T18:06:20Z</time>
      </trkpt>
      <trkpt lat="40.4168470" lon="-3.7456050">
        <ele>614.5</ele>
        <time>2021-02-23T18:06:21Z</time>
      </trkpt>
      <trkpt lat="40.4168830" lon="-3.7455660">
        <ele>614.4</ele>
        <time>2021-02-23T18:06:22Z</time>
      </trkpt>
      <trkpt lat="40.4169140" lon="-3.7455310">
        <ele>614.4</ele>
        <time>2021-02-23T18:06:23Z</time>
      </trkpt>
      <trkpt lat="40.4169340" lon="-3.7455080">
        <ele>614.3</ele>
        <time>2021-02-23T18:06:24Z</time>
      </trkpt>
      <trkpt lat="40.4169500" lon="-3.7454890">
        <ele>614.3</ele>
        <time>2021-02-23T18:06:25Z</time>
      </trkpt>
      <trkpt lat="40.4169660" lon="-3.7454710">
        <ele>614.3</ele>
        <time>2021-02-23T18:06:26Z</time>
      </trkpt>
      <trkpt lat="40.4170060" lon="-3.7454250">
        <ele>614.2</ele>
        <time>2021-02-23T18:06:27Z</time>
      </trkpt>
      <trkpt lat="40.4170210" lon="-3.7454070">
        <ele>614.2</ele>
        <time>2021-02-23T18:06:28Z</time>
      </trkpt>
      <trkpt lat="40.4170370" lon="-3.7453880">
        <ele>614.2</ele>
        <time>2021-02-23T18:06:29Z</time>
      </trkpt>
      <trkpt lat="40.4170730" lon="-3.7453460">
        <ele>614.1</ele>
        <time>2021-02-23T18:06:30Z</time>
      </trkpt>
      <trkpt lat="40.4171050" lon="-3.7453090">
        <ele>614.1</ele>
        <time>2021-02-23T18:06:31Z</time>
      </trkpt>
      <trkpt lat="40.4171240" lon="-3.7452850">
        <ele>614.0</ele>
        <time>2021-02-23T18:06:32Z</time>
      </trkpt>
      <trkpt lat="40.4171400" lon="-3.7452670">
        <ele>614.0</ele>
        <time>2021-02-23T18:06:33Z</time>
      </trkpt>
      <trkpt lat="40.4171560" lon="-3.7452480">
        <ele>614.0</ele>
        <time>2021-02-23T18:06:34Z</time>
      </trkpt>
      <trkpt lat="40.4171910" lon="-3.7452070">
        <ele>614.0</ele>
        <time>2021-02-23T18:06:35Z</time>
      </trkpt>
      <trkpt lat="40.4172210" lon="-3.7451700">
        <ele>613.9</ele>
        <time>2021-02-23T18:06:36Z</time>
      </trkpt>
      <trkpt lat="40.4172400" lon="-3.7451470">
        <ele>613.9</ele>
        <time>2021-02-23T18:06:37Z</time>
      </trkpt>
      <trkpt lat="40.4172560" lon="-3.7451280">
        <ele>613.9</ele>
        <time>2021-02-23T18:06:38Z</time>
      </trkpt>
      <trkpt lat="40.4172710" lon="-3.7451100">
        <ele>613.9</ele>
        <time>2021-02-23T18:06:39Z</time>
      </trkpt>
      <trkpt lat="40.4173050" lon="-3.7450690">
        <ele>613.8</ele>
        <time>2021-02-23T18:06:40Z</time>
      </trkpt>
      <trkpt lat="40.4173160" lon="-3.7450550">
        <ele>613.8</ele>
        <time>2021-02-23T18:06:41Z</time>
      </trkpt>
      <trkpt lat="40.4173530" lon="-3.7450100">
        <ele>613.8</ele>
        <time>2021-02-23T18:06:42Z</time>
      </trkpt>
      <trkpt lat="40.4173670" lon="-3.7449910">
        <ele>613.7</ele>
        <time>2021-02-23T18:06:43Z</time>
      </trkpt>
      <trkpt lat="40.4173820" lon="-3.7449730">
        <ele>613.7</ele>
        <time>2021-02-23T18:06:44Z</time>
      </trkpt>
      <trkpt lat="40.4174190" lon="-3.7449280">
        <ele>613.7</ele>
        <time>2021-02-23T18:06:45Z</time>
      </trkpt>
      <trkpt lat="40.4174340" lon="-3.7449090">
        <ele>613.7</ele>
        <time>2021-02-23T18:06:46Z</time>
      </trkpt>
      <trkpt lat="40.4174490" lon="-3.7448910">
        <ele>613.6</ele>
        <time>2021-02-23T18:06:47Z</time>
      </trkpt>
      <trkpt lat="40.4174830" lon="-3.7448510">
        <ele>613.6</ele>
        <time>2021-02-23T18:06:48Z</time>
      </trkpt>
      <trkpt lat="40.4175140" lon="-3.7448150">
        <ele>613.6</ele>
        <time>2021-02-23T18:06:49Z</time>
      </trkpt>
      <trkpt lat="40.4175330" lon="-3.7447920">
        <ele>613.6</ele>
        <time>2021-02-23T18:06:50Z</time>
      </trkpt>
      <trkpt lat="40.4175480" lon="-3.7447750">
        <ele>613.5</ele>
        <time>2021-02-23T18:06:51Z</time>
      </trkpt>
      <trkpt lat="40.4175640" lon="-3.7447570">
        <ele>613.5</ele>
        <time>2021-02-23T18:06:52Z</time>
      </trkpt>
      <trkpt lat="40.4176000" lon="-3.7447180">
        <ele>613.4</ele>
        <time>2021-02-23T18:06:53Z</time>
      </trkpt>
      <trkpt lat="40.4176320" lon="-3.7446830">
        <ele>613.4</ele>
        <time>2021-02-23T18:06:54Z</time>
      </trkpt>
      <trkpt lat="40.4176520" lon="-3.7446610">
        <ele>613.3</ele>
        <time>2021-02-23T18:06:55Z</time>
      </trkpt>
      <trkpt lat="40.4176690" lon="-3.7446440">
        <ele>613.3</ele>
        <time>2021-02-23T18:06:56Z</time>
      </trkpt>
      <trkpt lat="40.4176850" lon="-3.7446260">
        <ele>613.3</ele>
        <time>2021-02-23T18:06:57Z</time>
      </trkpt>
      <trkpt lat="40.4177230" lon="-3.7445870">
        <ele>613.2</ele>
        <time>2021-02-23T18:06:58Z</time>
      </trkpt>
      <trkpt lat="40.4177560" lon="-3.7445520">
        <ele>613.2</ele>
        <time>2021-02-23T18:06:59Z</time>
      </trkpt>
      <trkpt lat="40.4177760" lon="-3.7445290">
        <ele>613.1</ele>
        <time>2021-02-23T18:07:00Z</time>
      </trkpt>
      <trkpt lat="40.4177930" lon="-3.7445120">
        <ele>613.1</ele>
        <time>2021-02-23T18:07:01Z</time>
      </trkpt>
      <trkpt lat="40.4178090" lon="-3.7444940">
        <ele>613.1</ele>
        <time>2021-02-23T18:07:02Z</time>
      </trkpt>
      <trkpt lat="40.4178490" lon="-3.7444490">
        <ele>613.0</ele>
        <time>2021-02-23T18:07:03Z</time>
      </trkpt>
      <trkpt lat="40.4178650" lon="-3.7444320">
        <ele>613.0</ele>
        <time>2021-02-23T18:07:04Z</time>
      </trkpt>
      <trkpt lat="40.4178810" lon="-3.7444140">
        <ele>613.0</ele>
        <time>2021-02-23T18:07:05Z</time>
      </trkpt>
      <trkpt lat="40.4179170" lon="-3.7443750">
        <ele>612.9</ele>
        <time>2021-02-23T18:07:06Z</time>
      </trkpt>
      <trkpt lat="40.4179450" lon="-3.7443360">
        <ele>612.9</ele>
        <time>2021-02-23T18:07:07Z</time>
      </trkpt>
      <trkpt lat="40.4179620" lon="-3.7443100">
        <ele>612.8</ele>
        <time>2021-02-23T18:07:08Z</time>
      </trkpt>
      <trkpt lat="40.4179740" lon="-3.7442860">
        <ele>612.8</ele>
        <time>2021-02-23T18:07:09Z</time>
      </trkpt>
      <trkpt lat="40.4179850" lon="-3.7442620">
        <ele>612.8</ele>
        <time>2021-02-23T18:07:10Z</time>
      </trkpt>
      <trkpt lat="40.4180080" lon="-3.7442090">
        <ele>612.7</ele>
        <time>2021-02-23T18:07:11Z</time>
      </trkpt>
      <trkpt lat="40.4180270" lon="-3.7441590">
        <ele>612.7</ele>
        <time>2021-02-23T18:07:12Z</time>
      </trkpt>
      <trkpt lat="40.4180380" lon="-3.7441270">
        <ele>612.7</ele>
        <time>2021-02-23T18:07:13Z</time>
      </trkpt>
      <trkpt lat="40.4180470" lon="-3.7441020">
        <ele>612.6</ele>
        <time>2021-02-23T18:07:14Z</time>
      </trkpt>
      <trkpt lat="40.4180560" lon="-3.7440760">
        <ele>612.6</ele>
        <time>2021-02-23T18:07:15Z</time>
      </trkpt>
      <trkpt lat="40.4180760" lon="-3.7440160">
        <ele>612.5</ele>
        <time>2021-02-23T18:07:16Z</time>
      </trkpt>
      <trkpt lat="40.4180920" lon="-3.7439620">
        <ele>612.4</ele>
        <time>2021-02-23T18:07:17Z</time>
      </trkpt>
      <trkpt lat="40.4181020" lon="-3.7439270">
        <ele>612.4</ele>
        <time>2021-02-23T18:07:18Z</time>
      </trkpt>
      <trkpt lat="40.4181090" lon="-3.7439000">
        <ele>612.3</ele>
        <time>2021-02-23T18:07:19Z</time>
      </trkpt>
      <trkpt lat="40.4181170" lon="-3.7438720">
        <ele>612.3</ele>
        <time>2021-02-23T18:07:20Z</time>
      </trkpt>
      <trkpt lat="40.4181370" lon="-3.7438030">
        <ele>612.2</ele>
        <time>2021-02-23T18:07:21Z</time>
      </trkpt>
      <trkpt lat="40.4181440" lon="-3.7437760">
        <ele>612.1</ele>
        <time>2021-02-23T18:07:22Z</time>
      </trkpt>
      <trkpt lat="40.4181520" lon="-3.7437480">
        <ele>612.1</ele>
        <time>2021-02-23T18:07:23Z</time>
      </trkpt>
      <trkpt lat="40.4181700" lon="-3.7436870">
        <ele>612.0</ele>
        <time>2021-02-23T18:07:24Z</time>
      </trkpt>
      <trkpt lat="40.4181860" lon="-3.7436320">
        <ele>611.9</ele>
        <time>2021-02-23T18:07:25Z</time>
      </trkpt>
      <trkpt lat="40.4181960" lon="-3.7435980">
        <ele>611.9</ele>
        <time>2021-02-23T18:07:26Z</time>
      </trkpt>
      <trkpt lat="40.4182040" lon="-3.7435700">
        <ele>611.8</ele>
        <time>2021-02-23T18:07:27Z</time>
      </trkpt>
      <trkpt lat="40.4182120" lon="-3.7435430">
        <ele>611.8</ele>
        <time>2021-02-23T18:07:28Z</time>
      </trkpt>
      <trkpt lat="40.4182300" lon="-3.7434820">
        <ele>611.7</ele>
        <time>2021-02-23T18:07:29Z</time>
      </trkpt>
      <trkpt lat="40.4182460" lon="-3.7434260">
        <ele>611.7</ele>
        <time>2021-02-23T18:07:30Z</time>
      </trkpt>
      <trkpt lat="40.4182560" lon="-3.7433910">
        <ele>611.6</ele>
        <time>2021-02-23T18:07:31Z</time>
      </trkpt>
      <trkpt lat="40.4182640" lon="-3.7433640">
        <ele>611.6</ele>
        <time>2021-02-23T18:07:32Z</time>
      </trkpt>
      <trkpt lat="40.4182720" lon="-3.7433360">
        <ele>611.6</ele>
        <time>2021-02-23T18:07:33Z</time>
      </trkpt>
      <trkpt lat="40.4182890" lon="-3.7432740">
        <ele>611.5</ele>
        <time>2021-02-23T18:07:34Z</time>
      </trkpt>
      <trkpt lat="40.4183030" lon="-3.7432180">
        <ele>611.4</ele>
        <time>2021-02-23T18:07:35Z</time>
      </trkpt>
      <trkpt lat="40.4183120" lon="-3.7431830">
        <ele>611.4</ele>
        <time>2021-02-23T18:07:36Z</time>
      </trkpt>
      <trkpt lat="40.4183190" lon="-3.7431560">
        <ele>611.3</ele>
        <time>2021-02-23T18:07:37Z</time>
      </trkpt>
      <trkpt lat="40.4183260" lon="-3.7431280">
        <ele>611.3</ele>
        <time>2021-02-23T18:07:38Z</time>
      </trkpt>
      <trkpt lat="40.4183430" lon="-3.7430580">
        <ele>611.2</ele>
        <time>2021-02-23T18:07:39Z</time>
      </trkpt>
      <trkpt lat="40.4183490" lon="-3.7430310">
        <ele>611.2</ele>
        <time>2021-02-23T18:07:40Z</time>
      </trkpt>
      <trkpt lat="40.4183560" lon="-3.7430030">
        <ele>611.1</ele>
        <time>2021-02-23T18:07:41Z</time>
      </trkpt>
      <trkpt lat="40.4183710" lon="-3.7429420">
        <ele>611.0</ele>
        <time>2021-02-23T18:07:42Z</time>
      </trkpt>
      <trkpt lat="40.4183830" lon="-3.7428870">
        <ele>611.0</ele>
        <time>2021-02-23T18:07:43Z</time>
      </trkpt>
      <trkpt lat="40.4183900" lon="-3.7428530">
        <ele>611.0</ele>
        <time>2021-02-23T18:07:44Z</time>
      </trkpt>
      <trkpt lat="40.4183960" lon="-3.7428250">
        <ele>610.9</ele>
        <time>2021-02-23T18:07:45Z</time>
      </trkpt>
      <trkpt lat="40.4184020" lon="-3.7427980">
        <ele>610.9</ele>
        <time>2021-02-23T18:07:46Z</time>
      </trkpt>
      <trkpt lat="40.4184160" lon="-3.7427370">
        <ele>610.9</ele>
        <time>2021-02-23T18:07:47Z</time>
      </trkpt>
      <trkpt lat="40.4184200" lon="-3.7427160">
        <ele>610.9</ele>
        <time>2021-02-23T18:07:48Z</time>
      </trkpt>
      <trkpt lat="40.4184330" lon="-3.7426490">
        <ele>610.8</ele>
        <time>2021-02-23T18:07:49Z</time>
      </trkpt>
      <trkpt lat="40.4184390" lon="-3.7426230">
        <ele>610.8</ele>
        <time>2021-02-23T18:07:50Z</time>
      </trkpt>
      <trkpt lat="40.4184440" lon="-3.7425960">
        <ele>610.8</ele>
        <time>2021-02-23T18:07:51Z</time>
      </trkpt>
      <trkpt lat="40.4184560" lon="-3.7425360">
        <ele>610.8</ele>
        <time>2021-02-23T18:07:52Z</time>
      </trkpt>
      <trkpt lat="40.4184590" lon="-3.7425160">
        <ele>610.7</ele>
        <time>2021-02-23T18:07:53Z</time>
      </trkpt>
      <trkpt lat="40.4184700" lon="-3.7424510">
        <ele>610.7</ele>
        <time>2021-02-23T18:07:54Z</time>
      </trkpt>
      <trkpt lat="40.4184740" lon="-3.7424240">
        <ele>610.7</ele>
        <time>2021-02-23T18:07:55Z</time>
      </trkpt>
      <trkpt lat="40.4184780" lon="-3.7423980">
        <ele>610.7</ele>
        <time>2021-02-23T18:07:56Z</time>
      </trkpt>
      <trkpt lat="40.4184870" lon="-3.7423330">
        <ele>610.6</ele>
        <time>2021-02-23T18:07:57Z</time>
      </trkpt>
      <trkpt lat="40.4184910" lon="-3.7423070">
        <ele>610.6</ele>
        <time>2021-02-23T18:07:58Z</time>
      </trkpt>
      <trkpt lat="40.4184940" lon="-3.7422810">
        <ele>610.6</ele>
        <time>2021-02-23T18:07:59Z</time>
      </trkpt>
      <trkpt lat="40.4185000" lon="-3.7422230">
        <ele>610.5</ele>
        <time>2021-02-23T18:08:00Z</time>
      </trkpt>
      <trkpt lat="40.4185020" lon="-3.7422030">
        <ele>610.5</ele>
        <time>2021-02-23T18:08:01Z</time>
      </trkpt>
      <trkpt lat="40.4185090" lon="-3.7421380">
        <ele>610.4</ele>
        <time>2021-02-23T18:08:02Z</time>
      </trkpt>
      <trkpt lat="40.4185110" lon="-3.7421110">
        <ele>610.4</ele>
        <time>2021-02-23T18:08:03Z</time>
      </trkpt>
      <trkpt lat="40.4185140" lon="-3.7420850">
        <ele>610.4</ele>
        <time>2021-02-23T18:08:04Z</time>
      </trkpt>
      <trkpt lat="40.4185200" lon="-3.7420250">
        <ele>610.3</ele>
        <time>2021-02-23T18:08:05Z</time>
      </trkpt>
      <trkpt lat="40.4185260" lon="-3.7419700">
        <ele>610.3</ele>
        <time>2021-02-23T18:08:06Z</time>
      </trkpt>
      <trkpt lat="40.4185290" lon="-3.7419360">
        <ele>610.2</ele>
        <time>2021-02-23T18:08:07Z</time>
      </trkpt>
      <trkpt lat="40.4185320" lon="-3.7419090">
        <ele>610.2</ele>
        <time>2021-02-23T18:08:08Z</time>
      </trkpt>
      <trkpt lat="40.4185350" lon="-3.7418810">
        <ele>610.2</ele>
        <time>2021-02-23T18:08:09Z</time>
      </trkpt>
      <trkpt lat="40.4185430" lon="-3.7418180">
        <ele>610.1</ele>
        <time>2021-02-23T18:08:10Z</time>
      </trkpt>
      <trkpt lat="40.4185490" lon="-3.7417620">
        <ele>610.1</ele>
        <time>2021-02-23T18:08:11Z</time>
      </trkpt>
      <trkpt lat="40.4185530" lon="-3.7417270">
        <ele>610.1</ele>
        <time>2021-02-23T18:08:12Z</time>
      </trkpt>
      <trkpt lat="40.4185560" lon="-3.7416980">
        <ele>610.0</ele>
        <time>2021-02-23T18:08:13Z</time>
      </trkpt>
      <trkpt lat="40.4185600" lon="-3.7416700">
        <ele>610.0</ele>
        <time>2021-02-23T18:08:14Z</time>
      </trkpt>
      <trkpt lat="40.4185680" lon="-3.7415980">
        <ele>609.9</ele>
        <time>2021-02-23T18:08:15Z</time>
      </trkpt>
      <trkpt lat="40.4185720" lon="-3.7415700">
        <ele>609.8</ele>
        <time>2021-02-23T18:08:16Z</time>
      </trkpt>
      <trkpt lat="40.4185750" lon="-3.7415410">
        <ele>609.8</ele>
        <time>2021-02-23T18:08:17Z</time>
      </trkpt>
      <trkpt lat="40.4185820" lon="-3.7414770">
        <ele>609.7</ele>
        <time>2021-02-23T18:08:18Z</time>
      </trkpt>
      <trkpt lat="40.4185880" lon="-3.7414190">
        <ele>609.6</ele>
        <time>2021-02-23T18:08:19Z</time>
      </trkpt>
      <trkpt lat="40.4185920" lon="-3.7413830">
        <ele>609.6</ele>
        <time>2021-02-23T18:08:20Z</time>
      </trkpt>
      <trkpt lat="40.4185960" lon="-3.7413540">
        <ele>609.5</ele>
        <time>2021-02-23T18:08:21Z</time>
      </trkpt>
      <trkpt lat="40.4185990" lon="-3.7413250">
        <ele>609.5</ele>
        <time>2021-02-23T18:08:22Z</time>
      </trkpt>
      <trkpt lat="40.4186070" lon="-3.7412610">
        <ele>609.4</ele>
        <time>2021-02-23T18:08:23Z</time>
      </trkpt>
      <trkpt lat="40.4186130" lon="-3.7412030">
        <ele>609.3</ele>
        <time>2021-02-23T18:08:24Z</time>
      </trkpt>
      <trkpt lat="40.4186170" lon="-3.7411660">
        <ele>609.2</ele>
        <time>2021-02-23T18:08:25Z</time>
      </trkpt>
      <trkpt lat="40.4186200" lon="-3.7411370">
        <ele>609.2</ele>
        <time>2021-02-23T18:08:26Z</time>
      </trkpt>
      <trkpt lat="40.4186230" lon="-3.7411080">
        <ele>609.1</ele>
        <time>2021-02-23T18:08:27Z</time>
      </trkpt>
      <trkpt lat="40.4186300" lon="-3.7410430">
        <ele>609.0</ele>
        <time>2021-02-23T18:08:28Z</time>
      </trkpt>
      <trkpt lat="40.4186360" lon="-3.7409850">
        <ele>608.9</ele>
        <time>2021-02-23T18:08:29Z</time>
      </trkpt>
      <trkpt lat="40.4186400" lon="-3.7409490">
        <ele>608.9</ele>
        <time>2021-02-23T18:08:30Z</time>
      </trkpt>
      <trkpt lat="40.4186420" lon="-3.7409200">
        <ele>608.8</ele>
        <time>2021-02-23T18:08:31Z</time>
      </trkpt>
      <trkpt lat="40.4186450" lon="-3.7408910">
        <ele>608.8</ele>
        <time>2021-02-23T18:08:32Z</time>
      </trkpt>
      <trkpt lat="40.4186510" lon="-3.7408180">
        <ele>608.7</ele>
        <time>2021-02-23T18:08:33Z</time>
      </trkpt>
      <trkpt lat="40.4186540" lon="-3.7407900">
        <ele>608.7</ele>
        <time>2021-02-23T18:08:34Z</time>
      </trkpt>
      <trkpt lat="40.4186560" lon="-3.7407610">
        <ele>608.6</ele>
        <time>2021-02-23T18:08:35Z</time>
      </trkpt>
      <trkpt lat="40.4186610" lon="-3.7406960">
        <ele>608.6</ele>
        <time>2021-02-23T18:08:36Z</time>
      </trkpt>
      <trkpt lat="40.4186640" lon="-3.7406380">
        <ele>608.5</ele>
        <time>2021-02-23T18:08:37Z</time>
      </trkpt>
      <trkpt lat="40.4186660" lon="-3.7406020">
        <ele>608.5</ele>
        <time>2021-02-23T18:08:38Z</time>
      </trkpt>
      <trkpt lat="40.4186680" lon="-3.7405730">
        <ele>608.5</ele>
        <time>2021-02-23T18:08:39Z</time>
      </trkpt>
      <trkpt lat="40.4186700" lon="-3.7405440">
        <ele>608.4</ele>
        <time>2021-02-23T18:08:40Z</time>
      </trkpt>
      <trkpt lat="40.4186740" lon="-3.7404800">
        <ele>608.4</ele>
        <time>2021-02-23T18:08:41Z</time>
      </trkpt>
      <trkpt lat="40.4186780" lon="-3.7404230">
        <ele>608.3</ele>
        <time>2021-02-23T18:08:42Z</time>
      </trkpt>
      <trkpt lat="40.4186800" lon="-3.7403870">
        <ele>608.3</ele>
        <time>2021-02-23T18:08:43Z</time>
      </trkpt>
      <trkpt lat="40.4186810" lon="-3.7403590">
        <ele>608.3</ele>
        <time>2021-02-23T18:08:44Z</time>
      </trkpt>
      <trkpt lat="40.4186830" lon="-3.7403300">
        <ele>608.2</ele>
        <time>2021-02-23T18:08:45Z</time>
      </trkpt>
      <trkpt lat="40.4186880" lon="-3.7402670">
        <ele>608.2</ele>
        <time>2021-02-23T18:08:46Z</time>
      </trkpt>
      <trkpt lat="40.4186930" lon="-3.7402100">
        <ele>608.1</ele>
        <time>2021-02-23T18:08:47Z</time>
      </trkpt>
      <trkpt lat="40.4186960" lon="-3.7401740">
        <ele>608.1</ele>
        <time>2021-02-23T18:08:48Z</time>
      </trkpt>
      <trkpt lat="40.4186980" lon="-3.7401460">
        <ele>608.1</ele>
        <time>2021-02-23T18:08:49Z</time>
      </trkpt>
      <trkpt lat="40.4187010" lon="-3.7401170">
        <ele>608.0</ele>
        <time>2021-02-23T18:08:50Z</time>
      </trkpt>
      <trkpt lat="40.4187080" lon="-3.7400470">
        <ele>608.0</ele>
        <time>2021-02-23T18:08:51Z</time>
      </trkpt>
      <trkpt lat="40.4187110" lon="-3.7400180">
        <ele>608.0</ele>
        <time>2021-02-23T18:08:52Z</time>
      </trkpt>
      <trkpt lat="40.4187140" lon="-3.7399900">
        <ele>607.9</ele>
        <time>2021-02-23T18:08:53Z</time>
      </trkpt>
      <trkpt lat="40.4187210" lon="-3.7399270">
        <ele>607.9</ele>
        <time>2021-02-23T18:08:54Z</time>
      </trkpt>
      <trkpt lat="40.4187270" lon="-3.7398700">
        <ele>607.8</ele>
        <time>2021-02-23T18:08:55Z</time>
      </trkpt>
      <trkpt lat="40.4187310" lon="-3.7398350">
        <ele>607.8</ele>
        <time>2021-02-23T18:08:56Z</time>
      </trkpt>
      <trkpt lat="40.4187350" lon="-3.7398070">
        <ele>607.8</ele>
        <time>2021-02-23T18:08:57Z</time>
      </trkpt>
      <trkpt lat="40.4187380" lon="-3.7397790">
        <ele>607.8</ele>
        <time>2021-02-23T18:08:58Z</time>
      </trkpt>
      <trkpt lat="40.4187460" lon="-3.7397160">
        <ele>607.8</ele>
        <time>2021-02-23T18:08:59Z</time>
      </trkpt>
      <trkpt lat="40.4187530" lon="-3.7396600">
        <ele>607.7</ele>
        <time>2021-02-23T18:09:00Z</time>
      </trkpt>
      <trkpt lat="40.4187570" lon="-3.7396250">
        <ele>607.7</ele>
        <time>2021-02-23T18:09:01Z</time>
      </trkpt>
      <trkpt lat="40.4187600" lon="-3.7395960">
        <ele>607.7</ele>
        <time>2021-02-23T18:09:02Z</time>
      </trkpt>
      <trkpt lat="40.4187640" lon="-3.7395680">
        <ele>607.7</ele>
        <time>2021-02-23T18:09:03Z</time>
      </trkpt>
      <trkpt lat="40.4187720" lon="-3.7395040">
        <ele>607.7</ele>
        <time>2021-02-23T18:09:04Z</time>
      </trkpt>
      <trkpt lat="40.4187780" lon="-3.7394470">
        <ele>607.7</ele>
        <time>2021-02-23T18:09:05Z</time>
      </trkpt>
      <trkpt lat="40.4187820" lon="-3.7394110">
        <ele>607.7</ele>
        <time>2021-02-23T18:09:06Z</time>
      </trkpt>
      <trkpt lat="40.4187860" lon="-3.7393820">
        <ele>607.7</ele>
        <time>2021-02-23T18:09:07Z</time>
      </trkpt>
      <trkpt lat="40.4187890" lon="-3.7393530">
        <ele>607.7</ele>
        <time>2021-02-23T18:09:08Z</time>
      </trkpt>
      <trkpt lat="40.4187970" lon="-3.7392800">
        <ele>607.6</ele>
        <time>2021-02-23T18:09:09Z</time>
      </trkpt>
      <trkpt lat="40.4188010" lon="-3.7392500">
        <ele>607.6</ele>
        <time>2021-02-23T18:09:10Z</time>
      </trkpt>
      <trkpt lat="40.4188040" lon="-3.7392210">
        <ele>607.6</ele>
        <time>2021-02-23T18:09:11Z</time>
      </trkpt>
      <trkpt lat="40.4188120" lon="-3.7391550">
        <ele>607.6</ele>
        <time>2021-02-23T18:09:12Z</time>
      </trkpt>
      <trkpt lat="40.4188190" lon="-3.7390970">
        <ele>607.6</ele>
        <time>2021-02-23T18:09:13Z</time>
      </trkpt>
      <trkpt lat="40.4188230" lon="-3.7390600">
        <ele>607.6</ele>
        <time>2021-02-23T18:09:14Z</time>
      </trkpt>
      <trkpt lat="40.4188270" lon="-3.7390300">
        <ele>607.6</ele>
        <time>2021-02-23T18:09:15Z</time>
      </trkpt>
      <trkpt lat="40.4188300" lon="-3.7390010">
        <ele>607.6</ele>
        <time>2021-02-23T18:09:16Z</time>
      </trkpt>
      <trkpt lat="40.4188380" lon="-3.7389360">
        <ele>607.5</ele>
        <time>2021-02-23T18:09:17Z</time>
      </trkpt>
      <trkpt lat="40.4188450" lon="-3.7388780">
        <ele>607.5</ele>
        <time>2021-02-23T18:09:18Z</time>
      </trkpt>
      <trkpt lat="40.4188490" lon="-3.7388420">
        <ele>607.5</ele>
        <time>2021-02-23T18:09:19Z</time>
      </trkpt>
      <trkpt lat="40.4188530" lon="-3.7388140">
        <ele>607.5</ele>
        <time>2021-02-23T18:09:20Z</time>
      </trkpt>
      <trkpt lat="40.4188560" lon="-3.7387850">
        <ele>607.5</ele>
        <time>2021-02-23T18:09:21Z</time>
      </trkpt>
      <trkpt lat="40.4188640" lon="-3.7387210">
        <ele>607.5</ele>
        <time>2021-02-23T18:09:22Z</time>
      </trkpt>
      <trkpt lat="40.4188700" lon="-3.7386650">
        <ele>607.4</ele>
        <time>2021-02-23T18:09:23Z</time>
      </trkpt>
      <trkpt lat="40.4188740" lon="-3.7386300">
        <ele>607.4</ele>
        <time>2021-02-23T18:09:24Z</time>
      </trkpt>
      <trkpt lat="40.4188770" lon="-3.7386030">
        <ele>607.4</ele>
        <time>2021-02-23T18:09:25Z</time>
      </trkpt>
      <trkpt lat="40.4188800" lon="-3.7385750">
        <ele>607.4</ele>
        <time>2021-02-23T18:09:26Z</time>
      </trkpt>
      <trkpt lat="40.4188880" lon="-3.7385070">
        <ele>607.4</ele>
        <time>2021-02-23T18:09:27Z</time>
      </trkpt>
      <trkpt lat="40.4188900" lon="-3.7384790">
        <ele>607.3</ele>
        <time>2021-02-23T18:09:28Z</time>
      </trkpt>
      <trkpt lat="40.4188930" lon="-3.7384520">
        <ele>607.3</ele>
        <time>2021-02-23T18:09:29Z</time>
      </trkpt>
      <trkpt lat="40.4188990" lon="-3.7383910">
        <ele>607.3</ele>
        <time>2021-02-23T18:09:30Z</time>
      </trkpt>
      <trkpt lat="40.4189040" lon="-3.7383360">
        <ele>607.3</ele>
        <time>2021-02-23T18:09:31Z</time>
      </trkpt>
      <trkpt lat="40.4189070" lon="-3.7383020">
        <ele>607.2</ele>
        <time>2021-02-23T18:09:32Z</time>
      </trkpt>
      <trkpt lat="40.4189100" lon="-3.7382740">
        <ele>607.2</ele>
        <time>2021-02-23T18:09:33Z</time>
      </trkpt>
      <trkpt lat="40.4189120" lon="-3.7382470">
        <ele>607.2</ele>
        <time>2021-02-23T18:09:34Z</time>
      </trkpt>
      <trkpt lat="40.4189170" lon="-3.7381850">
        <ele>607.2</ele>
        <time>2021-02-23T18:09:35Z</time>
      </trkpt>
      <trkpt lat="40.4189210" lon="-3.7381300">
        <ele>607.1</ele>
        <time>2021-02-23T18:09:36Z</time>
      </trkpt>
      <trkpt lat="40.4189240" lon="-3.7380950">
        <ele>607.1</ele>
        <time>2021-02-23T18:09:37Z</time>
      </trkpt>
      <trkpt lat="40.4189260" lon="-3.7380670">
        <ele>607.1</ele>
        <time>2021-02-23T18:09:38Z</time>
      </trkpt>
      <trkpt lat="40.4189280" lon="-3.7380400">
        <ele>607.0</ele>
        <time>2021-02-23T18:09:39Z</time>
      </trkpt>
      <trkpt lat="40.4189320" lon="-3.7379770">
        <ele>607.0</ele>
        <time>2021-02-23T18:09:40Z</time>
      </trkpt>
      <trkpt lat="40.4189350" lon="-3.7379210">
        <ele>607.0</ele>
        <time>2021-02-23T18:09:41Z</time>
      </trkpt>
      <trkpt lat="40.4189360" lon="-3.7378860">
        <ele>606.9</ele>
        <time>2021-02-23T18:09:42Z</time>
      </trkpt>
      <trkpt lat="40.4189380" lon="-3.7378570">
        <ele>606.9</ele>
        <time>2021-02-23T18:09:43Z</time>
      </trkpt>
      <trkpt lat="40.4189390" lon="-3.7378290">
        <ele>606.9</ele>
        <time>2021-02-23T18:09:44Z</time>
      </trkpt>
      <trkpt lat="40.4189410" lon="-3.7377570">
        <ele>606.9</ele>
        <time>2021-02-23T18:09:45Z</time>
      </trkpt>
      <trkpt lat="40.4189410" lon="-3.7377270">
        <ele>606.8</ele>
        <time>2021-02-23T18:09:46Z</time>
      </trkpt>
      <trkpt lat="40.4189420" lon="-3.7376980">
        <ele>606.8</ele>
        <time>2021-02-23T18:09:47Z</time>
      </trkpt>
      <trkpt lat="40.4189430" lon="-3.7376320">
        <ele>606.8</ele>
        <time>2021-02-23T18:09:48Z</time>
      </trkpt>
      <trkpt lat="40.4189440" lon="-3.7375710">
        <ele>606.8</ele>
        <time>2021-02-23T18:09:49Z</time>
      </trkpt>
      <trkpt lat="40.4189440" lon="-3.7375320">
        <ele>606.7</ele>
        <time>2021-02-23T18:09:50Z</time>
      </trkpt>
      <trkpt lat="40.4189450" lon="-3.7375000">
        <ele>606.7</ele>
        <time>2021-02-23T18:09:51Z</time>
      </trkpt>
      <trkpt lat="40.4189450" lon="-3.7374690">
        <ele>606.7</ele>
        <time>2021-02-23T18:09:52Z</time>
      </trkpt>
      <trkpt lat="40.4189460" lon="-3.7373980">
        <ele>606.7</ele>
        <time>2021-02-23T18:09:53Z</time>
      </trkpt>
      <trkpt lat="40.4189460" lon="-3.7373740">
        <ele>606.7</ele>
        <time>2021-02-23T18:09:54Z</time>
      </trkpt>
      <trkpt lat="40.4189480" lon="-3.7372940">
        <ele>606.6</ele>
        <time>2021-02-23T18:09:55Z</time>
      </trkpt>
      <trkpt lat="40.4189500" lon="-3.7372610">
        <ele>606.6</ele>
        <time>2021-02-23T18:09:56Z</time>
      </trkpt>
      <trkpt lat="40.4189510" lon="-3.7372290">
        <ele>606.6</ele>
        <time>2021-02-23T18:09:57Z</time>
      </trkpt>
      <trkpt lat="40.4189540" lon="-3.7371560">
        <ele>606.6</ele>
        <time>2021-02-23T18:09:58Z</time>
      </trkpt>
      <trkpt lat="40.4189550" lon="-3.7371320">
        <ele>606.6</ele>
        <time>2021-02-23T18:09:59Z</time>
      </trkpt>
      <trkpt lat="40.4189590" lon="-3.7370530">
        <ele>606.5</ele>
        <time>2021-02-23T18:10:00Z</time>
      </trkpt>
      <trkpt lat="40.4189610" lon="-3.7370220">
        <ele>606.5</ele>
        <time>2021-02-23T18:10:01Z</time>
      </trkpt>
      <trkpt lat="40.4189630" lon="-3.7369900">
        <ele>606.5</ele>
        <time>2021-02-23T18:10:02Z</time>
      </trkpt>
      <trkpt lat="40.4189690" lon="-3.7369140">
        <ele>606.5</ele>
        <time>2021-02-23T18:10:03Z</time>
      </trkpt>
      <trkpt lat="40.4189710" lon="-3.7368830">
        <ele>606.5</ele>
        <time>2021-02-23T18:10:04Z</time>
      </trkpt>
      <trkpt lat="40.4189730" lon="-3.7368530">
        <ele>606.5</ele>
        <time>2021-02-23T18:10:05Z</time>
      </trkpt>
      <trkpt lat="40.4189790" lon="-3.7367870">
        <ele>606.4</ele>
        <time>2021-02-23T18:10:06Z</time>
      </trkpt>
      <trkpt lat="40.4189830" lon="-3.7367290">
        <ele>606.4</ele>
        <time>2021-02-23T18:10:07Z</time>
      </trkpt>
      <trkpt lat="40.4189850" lon="-3.7366930">
        <ele>606.4</ele>
        <time>2021-02-23T18:10:08Z</time>
      </trkpt>
      <trkpt lat="40.4189860" lon="-3.7366660">
        <ele>606.4</ele>
        <time>2021-02-23T18:10:09Z</time>
      </trkpt>
      <trkpt lat="40.4189880" lon="-3.7366380">
        <ele>606.4</ele>
        <time>2021-02-23T18:10:10Z</time>
      </trkpt>
      <trkpt lat="40.4189920" lon="-3.7365780">
        <ele>606.3</ele>
        <time>2021-02-23T18:10:11Z</time>
      </trkpt>
      <trkpt lat="40.4189930" lon="-3.7365580">
        <ele>606.3</ele>
        <time>2021-02-23T18:10:12Z</time>
      </trkpt>
      <trkpt lat="40.4189960" lon="-3.7364950">
        <ele>606.2</ele>
        <time>2021-02-23T18:10:13Z</time>
      </trkpt>
      <trkpt lat="40.4189980" lon="-3.7364700">
        <ele>606.2</ele>
        <time>2021-02-23T18:10:14Z</time>
      </trkpt>
      <trkpt lat="40.4189990" lon="-3.7364450">
        <ele>606.2</ele>
        <time>2021-02-23T18:10:15Z</time>
      </trkpt>
      <trkpt lat="40.4190010" lon="-3.7363910">
        <ele>606.1</ele>
        <time>2021-02-23T18:10:16Z</time>
      </trkpt>
      <trkpt lat="40.4190020" lon="-3.7363730">
        <ele>606.1</ele>
        <time>2021-02-23T18:10:17Z</time>
      </trkpt>
      <trkpt lat="40.4190040" lon="-3.7363150">
        <ele>606.0</ele>
        <time>2021-02-23T18:10:18Z</time>
      </trkpt>
      <trkpt lat="40.4190050" lon="-3.7362920">
        <ele>606.0</ele>
        <time>2021-02-23T18:10:19Z</time>
      </trkpt>
      <trkpt lat="40.4190060" lon="-3.7362690">
        <ele>606.0</ele>
        <time>2021-02-23T18:10:20Z</time>
      </trkpt>
      <trkpt lat="40.4190080" lon="-3.7362140">
        <ele>605.9</ele>
        <time>2021-02-23T18:10:21Z</time>
      </trkpt>
      <trkpt lat="40.4190090" lon="-3.7361920">
        <ele>605.8</ele>
        <time>2021-02-23T18:10:22Z</time>
      </trkpt>
      <trkpt lat="40.4190100" lon="-3.7361700">
        <ele>605.8</ele>
        <time>2021-02-23T18:10:23Z</time>
      </trkpt>
      <trkpt lat="40.4190120" lon="-3.7361210">
        <ele>605.7</ele>
        <time>2021-02-23T18:10:24Z</time>
      </trkpt>
      <trkpt lat="40.4190130" lon="-3.7361040">
        <ele>605.7</ele>
        <time>2021-02-23T18:10:25Z</time>
      </trkpt>
      <trkpt lat="40.4190170" lon="-3.7360510">
        <ele>605.6</ele>
        <time>2021-02-23T18:10:26Z</time>
      </trkpt>
      <trkpt lat="40.4190180" lon="-3.7360300">
        <ele>605.6</ele>
        <time>2021-02-23T18:10:27Z</time>
      </trkpt>
      <trkpt lat="40.4190200" lon="-3.7360090">
        <ele>605.6</ele>
        <time>2021-02-23T18:10:28Z</time>
      </trkpt>
      <trkpt lat="40.4190250" lon="-3.7359610">
        <ele>605.5</ele>
        <time>2021-02-23T18:10:29Z</time>
      </trkpt>
      <trkpt lat="40.4190260" lon="-3.7359450">
        <ele>605.5</ele>
        <time>2021-02-23T18:10:30Z</time>
      </trkpt>
      <trkpt lat="40.4190320" lon="-3.7358930">
        <ele>605.4</ele>
        <time>2021-02-23T18:10:31Z</time>
      </trkpt>
      <trkpt lat="40.4190340" lon="-3.7358720">
        <ele>605.4</ele>
        <time>2021-02-23T18:10:32Z</time>
      </trkpt>
      <trkpt lat="40.4190370" lon="-3.7358510">
        <ele>605.3</ele>
        <time>2021-02-23T18:10:33Z</time>
      </trkpt>
      <trkpt lat="40.4190430" lon="-3.7358040">
        <ele>605.3</ele>
        <time>2021-02-23T18:10:34Z</time>
      </trkpt>
      <trkpt lat="40.4190450" lon="-3.7357880">
        <ele>605.2</ele>
        <time>2021-02-23T18:10:35Z</time>
      </trkpt>
      <trkpt lat="40.4190520" lon="-3.7357360">
        <ele>605.2</ele>
        <time>2021-02-23T18:10:36Z</time>
      </trkpt>
      <trkpt lat="40.4190560" lon="-3.7357160">
        <ele>605.1</ele>
        <time>2021-02-23T18:10:37Z</time>
      </trkpt>
      <trkpt lat="40.4190590" lon="-3.7356950">
        <ele>605.1</ele>
        <time>2021-02-23T18:10:38Z</time>
      </trkpt>
      <trkpt lat="40.4190660" lon="-3.7356430">
        <ele>605.1</ele>
        <time>2021-02-23T18:10:39Z</time>
      </trkpt>
      <trkpt lat="40.4190700" lon="-3.7356220">
        <ele>605.0</ele>
        <time>2021-02-23T18:10:40Z</time>
      </trkpt>
      <trkpt lat="40.4190730" lon="-3.7356020">
        <ele>605.0</ele>
        <time>2021-02-23T18:10:41Z</time>
      </trkpt>
      <trkpt lat="40.4190810" lon="-3.7355560">
        <ele>605.0</ele>
        <time>2021-02-23T18:10:42Z</time>
      </trkpt>
      <trkpt lat="40.4190830" lon="-3.7355400">
        <ele>605.0</ele>
        <time>2021-02-23T18:10:43Z</time>
      </trkpt>
      <trkpt lat="40.4190910" lon="-3.7354890">
        <ele>604.9</ele>
        <time>2021-02-23T18:10:44Z</time>
      </trkpt>
      <trkpt lat="40.4190930" lon="-3.7354690">
        <ele>604.9</ele>
        <time>2021-02-23T18:10:45Z</time>
      </trkpt>
      <trkpt lat="40.4190960" lon="-3.7354490">
        <ele>604.9</ele>
        <time>2021-02-23T18:10:46Z</time>
      </trkpt>
      <trkpt lat="40.4191020" lon="-3.7354040">
        <ele>604.9</ele>
        <time>2021-02-23T18:10:47Z</time>
      </trkpt>
      <trkpt lat="40.4191040" lon="-3.7353890">
        <ele>604.9</ele>
        <time>2021-02-23T18:10:48Z</time>
      </trkpt>
      <trkpt lat="40.4191090" lon="-3.7353410">
        <ele>604.8</ele>
        <time>2021-02-23T18:10:49Z</time>
      </trkpt>
      <trkpt lat="40.4191100" lon="-3.7353220">
        <ele>604.8</ele>
        <time>2021-02-23T18:10:50Z</time>
      </trkpt>
      <trkpt lat="40.4191120" lon="-3.7353030">
        <ele>604.8</ele>
        <time>2021-02-23T18:10:51Z</time>
      </trkpt>
      <trkpt lat="40.4191140" lon="-3.7352610">
        <ele>604.8</ele>
        <time>2021-02-23T18:10:52Z</time>
      </trkpt>
      <trkpt lat="40.4191140" lon="-3.7352470">
        <ele>604.8</ele>
        <time>2021-02-23T18:10:53Z</time>
      </trkpt>
      <trkpt lat="40.4191140" lon="-3.7352020">
        <ele>604.8</ele>
        <time>2021-02-23T18:10:54Z</time>
      </trkpt>
      <trkpt lat="40.4191130" lon="-3.7351850">
        <ele>604.8</ele>
        <time>2021-02-23T18:10:55Z</time>
      </trkpt>
      <trkpt lat="40.4191130" lon="-3.7351670">
        <ele>604.7</ele>
        <time>2021-02-23T18:10:56Z</time>
      </trkpt>
      <trkpt lat="40.4191110" lon="-3.7351250">
        <ele>604.7</ele>
        <time>2021-02-23T18:10:57Z</time>
      </trkpt>
      <trkpt lat="40.4191100" lon="-3.7351080">
        <ele>604.7</ele>
        <time>2021-02-23T18:10:58Z</time>
      </trkpt>
      <trkpt lat="40.4191090" lon="-3.7350910">
        <ele>604.7</ele>
        <time>2021-02-23T18:10:59Z</time>
      </trkpt>
      <trkpt lat="40.4191070" lon="-3.7350660">
        <ele>604.7</ele>
        <time>2021-02-23T18:11:00Z</time>
      </trkpt>
      <trkpt lat="40.4191050" lon="-3.7350410">
        <ele>604.7</ele>
        <time>2021-02-23T18:11:01Z</time>
      </trkpt>
    </trkseg>
  </trk>
</gpx>
